<?xml version="1.0" encoding="UTF-8" standalone="no" ?>
<gpx xmlns="http://www.topografix.com/GPX/1/1" xmlns:xsi="http://www.w3.org/2001/XMLSchema-instance" xsi:schemaLocation="http://www.topografix.com/GPX/1/1 http://www.topografix.com/GPX/1/1/gpx.xsd" version="1.1" creator="VisuGPX - https://www.visugpx.com">
  <metadata>
    <name>Course à pied dans l'après-midi</name>
  </metadata>
  <trk>
    <name><![CDATA[Course à pied dans l'après-midi_1]]></name>
    <trkseg>
      <trkpt lat="44.82118" lon="-0.58041">
        <ele>18</ele>
        <time>2024-08-03T14:44:55Z</time>
      </trkpt>
      <trkpt lat="44.82119" lon="-0.58041">
        <ele>18</ele>
        <time>2024-08-03T14:44:56Z</time>
      </trkpt>
      <trkpt lat="44.8212" lon="-0.58041">
        <ele>18</ele>
        <time>2024-08-03T14:44:57Z</time>
      </trkpt>
      <trkpt lat="44.82121" lon="-0.58041">
        <ele>18</ele>
        <time>2024-08-03T14:44:58Z</time>
      </trkpt>
      <trkpt lat="44.82122" lon="-0.58042">
        <ele>18</ele>
        <time>2024-08-03T14:44:59Z</time>
      </trkpt>
      <trkpt lat="44.82124" lon="-0.58043">
        <ele>18</ele>
        <time>2024-08-03T14:45:01Z</time>
      </trkpt>
      <trkpt lat="44.82125" lon="-0.58043">
        <ele>18</ele>
        <time>2024-08-03T14:45:02Z</time>
      </trkpt>
      <trkpt lat="44.82126" lon="-0.58042">
        <ele>18</ele>
        <time>2024-08-03T14:45:03Z</time>
      </trkpt>
      <trkpt lat="44.82127" lon="-0.58042">
        <ele>18</ele>
        <time>2024-08-03T14:45:04Z</time>
      </trkpt>
      <trkpt lat="44.82128" lon="-0.58042">
        <ele>18</ele>
        <time>2024-08-03T14:45:05Z</time>
      </trkpt>
      <trkpt lat="44.82129" lon="-0.58043">
        <ele>18</ele>
        <time>2024-08-03T14:45:06Z</time>
      </trkpt>
      <trkpt lat="44.8213" lon="-0.58044">
        <ele>18</ele>
        <time>2024-08-03T14:45:07Z</time>
      </trkpt>
      <trkpt lat="44.82132" lon="-0.58045">
        <ele>18</ele>
        <time>2024-08-03T14:45:08Z</time>
      </trkpt>
      <trkpt lat="44.82133" lon="-0.58046">
        <ele>18</ele>
        <time>2024-08-03T14:45:09Z</time>
      </trkpt>
      <trkpt lat="44.82136" lon="-0.58046">
        <ele>18</ele>
        <time>2024-08-03T14:45:11Z</time>
      </trkpt>
      <trkpt lat="44.82138" lon="-0.58045">
        <ele>18</ele>
        <time>2024-08-03T14:45:12Z</time>
      </trkpt>
      <trkpt lat="44.8214" lon="-0.58045">
        <ele>18</ele>
        <time>2024-08-03T14:45:13Z</time>
      </trkpt>
      <trkpt lat="44.82141" lon="-0.58045">
        <ele>18</ele>
        <time>2024-08-03T14:45:14Z</time>
      </trkpt>
      <trkpt lat="44.82143" lon="-0.58045">
        <ele>18</ele>
        <time>2024-08-03T14:45:15Z</time>
      </trkpt>
      <trkpt lat="44.82147" lon="-0.58046">
        <ele>18</ele>
        <time>2024-08-03T14:45:17Z</time>
      </trkpt>
      <trkpt lat="44.82149" lon="-0.58046">
        <ele>18</ele>
        <time>2024-08-03T14:45:18Z</time>
      </trkpt>
      <trkpt lat="44.82152" lon="-0.58046">
        <ele>18</ele>
        <time>2024-08-03T14:45:19Z</time>
      </trkpt>
      <trkpt lat="44.82153" lon="-0.58046">
        <ele>18</ele>
        <time>2024-08-03T14:45:21Z</time>
      </trkpt>
      <trkpt lat="44.82155" lon="-0.58046">
        <ele>18</ele>
        <time>2024-08-03T14:45:23Z</time>
      </trkpt>
      <trkpt lat="44.82156" lon="-0.58045">
        <ele>18</ele>
        <time>2024-08-03T14:45:24Z</time>
      </trkpt>
      <trkpt lat="44.82158" lon="-0.58045">
        <ele>18</ele>
        <time>2024-08-03T14:45:25Z</time>
      </trkpt>
      <trkpt lat="44.82159" lon="-0.58045">
        <ele>18</ele>
        <time>2024-08-03T14:45:26Z</time>
      </trkpt>
      <trkpt lat="44.8216" lon="-0.58045">
        <ele>18</ele>
        <time>2024-08-03T14:45:27Z</time>
      </trkpt>
      <trkpt lat="44.82163" lon="-0.58046">
        <ele>18</ele>
        <time>2024-08-03T14:45:28Z</time>
      </trkpt>
      <trkpt lat="44.82166" lon="-0.58046">
        <ele>18</ele>
        <time>2024-08-03T14:45:29Z</time>
      </trkpt>
      <trkpt lat="44.8217" lon="-0.58047">
        <ele>17.9</ele>
        <time>2024-08-03T14:45:30Z</time>
      </trkpt>
      <trkpt lat="44.82173" lon="-0.58047">
        <ele>17.9</ele>
        <time>2024-08-03T14:45:31Z</time>
      </trkpt>
      <trkpt lat="44.82176" lon="-0.58048">
        <ele>17.9</ele>
        <time>2024-08-03T14:45:32Z</time>
      </trkpt>
      <trkpt lat="44.82179" lon="-0.58049">
        <ele>17.9</ele>
        <time>2024-08-03T14:45:33Z</time>
      </trkpt>
      <trkpt lat="44.82182" lon="-0.58051">
        <ele>17.9</ele>
        <time>2024-08-03T14:45:34Z</time>
      </trkpt>
      <trkpt lat="44.82185" lon="-0.58052">
        <ele>17.8</ele>
        <time>2024-08-03T14:45:35Z</time>
      </trkpt>
      <trkpt lat="44.82187" lon="-0.58052">
        <ele>17.8</ele>
        <time>2024-08-03T14:45:36Z</time>
      </trkpt>
      <trkpt lat="44.8219" lon="-0.58053">
        <ele>17.8</ele>
        <time>2024-08-03T14:45:37Z</time>
      </trkpt>
      <trkpt lat="44.82193" lon="-0.58054">
        <ele>17.8</ele>
        <time>2024-08-03T14:45:38Z</time>
      </trkpt>
      <trkpt lat="44.82193" lon="-0.58054">
        <ele>17.8</ele>
        <time>2024-08-03T14:45:39Z</time>
      </trkpt>
      <trkpt lat="44.82198" lon="-0.58052">
        <ele>17.7</ele>
        <time>2024-08-03T14:45:40Z</time>
      </trkpt>
      <trkpt lat="44.82201" lon="-0.58051">
        <ele>17.7</ele>
        <time>2024-08-03T14:45:41Z</time>
      </trkpt>
      <trkpt lat="44.82204" lon="-0.58051">
        <ele>17.7</ele>
        <time>2024-08-03T14:45:42Z</time>
      </trkpt>
      <trkpt lat="44.82208" lon="-0.58051">
        <ele>17.7</ele>
        <time>2024-08-03T14:45:43Z</time>
      </trkpt>
      <trkpt lat="44.82208" lon="-0.58052">
        <ele>17.7</ele>
        <time>2024-08-03T14:45:44Z</time>
      </trkpt>
      <trkpt lat="44.82208" lon="-0.58052">
        <ele>17.7</ele>
        <time>2024-08-03T14:45:45Z</time>
      </trkpt>
      <trkpt lat="44.82211" lon="-0.58055">
        <ele>17.6</ele>
        <time>2024-08-03T14:45:46Z</time>
      </trkpt>
      <trkpt lat="44.82215" lon="-0.58057">
        <ele>17.6</ele>
        <time>2024-08-03T14:45:47Z</time>
      </trkpt>
      <trkpt lat="44.82216" lon="-0.58058">
        <ele>17.6</ele>
        <time>2024-08-03T14:45:48Z</time>
      </trkpt>
      <trkpt lat="44.8222" lon="-0.5806">
        <ele>17.6</ele>
        <time>2024-08-03T14:45:49Z</time>
      </trkpt>
      <trkpt lat="44.82223" lon="-0.58061">
        <ele>17.6</ele>
        <time>2024-08-03T14:45:50Z</time>
      </trkpt>
      <trkpt lat="44.82226" lon="-0.58063">
        <ele>17.6</ele>
        <time>2024-08-03T14:45:51Z</time>
      </trkpt>
      <trkpt lat="44.82228" lon="-0.58063">
        <ele>17.6</ele>
        <time>2024-08-03T14:45:52Z</time>
      </trkpt>
      <trkpt lat="44.82231" lon="-0.58064">
        <ele>17.5</ele>
        <time>2024-08-03T14:45:53Z</time>
      </trkpt>
      <trkpt lat="44.82234" lon="-0.58065">
        <ele>17.5</ele>
        <time>2024-08-03T14:45:54Z</time>
      </trkpt>
      <trkpt lat="44.82236" lon="-0.58065">
        <ele>17.5</ele>
        <time>2024-08-03T14:45:55Z</time>
      </trkpt>
      <trkpt lat="44.82242" lon="-0.58068">
        <ele>17.5</ele>
        <time>2024-08-03T14:45:57Z</time>
      </trkpt>
      <trkpt lat="44.82246" lon="-0.5807">
        <ele>17.5</ele>
        <time>2024-08-03T14:45:58Z</time>
      </trkpt>
      <trkpt lat="44.8225" lon="-0.58071">
        <ele>17.6</ele>
        <time>2024-08-03T14:45:59Z</time>
      </trkpt>
      <trkpt lat="44.82253" lon="-0.58072">
        <ele>17.6</ele>
        <time>2024-08-03T14:46:00Z</time>
      </trkpt>
      <trkpt lat="44.82255" lon="-0.58072">
        <ele>17.6</ele>
        <time>2024-08-03T14:46:01Z</time>
      </trkpt>
      <trkpt lat="44.82259" lon="-0.58072">
        <ele>17.7</ele>
        <time>2024-08-03T14:46:03Z</time>
      </trkpt>
      <trkpt lat="44.82262" lon="-0.58071">
        <ele>17.7</ele>
        <time>2024-08-03T14:46:04Z</time>
      </trkpt>
      <trkpt lat="44.82265" lon="-0.58071">
        <ele>17.8</ele>
        <time>2024-08-03T14:46:05Z</time>
      </trkpt>
      <trkpt lat="44.82268" lon="-0.58068">
        <ele>17.8</ele>
        <time>2024-08-03T14:46:06Z</time>
      </trkpt>
      <trkpt lat="44.8227" lon="-0.58064">
        <ele>17.7</ele>
        <time>2024-08-03T14:46:07Z</time>
      </trkpt>
      <trkpt lat="44.82271" lon="-0.5806">
        <ele>17.7</ele>
        <time>2024-08-03T14:46:08Z</time>
      </trkpt>
      <trkpt lat="44.82271" lon="-0.58055">
        <ele>17.7</ele>
        <time>2024-08-03T14:46:09Z</time>
      </trkpt>
      <trkpt lat="44.82271" lon="-0.58053">
        <ele>17.6</ele>
        <time>2024-08-03T14:46:10Z</time>
      </trkpt>
      <trkpt lat="44.82272" lon="-0.5805">
        <ele>17.6</ele>
        <time>2024-08-03T14:46:11Z</time>
      </trkpt>
      <trkpt lat="44.82273" lon="-0.58049">
        <ele>17.6</ele>
        <time>2024-08-03T14:46:12Z</time>
      </trkpt>
      <trkpt lat="44.82273" lon="-0.58049">
        <ele>17.6</ele>
        <time>2024-08-03T14:46:13Z</time>
      </trkpt>
      <trkpt lat="44.82275" lon="-0.58046">
        <ele>17.6</ele>
        <time>2024-08-03T14:46:14Z</time>
      </trkpt>
      <trkpt lat="44.82278" lon="-0.58043">
        <ele>17.5</ele>
        <time>2024-08-03T14:46:15Z</time>
      </trkpt>
      <trkpt lat="44.82279" lon="-0.58042">
        <ele>17.5</ele>
        <time>2024-08-03T14:46:16Z</time>
      </trkpt>
      <trkpt lat="44.82279" lon="-0.58037">
        <ele>17.5</ele>
        <time>2024-08-03T14:46:17Z</time>
      </trkpt>
      <trkpt lat="44.82279" lon="-0.58035">
        <ele>17.5</ele>
        <time>2024-08-03T14:46:18Z</time>
      </trkpt>
      <trkpt lat="44.82279" lon="-0.58032">
        <ele>17.5</ele>
        <time>2024-08-03T14:46:19Z</time>
      </trkpt>
      <trkpt lat="44.82279" lon="-0.58029">
        <ele>17.4</ele>
        <time>2024-08-03T14:46:20Z</time>
      </trkpt>
      <trkpt lat="44.8228" lon="-0.58025">
        <ele>17.4</ele>
        <time>2024-08-03T14:46:21Z</time>
      </trkpt>
      <trkpt lat="44.8228" lon="-0.58024">
        <ele>17.4</ele>
        <time>2024-08-03T14:46:22Z</time>
      </trkpt>
      <trkpt lat="44.82281" lon="-0.58022">
        <ele>17.4</ele>
        <time>2024-08-03T14:46:23Z</time>
      </trkpt>
      <trkpt lat="44.82281" lon="-0.5802">
        <ele>17.4</ele>
        <time>2024-08-03T14:46:25Z</time>
      </trkpt>
      <trkpt lat="44.82284" lon="-0.58017">
        <ele>17.3</ele>
        <time>2024-08-03T14:46:26Z</time>
      </trkpt>
      <trkpt lat="44.82286" lon="-0.58013">
        <ele>17.3</ele>
        <time>2024-08-03T14:46:27Z</time>
      </trkpt>
      <trkpt lat="44.82286" lon="-0.58012">
        <ele>17.3</ele>
        <time>2024-08-03T14:46:28Z</time>
      </trkpt>
      <trkpt lat="44.82288" lon="-0.58009">
        <ele>17.3</ele>
        <time>2024-08-03T14:46:29Z</time>
      </trkpt>
      <trkpt lat="44.82289" lon="-0.58009">
        <ele>17.3</ele>
        <time>2024-08-03T14:46:30Z</time>
      </trkpt>
      <trkpt lat="44.8229" lon="-0.58007">
        <ele>17.3</ele>
        <time>2024-08-03T14:46:31Z</time>
      </trkpt>
      <trkpt lat="44.82292" lon="-0.58005">
        <ele>17.2</ele>
        <time>2024-08-03T14:46:32Z</time>
      </trkpt>
      <trkpt lat="44.82294" lon="-0.58002">
        <ele>17.2</ele>
        <time>2024-08-03T14:46:33Z</time>
      </trkpt>
      <trkpt lat="44.82296" lon="-0.57999">
        <ele>17.2</ele>
        <time>2024-08-03T14:46:34Z</time>
      </trkpt>
      <trkpt lat="44.82299" lon="-0.57997">
        <ele>17.2</ele>
        <time>2024-08-03T14:46:35Z</time>
      </trkpt>
      <trkpt lat="44.82302" lon="-0.57996">
        <ele>17.2</ele>
        <time>2024-08-03T14:46:36Z</time>
      </trkpt>
      <trkpt lat="44.82305" lon="-0.57994">
        <ele>17.1</ele>
        <time>2024-08-03T14:46:37Z</time>
      </trkpt>
      <trkpt lat="44.82308" lon="-0.57993">
        <ele>17.1</ele>
        <time>2024-08-03T14:46:38Z</time>
      </trkpt>
      <trkpt lat="44.82312" lon="-0.57992">
        <ele>17.1</ele>
        <time>2024-08-03T14:46:39Z</time>
      </trkpt>
      <trkpt lat="44.82314" lon="-0.57993">
        <ele>17.1</ele>
        <time>2024-08-03T14:46:40Z</time>
      </trkpt>
      <trkpt lat="44.82318" lon="-0.57994">
        <ele>17.1</ele>
        <time>2024-08-03T14:46:41Z</time>
      </trkpt>
      <trkpt lat="44.82321" lon="-0.57993">
        <ele>17</ele>
        <time>2024-08-03T14:46:42Z</time>
      </trkpt>
      <trkpt lat="44.82323" lon="-0.57991">
        <ele>17</ele>
        <time>2024-08-03T14:46:43Z</time>
      </trkpt>
      <trkpt lat="44.82326" lon="-0.57989">
        <ele>17</ele>
        <time>2024-08-03T14:46:44Z</time>
      </trkpt>
      <trkpt lat="44.82329" lon="-0.57986">
        <ele>17</ele>
        <time>2024-08-03T14:46:45Z</time>
      </trkpt>
      <trkpt lat="44.8233" lon="-0.57986">
        <ele>16.9</ele>
        <time>2024-08-03T14:46:46Z</time>
      </trkpt>
      <trkpt lat="44.82332" lon="-0.57984">
        <ele>16.9</ele>
        <time>2024-08-03T14:46:47Z</time>
      </trkpt>
      <trkpt lat="44.82338" lon="-0.57978">
        <ele>16.8</ele>
        <time>2024-08-03T14:46:49Z</time>
      </trkpt>
      <trkpt lat="44.82342" lon="-0.57976">
        <ele>16.8</ele>
        <time>2024-08-03T14:46:50Z</time>
      </trkpt>
      <trkpt lat="44.82346" lon="-0.57974">
        <ele>16.8</ele>
        <time>2024-08-03T14:46:51Z</time>
      </trkpt>
      <trkpt lat="44.82349" lon="-0.5797">
        <ele>16.7</ele>
        <time>2024-08-03T14:46:52Z</time>
      </trkpt>
      <trkpt lat="44.82352" lon="-0.57967">
        <ele>16.7</ele>
        <time>2024-08-03T14:46:53Z</time>
      </trkpt>
      <trkpt lat="44.82354" lon="-0.57959">
        <ele>16.6</ele>
        <time>2024-08-03T14:46:55Z</time>
      </trkpt>
      <trkpt lat="44.82357" lon="-0.57956">
        <ele>16.6</ele>
        <time>2024-08-03T14:46:56Z</time>
      </trkpt>
      <trkpt lat="44.8236" lon="-0.57953">
        <ele>16.6</ele>
        <time>2024-08-03T14:46:57Z</time>
      </trkpt>
      <trkpt lat="44.82363" lon="-0.57951">
        <ele>16.6</ele>
        <time>2024-08-03T14:46:58Z</time>
      </trkpt>
      <trkpt lat="44.82366" lon="-0.57949">
        <ele>16.5</ele>
        <time>2024-08-03T14:46:59Z</time>
      </trkpt>
      <trkpt lat="44.82369" lon="-0.57946">
        <ele>16.5</ele>
        <time>2024-08-03T14:47:00Z</time>
      </trkpt>
      <trkpt lat="44.82373" lon="-0.57943">
        <ele>16.5</ele>
        <time>2024-08-03T14:47:01Z</time>
      </trkpt>
      <trkpt lat="44.82376" lon="-0.57941">
        <ele>16.4</ele>
        <time>2024-08-03T14:47:02Z</time>
      </trkpt>
      <trkpt lat="44.82379" lon="-0.57938">
        <ele>16.4</ele>
        <time>2024-08-03T14:47:03Z</time>
      </trkpt>
      <trkpt lat="44.8238" lon="-0.57937">
        <ele>16.4</ele>
        <time>2024-08-03T14:47:04Z</time>
      </trkpt>
      <trkpt lat="44.82383" lon="-0.57932">
        <ele>16.4</ele>
        <time>2024-08-03T14:47:05Z</time>
      </trkpt>
      <trkpt lat="44.82384" lon="-0.5793">
        <ele>16.4</ele>
        <time>2024-08-03T14:47:06Z</time>
      </trkpt>
      <trkpt lat="44.82388" lon="-0.57927">
        <ele>16.3</ele>
        <time>2024-08-03T14:47:07Z</time>
      </trkpt>
      <trkpt lat="44.82391" lon="-0.57925">
        <ele>16.3</ele>
        <time>2024-08-03T14:47:08Z</time>
      </trkpt>
      <trkpt lat="44.82394" lon="-0.57923">
        <ele>16.3</ele>
        <time>2024-08-03T14:47:09Z</time>
      </trkpt>
      <trkpt lat="44.82397" lon="-0.57922">
        <ele>16.3</ele>
        <time>2024-08-03T14:47:10Z</time>
      </trkpt>
      <trkpt lat="44.824" lon="-0.5792">
        <ele>16.2</ele>
        <time>2024-08-03T14:47:11Z</time>
      </trkpt>
      <trkpt lat="44.82403" lon="-0.57918">
        <ele>16.2</ele>
        <time>2024-08-03T14:47:12Z</time>
      </trkpt>
      <trkpt lat="44.82406" lon="-0.57916">
        <ele>16.2</ele>
        <time>2024-08-03T14:47:13Z</time>
      </trkpt>
      <trkpt lat="44.82409" lon="-0.57914">
        <ele>16.2</ele>
        <time>2024-08-03T14:47:14Z</time>
      </trkpt>
      <trkpt lat="44.82412" lon="-0.57912">
        <ele>16.2</ele>
        <time>2024-08-03T14:47:15Z</time>
      </trkpt>
      <trkpt lat="44.82414" lon="-0.5791">
        <ele>16.2</ele>
        <time>2024-08-03T14:47:16Z</time>
      </trkpt>
      <trkpt lat="44.82417" lon="-0.57909">
        <ele>16.2</ele>
        <time>2024-08-03T14:47:17Z</time>
      </trkpt>
      <trkpt lat="44.8242" lon="-0.57907">
        <ele>16.2</ele>
        <time>2024-08-03T14:47:18Z</time>
      </trkpt>
      <trkpt lat="44.82422" lon="-0.57906">
        <ele>16.1</ele>
        <time>2024-08-03T14:47:19Z</time>
      </trkpt>
      <trkpt lat="44.82424" lon="-0.57905">
        <ele>16.1</ele>
        <time>2024-08-03T14:47:20Z</time>
      </trkpt>
      <trkpt lat="44.82428" lon="-0.57903">
        <ele>16.1</ele>
        <time>2024-08-03T14:47:21Z</time>
      </trkpt>
      <trkpt lat="44.82429" lon="-0.57902">
        <ele>16.1</ele>
        <time>2024-08-03T14:47:22Z</time>
      </trkpt>
      <trkpt lat="44.82432" lon="-0.579">
        <ele>16.1</ele>
        <time>2024-08-03T14:47:23Z</time>
      </trkpt>
      <trkpt lat="44.82434" lon="-0.57897">
        <ele>16.1</ele>
        <time>2024-08-03T14:47:24Z</time>
      </trkpt>
      <trkpt lat="44.82437" lon="-0.57894">
        <ele>16.1</ele>
        <time>2024-08-03T14:47:25Z</time>
      </trkpt>
      <trkpt lat="44.82439" lon="-0.57891">
        <ele>16</ele>
        <time>2024-08-03T14:47:26Z</time>
      </trkpt>
      <trkpt lat="44.82442" lon="-0.57888">
        <ele>16</ele>
        <time>2024-08-03T14:47:27Z</time>
      </trkpt>
      <trkpt lat="44.82444" lon="-0.57886">
        <ele>16</ele>
        <time>2024-08-03T14:47:28Z</time>
      </trkpt>
      <trkpt lat="44.82446" lon="-0.57883">
        <ele>16</ele>
        <time>2024-08-03T14:47:29Z</time>
      </trkpt>
      <trkpt lat="44.82449" lon="-0.57881">
        <ele>16</ele>
        <time>2024-08-03T14:47:30Z</time>
      </trkpt>
      <trkpt lat="44.82451" lon="-0.57879">
        <ele>15.9</ele>
        <time>2024-08-03T14:47:31Z</time>
      </trkpt>
      <trkpt lat="44.82454" lon="-0.57875">
        <ele>15.9</ele>
        <time>2024-08-03T14:47:32Z</time>
      </trkpt>
      <trkpt lat="44.82455" lon="-0.57874">
        <ele>15.9</ele>
        <time>2024-08-03T14:47:33Z</time>
      </trkpt>
      <trkpt lat="44.82459" lon="-0.5787">
        <ele>15.9</ele>
        <time>2024-08-03T14:47:34Z</time>
      </trkpt>
      <trkpt lat="44.82461" lon="-0.57868">
        <ele>15.9</ele>
        <time>2024-08-03T14:47:35Z</time>
      </trkpt>
      <trkpt lat="44.82463" lon="-0.57867">
        <ele>15.9</ele>
        <time>2024-08-03T14:47:36Z</time>
      </trkpt>
      <trkpt lat="44.82466" lon="-0.57864">
        <ele>15.9</ele>
        <time>2024-08-03T14:47:37Z</time>
      </trkpt>
      <trkpt lat="44.8247" lon="-0.57861">
        <ele>15.8</ele>
        <time>2024-08-03T14:47:38Z</time>
      </trkpt>
      <trkpt lat="44.82473" lon="-0.57859">
        <ele>15.8</ele>
        <time>2024-08-03T14:47:39Z</time>
      </trkpt>
      <trkpt lat="44.82477" lon="-0.57857">
        <ele>15.8</ele>
        <time>2024-08-03T14:47:40Z</time>
      </trkpt>
      <trkpt lat="44.8248" lon="-0.57855">
        <ele>15.8</ele>
        <time>2024-08-03T14:47:41Z</time>
      </trkpt>
      <trkpt lat="44.82484" lon="-0.57853">
        <ele>15.8</ele>
        <time>2024-08-03T14:47:42Z</time>
      </trkpt>
      <trkpt lat="44.82487" lon="-0.57851">
        <ele>15.8</ele>
        <time>2024-08-03T14:47:43Z</time>
      </trkpt>
      <trkpt lat="44.8249" lon="-0.57848">
        <ele>15.7</ele>
        <time>2024-08-03T14:47:44Z</time>
      </trkpt>
      <trkpt lat="44.82494" lon="-0.57845">
        <ele>15.7</ele>
        <time>2024-08-03T14:47:45Z</time>
      </trkpt>
      <trkpt lat="44.82496" lon="-0.57842">
        <ele>15.7</ele>
        <time>2024-08-03T14:47:46Z</time>
      </trkpt>
      <trkpt lat="44.82497" lon="-0.57838">
        <ele>15.7</ele>
        <time>2024-08-03T14:47:47Z</time>
      </trkpt>
      <trkpt lat="44.82498" lon="-0.57835">
        <ele>15.7</ele>
        <time>2024-08-03T14:47:48Z</time>
      </trkpt>
      <trkpt lat="44.825" lon="-0.57831">
        <ele>15.7</ele>
        <time>2024-08-03T14:47:49Z</time>
      </trkpt>
      <trkpt lat="44.825" lon="-0.57829">
        <ele>15.7</ele>
        <time>2024-08-03T14:47:50Z</time>
      </trkpt>
      <trkpt lat="44.82502" lon="-0.57825">
        <ele>15.7</ele>
        <time>2024-08-03T14:47:51Z</time>
      </trkpt>
      <trkpt lat="44.82503" lon="-0.57823">
        <ele>15.7</ele>
        <time>2024-08-03T14:47:52Z</time>
      </trkpt>
      <trkpt lat="44.82506" lon="-0.5782">
        <ele>15.7</ele>
        <time>2024-08-03T14:47:53Z</time>
      </trkpt>
      <trkpt lat="44.82507" lon="-0.57819">
        <ele>15.7</ele>
        <time>2024-08-03T14:47:54Z</time>
      </trkpt>
      <trkpt lat="44.82509" lon="-0.57816">
        <ele>15.7</ele>
        <time>2024-08-03T14:47:55Z</time>
      </trkpt>
      <trkpt lat="44.8251" lon="-0.57811">
        <ele>15.7</ele>
        <time>2024-08-03T14:47:56Z</time>
      </trkpt>
      <trkpt lat="44.82511" lon="-0.57809">
        <ele>15.7</ele>
        <time>2024-08-03T14:47:57Z</time>
      </trkpt>
      <trkpt lat="44.82512" lon="-0.57802">
        <ele>15.7</ele>
        <time>2024-08-03T14:47:59Z</time>
      </trkpt>
      <trkpt lat="44.82514" lon="-0.57798">
        <ele>15.6</ele>
        <time>2024-08-03T14:48:00Z</time>
      </trkpt>
      <trkpt lat="44.82515" lon="-0.57797">
        <ele>15.6</ele>
        <time>2024-08-03T14:48:01Z</time>
      </trkpt>
      <trkpt lat="44.82517" lon="-0.57793">
        <ele>15.6</ele>
        <time>2024-08-03T14:48:02Z</time>
      </trkpt>
      <trkpt lat="44.82518" lon="-0.57792">
        <ele>15.6</ele>
        <time>2024-08-03T14:48:03Z</time>
      </trkpt>
      <trkpt lat="44.8252" lon="-0.57786">
        <ele>15.6</ele>
        <time>2024-08-03T14:48:05Z</time>
      </trkpt>
      <trkpt lat="44.82522" lon="-0.57783">
        <ele>15.6</ele>
        <time>2024-08-03T14:48:06Z</time>
      </trkpt>
      <trkpt lat="44.82523" lon="-0.57782">
        <ele>15.6</ele>
        <time>2024-08-03T14:48:07Z</time>
      </trkpt>
      <trkpt lat="44.82526" lon="-0.57779">
        <ele>15.6</ele>
        <time>2024-08-03T14:48:08Z</time>
      </trkpt>
      <trkpt lat="44.82527" lon="-0.57779">
        <ele>15.6</ele>
        <time>2024-08-03T14:48:09Z</time>
      </trkpt>
      <trkpt lat="44.82532" lon="-0.57774">
        <ele>15.6</ele>
        <time>2024-08-03T14:48:11Z</time>
      </trkpt>
      <trkpt lat="44.82535" lon="-0.57772">
        <ele>15.6</ele>
        <time>2024-08-03T14:48:12Z</time>
      </trkpt>
      <trkpt lat="44.82538" lon="-0.57769">
        <ele>15.6</ele>
        <time>2024-08-03T14:48:13Z</time>
      </trkpt>
      <trkpt lat="44.82541" lon="-0.57767">
        <ele>15.6</ele>
        <time>2024-08-03T14:48:14Z</time>
      </trkpt>
      <trkpt lat="44.82542" lon="-0.57767">
        <ele>15.6</ele>
        <time>2024-08-03T14:48:15Z</time>
      </trkpt>
      <trkpt lat="44.82543" lon="-0.57765">
        <ele>15.6</ele>
        <time>2024-08-03T14:48:17Z</time>
      </trkpt>
      <trkpt lat="44.82544" lon="-0.57765">
        <ele>15.6</ele>
        <time>2024-08-03T14:48:18Z</time>
      </trkpt>
      <trkpt lat="44.82545" lon="-0.57765">
        <ele>15.6</ele>
        <time>2024-08-03T14:48:19Z</time>
      </trkpt>
      <trkpt lat="44.82545" lon="-0.57765">
        <ele>15.6</ele>
        <time>2024-08-03T14:48:20Z</time>
      </trkpt>
      <trkpt lat="44.82546" lon="-0.57765">
        <ele>15.6</ele>
        <time>2024-08-03T14:48:21Z</time>
      </trkpt>
      <trkpt lat="44.82549" lon="-0.57764">
        <ele>15.6</ele>
        <time>2024-08-03T14:48:23Z</time>
      </trkpt>
      <trkpt lat="44.8255" lon="-0.57763">
        <ele>15.6</ele>
        <time>2024-08-03T14:48:24Z</time>
      </trkpt>
      <trkpt lat="44.82552" lon="-0.57762">
        <ele>15.6</ele>
        <time>2024-08-03T14:48:25Z</time>
      </trkpt>
      <trkpt lat="44.82554" lon="-0.5776">
        <ele>15.6</ele>
        <time>2024-08-03T14:48:26Z</time>
      </trkpt>
      <trkpt lat="44.82554" lon="-0.57759">
        <ele>15.6</ele>
        <time>2024-08-03T14:48:27Z</time>
      </trkpt>
      <trkpt lat="44.82557" lon="-0.57755">
        <ele>15.6</ele>
        <time>2024-08-03T14:48:28Z</time>
      </trkpt>
      <trkpt lat="44.82557" lon="-0.57754">
        <ele>15.6</ele>
        <time>2024-08-03T14:48:29Z</time>
      </trkpt>
      <trkpt lat="44.8256" lon="-0.57751">
        <ele>15.6</ele>
        <time>2024-08-03T14:48:30Z</time>
      </trkpt>
      <trkpt lat="44.8256" lon="-0.5775">
        <ele>15.6</ele>
        <time>2024-08-03T14:48:31Z</time>
      </trkpt>
      <trkpt lat="44.82563" lon="-0.57747">
        <ele>15.5</ele>
        <time>2024-08-03T14:48:32Z</time>
      </trkpt>
      <trkpt lat="44.82564" lon="-0.57746">
        <ele>15.5</ele>
        <time>2024-08-03T14:48:33Z</time>
      </trkpt>
      <trkpt lat="44.82565" lon="-0.57745">
        <ele>15.5</ele>
        <time>2024-08-03T14:48:34Z</time>
      </trkpt>
      <trkpt lat="44.82567" lon="-0.57744">
        <ele>15.5</ele>
        <time>2024-08-03T14:48:35Z</time>
      </trkpt>
      <trkpt lat="44.8257" lon="-0.57741">
        <ele>15.5</ele>
        <time>2024-08-03T14:48:36Z</time>
      </trkpt>
      <trkpt lat="44.82572" lon="-0.5774">
        <ele>15.5</ele>
        <time>2024-08-03T14:48:37Z</time>
      </trkpt>
      <trkpt lat="44.82575" lon="-0.57737">
        <ele>15.5</ele>
        <time>2024-08-03T14:48:38Z</time>
      </trkpt>
      <trkpt lat="44.82579" lon="-0.57735">
        <ele>15.5</ele>
        <time>2024-08-03T14:48:39Z</time>
      </trkpt>
      <trkpt lat="44.82582" lon="-0.57733">
        <ele>15.5</ele>
        <time>2024-08-03T14:48:40Z</time>
      </trkpt>
      <trkpt lat="44.82585" lon="-0.57731">
        <ele>15.5</ele>
        <time>2024-08-03T14:48:41Z</time>
      </trkpt>
      <trkpt lat="44.82588" lon="-0.57729">
        <ele>15.5</ele>
        <time>2024-08-03T14:48:42Z</time>
      </trkpt>
      <trkpt lat="44.82591" lon="-0.57726">
        <ele>15.5</ele>
        <time>2024-08-03T14:48:43Z</time>
      </trkpt>
      <trkpt lat="44.82594" lon="-0.57724">
        <ele>15.5</ele>
        <time>2024-08-03T14:48:44Z</time>
      </trkpt>
      <trkpt lat="44.82597" lon="-0.57722">
        <ele>15.5</ele>
        <time>2024-08-03T14:48:45Z</time>
      </trkpt>
      <trkpt lat="44.826" lon="-0.57719">
        <ele>15.5</ele>
        <time>2024-08-03T14:48:46Z</time>
      </trkpt>
      <trkpt lat="44.82603" lon="-0.57717">
        <ele>15.5</ele>
        <time>2024-08-03T14:48:47Z</time>
      </trkpt>
      <trkpt lat="44.82605" lon="-0.57714">
        <ele>15.5</ele>
        <time>2024-08-03T14:48:48Z</time>
      </trkpt>
      <trkpt lat="44.82607" lon="-0.57712">
        <ele>15.5</ele>
        <time>2024-08-03T14:48:49Z</time>
      </trkpt>
      <trkpt lat="44.82612" lon="-0.57707">
        <ele>15.5</ele>
        <time>2024-08-03T14:48:51Z</time>
      </trkpt>
      <trkpt lat="44.82614" lon="-0.57703">
        <ele>15.5</ele>
        <time>2024-08-03T14:48:52Z</time>
      </trkpt>
      <trkpt lat="44.82614" lon="-0.57702">
        <ele>15.6</ele>
        <time>2024-08-03T14:48:53Z</time>
      </trkpt>
      <trkpt lat="44.82616" lon="-0.57698">
        <ele>15.6</ele>
        <time>2024-08-03T14:48:54Z</time>
      </trkpt>
      <trkpt lat="44.82616" lon="-0.57697">
        <ele>15.6</ele>
        <time>2024-08-03T14:48:55Z</time>
      </trkpt>
      <trkpt lat="44.82619" lon="-0.57693">
        <ele>15.6</ele>
        <time>2024-08-03T14:48:57Z</time>
      </trkpt>
      <trkpt lat="44.8262" lon="-0.57689">
        <ele>15.6</ele>
        <time>2024-08-03T14:48:58Z</time>
      </trkpt>
      <trkpt lat="44.8262" lon="-0.57687">
        <ele>15.7</ele>
        <time>2024-08-03T14:48:59Z</time>
      </trkpt>
      <trkpt lat="44.82621" lon="-0.57683">
        <ele>15.7</ele>
        <time>2024-08-03T14:49:00Z</time>
      </trkpt>
      <trkpt lat="44.82622" lon="-0.57682">
        <ele>15.7</ele>
        <time>2024-08-03T14:49:01Z</time>
      </trkpt>
      <trkpt lat="44.82626" lon="-0.57677">
        <ele>15.7</ele>
        <time>2024-08-03T14:49:03Z</time>
      </trkpt>
      <trkpt lat="44.82629" lon="-0.57675">
        <ele>15.8</ele>
        <time>2024-08-03T14:49:04Z</time>
      </trkpt>
      <trkpt lat="44.82631" lon="-0.57673">
        <ele>15.8</ele>
        <time>2024-08-03T14:49:05Z</time>
      </trkpt>
      <trkpt lat="44.82633" lon="-0.5767">
        <ele>15.8</ele>
        <time>2024-08-03T14:49:06Z</time>
      </trkpt>
      <trkpt lat="44.82636" lon="-0.57667">
        <ele>15.9</ele>
        <time>2024-08-03T14:49:07Z</time>
      </trkpt>
      <trkpt lat="44.82639" lon="-0.57666">
        <ele>15.9</ele>
        <time>2024-08-03T14:49:08Z</time>
      </trkpt>
      <trkpt lat="44.82641" lon="-0.57664">
        <ele>15.9</ele>
        <time>2024-08-03T14:49:09Z</time>
      </trkpt>
      <trkpt lat="44.82644" lon="-0.57663">
        <ele>16</ele>
        <time>2024-08-03T14:49:10Z</time>
      </trkpt>
      <trkpt lat="44.82647" lon="-0.57661">
        <ele>16</ele>
        <time>2024-08-03T14:49:11Z</time>
      </trkpt>
      <trkpt lat="44.82648" lon="-0.5766">
        <ele>16</ele>
        <time>2024-08-03T14:49:12Z</time>
      </trkpt>
      <trkpt lat="44.82651" lon="-0.57658">
        <ele>16.1</ele>
        <time>2024-08-03T14:49:13Z</time>
      </trkpt>
      <trkpt lat="44.82653" lon="-0.57655">
        <ele>16.1</ele>
        <time>2024-08-03T14:49:14Z</time>
      </trkpt>
      <trkpt lat="44.82656" lon="-0.57654">
        <ele>16.1</ele>
        <time>2024-08-03T14:49:15Z</time>
      </trkpt>
      <trkpt lat="44.82658" lon="-0.57651">
        <ele>16.2</ele>
        <time>2024-08-03T14:49:16Z</time>
      </trkpt>
      <trkpt lat="44.82658" lon="-0.5765">
        <ele>16.2</ele>
        <time>2024-08-03T14:49:17Z</time>
      </trkpt>
      <trkpt lat="44.82658" lon="-0.57648">
        <ele>16.2</ele>
        <time>2024-08-03T14:49:18Z</time>
      </trkpt>
      <trkpt lat="44.82658" lon="-0.57648">
        <ele>16.2</ele>
        <time>2024-08-03T14:49:19Z</time>
      </trkpt>
      <trkpt lat="44.8266" lon="-0.57644">
        <ele>16.2</ele>
        <time>2024-08-03T14:49:20Z</time>
      </trkpt>
      <trkpt lat="44.82664" lon="-0.57641">
        <ele>16.3</ele>
        <time>2024-08-03T14:49:21Z</time>
      </trkpt>
      <trkpt lat="44.82668" lon="-0.57639">
        <ele>16.3</ele>
        <time>2024-08-03T14:49:22Z</time>
      </trkpt>
      <trkpt lat="44.82672" lon="-0.57638">
        <ele>16.4</ele>
        <time>2024-08-03T14:49:23Z</time>
      </trkpt>
      <trkpt lat="44.82676" lon="-0.57636">
        <ele>16.4</ele>
        <time>2024-08-03T14:49:24Z</time>
      </trkpt>
      <trkpt lat="44.8268" lon="-0.57634">
        <ele>16.4</ele>
        <time>2024-08-03T14:49:25Z</time>
      </trkpt>
      <trkpt lat="44.82684" lon="-0.57632">
        <ele>16.5</ele>
        <time>2024-08-03T14:49:26Z</time>
      </trkpt>
      <trkpt lat="44.82687" lon="-0.5763">
        <ele>16.5</ele>
        <time>2024-08-03T14:49:27Z</time>
      </trkpt>
      <trkpt lat="44.82689" lon="-0.57628">
        <ele>16.5</ele>
        <time>2024-08-03T14:49:28Z</time>
      </trkpt>
      <trkpt lat="44.8269" lon="-0.57627">
        <ele>16.5</ele>
        <time>2024-08-03T14:49:29Z</time>
      </trkpt>
      <trkpt lat="44.82693" lon="-0.57623">
        <ele>16.5</ele>
        <time>2024-08-03T14:49:30Z</time>
      </trkpt>
      <trkpt lat="44.82695" lon="-0.57621">
        <ele>16.5</ele>
        <time>2024-08-03T14:49:31Z</time>
      </trkpt>
      <trkpt lat="44.82697" lon="-0.57619">
        <ele>16.5</ele>
        <time>2024-08-03T14:49:32Z</time>
      </trkpt>
      <trkpt lat="44.827" lon="-0.57617">
        <ele>16.5</ele>
        <time>2024-08-03T14:49:33Z</time>
      </trkpt>
      <trkpt lat="44.82702" lon="-0.57615">
        <ele>16.4</ele>
        <time>2024-08-03T14:49:34Z</time>
      </trkpt>
      <trkpt lat="44.82705" lon="-0.57612">
        <ele>16.4</ele>
        <time>2024-08-03T14:49:35Z</time>
      </trkpt>
      <trkpt lat="44.82708" lon="-0.57608">
        <ele>16.4</ele>
        <time>2024-08-03T14:49:36Z</time>
      </trkpt>
      <trkpt lat="44.82712" lon="-0.57606">
        <ele>16.4</ele>
        <time>2024-08-03T14:49:37Z</time>
      </trkpt>
      <trkpt lat="44.82715" lon="-0.57603">
        <ele>16.4</ele>
        <time>2024-08-03T14:49:38Z</time>
      </trkpt>
      <trkpt lat="44.82719" lon="-0.576">
        <ele>16.3</ele>
        <time>2024-08-03T14:49:39Z</time>
      </trkpt>
      <trkpt lat="44.82722" lon="-0.57598">
        <ele>16.3</ele>
        <time>2024-08-03T14:49:40Z</time>
      </trkpt>
      <trkpt lat="44.82725" lon="-0.57595">
        <ele>16.2</ele>
        <time>2024-08-03T14:49:41Z</time>
      </trkpt>
      <trkpt lat="44.82727" lon="-0.57591">
        <ele>16.2</ele>
        <time>2024-08-03T14:49:42Z</time>
      </trkpt>
      <trkpt lat="44.82729" lon="-0.57588">
        <ele>16.2</ele>
        <time>2024-08-03T14:49:43Z</time>
      </trkpt>
      <trkpt lat="44.82731" lon="-0.57584">
        <ele>16.1</ele>
        <time>2024-08-03T14:49:44Z</time>
      </trkpt>
      <trkpt lat="44.82733" lon="-0.57581">
        <ele>16.1</ele>
        <time>2024-08-03T14:49:45Z</time>
      </trkpt>
      <trkpt lat="44.82735" lon="-0.57579">
        <ele>16.1</ele>
        <time>2024-08-03T14:49:46Z</time>
      </trkpt>
      <trkpt lat="44.82737" lon="-0.57576">
        <ele>16</ele>
        <time>2024-08-03T14:49:47Z</time>
      </trkpt>
      <trkpt lat="44.8274" lon="-0.57573">
        <ele>16</ele>
        <time>2024-08-03T14:49:48Z</time>
      </trkpt>
      <trkpt lat="44.82742" lon="-0.57572">
        <ele>16</ele>
        <time>2024-08-03T14:49:49Z</time>
      </trkpt>
      <trkpt lat="44.82743" lon="-0.5757">
        <ele>16</ele>
        <time>2024-08-03T14:49:50Z</time>
      </trkpt>
      <trkpt lat="44.82747" lon="-0.57566">
        <ele>15.9</ele>
        <time>2024-08-03T14:49:51Z</time>
      </trkpt>
      <trkpt lat="44.82748" lon="-0.57565">
        <ele>15.9</ele>
        <time>2024-08-03T14:49:52Z</time>
      </trkpt>
      <trkpt lat="44.82751" lon="-0.57562">
        <ele>15.9</ele>
        <time>2024-08-03T14:49:53Z</time>
      </trkpt>
      <trkpt lat="44.82751" lon="-0.57561">
        <ele>15.8</ele>
        <time>2024-08-03T14:49:54Z</time>
      </trkpt>
      <trkpt lat="44.82753" lon="-0.57557">
        <ele>15.8</ele>
        <time>2024-08-03T14:49:55Z</time>
      </trkpt>
      <trkpt lat="44.82754" lon="-0.57556">
        <ele>15.8</ele>
        <time>2024-08-03T14:49:56Z</time>
      </trkpt>
      <trkpt lat="44.82756" lon="-0.57552">
        <ele>15.7</ele>
        <time>2024-08-03T14:49:57Z</time>
      </trkpt>
      <trkpt lat="44.82757" lon="-0.57551">
        <ele>15.7</ele>
        <time>2024-08-03T14:49:58Z</time>
      </trkpt>
      <trkpt lat="44.82759" lon="-0.57549">
        <ele>15.6</ele>
        <time>2024-08-03T14:49:59Z</time>
      </trkpt>
      <trkpt lat="44.82763" lon="-0.57545">
        <ele>15.6</ele>
        <time>2024-08-03T14:50:00Z</time>
      </trkpt>
      <trkpt lat="44.82764" lon="-0.57544">
        <ele>15.5</ele>
        <time>2024-08-03T14:50:01Z</time>
      </trkpt>
      <trkpt lat="44.82765" lon="-0.57542">
        <ele>15.5</ele>
        <time>2024-08-03T14:50:02Z</time>
      </trkpt>
      <trkpt lat="44.82767" lon="-0.57539">
        <ele>15.5</ele>
        <time>2024-08-03T14:50:03Z</time>
      </trkpt>
      <trkpt lat="44.82769" lon="-0.57536">
        <ele>15.4</ele>
        <time>2024-08-03T14:50:04Z</time>
      </trkpt>
      <trkpt lat="44.82771" lon="-0.57533">
        <ele>15.4</ele>
        <time>2024-08-03T14:50:05Z</time>
      </trkpt>
      <trkpt lat="44.82772" lon="-0.57529">
        <ele>15.3</ele>
        <time>2024-08-03T14:50:06Z</time>
      </trkpt>
      <trkpt lat="44.82774" lon="-0.57526">
        <ele>15.3</ele>
        <time>2024-08-03T14:50:07Z</time>
      </trkpt>
      <trkpt lat="44.82776" lon="-0.57522">
        <ele>15.2</ele>
        <time>2024-08-03T14:50:08Z</time>
      </trkpt>
      <trkpt lat="44.82778" lon="-0.57519">
        <ele>15.2</ele>
        <time>2024-08-03T14:50:09Z</time>
      </trkpt>
      <trkpt lat="44.82781" lon="-0.57516">
        <ele>15.1</ele>
        <time>2024-08-03T14:50:10Z</time>
      </trkpt>
      <trkpt lat="44.82784" lon="-0.57513">
        <ele>15.1</ele>
        <time>2024-08-03T14:50:11Z</time>
      </trkpt>
      <trkpt lat="44.82788" lon="-0.5751">
        <ele>15</ele>
        <time>2024-08-03T14:50:12Z</time>
      </trkpt>
      <trkpt lat="44.82791" lon="-0.57508">
        <ele>15</ele>
        <time>2024-08-03T14:50:13Z</time>
      </trkpt>
      <trkpt lat="44.82794" lon="-0.57505">
        <ele>15</ele>
        <time>2024-08-03T14:50:14Z</time>
      </trkpt>
      <trkpt lat="44.82797" lon="-0.57502">
        <ele>14.9</ele>
        <time>2024-08-03T14:50:15Z</time>
      </trkpt>
      <trkpt lat="44.82799" lon="-0.57499">
        <ele>14.9</ele>
        <time>2024-08-03T14:50:16Z</time>
      </trkpt>
      <trkpt lat="44.82802" lon="-0.57495">
        <ele>14.9</ele>
        <time>2024-08-03T14:50:17Z</time>
      </trkpt>
      <trkpt lat="44.82803" lon="-0.57494">
        <ele>14.9</ele>
        <time>2024-08-03T14:50:18Z</time>
      </trkpt>
      <trkpt lat="44.82805" lon="-0.57491">
        <ele>14.8</ele>
        <time>2024-08-03T14:50:19Z</time>
      </trkpt>
      <trkpt lat="44.82807" lon="-0.57487">
        <ele>14.8</ele>
        <time>2024-08-03T14:50:20Z</time>
      </trkpt>
      <trkpt lat="44.82808" lon="-0.57486">
        <ele>14.8</ele>
        <time>2024-08-03T14:50:21Z</time>
      </trkpt>
      <trkpt lat="44.82808" lon="-0.57484">
        <ele>14.8</ele>
        <time>2024-08-03T14:50:22Z</time>
      </trkpt>
      <trkpt lat="44.82808" lon="-0.57483">
        <ele>14.8</ele>
        <time>2024-08-03T14:50:23Z</time>
      </trkpt>
      <trkpt lat="44.8281" lon="-0.57477">
        <ele>14.8</ele>
        <time>2024-08-03T14:50:25Z</time>
      </trkpt>
      <trkpt lat="44.82813" lon="-0.57473">
        <ele>14.8</ele>
        <time>2024-08-03T14:50:26Z</time>
      </trkpt>
      <trkpt lat="44.82814" lon="-0.57472">
        <ele>14.7</ele>
        <time>2024-08-03T14:50:27Z</time>
      </trkpt>
      <trkpt lat="44.82816" lon="-0.57469">
        <ele>14.7</ele>
        <time>2024-08-03T14:50:28Z</time>
      </trkpt>
      <trkpt lat="44.82819" lon="-0.57466">
        <ele>14.7</ele>
        <time>2024-08-03T14:50:29Z</time>
      </trkpt>
      <trkpt lat="44.82824" lon="-0.57459">
        <ele>14.7</ele>
        <time>2024-08-03T14:50:31Z</time>
      </trkpt>
      <trkpt lat="44.82827" lon="-0.57457">
        <ele>14.7</ele>
        <time>2024-08-03T14:50:32Z</time>
      </trkpt>
      <trkpt lat="44.8283" lon="-0.57454">
        <ele>14.7</ele>
        <time>2024-08-03T14:50:33Z</time>
      </trkpt>
      <trkpt lat="44.82832" lon="-0.57452">
        <ele>14.6</ele>
        <time>2024-08-03T14:50:34Z</time>
      </trkpt>
      <trkpt lat="44.82834" lon="-0.5745">
        <ele>14.6</ele>
        <time>2024-08-03T14:50:35Z</time>
      </trkpt>
      <trkpt lat="44.82838" lon="-0.57446">
        <ele>14.6</ele>
        <time>2024-08-03T14:50:36Z</time>
      </trkpt>
      <trkpt lat="44.82839" lon="-0.57445">
        <ele>14.6</ele>
        <time>2024-08-03T14:50:37Z</time>
      </trkpt>
      <trkpt lat="44.82842" lon="-0.57442">
        <ele>14.6</ele>
        <time>2024-08-03T14:50:38Z</time>
      </trkpt>
      <trkpt lat="44.82843" lon="-0.5744">
        <ele>14.6</ele>
        <time>2024-08-03T14:50:39Z</time>
      </trkpt>
      <trkpt lat="44.82846" lon="-0.57438">
        <ele>14.6</ele>
        <time>2024-08-03T14:50:40Z</time>
      </trkpt>
      <trkpt lat="44.82849" lon="-0.57436">
        <ele>14.6</ele>
        <time>2024-08-03T14:50:41Z</time>
      </trkpt>
      <trkpt lat="44.82851" lon="-0.57434">
        <ele>14.7</ele>
        <time>2024-08-03T14:50:42Z</time>
      </trkpt>
      <trkpt lat="44.82854" lon="-0.57432">
        <ele>14.7</ele>
        <time>2024-08-03T14:50:43Z</time>
      </trkpt>
      <trkpt lat="44.82857" lon="-0.57429">
        <ele>14.7</ele>
        <time>2024-08-03T14:50:44Z</time>
      </trkpt>
      <trkpt lat="44.8286" lon="-0.57427">
        <ele>14.7</ele>
        <time>2024-08-03T14:50:45Z</time>
      </trkpt>
      <trkpt lat="44.82862" lon="-0.57423">
        <ele>14.7</ele>
        <time>2024-08-03T14:50:46Z</time>
      </trkpt>
      <trkpt lat="44.82862" lon="-0.57422">
        <ele>14.7</ele>
        <time>2024-08-03T14:50:47Z</time>
      </trkpt>
      <trkpt lat="44.82863" lon="-0.5742">
        <ele>14.7</ele>
        <time>2024-08-03T14:50:48Z</time>
      </trkpt>
      <trkpt lat="44.82864" lon="-0.57418">
        <ele>14.8</ele>
        <time>2024-08-03T14:50:49Z</time>
      </trkpt>
      <trkpt lat="44.82867" lon="-0.57415">
        <ele>14.8</ele>
        <time>2024-08-03T14:50:50Z</time>
      </trkpt>
      <trkpt lat="44.8287" lon="-0.57413">
        <ele>14.8</ele>
        <time>2024-08-03T14:50:51Z</time>
      </trkpt>
      <trkpt lat="44.82873" lon="-0.57411">
        <ele>14.9</ele>
        <time>2024-08-03T14:50:52Z</time>
      </trkpt>
      <trkpt lat="44.82875" lon="-0.5741">
        <ele>14.9</ele>
        <time>2024-08-03T14:50:53Z</time>
      </trkpt>
      <trkpt lat="44.82878" lon="-0.57409">
        <ele>14.9</ele>
        <time>2024-08-03T14:50:54Z</time>
      </trkpt>
      <trkpt lat="44.82881" lon="-0.57407">
        <ele>15</ele>
        <time>2024-08-03T14:50:55Z</time>
      </trkpt>
      <trkpt lat="44.82884" lon="-0.57405">
        <ele>15</ele>
        <time>2024-08-03T14:50:56Z</time>
      </trkpt>
      <trkpt lat="44.82887" lon="-0.57403">
        <ele>15.1</ele>
        <time>2024-08-03T14:50:57Z</time>
      </trkpt>
      <trkpt lat="44.82888" lon="-0.57401">
        <ele>15.1</ele>
        <time>2024-08-03T14:50:58Z</time>
      </trkpt>
      <trkpt lat="44.8289" lon="-0.57399">
        <ele>15.1</ele>
        <time>2024-08-03T14:50:59Z</time>
      </trkpt>
      <trkpt lat="44.82893" lon="-0.57397">
        <ele>15.2</ele>
        <time>2024-08-03T14:51:00Z</time>
      </trkpt>
      <trkpt lat="44.82896" lon="-0.57396">
        <ele>15.2</ele>
        <time>2024-08-03T14:51:01Z</time>
      </trkpt>
      <trkpt lat="44.82898" lon="-0.57395">
        <ele>15.3</ele>
        <time>2024-08-03T14:51:02Z</time>
      </trkpt>
      <trkpt lat="44.82902" lon="-0.57392">
        <ele>15.3</ele>
        <time>2024-08-03T14:51:03Z</time>
      </trkpt>
      <trkpt lat="44.82903" lon="-0.57391">
        <ele>15.3</ele>
        <time>2024-08-03T14:51:04Z</time>
      </trkpt>
      <trkpt lat="44.82903" lon="-0.57391">
        <ele>15.3</ele>
        <time>2024-08-03T14:51:05Z</time>
      </trkpt>
      <trkpt lat="44.82907" lon="-0.57386">
        <ele>15.4</ele>
        <time>2024-08-03T14:51:06Z</time>
      </trkpt>
      <trkpt lat="44.82909" lon="-0.57384">
        <ele>15.5</ele>
        <time>2024-08-03T14:51:07Z</time>
      </trkpt>
      <trkpt lat="44.82912" lon="-0.57382">
        <ele>15.5</ele>
        <time>2024-08-03T14:51:08Z</time>
      </trkpt>
      <trkpt lat="44.82915" lon="-0.57379">
        <ele>15.6</ele>
        <time>2024-08-03T14:51:09Z</time>
      </trkpt>
      <trkpt lat="44.82916" lon="-0.57378">
        <ele>15.6</ele>
        <time>2024-08-03T14:51:10Z</time>
      </trkpt>
      <trkpt lat="44.82919" lon="-0.57376">
        <ele>15.7</ele>
        <time>2024-08-03T14:51:11Z</time>
      </trkpt>
      <trkpt lat="44.82922" lon="-0.57374">
        <ele>15.7</ele>
        <time>2024-08-03T14:51:12Z</time>
      </trkpt>
      <trkpt lat="44.82924" lon="-0.57372">
        <ele>15.8</ele>
        <time>2024-08-03T14:51:13Z</time>
      </trkpt>
      <trkpt lat="44.82926" lon="-0.57369">
        <ele>15.8</ele>
        <time>2024-08-03T14:51:14Z</time>
      </trkpt>
      <trkpt lat="44.82927" lon="-0.57368">
        <ele>15.8</ele>
        <time>2024-08-03T14:51:15Z</time>
      </trkpt>
      <trkpt lat="44.8293" lon="-0.57366">
        <ele>15.9</ele>
        <time>2024-08-03T14:51:16Z</time>
      </trkpt>
      <trkpt lat="44.82932" lon="-0.57364">
        <ele>15.9</ele>
        <time>2024-08-03T14:51:17Z</time>
      </trkpt>
      <trkpt lat="44.82934" lon="-0.57362">
        <ele>15.9</ele>
        <time>2024-08-03T14:51:18Z</time>
      </trkpt>
      <trkpt lat="44.82938" lon="-0.57359">
        <ele>16</ele>
        <time>2024-08-03T14:51:19Z</time>
      </trkpt>
      <trkpt lat="44.82939" lon="-0.57358">
        <ele>16</ele>
        <time>2024-08-03T14:51:20Z</time>
      </trkpt>
      <trkpt lat="44.8294" lon="-0.57354">
        <ele>16.1</ele>
        <time>2024-08-03T14:51:21Z</time>
      </trkpt>
      <trkpt lat="44.8294" lon="-0.57352">
        <ele>16.1</ele>
        <time>2024-08-03T14:51:22Z</time>
      </trkpt>
      <trkpt lat="44.82939" lon="-0.57349">
        <ele>16.1</ele>
        <time>2024-08-03T14:51:23Z</time>
      </trkpt>
      <trkpt lat="44.82939" lon="-0.57347">
        <ele>16.2</ele>
        <time>2024-08-03T14:51:24Z</time>
      </trkpt>
      <trkpt lat="44.82942" lon="-0.57343">
        <ele>16.2</ele>
        <time>2024-08-03T14:51:25Z</time>
      </trkpt>
      <trkpt lat="44.82943" lon="-0.57342">
        <ele>16.2</ele>
        <time>2024-08-03T14:51:26Z</time>
      </trkpt>
      <trkpt lat="44.82946" lon="-0.57341">
        <ele>16.3</ele>
        <time>2024-08-03T14:51:27Z</time>
      </trkpt>
      <trkpt lat="44.8295" lon="-0.57339">
        <ele>16.4</ele>
        <time>2024-08-03T14:51:28Z</time>
      </trkpt>
      <trkpt lat="44.82953" lon="-0.57338">
        <ele>16.4</ele>
        <time>2024-08-03T14:51:29Z</time>
      </trkpt>
      <trkpt lat="44.82956" lon="-0.57336">
        <ele>16.5</ele>
        <time>2024-08-03T14:51:30Z</time>
      </trkpt>
      <trkpt lat="44.82959" lon="-0.57334">
        <ele>16.5</ele>
        <time>2024-08-03T14:51:31Z</time>
      </trkpt>
      <trkpt lat="44.82961" lon="-0.57332">
        <ele>16.5</ele>
        <time>2024-08-03T14:51:32Z</time>
      </trkpt>
      <trkpt lat="44.82963" lon="-0.57328">
        <ele>16.6</ele>
        <time>2024-08-03T14:51:33Z</time>
      </trkpt>
      <trkpt lat="44.82964" lon="-0.57327">
        <ele>16.6</ele>
        <time>2024-08-03T14:51:34Z</time>
      </trkpt>
      <trkpt lat="44.82964" lon="-0.57324">
        <ele>16.6</ele>
        <time>2024-08-03T14:51:35Z</time>
      </trkpt>
      <trkpt lat="44.82964" lon="-0.57321">
        <ele>16.7</ele>
        <time>2024-08-03T14:51:36Z</time>
      </trkpt>
      <trkpt lat="44.82965" lon="-0.57319">
        <ele>16.7</ele>
        <time>2024-08-03T14:51:37Z</time>
      </trkpt>
      <trkpt lat="44.82966" lon="-0.57317">
        <ele>16.7</ele>
        <time>2024-08-03T14:51:38Z</time>
      </trkpt>
      <trkpt lat="44.82967" lon="-0.57313">
        <ele>16.7</ele>
        <time>2024-08-03T14:51:39Z</time>
      </trkpt>
      <trkpt lat="44.82968" lon="-0.57312">
        <ele>16.8</ele>
        <time>2024-08-03T14:51:40Z</time>
      </trkpt>
      <trkpt lat="44.82971" lon="-0.5731">
        <ele>16.8</ele>
        <time>2024-08-03T14:51:41Z</time>
      </trkpt>
      <trkpt lat="44.82974" lon="-0.57308">
        <ele>16.9</ele>
        <time>2024-08-03T14:51:42Z</time>
      </trkpt>
      <trkpt lat="44.82977" lon="-0.57306">
        <ele>16.9</ele>
        <time>2024-08-03T14:51:43Z</time>
      </trkpt>
      <trkpt lat="44.82978" lon="-0.57306">
        <ele>16.9</ele>
        <time>2024-08-03T14:51:44Z</time>
      </trkpt>
      <trkpt lat="44.82979" lon="-0.57306">
        <ele>17</ele>
        <time>2024-08-03T14:51:45Z</time>
      </trkpt>
      <trkpt lat="44.82982" lon="-0.57307">
        <ele>17</ele>
        <time>2024-08-03T14:51:47Z</time>
      </trkpt>
      <trkpt lat="44.82984" lon="-0.57307">
        <ele>17</ele>
        <time>2024-08-03T14:51:48Z</time>
      </trkpt>
      <trkpt lat="44.82985" lon="-0.57308">
        <ele>17</ele>
        <time>2024-08-03T14:51:49Z</time>
      </trkpt>
      <trkpt lat="44.82986" lon="-0.57309">
        <ele>17.1</ele>
        <time>2024-08-03T14:51:50Z</time>
      </trkpt>
      <trkpt lat="44.82988" lon="-0.57309">
        <ele>17.1</ele>
        <time>2024-08-03T14:51:51Z</time>
      </trkpt>
      <trkpt lat="44.82989" lon="-0.57309">
        <ele>17.1</ele>
        <time>2024-08-03T14:51:53Z</time>
      </trkpt>
      <trkpt lat="44.8299" lon="-0.57309">
        <ele>17.1</ele>
        <time>2024-08-03T14:51:54Z</time>
      </trkpt>
      <trkpt lat="44.82993" lon="-0.57308">
        <ele>17.1</ele>
        <time>2024-08-03T14:51:55Z</time>
      </trkpt>
      <trkpt lat="44.82994" lon="-0.57307">
        <ele>17.2</ele>
        <time>2024-08-03T14:51:56Z</time>
      </trkpt>
      <trkpt lat="44.82997" lon="-0.57306">
        <ele>17.2</ele>
        <time>2024-08-03T14:51:57Z</time>
      </trkpt>
      <trkpt lat="44.83001" lon="-0.57303">
        <ele>17.3</ele>
        <time>2024-08-03T14:51:59Z</time>
      </trkpt>
      <trkpt lat="44.83003" lon="-0.57301">
        <ele>17.3</ele>
        <time>2024-08-03T14:52:00Z</time>
      </trkpt>
      <trkpt lat="44.83004" lon="-0.573">
        <ele>17.3</ele>
        <time>2024-08-03T14:52:01Z</time>
      </trkpt>
      <trkpt lat="44.83007" lon="-0.57297">
        <ele>17.4</ele>
        <time>2024-08-03T14:52:02Z</time>
      </trkpt>
      <trkpt lat="44.83008" lon="-0.57296">
        <ele>17.4</ele>
        <time>2024-08-03T14:52:03Z</time>
      </trkpt>
      <trkpt lat="44.83014" lon="-0.57291">
        <ele>17.5</ele>
        <time>2024-08-03T14:52:05Z</time>
      </trkpt>
      <trkpt lat="44.83016" lon="-0.57289">
        <ele>17.5</ele>
        <time>2024-08-03T14:52:06Z</time>
      </trkpt>
      <trkpt lat="44.83019" lon="-0.57286">
        <ele>17.6</ele>
        <time>2024-08-03T14:52:07Z</time>
      </trkpt>
      <trkpt lat="44.83022" lon="-0.57284">
        <ele>17.6</ele>
        <time>2024-08-03T14:52:08Z</time>
      </trkpt>
      <trkpt lat="44.83025" lon="-0.57281">
        <ele>17.6</ele>
        <time>2024-08-03T14:52:09Z</time>
      </trkpt>
      <trkpt lat="44.83028" lon="-0.57279">
        <ele>17.7</ele>
        <time>2024-08-03T14:52:10Z</time>
      </trkpt>
      <trkpt lat="44.83032" lon="-0.57277">
        <ele>17.7</ele>
        <time>2024-08-03T14:52:11Z</time>
      </trkpt>
      <trkpt lat="44.83034" lon="-0.57275">
        <ele>17.7</ele>
        <time>2024-08-03T14:52:12Z</time>
      </trkpt>
      <trkpt lat="44.83037" lon="-0.57271">
        <ele>17.8</ele>
        <time>2024-08-03T14:52:13Z</time>
      </trkpt>
      <trkpt lat="44.83037" lon="-0.5727">
        <ele>17.8</ele>
        <time>2024-08-03T14:52:14Z</time>
      </trkpt>
      <trkpt lat="44.83039" lon="-0.57265">
        <ele>17.8</ele>
        <time>2024-08-03T14:52:15Z</time>
      </trkpt>
      <trkpt lat="44.83041" lon="-0.57262">
        <ele>17.9</ele>
        <time>2024-08-03T14:52:16Z</time>
      </trkpt>
      <trkpt lat="44.83042" lon="-0.5726">
        <ele>17.9</ele>
        <time>2024-08-03T14:52:17Z</time>
      </trkpt>
      <trkpt lat="44.83044" lon="-0.57255">
        <ele>17.9</ele>
        <time>2024-08-03T14:52:18Z</time>
      </trkpt>
      <trkpt lat="44.83048" lon="-0.57247">
        <ele>17.8</ele>
        <time>2024-08-03T14:52:20Z</time>
      </trkpt>
      <trkpt lat="44.83051" lon="-0.57242">
        <ele>17.8</ele>
        <time>2024-08-03T14:52:21Z</time>
      </trkpt>
      <trkpt lat="44.83052" lon="-0.5724">
        <ele>17.8</ele>
        <time>2024-08-03T14:52:22Z</time>
      </trkpt>
      <trkpt lat="44.83053" lon="-0.57238">
        <ele>17.7</ele>
        <time>2024-08-03T14:52:23Z</time>
      </trkpt>
      <trkpt lat="44.83056" lon="-0.57235">
        <ele>17.7</ele>
        <time>2024-08-03T14:52:24Z</time>
      </trkpt>
      <trkpt lat="44.83058" lon="-0.57233">
        <ele>17.7</ele>
        <time>2024-08-03T14:52:25Z</time>
      </trkpt>
      <trkpt lat="44.83061" lon="-0.5723">
        <ele>17.6</ele>
        <time>2024-08-03T14:52:26Z</time>
      </trkpt>
      <trkpt lat="44.83063" lon="-0.57227">
        <ele>17.6</ele>
        <time>2024-08-03T14:52:27Z</time>
      </trkpt>
      <trkpt lat="44.83065" lon="-0.57223">
        <ele>17.5</ele>
        <time>2024-08-03T14:52:28Z</time>
      </trkpt>
      <trkpt lat="44.83067" lon="-0.57219">
        <ele>17.5</ele>
        <time>2024-08-03T14:52:29Z</time>
      </trkpt>
      <trkpt lat="44.83068" lon="-0.57216">
        <ele>17.5</ele>
        <time>2024-08-03T14:52:30Z</time>
      </trkpt>
      <trkpt lat="44.83068" lon="-0.57213">
        <ele>17.5</ele>
        <time>2024-08-03T14:52:31Z</time>
      </trkpt>
      <trkpt lat="44.83069" lon="-0.57211">
        <ele>17.5</ele>
        <time>2024-08-03T14:52:32Z</time>
      </trkpt>
      <trkpt lat="44.83069" lon="-0.57211">
        <ele>17.5</ele>
        <time>2024-08-03T14:52:33Z</time>
      </trkpt>
      <trkpt lat="44.83069" lon="-0.5721">
        <ele>17.5</ele>
        <time>2024-08-03T14:52:34Z</time>
      </trkpt>
      <trkpt lat="44.83069" lon="-0.5721">
        <ele>17.5</ele>
        <time>2024-08-03T14:52:35Z</time>
      </trkpt>
      <trkpt lat="44.83068" lon="-0.5721">
        <ele>17.5</ele>
        <time>2024-08-03T14:52:36Z</time>
      </trkpt>
      <trkpt lat="44.83068" lon="-0.5721">
        <ele>17.5</ele>
        <time>2024-08-03T14:52:37Z</time>
      </trkpt>
      <trkpt lat="44.83068" lon="-0.5721">
        <ele>17.5</ele>
        <time>2024-08-03T14:52:38Z</time>
      </trkpt>
      <trkpt lat="44.83068" lon="-0.5721">
        <ele>17.5</ele>
        <time>2024-08-03T14:52:39Z</time>
      </trkpt>
      <trkpt lat="44.83068" lon="-0.5721">
        <ele>17.5</ele>
        <time>2024-08-03T14:52:40Z</time>
      </trkpt>
      <trkpt lat="44.83068" lon="-0.5721">
        <ele>17.5</ele>
        <time>2024-08-03T14:52:41Z</time>
      </trkpt>
      <trkpt lat="44.83069" lon="-0.57211">
        <ele>17.5</ele>
        <time>2024-08-03T14:52:42Z</time>
      </trkpt>
      <trkpt lat="44.8307" lon="-0.57211">
        <ele>17.4</ele>
        <time>2024-08-03T14:52:43Z</time>
      </trkpt>
      <trkpt lat="44.8307" lon="-0.57211">
        <ele>17.4</ele>
        <time>2024-08-03T14:52:44Z</time>
      </trkpt>
      <trkpt lat="44.83073" lon="-0.57211">
        <ele>17.4</ele>
        <time>2024-08-03T14:52:45Z</time>
      </trkpt>
      <trkpt lat="44.83075" lon="-0.5721">
        <ele>17.4</ele>
        <time>2024-08-03T14:52:46Z</time>
      </trkpt>
      <trkpt lat="44.83079" lon="-0.57207">
        <ele>17.4</ele>
        <time>2024-08-03T14:52:47Z</time>
      </trkpt>
      <trkpt lat="44.8308" lon="-0.57206">
        <ele>17.4</ele>
        <time>2024-08-03T14:52:48Z</time>
      </trkpt>
      <trkpt lat="44.8308" lon="-0.57206">
        <ele>17.4</ele>
        <time>2024-08-03T14:52:49Z</time>
      </trkpt>
      <trkpt lat="44.83081" lon="-0.57206">
        <ele>17.3</ele>
        <time>2024-08-03T14:52:50Z</time>
      </trkpt>
      <trkpt lat="44.83081" lon="-0.57205">
        <ele>17.3</ele>
        <time>2024-08-03T14:52:51Z</time>
      </trkpt>
      <trkpt lat="44.83083" lon="-0.57205">
        <ele>17.3</ele>
        <time>2024-08-03T14:52:52Z</time>
      </trkpt>
      <trkpt lat="44.83086" lon="-0.57204">
        <ele>17.3</ele>
        <time>2024-08-03T14:52:53Z</time>
      </trkpt>
      <trkpt lat="44.83086" lon="-0.57203">
        <ele>17.3</ele>
        <time>2024-08-03T14:52:54Z</time>
      </trkpt>
      <trkpt lat="44.83088" lon="-0.57199">
        <ele>17.3</ele>
        <time>2024-08-03T14:52:56Z</time>
      </trkpt>
      <trkpt lat="44.83092" lon="-0.57196">
        <ele>17.2</ele>
        <time>2024-08-03T14:52:57Z</time>
      </trkpt>
      <trkpt lat="44.83093" lon="-0.57196">
        <ele>17.2</ele>
        <time>2024-08-03T14:52:58Z</time>
      </trkpt>
      <trkpt lat="44.83097" lon="-0.57196">
        <ele>17.2</ele>
        <time>2024-08-03T14:52:59Z</time>
      </trkpt>
      <trkpt lat="44.831" lon="-0.57196">
        <ele>17.2</ele>
        <time>2024-08-03T14:53:00Z</time>
      </trkpt>
      <trkpt lat="44.83104" lon="-0.57196">
        <ele>17.2</ele>
        <time>2024-08-03T14:53:01Z</time>
      </trkpt>
      <trkpt lat="44.83104" lon="-0.57195">
        <ele>17.2</ele>
        <time>2024-08-03T14:53:02Z</time>
      </trkpt>
      <trkpt lat="44.83107" lon="-0.57193">
        <ele>17.1</ele>
        <time>2024-08-03T14:53:03Z</time>
      </trkpt>
      <trkpt lat="44.83108" lon="-0.57193">
        <ele>17.1</ele>
        <time>2024-08-03T14:53:04Z</time>
      </trkpt>
      <trkpt lat="44.83111" lon="-0.57192">
        <ele>17.1</ele>
        <time>2024-08-03T14:53:05Z</time>
      </trkpt>
      <trkpt lat="44.83115" lon="-0.57192">
        <ele>17.1</ele>
        <time>2024-08-03T14:53:06Z</time>
      </trkpt>
      <trkpt lat="44.83123" lon="-0.57193">
        <ele>17.1</ele>
        <time>2024-08-03T14:53:08Z</time>
      </trkpt>
      <trkpt lat="44.83126" lon="-0.57193">
        <ele>17.1</ele>
        <time>2024-08-03T14:53:09Z</time>
      </trkpt>
      <trkpt lat="44.83129" lon="-0.57193">
        <ele>17.2</ele>
        <time>2024-08-03T14:53:10Z</time>
      </trkpt>
      <trkpt lat="44.83133" lon="-0.57193">
        <ele>17.2</ele>
        <time>2024-08-03T14:53:11Z</time>
      </trkpt>
      <trkpt lat="44.83136" lon="-0.57193">
        <ele>17.2</ele>
        <time>2024-08-03T14:53:12Z</time>
      </trkpt>
      <trkpt lat="44.8314" lon="-0.57194">
        <ele>17.2</ele>
        <time>2024-08-03T14:53:14Z</time>
      </trkpt>
      <trkpt lat="44.83144" lon="-0.57197">
        <ele>17.3</ele>
        <time>2024-08-03T14:53:15Z</time>
      </trkpt>
      <trkpt lat="44.83146" lon="-0.57198">
        <ele>17.3</ele>
        <time>2024-08-03T14:53:16Z</time>
      </trkpt>
      <trkpt lat="44.83149" lon="-0.572">
        <ele>17.3</ele>
        <time>2024-08-03T14:53:17Z</time>
      </trkpt>
      <trkpt lat="44.83151" lon="-0.57201">
        <ele>17.3</ele>
        <time>2024-08-03T14:53:18Z</time>
      </trkpt>
      <trkpt lat="44.83155" lon="-0.57204">
        <ele>17.3</ele>
        <time>2024-08-03T14:53:20Z</time>
      </trkpt>
      <trkpt lat="44.83157" lon="-0.57207">
        <ele>17.3</ele>
        <time>2024-08-03T14:53:21Z</time>
      </trkpt>
      <trkpt lat="44.8316" lon="-0.57209">
        <ele>17.3</ele>
        <time>2024-08-03T14:53:22Z</time>
      </trkpt>
      <trkpt lat="44.83163" lon="-0.57212">
        <ele>17.2</ele>
        <time>2024-08-03T14:53:23Z</time>
      </trkpt>
      <trkpt lat="44.83164" lon="-0.57213">
        <ele>17.2</ele>
        <time>2024-08-03T14:53:24Z</time>
      </trkpt>
      <trkpt lat="44.83166" lon="-0.57213">
        <ele>17.2</ele>
        <time>2024-08-03T14:53:26Z</time>
      </trkpt>
      <trkpt lat="44.83167" lon="-0.57212">
        <ele>17.2</ele>
        <time>2024-08-03T14:53:27Z</time>
      </trkpt>
      <trkpt lat="44.83167" lon="-0.5721">
        <ele>17.2</ele>
        <time>2024-08-03T14:53:28Z</time>
      </trkpt>
      <trkpt lat="44.83168" lon="-0.57209">
        <ele>17.2</ele>
        <time>2024-08-03T14:53:29Z</time>
      </trkpt>
      <trkpt lat="44.8317" lon="-0.57209">
        <ele>17.2</ele>
        <time>2024-08-03T14:53:30Z</time>
      </trkpt>
      <trkpt lat="44.83171" lon="-0.57209">
        <ele>17.2</ele>
        <time>2024-08-03T14:53:31Z</time>
      </trkpt>
      <trkpt lat="44.83172" lon="-0.5721">
        <ele>17.2</ele>
        <time>2024-08-03T14:53:32Z</time>
      </trkpt>
      <trkpt lat="44.83173" lon="-0.57211">
        <ele>17.1</ele>
        <time>2024-08-03T14:53:33Z</time>
      </trkpt>
      <trkpt lat="44.83174" lon="-0.57211">
        <ele>17.1</ele>
        <time>2024-08-03T14:53:34Z</time>
      </trkpt>
      <trkpt lat="44.83175" lon="-0.57212">
        <ele>17.1</ele>
        <time>2024-08-03T14:53:35Z</time>
      </trkpt>
      <trkpt lat="44.83177" lon="-0.57213">
        <ele>17.1</ele>
        <time>2024-08-03T14:53:36Z</time>
      </trkpt>
      <trkpt lat="44.83178" lon="-0.57214">
        <ele>17.1</ele>
        <time>2024-08-03T14:53:37Z</time>
      </trkpt>
      <trkpt lat="44.83179" lon="-0.57215">
        <ele>17.1</ele>
        <time>2024-08-03T14:53:38Z</time>
      </trkpt>
      <trkpt lat="44.8318" lon="-0.57214">
        <ele>17.1</ele>
        <time>2024-08-03T14:53:39Z</time>
      </trkpt>
      <trkpt lat="44.83181" lon="-0.57214">
        <ele>17.1</ele>
        <time>2024-08-03T14:53:40Z</time>
      </trkpt>
      <trkpt lat="44.83181" lon="-0.57213">
        <ele>17.1</ele>
        <time>2024-08-03T14:53:41Z</time>
      </trkpt>
      <trkpt lat="44.83181" lon="-0.57213">
        <ele>17.1</ele>
        <time>2024-08-03T14:53:42Z</time>
      </trkpt>
      <trkpt lat="44.83183" lon="-0.57212">
        <ele>17.1</ele>
        <time>2024-08-03T14:53:43Z</time>
      </trkpt>
      <trkpt lat="44.83184" lon="-0.57212">
        <ele>17.1</ele>
        <time>2024-08-03T14:53:44Z</time>
      </trkpt>
      <trkpt lat="44.83188" lon="-0.57212">
        <ele>17</ele>
        <time>2024-08-03T14:53:45Z</time>
      </trkpt>
      <trkpt lat="44.83189" lon="-0.57212">
        <ele>17</ele>
        <time>2024-08-03T14:53:46Z</time>
      </trkpt>
      <trkpt lat="44.83192" lon="-0.57213">
        <ele>17</ele>
        <time>2024-08-03T14:53:47Z</time>
      </trkpt>
      <trkpt lat="44.83193" lon="-0.57213">
        <ele>17</ele>
        <time>2024-08-03T14:53:48Z</time>
      </trkpt>
      <trkpt lat="44.83194" lon="-0.57214">
        <ele>17</ele>
        <time>2024-08-03T14:53:49Z</time>
      </trkpt>
      <trkpt lat="44.83195" lon="-0.57213">
        <ele>17</ele>
        <time>2024-08-03T14:53:50Z</time>
      </trkpt>
      <trkpt lat="44.83196" lon="-0.5721">
        <ele>17</ele>
        <time>2024-08-03T14:53:51Z</time>
      </trkpt>
      <trkpt lat="44.83197" lon="-0.57208">
        <ele>17</ele>
        <time>2024-08-03T14:53:52Z</time>
      </trkpt>
      <trkpt lat="44.832" lon="-0.57201">
        <ele>16.8</ele>
        <time>2024-08-03T14:53:54Z</time>
      </trkpt>
      <trkpt lat="44.83203" lon="-0.57198">
        <ele>16.7</ele>
        <time>2024-08-03T14:53:55Z</time>
      </trkpt>
      <trkpt lat="44.83204" lon="-0.57198">
        <ele>16.8</ele>
        <time>2024-08-03T14:53:56Z</time>
      </trkpt>
      <trkpt lat="44.83205" lon="-0.57197">
        <ele>16.6</ele>
        <time>2024-08-03T14:53:57Z</time>
      </trkpt>
      <trkpt lat="44.83206" lon="-0.57194">
        <ele>16.6</ele>
        <time>2024-08-03T14:53:58Z</time>
      </trkpt>
      <trkpt lat="44.83206" lon="-0.57189">
        <ele>16.5</ele>
        <time>2024-08-03T14:53:59Z</time>
      </trkpt>
      <trkpt lat="44.83206" lon="-0.57187">
        <ele>16.4</ele>
        <time>2024-08-03T14:54:00Z</time>
      </trkpt>
      <trkpt lat="44.83207" lon="-0.57182">
        <ele>16.4</ele>
        <time>2024-08-03T14:54:01Z</time>
      </trkpt>
      <trkpt lat="44.83207" lon="-0.5718">
        <ele>16.2</ele>
        <time>2024-08-03T14:54:02Z</time>
      </trkpt>
      <trkpt lat="44.83209" lon="-0.57175">
        <ele>16.1</ele>
        <time>2024-08-03T14:54:03Z</time>
      </trkpt>
      <trkpt lat="44.8321" lon="-0.57173">
        <ele>16.1</ele>
        <time>2024-08-03T14:54:04Z</time>
      </trkpt>
      <trkpt lat="44.83211" lon="-0.57171">
        <ele>16</ele>
        <time>2024-08-03T14:54:05Z</time>
      </trkpt>
      <trkpt lat="44.83212" lon="-0.57167">
        <ele>15.9</ele>
        <time>2024-08-03T14:54:06Z</time>
      </trkpt>
      <trkpt lat="44.83213" lon="-0.57161">
        <ele>15.9</ele>
        <time>2024-08-03T14:54:07Z</time>
      </trkpt>
      <trkpt lat="44.83214" lon="-0.57159">
        <ele>15.8</ele>
        <time>2024-08-03T14:54:08Z</time>
      </trkpt>
      <trkpt lat="44.83216" lon="-0.57155">
        <ele>15.8</ele>
        <time>2024-08-03T14:54:09Z</time>
      </trkpt>
      <trkpt lat="44.83218" lon="-0.57152">
        <ele>15.7</ele>
        <time>2024-08-03T14:54:10Z</time>
      </trkpt>
      <trkpt lat="44.8322" lon="-0.57148">
        <ele>15.7</ele>
        <time>2024-08-03T14:54:11Z</time>
      </trkpt>
      <trkpt lat="44.83222" lon="-0.57145">
        <ele>15.7</ele>
        <time>2024-08-03T14:54:12Z</time>
      </trkpt>
      <trkpt lat="44.83224" lon="-0.57142">
        <ele>15.6</ele>
        <time>2024-08-03T14:54:13Z</time>
      </trkpt>
      <trkpt lat="44.83226" lon="-0.57139">
        <ele>15.6</ele>
        <time>2024-08-03T14:54:14Z</time>
      </trkpt>
      <trkpt lat="44.83228" lon="-0.57135">
        <ele>15.7</ele>
        <time>2024-08-03T14:54:15Z</time>
      </trkpt>
      <trkpt lat="44.8323" lon="-0.5713">
        <ele>15.7</ele>
        <time>2024-08-03T14:54:16Z</time>
      </trkpt>
      <trkpt lat="44.83232" lon="-0.57126">
        <ele>15.8</ele>
        <time>2024-08-03T14:54:17Z</time>
      </trkpt>
      <trkpt lat="44.83234" lon="-0.57122">
        <ele>15.9</ele>
        <time>2024-08-03T14:54:18Z</time>
      </trkpt>
      <trkpt lat="44.83235" lon="-0.57119">
        <ele>16</ele>
        <time>2024-08-03T14:54:19Z</time>
      </trkpt>
      <trkpt lat="44.83238" lon="-0.57116">
        <ele>16.1</ele>
        <time>2024-08-03T14:54:20Z</time>
      </trkpt>
      <trkpt lat="44.83241" lon="-0.57115">
        <ele>16.1</ele>
        <time>2024-08-03T14:54:22Z</time>
      </trkpt>
      <trkpt lat="44.83243" lon="-0.57114">
        <ele>16.1</ele>
        <time>2024-08-03T14:54:23Z</time>
      </trkpt>
      <trkpt lat="44.83246" lon="-0.57114">
        <ele>16.1</ele>
        <time>2024-08-03T14:54:24Z</time>
      </trkpt>
      <trkpt lat="44.83249" lon="-0.57114">
        <ele>16.1</ele>
        <time>2024-08-03T14:54:25Z</time>
      </trkpt>
      <trkpt lat="44.83252" lon="-0.57113">
        <ele>16.1</ele>
        <time>2024-08-03T14:54:26Z</time>
      </trkpt>
      <trkpt lat="44.83256" lon="-0.57113">
        <ele>16.1</ele>
        <time>2024-08-03T14:54:28Z</time>
      </trkpt>
      <trkpt lat="44.83258" lon="-0.57113">
        <ele>16.1</ele>
        <time>2024-08-03T14:54:29Z</time>
      </trkpt>
      <trkpt lat="44.83261" lon="-0.57112">
        <ele>16</ele>
        <time>2024-08-03T14:54:30Z</time>
      </trkpt>
      <trkpt lat="44.83264" lon="-0.57111">
        <ele>16</ele>
        <time>2024-08-03T14:54:31Z</time>
      </trkpt>
      <trkpt lat="44.83267" lon="-0.5711">
        <ele>15.9</ele>
        <time>2024-08-03T14:54:32Z</time>
      </trkpt>
      <trkpt lat="44.83274" lon="-0.57108">
        <ele>15.9</ele>
        <time>2024-08-03T14:54:34Z</time>
      </trkpt>
      <trkpt lat="44.83277" lon="-0.57107">
        <ele>15.8</ele>
        <time>2024-08-03T14:54:35Z</time>
      </trkpt>
      <trkpt lat="44.83279" lon="-0.57106">
        <ele>15.8</ele>
        <time>2024-08-03T14:54:36Z</time>
      </trkpt>
      <trkpt lat="44.83283" lon="-0.57103">
        <ele>15.7</ele>
        <time>2024-08-03T14:54:37Z</time>
      </trkpt>
      <trkpt lat="44.83284" lon="-0.57102">
        <ele>15.7</ele>
        <time>2024-08-03T14:54:38Z</time>
      </trkpt>
      <trkpt lat="44.83289" lon="-0.571">
        <ele>15.7</ele>
        <time>2024-08-03T14:54:40Z</time>
      </trkpt>
      <trkpt lat="44.83292" lon="-0.57099">
        <ele>15.6</ele>
        <time>2024-08-03T14:54:41Z</time>
      </trkpt>
      <trkpt lat="44.83296" lon="-0.57098">
        <ele>15.6</ele>
        <time>2024-08-03T14:54:42Z</time>
      </trkpt>
      <trkpt lat="44.83297" lon="-0.57097">
        <ele>15.6</ele>
        <time>2024-08-03T14:54:43Z</time>
      </trkpt>
      <trkpt lat="44.83299" lon="-0.57097">
        <ele>15.6</ele>
        <time>2024-08-03T14:54:44Z</time>
      </trkpt>
      <trkpt lat="44.83305" lon="-0.57096">
        <ele>15.6</ele>
        <time>2024-08-03T14:54:46Z</time>
      </trkpt>
      <trkpt lat="44.83308" lon="-0.57096">
        <ele>15.6</ele>
        <time>2024-08-03T14:54:47Z</time>
      </trkpt>
      <trkpt lat="44.83312" lon="-0.57095">
        <ele>15.6</ele>
        <time>2024-08-03T14:54:48Z</time>
      </trkpt>
      <trkpt lat="44.83316" lon="-0.57093">
        <ele>15.6</ele>
        <time>2024-08-03T14:54:49Z</time>
      </trkpt>
      <trkpt lat="44.8332" lon="-0.57093">
        <ele>15.6</ele>
        <time>2024-08-03T14:54:50Z</time>
      </trkpt>
      <trkpt lat="44.83328" lon="-0.57094">
        <ele>15.6</ele>
        <time>2024-08-03T14:54:52Z</time>
      </trkpt>
      <trkpt lat="44.83331" lon="-0.57095">
        <ele>15.6</ele>
        <time>2024-08-03T14:54:53Z</time>
      </trkpt>
      <trkpt lat="44.83335" lon="-0.57096">
        <ele>15.6</ele>
        <time>2024-08-03T14:54:54Z</time>
      </trkpt>
      <trkpt lat="44.83338" lon="-0.57098">
        <ele>15.7</ele>
        <time>2024-08-03T14:54:55Z</time>
      </trkpt>
      <trkpt lat="44.83341" lon="-0.571">
        <ele>15.7</ele>
        <time>2024-08-03T14:54:56Z</time>
      </trkpt>
      <trkpt lat="44.83347" lon="-0.57103">
        <ele>15.7</ele>
        <time>2024-08-03T14:54:58Z</time>
      </trkpt>
      <trkpt lat="44.83351" lon="-0.57104">
        <ele>15.7</ele>
        <time>2024-08-03T14:54:59Z</time>
      </trkpt>
      <trkpt lat="44.83354" lon="-0.57104">
        <ele>15.7</ele>
        <time>2024-08-03T14:55:00Z</time>
      </trkpt>
      <trkpt lat="44.83358" lon="-0.57104">
        <ele>15.7</ele>
        <time>2024-08-03T14:55:01Z</time>
      </trkpt>
      <trkpt lat="44.83359" lon="-0.57104">
        <ele>15.7</ele>
        <time>2024-08-03T14:55:02Z</time>
      </trkpt>
      <trkpt lat="44.83363" lon="-0.57105">
        <ele>15.8</ele>
        <time>2024-08-03T14:55:04Z</time>
      </trkpt>
      <trkpt lat="44.83367" lon="-0.57107">
        <ele>15.8</ele>
        <time>2024-08-03T14:55:05Z</time>
      </trkpt>
      <trkpt lat="44.83368" lon="-0.57107">
        <ele>15.8</ele>
        <time>2024-08-03T14:55:06Z</time>
      </trkpt>
      <trkpt lat="44.83373" lon="-0.57102">
        <ele>15.8</ele>
        <time>2024-08-03T14:55:07Z</time>
      </trkpt>
      <trkpt lat="44.83375" lon="-0.57105">
        <ele>15.8</ele>
        <time>2024-08-03T14:55:08Z</time>
      </trkpt>
      <trkpt lat="44.8338" lon="-0.57109">
        <ele>15.9</ele>
        <time>2024-08-03T14:55:10Z</time>
      </trkpt>
      <trkpt lat="44.83383" lon="-0.57112">
        <ele>15.9</ele>
        <time>2024-08-03T14:55:11Z</time>
      </trkpt>
      <trkpt lat="44.83383" lon="-0.57113">
        <ele>15.9</ele>
        <time>2024-08-03T14:55:12Z</time>
      </trkpt>
      <trkpt lat="44.83385" lon="-0.57116">
        <ele>15.9</ele>
        <time>2024-08-03T14:55:13Z</time>
      </trkpt>
      <trkpt lat="44.83385" lon="-0.57118">
        <ele>15.9</ele>
        <time>2024-08-03T14:55:14Z</time>
      </trkpt>
      <trkpt lat="44.83387" lon="-0.57122">
        <ele>15.9</ele>
        <time>2024-08-03T14:55:16Z</time>
      </trkpt>
      <trkpt lat="44.8339" lon="-0.57127">
        <ele>15.9</ele>
        <time>2024-08-03T14:55:17Z</time>
      </trkpt>
      <trkpt lat="44.83393" lon="-0.57129">
        <ele>15.9</ele>
        <time>2024-08-03T14:55:18Z</time>
      </trkpt>
      <trkpt lat="44.83394" lon="-0.57129">
        <ele>15.9</ele>
        <time>2024-08-03T14:55:19Z</time>
      </trkpt>
      <trkpt lat="44.83395" lon="-0.5713">
        <ele>15.9</ele>
        <time>2024-08-03T14:55:20Z</time>
      </trkpt>
      <trkpt lat="44.83397" lon="-0.57129">
        <ele>15.9</ele>
        <time>2024-08-03T14:55:21Z</time>
      </trkpt>
      <trkpt lat="44.834" lon="-0.57128">
        <ele>15.9</ele>
        <time>2024-08-03T14:55:22Z</time>
      </trkpt>
      <trkpt lat="44.83403" lon="-0.57126">
        <ele>15.9</ele>
        <time>2024-08-03T14:55:23Z</time>
      </trkpt>
      <trkpt lat="44.83406" lon="-0.57124">
        <ele>15.9</ele>
        <time>2024-08-03T14:55:24Z</time>
      </trkpt>
      <trkpt lat="44.83409" lon="-0.57122">
        <ele>15.9</ele>
        <time>2024-08-03T14:55:25Z</time>
      </trkpt>
      <trkpt lat="44.83411" lon="-0.57121">
        <ele>15.9</ele>
        <time>2024-08-03T14:55:26Z</time>
      </trkpt>
      <trkpt lat="44.83413" lon="-0.5712">
        <ele>15.9</ele>
        <time>2024-08-03T14:55:27Z</time>
      </trkpt>
      <trkpt lat="44.83415" lon="-0.57119">
        <ele>15.9</ele>
        <time>2024-08-03T14:55:28Z</time>
      </trkpt>
      <trkpt lat="44.83416" lon="-0.57119">
        <ele>15.9</ele>
        <time>2024-08-03T14:55:29Z</time>
      </trkpt>
      <trkpt lat="44.8342" lon="-0.57118">
        <ele>16</ele>
        <time>2024-08-03T14:55:30Z</time>
      </trkpt>
      <trkpt lat="44.83423" lon="-0.57117">
        <ele>16</ele>
        <time>2024-08-03T14:55:31Z</time>
      </trkpt>
      <trkpt lat="44.83427" lon="-0.57117">
        <ele>16</ele>
        <time>2024-08-03T14:55:32Z</time>
      </trkpt>
      <trkpt lat="44.83428" lon="-0.57118">
        <ele>16</ele>
        <time>2024-08-03T14:55:33Z</time>
      </trkpt>
      <trkpt lat="44.83432" lon="-0.57118">
        <ele>16</ele>
        <time>2024-08-03T14:55:34Z</time>
      </trkpt>
      <trkpt lat="44.83433" lon="-0.57118">
        <ele>16</ele>
        <time>2024-08-03T14:55:35Z</time>
      </trkpt>
      <trkpt lat="44.83437" lon="-0.57117">
        <ele>16</ele>
        <time>2024-08-03T14:55:36Z</time>
      </trkpt>
      <trkpt lat="44.83443" lon="-0.57116">
        <ele>16.1</ele>
        <time>2024-08-03T14:55:38Z</time>
      </trkpt>
      <trkpt lat="44.83446" lon="-0.57117">
        <ele>16.1</ele>
        <time>2024-08-03T14:55:39Z</time>
      </trkpt>
      <trkpt lat="44.83447" lon="-0.57117">
        <ele>16.1</ele>
        <time>2024-08-03T14:55:40Z</time>
      </trkpt>
      <trkpt lat="44.8345" lon="-0.5712">
        <ele>16.1</ele>
        <time>2024-08-03T14:55:41Z</time>
      </trkpt>
      <trkpt lat="44.83451" lon="-0.57121">
        <ele>16.1</ele>
        <time>2024-08-03T14:55:42Z</time>
      </trkpt>
      <trkpt lat="44.83457" lon="-0.57125">
        <ele>16.2</ele>
        <time>2024-08-03T14:55:44Z</time>
      </trkpt>
      <trkpt lat="44.8346" lon="-0.57125">
        <ele>16.2</ele>
        <time>2024-08-03T14:55:45Z</time>
      </trkpt>
      <trkpt lat="44.83463" lon="-0.57125">
        <ele>16.2</ele>
        <time>2024-08-03T14:55:46Z</time>
      </trkpt>
      <trkpt lat="44.83464" lon="-0.57125">
        <ele>16.2</ele>
        <time>2024-08-03T14:55:47Z</time>
      </trkpt>
      <trkpt lat="44.83467" lon="-0.57126">
        <ele>16.2</ele>
        <time>2024-08-03T14:55:48Z</time>
      </trkpt>
      <trkpt lat="44.83468" lon="-0.57127">
        <ele>16.2</ele>
        <time>2024-08-03T14:55:49Z</time>
      </trkpt>
      <trkpt lat="44.83471" lon="-0.57129">
        <ele>16.1</ele>
        <time>2024-08-03T14:55:50Z</time>
      </trkpt>
      <trkpt lat="44.83472" lon="-0.5713">
        <ele>16.1</ele>
        <time>2024-08-03T14:55:51Z</time>
      </trkpt>
      <trkpt lat="44.83475" lon="-0.5713">
        <ele>16.1</ele>
        <time>2024-08-03T14:55:52Z</time>
      </trkpt>
      <trkpt lat="44.83477" lon="-0.5713">
        <ele>16</ele>
        <time>2024-08-03T14:55:53Z</time>
      </trkpt>
      <trkpt lat="44.8348" lon="-0.57126">
        <ele>15.6</ele>
        <time>2024-08-03T14:55:54Z</time>
      </trkpt>
      <trkpt lat="44.83482" lon="-0.57121">
        <ele>15.5</ele>
        <time>2024-08-03T14:55:55Z</time>
      </trkpt>
      <trkpt lat="44.83483" lon="-0.57117">
        <ele>15.5</ele>
        <time>2024-08-03T14:55:56Z</time>
      </trkpt>
      <trkpt lat="44.83483" lon="-0.57113">
        <ele>15.5</ele>
        <time>2024-08-03T14:55:57Z</time>
      </trkpt>
      <trkpt lat="44.83483" lon="-0.57111">
        <ele>15.5</ele>
        <time>2024-08-03T14:55:58Z</time>
      </trkpt>
      <trkpt lat="44.83483" lon="-0.57109">
        <ele>15.5</ele>
        <time>2024-08-03T14:55:59Z</time>
      </trkpt>
      <trkpt lat="44.83483" lon="-0.57109">
        <ele>15.5</ele>
        <time>2024-08-03T14:56:00Z</time>
      </trkpt>
      <trkpt lat="44.83483" lon="-0.57104">
        <ele>15.5</ele>
        <time>2024-08-03T14:56:01Z</time>
      </trkpt>
      <trkpt lat="44.83485" lon="-0.57102">
        <ele>15.5</ele>
        <time>2024-08-03T14:56:02Z</time>
      </trkpt>
      <trkpt lat="44.83485" lon="-0.57097">
        <ele>15.5</ele>
        <time>2024-08-03T14:56:03Z</time>
      </trkpt>
      <trkpt lat="44.83486" lon="-0.57095">
        <ele>15.4</ele>
        <time>2024-08-03T14:56:04Z</time>
      </trkpt>
      <trkpt lat="44.83487" lon="-0.57089">
        <ele>15.4</ele>
        <time>2024-08-03T14:56:05Z</time>
      </trkpt>
      <trkpt lat="44.83487" lon="-0.57087">
        <ele>15.4</ele>
        <time>2024-08-03T14:56:06Z</time>
      </trkpt>
      <trkpt lat="44.83488" lon="-0.57085">
        <ele>15.4</ele>
        <time>2024-08-03T14:56:07Z</time>
      </trkpt>
      <trkpt lat="44.83489" lon="-0.57081">
        <ele>15.4</ele>
        <time>2024-08-03T14:56:08Z</time>
      </trkpt>
      <trkpt lat="44.83489" lon="-0.57076">
        <ele>15.4</ele>
        <time>2024-08-03T14:56:09Z</time>
      </trkpt>
      <trkpt lat="44.8349" lon="-0.57075">
        <ele>15.4</ele>
        <time>2024-08-03T14:56:10Z</time>
      </trkpt>
      <trkpt lat="44.8349" lon="-0.57073">
        <ele>15.4</ele>
        <time>2024-08-03T14:56:11Z</time>
      </trkpt>
      <trkpt lat="44.83491" lon="-0.57071">
        <ele>15.3</ele>
        <time>2024-08-03T14:56:12Z</time>
      </trkpt>
      <trkpt lat="44.83494" lon="-0.57068">
        <ele>15.3</ele>
        <time>2024-08-03T14:56:13Z</time>
      </trkpt>
      <trkpt lat="44.83495" lon="-0.57067">
        <ele>15.3</ele>
        <time>2024-08-03T14:56:14Z</time>
      </trkpt>
      <trkpt lat="44.83497" lon="-0.57065">
        <ele>15.3</ele>
        <time>2024-08-03T14:56:15Z</time>
      </trkpt>
      <trkpt lat="44.835" lon="-0.57062">
        <ele>15.3</ele>
        <time>2024-08-03T14:56:16Z</time>
      </trkpt>
      <trkpt lat="44.83505" lon="-0.57057">
        <ele>15.3</ele>
        <time>2024-08-03T14:56:18Z</time>
      </trkpt>
      <trkpt lat="44.83507" lon="-0.57055">
        <ele>15.2</ele>
        <time>2024-08-03T14:56:19Z</time>
      </trkpt>
      <trkpt lat="44.83509" lon="-0.57051">
        <ele>15.2</ele>
        <time>2024-08-03T14:56:20Z</time>
      </trkpt>
      <trkpt lat="44.83511" lon="-0.57047">
        <ele>15.2</ele>
        <time>2024-08-03T14:56:21Z</time>
      </trkpt>
      <trkpt lat="44.83513" lon="-0.57042">
        <ele>15.2</ele>
        <time>2024-08-03T14:56:22Z</time>
      </trkpt>
      <trkpt lat="44.83517" lon="-0.57035">
        <ele>15.1</ele>
        <time>2024-08-03T14:56:24Z</time>
      </trkpt>
      <trkpt lat="44.83519" lon="-0.57033">
        <ele>14.9</ele>
        <time>2024-08-03T14:56:25Z</time>
      </trkpt>
      <trkpt lat="44.83522" lon="-0.5703">
        <ele>14.8</ele>
        <time>2024-08-03T14:56:26Z</time>
      </trkpt>
      <trkpt lat="44.83524" lon="-0.57025">
        <ele>14.8</ele>
        <time>2024-08-03T14:56:27Z</time>
      </trkpt>
      <trkpt lat="44.83526" lon="-0.57021">
        <ele>14.7</ele>
        <time>2024-08-03T14:56:28Z</time>
      </trkpt>
      <trkpt lat="44.83527" lon="-0.57016">
        <ele>14.7</ele>
        <time>2024-08-03T14:56:29Z</time>
      </trkpt>
      <trkpt lat="44.83528" lon="-0.57012">
        <ele>14.7</ele>
        <time>2024-08-03T14:56:30Z</time>
      </trkpt>
      <trkpt lat="44.8353" lon="-0.57009">
        <ele>14.6</ele>
        <time>2024-08-03T14:56:31Z</time>
      </trkpt>
      <trkpt lat="44.83532" lon="-0.57005">
        <ele>14.6</ele>
        <time>2024-08-03T14:56:32Z</time>
      </trkpt>
      <trkpt lat="44.83533" lon="-0.57001">
        <ele>14.6</ele>
        <time>2024-08-03T14:56:33Z</time>
      </trkpt>
      <trkpt lat="44.83534" lon="-0.56998">
        <ele>14.5</ele>
        <time>2024-08-03T14:56:34Z</time>
      </trkpt>
      <trkpt lat="44.83537" lon="-0.56994">
        <ele>14.5</ele>
        <time>2024-08-03T14:56:36Z</time>
      </trkpt>
      <trkpt lat="44.83537" lon="-0.56991">
        <ele>14.5</ele>
        <time>2024-08-03T14:56:37Z</time>
      </trkpt>
      <trkpt lat="44.83538" lon="-0.56988">
        <ele>14.4</ele>
        <time>2024-08-03T14:56:38Z</time>
      </trkpt>
      <trkpt lat="44.83538" lon="-0.56984">
        <ele>14.4</ele>
        <time>2024-08-03T14:56:39Z</time>
      </trkpt>
      <trkpt lat="44.83538" lon="-0.5698">
        <ele>14.4</ele>
        <time>2024-08-03T14:56:40Z</time>
      </trkpt>
      <trkpt lat="44.8354" lon="-0.56974">
        <ele>14.3</ele>
        <time>2024-08-03T14:56:41Z</time>
      </trkpt>
      <trkpt lat="44.8354" lon="-0.56972">
        <ele>14.3</ele>
        <time>2024-08-03T14:56:42Z</time>
      </trkpt>
      <trkpt lat="44.83541" lon="-0.56968">
        <ele>14.3</ele>
        <time>2024-08-03T14:56:43Z</time>
      </trkpt>
      <trkpt lat="44.83543" lon="-0.56963">
        <ele>14.2</ele>
        <time>2024-08-03T14:56:44Z</time>
      </trkpt>
      <trkpt lat="44.83543" lon="-0.56961">
        <ele>14.2</ele>
        <time>2024-08-03T14:56:45Z</time>
      </trkpt>
      <trkpt lat="44.83544" lon="-0.56957">
        <ele>14.1</ele>
        <time>2024-08-03T14:56:46Z</time>
      </trkpt>
      <trkpt lat="44.83544" lon="-0.56953">
        <ele>14.1</ele>
        <time>2024-08-03T14:56:47Z</time>
      </trkpt>
      <trkpt lat="44.83544" lon="-0.56949">
        <ele>14</ele>
        <time>2024-08-03T14:56:48Z</time>
      </trkpt>
      <trkpt lat="44.83545" lon="-0.56945">
        <ele>14</ele>
        <time>2024-08-03T14:56:49Z</time>
      </trkpt>
      <trkpt lat="44.83547" lon="-0.56941">
        <ele>13.9</ele>
        <time>2024-08-03T14:56:50Z</time>
      </trkpt>
      <trkpt lat="44.83548" lon="-0.56938">
        <ele>13.9</ele>
        <time>2024-08-03T14:56:51Z</time>
      </trkpt>
      <trkpt lat="44.8355" lon="-0.56933">
        <ele>13.8</ele>
        <time>2024-08-03T14:56:52Z</time>
      </trkpt>
      <trkpt lat="44.83551" lon="-0.56931">
        <ele>13.8</ele>
        <time>2024-08-03T14:56:53Z</time>
      </trkpt>
      <trkpt lat="44.83553" lon="-0.56928">
        <ele>13.7</ele>
        <time>2024-08-03T14:56:54Z</time>
      </trkpt>
      <trkpt lat="44.83554" lon="-0.56923">
        <ele>13.6</ele>
        <time>2024-08-03T14:56:55Z</time>
      </trkpt>
      <trkpt lat="44.83554" lon="-0.56921">
        <ele>13.6</ele>
        <time>2024-08-03T14:56:56Z</time>
      </trkpt>
      <trkpt lat="44.83555" lon="-0.56914">
        <ele>13.5</ele>
        <time>2024-08-03T14:56:58Z</time>
      </trkpt>
      <trkpt lat="44.83555" lon="-0.5691">
        <ele>13.4</ele>
        <time>2024-08-03T14:56:59Z</time>
      </trkpt>
      <trkpt lat="44.83556" lon="-0.56905">
        <ele>13.3</ele>
        <time>2024-08-03T14:57:00Z</time>
      </trkpt>
      <trkpt lat="44.83556" lon="-0.56903">
        <ele>13.3</ele>
        <time>2024-08-03T14:57:01Z</time>
      </trkpt>
      <trkpt lat="44.83556" lon="-0.56898">
        <ele>13.2</ele>
        <time>2024-08-03T14:57:02Z</time>
      </trkpt>
      <trkpt lat="44.83556" lon="-0.56897">
        <ele>13.2</ele>
        <time>2024-08-03T14:57:03Z</time>
      </trkpt>
      <trkpt lat="44.83557" lon="-0.56892">
        <ele>13.1</ele>
        <time>2024-08-03T14:57:04Z</time>
      </trkpt>
      <trkpt lat="44.83558" lon="-0.56891">
        <ele>13.1</ele>
        <time>2024-08-03T14:57:05Z</time>
      </trkpt>
      <trkpt lat="44.83559" lon="-0.56887">
        <ele>13</ele>
        <time>2024-08-03T14:57:06Z</time>
      </trkpt>
      <trkpt lat="44.83561" lon="-0.56883">
        <ele>12.9</ele>
        <time>2024-08-03T14:57:07Z</time>
      </trkpt>
      <trkpt lat="44.83562" lon="-0.56882">
        <ele>12.9</ele>
        <time>2024-08-03T14:57:08Z</time>
      </trkpt>
      <trkpt lat="44.83563" lon="-0.56881">
        <ele>12.9</ele>
        <time>2024-08-03T14:57:09Z</time>
      </trkpt>
      <trkpt lat="44.83565" lon="-0.56878">
        <ele>12.8</ele>
        <time>2024-08-03T14:57:10Z</time>
      </trkpt>
      <trkpt lat="44.83568" lon="-0.56874">
        <ele>12.7</ele>
        <time>2024-08-03T14:57:11Z</time>
      </trkpt>
      <trkpt lat="44.83568" lon="-0.56872">
        <ele>12.7</ele>
        <time>2024-08-03T14:57:12Z</time>
      </trkpt>
      <trkpt lat="44.83569" lon="-0.56868">
        <ele>12.6</ele>
        <time>2024-08-03T14:57:13Z</time>
      </trkpt>
      <trkpt lat="44.83569" lon="-0.56866">
        <ele>12.6</ele>
        <time>2024-08-03T14:57:14Z</time>
      </trkpt>
      <trkpt lat="44.83569" lon="-0.56862">
        <ele>12.5</ele>
        <time>2024-08-03T14:57:15Z</time>
      </trkpt>
      <trkpt lat="44.83568" lon="-0.56857">
        <ele>12.5</ele>
        <time>2024-08-03T14:57:16Z</time>
      </trkpt>
      <trkpt lat="44.83567" lon="-0.56851">
        <ele>12.4</ele>
        <time>2024-08-03T14:57:17Z</time>
      </trkpt>
      <trkpt lat="44.83567" lon="-0.56846">
        <ele>12.3</ele>
        <time>2024-08-03T14:57:18Z</time>
      </trkpt>
      <trkpt lat="44.83567" lon="-0.56837">
        <ele>12.2</ele>
        <time>2024-08-03T14:57:20Z</time>
      </trkpt>
      <trkpt lat="44.83567" lon="-0.56833">
        <ele>12.1</ele>
        <time>2024-08-03T14:57:21Z</time>
      </trkpt>
      <trkpt lat="44.83568" lon="-0.56832">
        <ele>12.1</ele>
        <time>2024-08-03T14:57:22Z</time>
      </trkpt>
      <trkpt lat="44.83569" lon="-0.56827">
        <ele>12</ele>
        <time>2024-08-03T14:57:23Z</time>
      </trkpt>
      <trkpt lat="44.8357" lon="-0.56825">
        <ele>12</ele>
        <time>2024-08-03T14:57:24Z</time>
      </trkpt>
      <trkpt lat="44.83572" lon="-0.56817">
        <ele>11.8</ele>
        <time>2024-08-03T14:57:26Z</time>
      </trkpt>
      <trkpt lat="44.83574" lon="-0.56812">
        <ele>11.8</ele>
        <time>2024-08-03T14:57:27Z</time>
      </trkpt>
      <trkpt lat="44.83575" lon="-0.56807">
        <ele>11.6</ele>
        <time>2024-08-03T14:57:28Z</time>
      </trkpt>
      <trkpt lat="44.83576" lon="-0.56805">
        <ele>11.6</ele>
        <time>2024-08-03T14:57:29Z</time>
      </trkpt>
      <trkpt lat="44.83577" lon="-0.56801">
        <ele>11.4</ele>
        <time>2024-08-03T14:57:30Z</time>
      </trkpt>
      <trkpt lat="44.83578" lon="-0.56796">
        <ele>11.3</ele>
        <time>2024-08-03T14:57:31Z</time>
      </trkpt>
      <trkpt lat="44.83579" lon="-0.56791">
        <ele>11.2</ele>
        <time>2024-08-03T14:57:32Z</time>
      </trkpt>
      <trkpt lat="44.83579" lon="-0.5679">
        <ele>11.1</ele>
        <time>2024-08-03T14:57:33Z</time>
      </trkpt>
      <trkpt lat="44.8358" lon="-0.56787">
        <ele>11</ele>
        <time>2024-08-03T14:57:34Z</time>
      </trkpt>
      <trkpt lat="44.83581" lon="-0.56785">
        <ele>11</ele>
        <time>2024-08-03T14:57:35Z</time>
      </trkpt>
      <trkpt lat="44.83582" lon="-0.56781">
        <ele>10.8</ele>
        <time>2024-08-03T14:57:36Z</time>
      </trkpt>
      <trkpt lat="44.83583" lon="-0.56779">
        <ele>10.8</ele>
        <time>2024-08-03T14:57:37Z</time>
      </trkpt>
      <trkpt lat="44.83585" lon="-0.56775">
        <ele>10.6</ele>
        <time>2024-08-03T14:57:38Z</time>
      </trkpt>
      <trkpt lat="44.83585" lon="-0.56774">
        <ele>10.6</ele>
        <time>2024-08-03T14:57:39Z</time>
      </trkpt>
      <trkpt lat="44.83586" lon="-0.5677">
        <ele>10.4</ele>
        <time>2024-08-03T14:57:40Z</time>
      </trkpt>
      <trkpt lat="44.83587" lon="-0.56768">
        <ele>10.4</ele>
        <time>2024-08-03T14:57:41Z</time>
      </trkpt>
      <trkpt lat="44.83588" lon="-0.56765">
        <ele>10.3</ele>
        <time>2024-08-03T14:57:42Z</time>
      </trkpt>
      <trkpt lat="44.83589" lon="-0.56763">
        <ele>10.2</ele>
        <time>2024-08-03T14:57:43Z</time>
      </trkpt>
      <trkpt lat="44.8359" lon="-0.56758">
        <ele>10.1</ele>
        <time>2024-08-03T14:57:44Z</time>
      </trkpt>
      <trkpt lat="44.8359" lon="-0.56756">
        <ele>10</ele>
        <time>2024-08-03T14:57:45Z</time>
      </trkpt>
      <trkpt lat="44.83592" lon="-0.56752">
        <ele>9.9</ele>
        <time>2024-08-03T14:57:46Z</time>
      </trkpt>
      <trkpt lat="44.83592" lon="-0.56751">
        <ele>9.9</ele>
        <time>2024-08-03T14:57:47Z</time>
      </trkpt>
      <trkpt lat="44.83594" lon="-0.56747">
        <ele>9.8</ele>
        <time>2024-08-03T14:57:48Z</time>
      </trkpt>
      <trkpt lat="44.83594" lon="-0.56746">
        <ele>9.7</ele>
        <time>2024-08-03T14:57:49Z</time>
      </trkpt>
      <trkpt lat="44.83595" lon="-0.56742">
        <ele>9.6</ele>
        <time>2024-08-03T14:57:50Z</time>
      </trkpt>
      <trkpt lat="44.83596" lon="-0.56741">
        <ele>9.6</ele>
        <time>2024-08-03T14:57:51Z</time>
      </trkpt>
      <trkpt lat="44.83597" lon="-0.56737">
        <ele>9.5</ele>
        <time>2024-08-03T14:57:52Z</time>
      </trkpt>
      <trkpt lat="44.83598" lon="-0.56735">
        <ele>9.5</ele>
        <time>2024-08-03T14:57:53Z</time>
      </trkpt>
      <trkpt lat="44.836" lon="-0.56733">
        <ele>9.4</ele>
        <time>2024-08-03T14:57:54Z</time>
      </trkpt>
      <trkpt lat="44.83601" lon="-0.56732">
        <ele>9.3</ele>
        <time>2024-08-03T14:57:55Z</time>
      </trkpt>
      <trkpt lat="44.83605" lon="-0.56729">
        <ele>9.2</ele>
        <time>2024-08-03T14:57:56Z</time>
      </trkpt>
      <trkpt lat="44.83605" lon="-0.56728">
        <ele>9.2</ele>
        <time>2024-08-03T14:57:57Z</time>
      </trkpt>
      <trkpt lat="44.83607" lon="-0.56725">
        <ele>9.1</ele>
        <time>2024-08-03T14:57:58Z</time>
      </trkpt>
      <trkpt lat="44.83608" lon="-0.56721">
        <ele>9</ele>
        <time>2024-08-03T14:57:59Z</time>
      </trkpt>
      <trkpt lat="44.83609" lon="-0.56717">
        <ele>8.9</ele>
        <time>2024-08-03T14:58:00Z</time>
      </trkpt>
      <trkpt lat="44.83609" lon="-0.56716">
        <ele>8.9</ele>
        <time>2024-08-03T14:58:01Z</time>
      </trkpt>
      <trkpt lat="44.83612" lon="-0.56713">
        <ele>8.7</ele>
        <time>2024-08-03T14:58:02Z</time>
      </trkpt>
      <trkpt lat="44.83614" lon="-0.56711">
        <ele>8.7</ele>
        <time>2024-08-03T14:58:03Z</time>
      </trkpt>
      <trkpt lat="44.83616" lon="-0.56709">
        <ele>8.6</ele>
        <time>2024-08-03T14:58:04Z</time>
      </trkpt>
      <trkpt lat="44.83618" lon="-0.56706">
        <ele>8.5</ele>
        <time>2024-08-03T14:58:05Z</time>
      </trkpt>
      <trkpt lat="44.8362" lon="-0.56703">
        <ele>8.4</ele>
        <time>2024-08-03T14:58:06Z</time>
      </trkpt>
      <trkpt lat="44.83621" lon="-0.56699">
        <ele>8.4</ele>
        <time>2024-08-03T14:58:07Z</time>
      </trkpt>
      <trkpt lat="44.83623" lon="-0.56695">
        <ele>8.3</ele>
        <time>2024-08-03T14:58:08Z</time>
      </trkpt>
      <trkpt lat="44.83627" lon="-0.56688">
        <ele>8.2</ele>
        <time>2024-08-03T14:58:10Z</time>
      </trkpt>
      <trkpt lat="44.83628" lon="-0.56684">
        <ele>8.3</ele>
        <time>2024-08-03T14:58:11Z</time>
      </trkpt>
      <trkpt lat="44.83628" lon="-0.56679">
        <ele>9</ele>
        <time>2024-08-03T14:58:12Z</time>
      </trkpt>
      <trkpt lat="44.83627" lon="-0.56675">
        <ele>9.7</ele>
        <time>2024-08-03T14:58:13Z</time>
      </trkpt>
      <trkpt lat="44.83627" lon="-0.5667">
        <ele>9.7</ele>
        <time>2024-08-03T14:58:14Z</time>
      </trkpt>
      <trkpt lat="44.83627" lon="-0.5666">
        <ele>9.7</ele>
        <time>2024-08-03T14:58:16Z</time>
      </trkpt>
      <trkpt lat="44.83628" lon="-0.56655">
        <ele>9.6</ele>
        <time>2024-08-03T14:58:17Z</time>
      </trkpt>
      <trkpt lat="44.83629" lon="-0.56651">
        <ele>9.5</ele>
        <time>2024-08-03T14:58:18Z</time>
      </trkpt>
      <trkpt lat="44.83631" lon="-0.56646">
        <ele>9.5</ele>
        <time>2024-08-03T14:58:19Z</time>
      </trkpt>
      <trkpt lat="44.83632" lon="-0.56642">
        <ele>9.4</ele>
        <time>2024-08-03T14:58:20Z</time>
      </trkpt>
      <trkpt lat="44.83633" lon="-0.56637">
        <ele>9.3</ele>
        <time>2024-08-03T14:58:21Z</time>
      </trkpt>
      <trkpt lat="44.83633" lon="-0.56632">
        <ele>9.3</ele>
        <time>2024-08-03T14:58:22Z</time>
      </trkpt>
      <trkpt lat="44.83634" lon="-0.56627">
        <ele>9.2</ele>
        <time>2024-08-03T14:58:23Z</time>
      </trkpt>
      <trkpt lat="44.83634" lon="-0.56622">
        <ele>9.1</ele>
        <time>2024-08-03T14:58:24Z</time>
      </trkpt>
      <trkpt lat="44.83634" lon="-0.56617">
        <ele>9.1</ele>
        <time>2024-08-03T14:58:25Z</time>
      </trkpt>
      <trkpt lat="44.83635" lon="-0.56613">
        <ele>9.1</ele>
        <time>2024-08-03T14:58:26Z</time>
      </trkpt>
      <trkpt lat="44.83636" lon="-0.56609">
        <ele>9.1</ele>
        <time>2024-08-03T14:58:27Z</time>
      </trkpt>
      <trkpt lat="44.83638" lon="-0.56605">
        <ele>9.2</ele>
        <time>2024-08-03T14:58:28Z</time>
      </trkpt>
      <trkpt lat="44.83639" lon="-0.566">
        <ele>9.2</ele>
        <time>2024-08-03T14:58:29Z</time>
      </trkpt>
      <trkpt lat="44.8364" lon="-0.56596">
        <ele>9.2</ele>
        <time>2024-08-03T14:58:30Z</time>
      </trkpt>
      <trkpt lat="44.83642" lon="-0.56591">
        <ele>9.3</ele>
        <time>2024-08-03T14:58:31Z</time>
      </trkpt>
      <trkpt lat="44.83644" lon="-0.56587">
        <ele>9.3</ele>
        <time>2024-08-03T14:58:32Z</time>
      </trkpt>
      <trkpt lat="44.83646" lon="-0.56583">
        <ele>9.4</ele>
        <time>2024-08-03T14:58:33Z</time>
      </trkpt>
      <trkpt lat="44.83648" lon="-0.56579">
        <ele>9.4</ele>
        <time>2024-08-03T14:58:34Z</time>
      </trkpt>
      <trkpt lat="44.83649" lon="-0.56576">
        <ele>9.5</ele>
        <time>2024-08-03T14:58:35Z</time>
      </trkpt>
      <trkpt lat="44.83651" lon="-0.56573">
        <ele>9.5</ele>
        <time>2024-08-03T14:58:36Z</time>
      </trkpt>
      <trkpt lat="44.83653" lon="-0.5657">
        <ele>9.6</ele>
        <time>2024-08-03T14:58:37Z</time>
      </trkpt>
      <trkpt lat="44.83655" lon="-0.56566">
        <ele>9.7</ele>
        <time>2024-08-03T14:58:38Z</time>
      </trkpt>
      <trkpt lat="44.83658" lon="-0.56563">
        <ele>9.8</ele>
        <time>2024-08-03T14:58:39Z</time>
      </trkpt>
      <trkpt lat="44.8366" lon="-0.56559">
        <ele>9.8</ele>
        <time>2024-08-03T14:58:40Z</time>
      </trkpt>
      <trkpt lat="44.83662" lon="-0.56555">
        <ele>9.9</ele>
        <time>2024-08-03T14:58:41Z</time>
      </trkpt>
      <trkpt lat="44.83664" lon="-0.56552">
        <ele>10</ele>
        <time>2024-08-03T14:58:42Z</time>
      </trkpt>
      <trkpt lat="44.83666" lon="-0.56548">
        <ele>10.1</ele>
        <time>2024-08-03T14:58:43Z</time>
      </trkpt>
      <trkpt lat="44.83668" lon="-0.56545">
        <ele>10.1</ele>
        <time>2024-08-03T14:58:44Z</time>
      </trkpt>
      <trkpt lat="44.83669" lon="-0.56543">
        <ele>10.2</ele>
        <time>2024-08-03T14:58:45Z</time>
      </trkpt>
      <trkpt lat="44.83671" lon="-0.56539">
        <ele>10.2</ele>
        <time>2024-08-03T14:58:46Z</time>
      </trkpt>
      <trkpt lat="44.83673" lon="-0.56536">
        <ele>10.2</ele>
        <time>2024-08-03T14:58:47Z</time>
      </trkpt>
      <trkpt lat="44.83673" lon="-0.56533">
        <ele>10.3</ele>
        <time>2024-08-03T14:58:48Z</time>
      </trkpt>
      <trkpt lat="44.83675" lon="-0.56526">
        <ele>10.3</ele>
        <time>2024-08-03T14:58:50Z</time>
      </trkpt>
      <trkpt lat="44.83676" lon="-0.56523">
        <ele>10.4</ele>
        <time>2024-08-03T14:58:51Z</time>
      </trkpt>
      <trkpt lat="44.83678" lon="-0.56519">
        <ele>10.4</ele>
        <time>2024-08-03T14:58:52Z</time>
      </trkpt>
      <trkpt lat="44.83679" lon="-0.56518">
        <ele>10.4</ele>
        <time>2024-08-03T14:58:53Z</time>
      </trkpt>
      <trkpt lat="44.83682" lon="-0.56515">
        <ele>10.4</ele>
        <time>2024-08-03T14:58:54Z</time>
      </trkpt>
      <trkpt lat="44.83687" lon="-0.56512">
        <ele>10.3</ele>
        <time>2024-08-03T14:58:56Z</time>
      </trkpt>
      <trkpt lat="44.83689" lon="-0.5651">
        <ele>10.4</ele>
        <time>2024-08-03T14:58:57Z</time>
      </trkpt>
      <trkpt lat="44.83692" lon="-0.56509">
        <ele>10.6</ele>
        <time>2024-08-03T14:58:58Z</time>
      </trkpt>
      <trkpt lat="44.83695" lon="-0.56507">
        <ele>10.6</ele>
        <time>2024-08-03T14:58:59Z</time>
      </trkpt>
      <trkpt lat="44.83698" lon="-0.56506">
        <ele>10.7</ele>
        <time>2024-08-03T14:59:00Z</time>
      </trkpt>
      <trkpt lat="44.83703" lon="-0.56503">
        <ele>10.7</ele>
        <time>2024-08-03T14:59:02Z</time>
      </trkpt>
      <trkpt lat="44.83706" lon="-0.565">
        <ele>10.8</ele>
        <time>2024-08-03T14:59:03Z</time>
      </trkpt>
      <trkpt lat="44.83708" lon="-0.56498">
        <ele>10.8</ele>
        <time>2024-08-03T14:59:04Z</time>
      </trkpt>
      <trkpt lat="44.83711" lon="-0.56496">
        <ele>10.8</ele>
        <time>2024-08-03T14:59:05Z</time>
      </trkpt>
      <trkpt lat="44.83713" lon="-0.56493">
        <ele>10.9</ele>
        <time>2024-08-03T14:59:06Z</time>
      </trkpt>
      <trkpt lat="44.83717" lon="-0.56487">
        <ele>10.9</ele>
        <time>2024-08-03T14:59:08Z</time>
      </trkpt>
      <trkpt lat="44.83719" lon="-0.56482">
        <ele>11</ele>
        <time>2024-08-03T14:59:09Z</time>
      </trkpt>
      <trkpt lat="44.83719" lon="-0.5648">
        <ele>11</ele>
        <time>2024-08-03T14:59:10Z</time>
      </trkpt>
      <trkpt lat="44.83721" lon="-0.56477">
        <ele>11</ele>
        <time>2024-08-03T14:59:11Z</time>
      </trkpt>
      <trkpt lat="44.83722" lon="-0.56473">
        <ele>11</ele>
        <time>2024-08-03T14:59:12Z</time>
      </trkpt>
      <trkpt lat="44.83725" lon="-0.56468">
        <ele>11.1</ele>
        <time>2024-08-03T14:59:14Z</time>
      </trkpt>
      <trkpt lat="44.83728" lon="-0.56463">
        <ele>11.2</ele>
        <time>2024-08-03T14:59:15Z</time>
      </trkpt>
      <trkpt lat="44.83729" lon="-0.56462">
        <ele>11.2</ele>
        <time>2024-08-03T14:59:16Z</time>
      </trkpt>
      <trkpt lat="44.8373" lon="-0.56458">
        <ele>11.2</ele>
        <time>2024-08-03T14:59:17Z</time>
      </trkpt>
      <trkpt lat="44.83731" lon="-0.56456">
        <ele>11.2</ele>
        <time>2024-08-03T14:59:18Z</time>
      </trkpt>
      <trkpt lat="44.83734" lon="-0.56451">
        <ele>11.3</ele>
        <time>2024-08-03T14:59:20Z</time>
      </trkpt>
      <trkpt lat="44.83736" lon="-0.56448">
        <ele>11.4</ele>
        <time>2024-08-03T14:59:21Z</time>
      </trkpt>
      <trkpt lat="44.83738" lon="-0.56445">
        <ele>11.4</ele>
        <time>2024-08-03T14:59:22Z</time>
      </trkpt>
      <trkpt lat="44.8374" lon="-0.56442">
        <ele>11.4</ele>
        <time>2024-08-03T14:59:23Z</time>
      </trkpt>
      <trkpt lat="44.83742" lon="-0.56439">
        <ele>11.5</ele>
        <time>2024-08-03T14:59:24Z</time>
      </trkpt>
      <trkpt lat="44.83745" lon="-0.56434">
        <ele>11.5</ele>
        <time>2024-08-03T14:59:26Z</time>
      </trkpt>
      <trkpt lat="44.83746" lon="-0.5643">
        <ele>11.6</ele>
        <time>2024-08-03T14:59:27Z</time>
      </trkpt>
      <trkpt lat="44.83748" lon="-0.56427">
        <ele>11.6</ele>
        <time>2024-08-03T14:59:28Z</time>
      </trkpt>
      <trkpt lat="44.8375" lon="-0.56424">
        <ele>11.6</ele>
        <time>2024-08-03T14:59:29Z</time>
      </trkpt>
      <trkpt lat="44.83752" lon="-0.56421">
        <ele>11.7</ele>
        <time>2024-08-03T14:59:30Z</time>
      </trkpt>
      <trkpt lat="44.83755" lon="-0.56415">
        <ele>11.7</ele>
        <time>2024-08-03T14:59:32Z</time>
      </trkpt>
      <trkpt lat="44.83757" lon="-0.56412">
        <ele>11.8</ele>
        <time>2024-08-03T14:59:33Z</time>
      </trkpt>
      <trkpt lat="44.83758" lon="-0.56409">
        <ele>11.8</ele>
        <time>2024-08-03T14:59:34Z</time>
      </trkpt>
      <trkpt lat="44.8376" lon="-0.56405">
        <ele>11.8</ele>
        <time>2024-08-03T14:59:35Z</time>
      </trkpt>
      <trkpt lat="44.83762" lon="-0.56402">
        <ele>11.9</ele>
        <time>2024-08-03T14:59:36Z</time>
      </trkpt>
      <trkpt lat="44.83765" lon="-0.56396">
        <ele>12</ele>
        <time>2024-08-03T14:59:38Z</time>
      </trkpt>
      <trkpt lat="44.83766" lon="-0.56394">
        <ele>12</ele>
        <time>2024-08-03T14:59:39Z</time>
      </trkpt>
      <trkpt lat="44.83768" lon="-0.56389">
        <ele>12.1</ele>
        <time>2024-08-03T14:59:40Z</time>
      </trkpt>
      <trkpt lat="44.83769" lon="-0.56388">
        <ele>12.1</ele>
        <time>2024-08-03T14:59:41Z</time>
      </trkpt>
      <trkpt lat="44.83771" lon="-0.56385">
        <ele>12.2</ele>
        <time>2024-08-03T14:59:42Z</time>
      </trkpt>
      <trkpt lat="44.83773" lon="-0.56382">
        <ele>12.2</ele>
        <time>2024-08-03T14:59:43Z</time>
      </trkpt>
      <trkpt lat="44.83775" lon="-0.56379">
        <ele>12.2</ele>
        <time>2024-08-03T14:59:44Z</time>
      </trkpt>
      <trkpt lat="44.83777" lon="-0.56376">
        <ele>12.3</ele>
        <time>2024-08-03T14:59:45Z</time>
      </trkpt>
      <trkpt lat="44.83779" lon="-0.56373">
        <ele>12.3</ele>
        <time>2024-08-03T14:59:46Z</time>
      </trkpt>
      <trkpt lat="44.83781" lon="-0.5637">
        <ele>12.3</ele>
        <time>2024-08-03T14:59:47Z</time>
      </trkpt>
      <trkpt lat="44.83783" lon="-0.56367">
        <ele>12.4</ele>
        <time>2024-08-03T14:59:48Z</time>
      </trkpt>
      <trkpt lat="44.83786" lon="-0.56364">
        <ele>12.4</ele>
        <time>2024-08-03T14:59:49Z</time>
      </trkpt>
      <trkpt lat="44.83788" lon="-0.56362">
        <ele>12.4</ele>
        <time>2024-08-03T14:59:50Z</time>
      </trkpt>
      <trkpt lat="44.8379" lon="-0.56359">
        <ele>12.4</ele>
        <time>2024-08-03T14:59:51Z</time>
      </trkpt>
      <trkpt lat="44.83792" lon="-0.56356">
        <ele>12.4</ele>
        <time>2024-08-03T14:59:52Z</time>
      </trkpt>
      <trkpt lat="44.83794" lon="-0.56352">
        <ele>12.4</ele>
        <time>2024-08-03T14:59:53Z</time>
      </trkpt>
      <trkpt lat="44.83796" lon="-0.56349">
        <ele>12.5</ele>
        <time>2024-08-03T14:59:54Z</time>
      </trkpt>
      <trkpt lat="44.83798" lon="-0.56346">
        <ele>12.5</ele>
        <time>2024-08-03T14:59:55Z</time>
      </trkpt>
      <trkpt lat="44.838" lon="-0.56342">
        <ele>12.5</ele>
        <time>2024-08-03T14:59:56Z</time>
      </trkpt>
      <trkpt lat="44.83801" lon="-0.5634">
        <ele>12.5</ele>
        <time>2024-08-03T14:59:57Z</time>
      </trkpt>
      <trkpt lat="44.83803" lon="-0.56337">
        <ele>12.5</ele>
        <time>2024-08-03T14:59:58Z</time>
      </trkpt>
      <trkpt lat="44.83807" lon="-0.5633">
        <ele>12.5</ele>
        <time>2024-08-03T15:00:00Z</time>
      </trkpt>
      <trkpt lat="44.83809" lon="-0.56327">
        <ele>12.5</ele>
        <time>2024-08-03T15:00:01Z</time>
      </trkpt>
      <trkpt lat="44.83811" lon="-0.56324">
        <ele>12.5</ele>
        <time>2024-08-03T15:00:02Z</time>
      </trkpt>
      <trkpt lat="44.83813" lon="-0.56321">
        <ele>12.5</ele>
        <time>2024-08-03T15:00:03Z</time>
      </trkpt>
      <trkpt lat="44.83814" lon="-0.56317">
        <ele>12.5</ele>
        <time>2024-08-03T15:00:04Z</time>
      </trkpt>
      <trkpt lat="44.83816" lon="-0.56313">
        <ele>12.5</ele>
        <time>2024-08-03T15:00:05Z</time>
      </trkpt>
      <trkpt lat="44.83817" lon="-0.56311">
        <ele>12.5</ele>
        <time>2024-08-03T15:00:06Z</time>
      </trkpt>
      <trkpt lat="44.83819" lon="-0.56308">
        <ele>12.5</ele>
        <time>2024-08-03T15:00:07Z</time>
      </trkpt>
      <trkpt lat="44.83821" lon="-0.56303">
        <ele>12.5</ele>
        <time>2024-08-03T15:00:08Z</time>
      </trkpt>
      <trkpt lat="44.83822" lon="-0.56301">
        <ele>12.5</ele>
        <time>2024-08-03T15:00:09Z</time>
      </trkpt>
      <trkpt lat="44.83823" lon="-0.56298">
        <ele>12.5</ele>
        <time>2024-08-03T15:00:10Z</time>
      </trkpt>
      <trkpt lat="44.83827" lon="-0.56293">
        <ele>12.5</ele>
        <time>2024-08-03T15:00:12Z</time>
      </trkpt>
      <trkpt lat="44.83828" lon="-0.5629">
        <ele>12.5</ele>
        <time>2024-08-03T15:00:13Z</time>
      </trkpt>
      <trkpt lat="44.83831" lon="-0.56286">
        <ele>12.5</ele>
        <time>2024-08-03T15:00:14Z</time>
      </trkpt>
      <trkpt lat="44.83832" lon="-0.56284">
        <ele>12.6</ele>
        <time>2024-08-03T15:00:15Z</time>
      </trkpt>
      <trkpt lat="44.83833" lon="-0.56281">
        <ele>12.6</ele>
        <time>2024-08-03T15:00:16Z</time>
      </trkpt>
      <trkpt lat="44.83837" lon="-0.56275">
        <ele>12.6</ele>
        <time>2024-08-03T15:00:18Z</time>
      </trkpt>
      <trkpt lat="44.83838" lon="-0.56272">
        <ele>12.6</ele>
        <time>2024-08-03T15:00:19Z</time>
      </trkpt>
      <trkpt lat="44.83841" lon="-0.56268">
        <ele>12.6</ele>
        <time>2024-08-03T15:00:20Z</time>
      </trkpt>
      <trkpt lat="44.83842" lon="-0.56267">
        <ele>12.6</ele>
        <time>2024-08-03T15:00:21Z</time>
      </trkpt>
      <trkpt lat="44.83844" lon="-0.56264">
        <ele>12.6</ele>
        <time>2024-08-03T15:00:22Z</time>
      </trkpt>
      <trkpt lat="44.83846" lon="-0.56259">
        <ele>12.6</ele>
        <time>2024-08-03T15:00:24Z</time>
      </trkpt>
      <trkpt lat="44.83848" lon="-0.56256">
        <ele>12.6</ele>
        <time>2024-08-03T15:00:25Z</time>
      </trkpt>
      <trkpt lat="44.8385" lon="-0.56253">
        <ele>12.6</ele>
        <time>2024-08-03T15:00:26Z</time>
      </trkpt>
      <trkpt lat="44.83852" lon="-0.5625">
        <ele>12.7</ele>
        <time>2024-08-03T15:00:27Z</time>
      </trkpt>
      <trkpt lat="44.83854" lon="-0.56247">
        <ele>12.7</ele>
        <time>2024-08-03T15:00:28Z</time>
      </trkpt>
      <trkpt lat="44.83858" lon="-0.56241">
        <ele>12.7</ele>
        <time>2024-08-03T15:00:30Z</time>
      </trkpt>
      <trkpt lat="44.8386" lon="-0.56238">
        <ele>12.7</ele>
        <time>2024-08-03T15:00:31Z</time>
      </trkpt>
      <trkpt lat="44.83862" lon="-0.56235">
        <ele>12.7</ele>
        <time>2024-08-03T15:00:32Z</time>
      </trkpt>
      <trkpt lat="44.83864" lon="-0.56231">
        <ele>12.7</ele>
        <time>2024-08-03T15:00:33Z</time>
      </trkpt>
      <trkpt lat="44.83866" lon="-0.56228">
        <ele>12.7</ele>
        <time>2024-08-03T15:00:34Z</time>
      </trkpt>
      <trkpt lat="44.83868" lon="-0.56225">
        <ele>12.7</ele>
        <time>2024-08-03T15:00:35Z</time>
      </trkpt>
      <trkpt lat="44.8387" lon="-0.56221">
        <ele>12.7</ele>
        <time>2024-08-03T15:00:36Z</time>
      </trkpt>
      <trkpt lat="44.83871" lon="-0.56219">
        <ele>12.7</ele>
        <time>2024-08-03T15:00:37Z</time>
      </trkpt>
      <trkpt lat="44.83873" lon="-0.56216">
        <ele>12.6</ele>
        <time>2024-08-03T15:00:38Z</time>
      </trkpt>
      <trkpt lat="44.83875" lon="-0.56213">
        <ele>12.6</ele>
        <time>2024-08-03T15:00:39Z</time>
      </trkpt>
      <trkpt lat="44.83877" lon="-0.5621">
        <ele>12.6</ele>
        <time>2024-08-03T15:00:40Z</time>
      </trkpt>
      <trkpt lat="44.83879" lon="-0.56207">
        <ele>12.6</ele>
        <time>2024-08-03T15:00:41Z</time>
      </trkpt>
      <trkpt lat="44.83881" lon="-0.56204">
        <ele>12.6</ele>
        <time>2024-08-03T15:00:42Z</time>
      </trkpt>
      <trkpt lat="44.83883" lon="-0.56201">
        <ele>12.6</ele>
        <time>2024-08-03T15:00:43Z</time>
      </trkpt>
      <trkpt lat="44.83885" lon="-0.56198">
        <ele>12.6</ele>
        <time>2024-08-03T15:00:44Z</time>
      </trkpt>
      <trkpt lat="44.83887" lon="-0.56195">
        <ele>12.6</ele>
        <time>2024-08-03T15:00:45Z</time>
      </trkpt>
      <trkpt lat="44.83889" lon="-0.56192">
        <ele>12.6</ele>
        <time>2024-08-03T15:00:46Z</time>
      </trkpt>
      <trkpt lat="44.83891" lon="-0.56189">
        <ele>12.6</ele>
        <time>2024-08-03T15:00:47Z</time>
      </trkpt>
      <trkpt lat="44.83893" lon="-0.56186">
        <ele>12.5</ele>
        <time>2024-08-03T15:00:48Z</time>
      </trkpt>
      <trkpt lat="44.83895" lon="-0.56183">
        <ele>12.5</ele>
        <time>2024-08-03T15:00:49Z</time>
      </trkpt>
      <trkpt lat="44.83896" lon="-0.5618">
        <ele>12.5</ele>
        <time>2024-08-03T15:00:50Z</time>
      </trkpt>
      <trkpt lat="44.839" lon="-0.56174">
        <ele>12.5</ele>
        <time>2024-08-03T15:00:52Z</time>
      </trkpt>
      <trkpt lat="44.83902" lon="-0.5617">
        <ele>12.5</ele>
        <time>2024-08-03T15:00:53Z</time>
      </trkpt>
      <trkpt lat="44.83904" lon="-0.56167">
        <ele>12.4</ele>
        <time>2024-08-03T15:00:54Z</time>
      </trkpt>
      <trkpt lat="44.83906" lon="-0.56164">
        <ele>12.4</ele>
        <time>2024-08-03T15:00:55Z</time>
      </trkpt>
      <trkpt lat="44.83908" lon="-0.56161">
        <ele>12.4</ele>
        <time>2024-08-03T15:00:56Z</time>
      </trkpt>
      <trkpt lat="44.83909" lon="-0.56158">
        <ele>12.4</ele>
        <time>2024-08-03T15:00:57Z</time>
      </trkpt>
      <trkpt lat="44.83911" lon="-0.56155">
        <ele>12.4</ele>
        <time>2024-08-03T15:00:58Z</time>
      </trkpt>
      <trkpt lat="44.83915" lon="-0.56148">
        <ele>12.3</ele>
        <time>2024-08-03T15:01:00Z</time>
      </trkpt>
      <trkpt lat="44.83917" lon="-0.56145">
        <ele>12.3</ele>
        <time>2024-08-03T15:01:01Z</time>
      </trkpt>
      <trkpt lat="44.83919" lon="-0.56143">
        <ele>12.2</ele>
        <time>2024-08-03T15:01:02Z</time>
      </trkpt>
      <trkpt lat="44.83922" lon="-0.5614">
        <ele>12.2</ele>
        <time>2024-08-03T15:01:03Z</time>
      </trkpt>
      <trkpt lat="44.83924" lon="-0.56137">
        <ele>12.1</ele>
        <time>2024-08-03T15:01:04Z</time>
      </trkpt>
      <trkpt lat="44.83928" lon="-0.56131">
        <ele>12</ele>
        <time>2024-08-03T15:01:06Z</time>
      </trkpt>
      <trkpt lat="44.83929" lon="-0.56128">
        <ele>12</ele>
        <time>2024-08-03T15:01:07Z</time>
      </trkpt>
      <trkpt lat="44.83932" lon="-0.56125">
        <ele>12</ele>
        <time>2024-08-03T15:01:08Z</time>
      </trkpt>
      <trkpt lat="44.83934" lon="-0.56122">
        <ele>11.9</ele>
        <time>2024-08-03T15:01:09Z</time>
      </trkpt>
      <trkpt lat="44.83936" lon="-0.56119">
        <ele>11.9</ele>
        <time>2024-08-03T15:01:10Z</time>
      </trkpt>
      <trkpt lat="44.8394" lon="-0.56112">
        <ele>11.8</ele>
        <time>2024-08-03T15:01:12Z</time>
      </trkpt>
      <trkpt lat="44.83941" lon="-0.5611">
        <ele>11.8</ele>
        <time>2024-08-03T15:01:13Z</time>
      </trkpt>
      <trkpt lat="44.83943" lon="-0.56107">
        <ele>11.7</ele>
        <time>2024-08-03T15:01:14Z</time>
      </trkpt>
      <trkpt lat="44.83945" lon="-0.56104">
        <ele>11.7</ele>
        <time>2024-08-03T15:01:15Z</time>
      </trkpt>
      <trkpt lat="44.83947" lon="-0.56102">
        <ele>11.6</ele>
        <time>2024-08-03T15:01:16Z</time>
      </trkpt>
      <trkpt lat="44.8395" lon="-0.56096">
        <ele>11.5</ele>
        <time>2024-08-03T15:01:18Z</time>
      </trkpt>
      <trkpt lat="44.83953" lon="-0.56091">
        <ele>11.5</ele>
        <time>2024-08-03T15:01:19Z</time>
      </trkpt>
      <trkpt lat="44.83954" lon="-0.5609">
        <ele>11.5</ele>
        <time>2024-08-03T15:01:20Z</time>
      </trkpt>
      <trkpt lat="44.83956" lon="-0.56087">
        <ele>11.4</ele>
        <time>2024-08-03T15:01:21Z</time>
      </trkpt>
      <trkpt lat="44.83958" lon="-0.56085">
        <ele>11.4</ele>
        <time>2024-08-03T15:01:22Z</time>
      </trkpt>
      <trkpt lat="44.8396" lon="-0.56082">
        <ele>11.4</ele>
        <time>2024-08-03T15:01:24Z</time>
      </trkpt>
      <trkpt lat="44.83962" lon="-0.56081">
        <ele>11.3</ele>
        <time>2024-08-03T15:01:25Z</time>
      </trkpt>
      <trkpt lat="44.83963" lon="-0.56081">
        <ele>11</ele>
        <time>2024-08-03T15:01:26Z</time>
      </trkpt>
      <trkpt lat="44.83966" lon="-0.56081">
        <ele>10.7</ele>
        <time>2024-08-03T15:01:27Z</time>
      </trkpt>
      <trkpt lat="44.83969" lon="-0.5608">
        <ele>10.4</ele>
        <time>2024-08-03T15:01:28Z</time>
      </trkpt>
      <trkpt lat="44.83973" lon="-0.56079">
        <ele>10.1</ele>
        <time>2024-08-03T15:01:29Z</time>
      </trkpt>
      <trkpt lat="44.83974" lon="-0.56078">
        <ele>10</ele>
        <time>2024-08-03T15:01:30Z</time>
      </trkpt>
      <trkpt lat="44.83977" lon="-0.56075">
        <ele>9.9</ele>
        <time>2024-08-03T15:01:31Z</time>
      </trkpt>
      <trkpt lat="44.83978" lon="-0.56074">
        <ele>9.9</ele>
        <time>2024-08-03T15:01:32Z</time>
      </trkpt>
      <trkpt lat="44.8398" lon="-0.56071">
        <ele>9.8</ele>
        <time>2024-08-03T15:01:33Z</time>
      </trkpt>
      <trkpt lat="44.83981" lon="-0.5607">
        <ele>9.8</ele>
        <time>2024-08-03T15:01:34Z</time>
      </trkpt>
      <trkpt lat="44.83984" lon="-0.56064">
        <ele>9.7</ele>
        <time>2024-08-03T15:01:36Z</time>
      </trkpt>
      <trkpt lat="44.83986" lon="-0.56061">
        <ele>9.7</ele>
        <time>2024-08-03T15:01:37Z</time>
      </trkpt>
      <trkpt lat="44.83987" lon="-0.56059">
        <ele>9.6</ele>
        <time>2024-08-03T15:01:38Z</time>
      </trkpt>
      <trkpt lat="44.8399" lon="-0.56056">
        <ele>9.6</ele>
        <time>2024-08-03T15:01:39Z</time>
      </trkpt>
      <trkpt lat="44.8399" lon="-0.56055">
        <ele>9.6</ele>
        <time>2024-08-03T15:01:40Z</time>
      </trkpt>
      <trkpt lat="44.83997" lon="-0.56053">
        <ele>9.5</ele>
        <time>2024-08-03T15:01:42Z</time>
      </trkpt>
      <trkpt lat="44.84" lon="-0.56054">
        <ele>9.5</ele>
        <time>2024-08-03T15:01:43Z</time>
      </trkpt>
      <trkpt lat="44.84003" lon="-0.56055">
        <ele>9.4</ele>
        <time>2024-08-03T15:01:44Z</time>
      </trkpt>
      <trkpt lat="44.84006" lon="-0.56058">
        <ele>9.3</ele>
        <time>2024-08-03T15:01:45Z</time>
      </trkpt>
      <trkpt lat="44.84008" lon="-0.5606">
        <ele>9.2</ele>
        <time>2024-08-03T15:01:46Z</time>
      </trkpt>
      <trkpt lat="44.84011" lon="-0.56063">
        <ele>9.1</ele>
        <time>2024-08-03T15:01:47Z</time>
      </trkpt>
      <trkpt lat="44.84013" lon="-0.56065">
        <ele>9</ele>
        <time>2024-08-03T15:01:48Z</time>
      </trkpt>
      <trkpt lat="44.84015" lon="-0.56068">
        <ele>8.9</ele>
        <time>2024-08-03T15:01:49Z</time>
      </trkpt>
      <trkpt lat="44.84018" lon="-0.56071">
        <ele>8.8</ele>
        <time>2024-08-03T15:01:50Z</time>
      </trkpt>
      <trkpt lat="44.8402" lon="-0.56073">
        <ele>8.6</ele>
        <time>2024-08-03T15:01:51Z</time>
      </trkpt>
      <trkpt lat="44.84022" lon="-0.56076">
        <ele>8.5</ele>
        <time>2024-08-03T15:01:52Z</time>
      </trkpt>
      <trkpt lat="44.84024" lon="-0.56079">
        <ele>8.4</ele>
        <time>2024-08-03T15:01:53Z</time>
      </trkpt>
      <trkpt lat="44.84027" lon="-0.56082">
        <ele>8.2</ele>
        <time>2024-08-03T15:01:54Z</time>
      </trkpt>
      <trkpt lat="44.84028" lon="-0.56083">
        <ele>8.2</ele>
        <time>2024-08-03T15:01:55Z</time>
      </trkpt>
      <trkpt lat="44.8403" lon="-0.56085">
        <ele>8.1</ele>
        <time>2024-08-03T15:01:56Z</time>
      </trkpt>
      <trkpt lat="44.84033" lon="-0.56088">
        <ele>8</ele>
        <time>2024-08-03T15:01:57Z</time>
      </trkpt>
      <trkpt lat="44.84035" lon="-0.5609">
        <ele>7.9</ele>
        <time>2024-08-03T15:01:58Z</time>
      </trkpt>
      <trkpt lat="44.84037" lon="-0.56092">
        <ele>7.8</ele>
        <time>2024-08-03T15:01:59Z</time>
      </trkpt>
      <trkpt lat="44.8404" lon="-0.56095">
        <ele>7.7</ele>
        <time>2024-08-03T15:02:00Z</time>
      </trkpt>
      <trkpt lat="44.84041" lon="-0.56096">
        <ele>7.7</ele>
        <time>2024-08-03T15:02:01Z</time>
      </trkpt>
      <trkpt lat="44.84043" lon="-0.56099">
        <ele>7.6</ele>
        <time>2024-08-03T15:02:02Z</time>
      </trkpt>
      <trkpt lat="44.84047" lon="-0.56103">
        <ele>7.4</ele>
        <time>2024-08-03T15:02:03Z</time>
      </trkpt>
      <trkpt lat="44.84048" lon="-0.56105">
        <ele>7.4</ele>
        <time>2024-08-03T15:02:04Z</time>
      </trkpt>
      <trkpt lat="44.84049" lon="-0.56106">
        <ele>7.3</ele>
        <time>2024-08-03T15:02:05Z</time>
      </trkpt>
      <trkpt lat="44.84051" lon="-0.56108">
        <ele>7.2</ele>
        <time>2024-08-03T15:02:06Z</time>
      </trkpt>
      <trkpt lat="44.84054" lon="-0.5611">
        <ele>7.1</ele>
        <time>2024-08-03T15:02:07Z</time>
      </trkpt>
      <trkpt lat="44.84056" lon="-0.56113">
        <ele>7</ele>
        <time>2024-08-03T15:02:08Z</time>
      </trkpt>
      <trkpt lat="44.84058" lon="-0.56116">
        <ele>6.9</ele>
        <time>2024-08-03T15:02:09Z</time>
      </trkpt>
      <trkpt lat="44.84058" lon="-0.56116">
        <ele>6.9</ele>
        <time>2024-08-03T15:02:10Z</time>
      </trkpt>
      <trkpt lat="44.84062" lon="-0.56122">
        <ele>6.8</ele>
        <time>2024-08-03T15:02:11Z</time>
      </trkpt>
      <trkpt lat="44.84063" lon="-0.56125">
        <ele>6.7</ele>
        <time>2024-08-03T15:02:12Z</time>
      </trkpt>
      <trkpt lat="44.84066" lon="-0.56128">
        <ele>6.6</ele>
        <time>2024-08-03T15:02:13Z</time>
      </trkpt>
      <trkpt lat="44.84067" lon="-0.56129">
        <ele>6.6</ele>
        <time>2024-08-03T15:02:14Z</time>
      </trkpt>
      <trkpt lat="44.8407" lon="-0.56133">
        <ele>6.5</ele>
        <time>2024-08-03T15:02:15Z</time>
      </trkpt>
      <trkpt lat="44.84071" lon="-0.56134">
        <ele>6.5</ele>
        <time>2024-08-03T15:02:16Z</time>
      </trkpt>
      <trkpt lat="44.84073" lon="-0.56137">
        <ele>6.4</ele>
        <time>2024-08-03T15:02:17Z</time>
      </trkpt>
      <trkpt lat="44.84075" lon="-0.56141">
        <ele>6.3</ele>
        <time>2024-08-03T15:02:18Z</time>
      </trkpt>
      <trkpt lat="44.84076" lon="-0.56142">
        <ele>6.3</ele>
        <time>2024-08-03T15:02:19Z</time>
      </trkpt>
      <trkpt lat="44.84078" lon="-0.56144">
        <ele>6.2</ele>
        <time>2024-08-03T15:02:20Z</time>
      </trkpt>
      <trkpt lat="44.84082" lon="-0.5615">
        <ele>6.1</ele>
        <time>2024-08-03T15:02:22Z</time>
      </trkpt>
      <trkpt lat="44.84085" lon="-0.56153">
        <ele>6</ele>
        <time>2024-08-03T15:02:23Z</time>
      </trkpt>
      <trkpt lat="44.84086" lon="-0.56154">
        <ele>6</ele>
        <time>2024-08-03T15:02:24Z</time>
      </trkpt>
      <trkpt lat="44.84089" lon="-0.56157">
        <ele>5.9</ele>
        <time>2024-08-03T15:02:25Z</time>
      </trkpt>
      <trkpt lat="44.84091" lon="-0.5616">
        <ele>5.8</ele>
        <time>2024-08-03T15:02:26Z</time>
      </trkpt>
      <trkpt lat="44.84096" lon="-0.56166">
        <ele>5.6</ele>
        <time>2024-08-03T15:02:28Z</time>
      </trkpt>
      <trkpt lat="44.84098" lon="-0.56169">
        <ele>5.6</ele>
        <time>2024-08-03T15:02:29Z</time>
      </trkpt>
      <trkpt lat="44.841" lon="-0.56172">
        <ele>5.5</ele>
        <time>2024-08-03T15:02:30Z</time>
      </trkpt>
      <trkpt lat="44.84102" lon="-0.56176">
        <ele>5.4</ele>
        <time>2024-08-03T15:02:31Z</time>
      </trkpt>
      <trkpt lat="44.84103" lon="-0.5618">
        <ele>5.4</ele>
        <time>2024-08-03T15:02:32Z</time>
      </trkpt>
      <trkpt lat="44.84105" lon="-0.56184">
        <ele>5.3</ele>
        <time>2024-08-03T15:02:33Z</time>
      </trkpt>
      <trkpt lat="44.84106" lon="-0.56186">
        <ele>5.3</ele>
        <time>2024-08-03T15:02:34Z</time>
      </trkpt>
      <trkpt lat="44.84107" lon="-0.56189">
        <ele>5.2</ele>
        <time>2024-08-03T15:02:35Z</time>
      </trkpt>
      <trkpt lat="44.84108" lon="-0.56193">
        <ele>5.1</ele>
        <time>2024-08-03T15:02:36Z</time>
      </trkpt>
      <trkpt lat="44.84109" lon="-0.56198">
        <ele>5</ele>
        <time>2024-08-03T15:02:37Z</time>
      </trkpt>
      <trkpt lat="44.8411" lon="-0.56202">
        <ele>4.9</ele>
        <time>2024-08-03T15:02:38Z</time>
      </trkpt>
      <trkpt lat="44.84111" lon="-0.56206">
        <ele>4.8</ele>
        <time>2024-08-03T15:02:39Z</time>
      </trkpt>
      <trkpt lat="44.84113" lon="-0.5621">
        <ele>4.7</ele>
        <time>2024-08-03T15:02:40Z</time>
      </trkpt>
      <trkpt lat="44.84115" lon="-0.56213">
        <ele>4.7</ele>
        <time>2024-08-03T15:02:41Z</time>
      </trkpt>
      <trkpt lat="44.84118" lon="-0.56215">
        <ele>4.6</ele>
        <time>2024-08-03T15:02:42Z</time>
      </trkpt>
      <trkpt lat="44.8412" lon="-0.56217">
        <ele>4.6</ele>
        <time>2024-08-03T15:02:43Z</time>
      </trkpt>
      <trkpt lat="44.84123" lon="-0.5622">
        <ele>4.5</ele>
        <time>2024-08-03T15:02:44Z</time>
      </trkpt>
      <trkpt lat="44.84125" lon="-0.56222">
        <ele>4.5</ele>
        <time>2024-08-03T15:02:45Z</time>
      </trkpt>
      <trkpt lat="44.84128" lon="-0.56225">
        <ele>4.5</ele>
        <time>2024-08-03T15:02:46Z</time>
      </trkpt>
      <trkpt lat="44.84129" lon="-0.56226">
        <ele>4.5</ele>
        <time>2024-08-03T15:02:47Z</time>
      </trkpt>
      <trkpt lat="44.84132" lon="-0.56229">
        <ele>4.4</ele>
        <time>2024-08-03T15:02:48Z</time>
      </trkpt>
      <trkpt lat="44.84133" lon="-0.5623">
        <ele>4.4</ele>
        <time>2024-08-03T15:02:49Z</time>
      </trkpt>
      <trkpt lat="44.84135" lon="-0.56232">
        <ele>4.4</ele>
        <time>2024-08-03T15:02:50Z</time>
      </trkpt>
      <trkpt lat="44.84137" lon="-0.56234">
        <ele>4.4</ele>
        <time>2024-08-03T15:02:51Z</time>
      </trkpt>
      <trkpt lat="44.84139" lon="-0.56239">
        <ele>4.4</ele>
        <time>2024-08-03T15:02:52Z</time>
      </trkpt>
      <trkpt lat="44.8414" lon="-0.5624">
        <ele>4.3</ele>
        <time>2024-08-03T15:02:53Z</time>
      </trkpt>
      <trkpt lat="44.84142" lon="-0.56243">
        <ele>4.3</ele>
        <time>2024-08-03T15:02:54Z</time>
      </trkpt>
      <trkpt lat="44.84144" lon="-0.56246">
        <ele>4.3</ele>
        <time>2024-08-03T15:02:55Z</time>
      </trkpt>
      <trkpt lat="44.84147" lon="-0.56249">
        <ele>4.3</ele>
        <time>2024-08-03T15:02:56Z</time>
      </trkpt>
      <trkpt lat="44.84148" lon="-0.5625">
        <ele>4.3</ele>
        <time>2024-08-03T15:02:57Z</time>
      </trkpt>
      <trkpt lat="44.84152" lon="-0.56252">
        <ele>4.3</ele>
        <time>2024-08-03T15:02:58Z</time>
      </trkpt>
      <trkpt lat="44.84153" lon="-0.56253">
        <ele>4.3</ele>
        <time>2024-08-03T15:02:59Z</time>
      </trkpt>
      <trkpt lat="44.84155" lon="-0.56255">
        <ele>4.3</ele>
        <time>2024-08-03T15:03:00Z</time>
      </trkpt>
      <trkpt lat="44.84158" lon="-0.56258">
        <ele>4.2</ele>
        <time>2024-08-03T15:03:01Z</time>
      </trkpt>
      <trkpt lat="44.8416" lon="-0.56262">
        <ele>4.2</ele>
        <time>2024-08-03T15:03:02Z</time>
      </trkpt>
      <trkpt lat="44.84162" lon="-0.56264">
        <ele>4.2</ele>
        <time>2024-08-03T15:03:03Z</time>
      </trkpt>
      <trkpt lat="44.84164" lon="-0.56266">
        <ele>4.2</ele>
        <time>2024-08-03T15:03:04Z</time>
      </trkpt>
      <trkpt lat="44.84166" lon="-0.56269">
        <ele>4.2</ele>
        <time>2024-08-03T15:03:05Z</time>
      </trkpt>
      <trkpt lat="44.84168" lon="-0.56272">
        <ele>4.2</ele>
        <time>2024-08-03T15:03:06Z</time>
      </trkpt>
      <trkpt lat="44.8417" lon="-0.56275">
        <ele>4.2</ele>
        <time>2024-08-03T15:03:07Z</time>
      </trkpt>
      <trkpt lat="44.84172" lon="-0.56278">
        <ele>4.2</ele>
        <time>2024-08-03T15:03:08Z</time>
      </trkpt>
      <trkpt lat="44.84175" lon="-0.56282">
        <ele>4.2</ele>
        <time>2024-08-03T15:03:09Z</time>
      </trkpt>
      <trkpt lat="44.84176" lon="-0.56283">
        <ele>4.2</ele>
        <time>2024-08-03T15:03:10Z</time>
      </trkpt>
      <trkpt lat="44.84179" lon="-0.56285">
        <ele>4.2</ele>
        <time>2024-08-03T15:03:11Z</time>
      </trkpt>
      <trkpt lat="44.8418" lon="-0.56288">
        <ele>4.2</ele>
        <time>2024-08-03T15:03:12Z</time>
      </trkpt>
      <trkpt lat="44.84182" lon="-0.5629">
        <ele>4.2</ele>
        <time>2024-08-03T15:03:13Z</time>
      </trkpt>
      <trkpt lat="44.84185" lon="-0.56294">
        <ele>4.2</ele>
        <time>2024-08-03T15:03:14Z</time>
      </trkpt>
      <trkpt lat="44.84186" lon="-0.56295">
        <ele>4.2</ele>
        <time>2024-08-03T15:03:15Z</time>
      </trkpt>
      <trkpt lat="44.84189" lon="-0.56298">
        <ele>4.2</ele>
        <time>2024-08-03T15:03:16Z</time>
      </trkpt>
      <trkpt lat="44.8419" lon="-0.56299">
        <ele>4.2</ele>
        <time>2024-08-03T15:03:17Z</time>
      </trkpt>
      <trkpt lat="44.84192" lon="-0.56301">
        <ele>4.2</ele>
        <time>2024-08-03T15:03:18Z</time>
      </trkpt>
      <trkpt lat="44.84194" lon="-0.56304">
        <ele>4.2</ele>
        <time>2024-08-03T15:03:19Z</time>
      </trkpt>
      <trkpt lat="44.84196" lon="-0.56306">
        <ele>4.2</ele>
        <time>2024-08-03T15:03:20Z</time>
      </trkpt>
      <trkpt lat="44.84199" lon="-0.56309">
        <ele>4.2</ele>
        <time>2024-08-03T15:03:21Z</time>
      </trkpt>
      <trkpt lat="44.84201" lon="-0.56313">
        <ele>4.2</ele>
        <time>2024-08-03T15:03:22Z</time>
      </trkpt>
      <trkpt lat="44.84204" lon="-0.56317">
        <ele>4.2</ele>
        <time>2024-08-03T15:03:23Z</time>
      </trkpt>
      <trkpt lat="44.84204" lon="-0.56317">
        <ele>4.2</ele>
        <time>2024-08-03T15:03:24Z</time>
      </trkpt>
      <trkpt lat="44.84208" lon="-0.56322">
        <ele>4.2</ele>
        <time>2024-08-03T15:03:25Z</time>
      </trkpt>
      <trkpt lat="44.8421" lon="-0.56325">
        <ele>4.2</ele>
        <time>2024-08-03T15:03:26Z</time>
      </trkpt>
      <trkpt lat="44.84212" lon="-0.56327">
        <ele>4.2</ele>
        <time>2024-08-03T15:03:27Z</time>
      </trkpt>
      <trkpt lat="44.84215" lon="-0.5633">
        <ele>4.2</ele>
        <time>2024-08-03T15:03:28Z</time>
      </trkpt>
      <trkpt lat="44.84218" lon="-0.56332">
        <ele>4.2</ele>
        <time>2024-08-03T15:03:29Z</time>
      </trkpt>
      <trkpt lat="44.84219" lon="-0.56334">
        <ele>4.2</ele>
        <time>2024-08-03T15:03:30Z</time>
      </trkpt>
      <trkpt lat="44.84221" lon="-0.56336">
        <ele>4.2</ele>
        <time>2024-08-03T15:03:31Z</time>
      </trkpt>
      <trkpt lat="44.84224" lon="-0.5634">
        <ele>4.2</ele>
        <time>2024-08-03T15:03:32Z</time>
      </trkpt>
      <trkpt lat="44.84225" lon="-0.56341">
        <ele>4.2</ele>
        <time>2024-08-03T15:03:33Z</time>
      </trkpt>
      <trkpt lat="44.84227" lon="-0.56344">
        <ele>4.2</ele>
        <time>2024-08-03T15:03:34Z</time>
      </trkpt>
      <trkpt lat="44.84229" lon="-0.56347">
        <ele>4.2</ele>
        <time>2024-08-03T15:03:35Z</time>
      </trkpt>
      <trkpt lat="44.84231" lon="-0.56348">
        <ele>4.2</ele>
        <time>2024-08-03T15:03:36Z</time>
      </trkpt>
      <trkpt lat="44.84233" lon="-0.5635">
        <ele>4.2</ele>
        <time>2024-08-03T15:03:37Z</time>
      </trkpt>
      <trkpt lat="44.84237" lon="-0.56353">
        <ele>4.2</ele>
        <time>2024-08-03T15:03:38Z</time>
      </trkpt>
      <trkpt lat="44.84238" lon="-0.56354">
        <ele>4.2</ele>
        <time>2024-08-03T15:03:39Z</time>
      </trkpt>
      <trkpt lat="44.8424" lon="-0.56357">
        <ele>4.2</ele>
        <time>2024-08-03T15:03:40Z</time>
      </trkpt>
      <trkpt lat="44.84242" lon="-0.56362">
        <ele>4.1</ele>
        <time>2024-08-03T15:03:41Z</time>
      </trkpt>
      <trkpt lat="44.84243" lon="-0.56363">
        <ele>4.1</ele>
        <time>2024-08-03T15:03:42Z</time>
      </trkpt>
      <trkpt lat="44.84244" lon="-0.56367">
        <ele>4.1</ele>
        <time>2024-08-03T15:03:43Z</time>
      </trkpt>
      <trkpt lat="44.84247" lon="-0.56371">
        <ele>4.1</ele>
        <time>2024-08-03T15:03:44Z</time>
      </trkpt>
      <trkpt lat="44.84247" lon="-0.56372">
        <ele>4.1</ele>
        <time>2024-08-03T15:03:45Z</time>
      </trkpt>
      <trkpt lat="44.8425" lon="-0.56375">
        <ele>4.1</ele>
        <time>2024-08-03T15:03:46Z</time>
      </trkpt>
      <trkpt lat="44.84252" lon="-0.56378">
        <ele>4.1</ele>
        <time>2024-08-03T15:03:47Z</time>
      </trkpt>
      <trkpt lat="44.84252" lon="-0.56378">
        <ele>4.1</ele>
        <time>2024-08-03T15:03:48Z</time>
      </trkpt>
      <trkpt lat="44.84254" lon="-0.5638">
        <ele>4.1</ele>
        <time>2024-08-03T15:03:49Z</time>
      </trkpt>
      <trkpt lat="44.84258" lon="-0.56385">
        <ele>4.1</ele>
        <time>2024-08-03T15:03:50Z</time>
      </trkpt>
      <trkpt lat="44.8426" lon="-0.56386">
        <ele>4.1</ele>
        <time>2024-08-03T15:03:51Z</time>
      </trkpt>
      <trkpt lat="44.84264" lon="-0.56389">
        <ele>4.1</ele>
        <time>2024-08-03T15:03:52Z</time>
      </trkpt>
      <trkpt lat="44.84265" lon="-0.5639">
        <ele>4.1</ele>
        <time>2024-08-03T15:03:53Z</time>
      </trkpt>
      <trkpt lat="44.84265" lon="-0.5639">
        <ele>4.1</ele>
        <time>2024-08-03T15:03:54Z</time>
      </trkpt>
      <trkpt lat="44.84265" lon="-0.5639">
        <ele>4.1</ele>
        <time>2024-08-03T15:03:56Z</time>
      </trkpt>
      <trkpt lat="44.84265" lon="-0.5639">
        <ele>4.1</ele>
        <time>2024-08-03T15:03:58Z</time>
      </trkpt>
      <trkpt lat="44.84276" lon="-0.56398">
        <ele>4.1</ele>
        <time>2024-08-03T15:04:00Z</time>
      </trkpt>
      <trkpt lat="44.8428" lon="-0.56396">
        <ele>4.1</ele>
        <time>2024-08-03T15:04:01Z</time>
      </trkpt>
      <trkpt lat="44.84283" lon="-0.56394">
        <ele>4.1</ele>
        <time>2024-08-03T15:04:02Z</time>
      </trkpt>
      <trkpt lat="44.84284" lon="-0.56394">
        <ele>4</ele>
        <time>2024-08-03T15:04:03Z</time>
      </trkpt>
      <trkpt lat="44.84288" lon="-0.56394">
        <ele>4</ele>
        <time>2024-08-03T15:04:04Z</time>
      </trkpt>
      <trkpt lat="44.84289" lon="-0.56394">
        <ele>4</ele>
        <time>2024-08-03T15:04:05Z</time>
      </trkpt>
      <trkpt lat="44.84292" lon="-0.56396">
        <ele>4</ele>
        <time>2024-08-03T15:04:06Z</time>
      </trkpt>
      <trkpt lat="44.84293" lon="-0.56397">
        <ele>4</ele>
        <time>2024-08-03T15:04:07Z</time>
      </trkpt>
      <trkpt lat="44.84296" lon="-0.56401">
        <ele>4</ele>
        <time>2024-08-03T15:04:08Z</time>
      </trkpt>
      <trkpt lat="44.84299" lon="-0.56406">
        <ele>4</ele>
        <time>2024-08-03T15:04:09Z</time>
      </trkpt>
      <trkpt lat="44.84302" lon="-0.5641">
        <ele>4</ele>
        <time>2024-08-03T15:04:10Z</time>
      </trkpt>
      <trkpt lat="44.84305" lon="-0.56413">
        <ele>4</ele>
        <time>2024-08-03T15:04:11Z</time>
      </trkpt>
      <trkpt lat="44.84308" lon="-0.56417">
        <ele>4</ele>
        <time>2024-08-03T15:04:12Z</time>
      </trkpt>
      <trkpt lat="44.84311" lon="-0.5642">
        <ele>3.9</ele>
        <time>2024-08-03T15:04:13Z</time>
      </trkpt>
      <trkpt lat="44.84314" lon="-0.56423">
        <ele>3.9</ele>
        <time>2024-08-03T15:04:14Z</time>
      </trkpt>
      <trkpt lat="44.84316" lon="-0.56425">
        <ele>3.9</ele>
        <time>2024-08-03T15:04:15Z</time>
      </trkpt>
      <trkpt lat="44.84319" lon="-0.56427">
        <ele>3.9</ele>
        <time>2024-08-03T15:04:16Z</time>
      </trkpt>
      <trkpt lat="44.84322" lon="-0.56428">
        <ele>3.9</ele>
        <time>2024-08-03T15:04:17Z</time>
      </trkpt>
      <trkpt lat="44.84324" lon="-0.56429">
        <ele>3.9</ele>
        <time>2024-08-03T15:04:18Z</time>
      </trkpt>
      <trkpt lat="44.84328" lon="-0.56431">
        <ele>3.9</ele>
        <time>2024-08-03T15:04:19Z</time>
      </trkpt>
      <trkpt lat="44.84329" lon="-0.56431">
        <ele>3.9</ele>
        <time>2024-08-03T15:04:20Z</time>
      </trkpt>
      <trkpt lat="44.84333" lon="-0.56433">
        <ele>3.9</ele>
        <time>2024-08-03T15:04:21Z</time>
      </trkpt>
      <trkpt lat="44.84335" lon="-0.56433">
        <ele>3.9</ele>
        <time>2024-08-03T15:04:22Z</time>
      </trkpt>
      <trkpt lat="44.84337" lon="-0.56435">
        <ele>3.9</ele>
        <time>2024-08-03T15:04:23Z</time>
      </trkpt>
      <trkpt lat="44.8434" lon="-0.56436">
        <ele>3.9</ele>
        <time>2024-08-03T15:04:24Z</time>
      </trkpt>
      <trkpt lat="44.84344" lon="-0.56438">
        <ele>3.9</ele>
        <time>2024-08-03T15:04:26Z</time>
      </trkpt>
      <trkpt lat="44.84346" lon="-0.56439">
        <ele>3.9</ele>
        <time>2024-08-03T15:04:27Z</time>
      </trkpt>
      <trkpt lat="44.84347" lon="-0.56439">
        <ele>3.9</ele>
        <time>2024-08-03T15:04:28Z</time>
      </trkpt>
      <trkpt lat="44.84348" lon="-0.56439">
        <ele>3.9</ele>
        <time>2024-08-03T15:04:29Z</time>
      </trkpt>
      <trkpt lat="44.84352" lon="-0.56438">
        <ele>3.9</ele>
        <time>2024-08-03T15:04:30Z</time>
      </trkpt>
      <trkpt lat="44.84353" lon="-0.56438">
        <ele>3.9</ele>
        <time>2024-08-03T15:04:31Z</time>
      </trkpt>
      <trkpt lat="44.84357" lon="-0.56439">
        <ele>3.9</ele>
        <time>2024-08-03T15:04:32Z</time>
      </trkpt>
      <trkpt lat="44.84358" lon="-0.5644">
        <ele>3.9</ele>
        <time>2024-08-03T15:04:33Z</time>
      </trkpt>
      <trkpt lat="44.84361" lon="-0.56442">
        <ele>3.9</ele>
        <time>2024-08-03T15:04:34Z</time>
      </trkpt>
      <trkpt lat="44.84364" lon="-0.56444">
        <ele>3.9</ele>
        <time>2024-08-03T15:04:35Z</time>
      </trkpt>
      <trkpt lat="44.84367" lon="-0.56446">
        <ele>3.9</ele>
        <time>2024-08-03T15:04:36Z</time>
      </trkpt>
      <trkpt lat="44.8437" lon="-0.56447">
        <ele>3.9</ele>
        <time>2024-08-03T15:04:37Z</time>
      </trkpt>
      <trkpt lat="44.84372" lon="-0.56449">
        <ele>3.9</ele>
        <time>2024-08-03T15:04:38Z</time>
      </trkpt>
      <trkpt lat="44.84376" lon="-0.5645">
        <ele>3.9</ele>
        <time>2024-08-03T15:04:39Z</time>
      </trkpt>
      <trkpt lat="44.84379" lon="-0.56451">
        <ele>3.9</ele>
        <time>2024-08-03T15:04:40Z</time>
      </trkpt>
      <trkpt lat="44.84382" lon="-0.56453">
        <ele>3.9</ele>
        <time>2024-08-03T15:04:41Z</time>
      </trkpt>
      <trkpt lat="44.84385" lon="-0.56454">
        <ele>3.9</ele>
        <time>2024-08-03T15:04:42Z</time>
      </trkpt>
      <trkpt lat="44.84388" lon="-0.56455">
        <ele>3.9</ele>
        <time>2024-08-03T15:04:43Z</time>
      </trkpt>
      <trkpt lat="44.84392" lon="-0.56455">
        <ele>3.9</ele>
        <time>2024-08-03T15:04:44Z</time>
      </trkpt>
      <trkpt lat="44.84394" lon="-0.56455">
        <ele>3.9</ele>
        <time>2024-08-03T15:04:45Z</time>
      </trkpt>
      <trkpt lat="44.84398" lon="-0.56456">
        <ele>3.9</ele>
        <time>2024-08-03T15:04:46Z</time>
      </trkpt>
      <trkpt lat="44.844" lon="-0.56456">
        <ele>3.9</ele>
        <time>2024-08-03T15:04:47Z</time>
      </trkpt>
      <trkpt lat="44.84403" lon="-0.56456">
        <ele>4</ele>
        <time>2024-08-03T15:04:48Z</time>
      </trkpt>
      <trkpt lat="44.84407" lon="-0.56456">
        <ele>4</ele>
        <time>2024-08-03T15:04:49Z</time>
      </trkpt>
      <trkpt lat="44.84409" lon="-0.56456">
        <ele>4</ele>
        <time>2024-08-03T15:04:50Z</time>
      </trkpt>
      <trkpt lat="44.84413" lon="-0.56457">
        <ele>4</ele>
        <time>2024-08-03T15:04:51Z</time>
      </trkpt>
      <trkpt lat="44.84415" lon="-0.56457">
        <ele>4</ele>
        <time>2024-08-03T15:04:52Z</time>
      </trkpt>
      <trkpt lat="44.8442" lon="-0.5646">
        <ele>4</ele>
        <time>2024-08-03T15:04:54Z</time>
      </trkpt>
      <trkpt lat="44.84423" lon="-0.56464">
        <ele>4</ele>
        <time>2024-08-03T15:04:55Z</time>
      </trkpt>
      <trkpt lat="44.84427" lon="-0.56466">
        <ele>4</ele>
        <time>2024-08-03T15:04:56Z</time>
      </trkpt>
      <trkpt lat="44.8443" lon="-0.56467">
        <ele>4</ele>
        <time>2024-08-03T15:04:57Z</time>
      </trkpt>
      <trkpt lat="44.84432" lon="-0.56468">
        <ele>4.1</ele>
        <time>2024-08-03T15:04:58Z</time>
      </trkpt>
      <trkpt lat="44.84438" lon="-0.56469">
        <ele>4.1</ele>
        <time>2024-08-03T15:05:00Z</time>
      </trkpt>
      <trkpt lat="44.8444" lon="-0.5647">
        <ele>4.1</ele>
        <time>2024-08-03T15:05:01Z</time>
      </trkpt>
      <trkpt lat="44.84444" lon="-0.5647">
        <ele>4.1</ele>
        <time>2024-08-03T15:05:02Z</time>
      </trkpt>
      <trkpt lat="44.84445" lon="-0.56471">
        <ele>4.1</ele>
        <time>2024-08-03T15:05:03Z</time>
      </trkpt>
      <trkpt lat="44.84448" lon="-0.56471">
        <ele>4.1</ele>
        <time>2024-08-03T15:05:04Z</time>
      </trkpt>
      <trkpt lat="44.84451" lon="-0.56472">
        <ele>4.1</ele>
        <time>2024-08-03T15:05:06Z</time>
      </trkpt>
      <trkpt lat="44.84453" lon="-0.56472">
        <ele>4.1</ele>
        <time>2024-08-03T15:05:07Z</time>
      </trkpt>
      <trkpt lat="44.84456" lon="-0.56471">
        <ele>4.1</ele>
        <time>2024-08-03T15:05:08Z</time>
      </trkpt>
      <trkpt lat="44.84457" lon="-0.56471">
        <ele>4.1</ele>
        <time>2024-08-03T15:05:09Z</time>
      </trkpt>
      <trkpt lat="44.84459" lon="-0.56471">
        <ele>4.1</ele>
        <time>2024-08-03T15:05:10Z</time>
      </trkpt>
      <trkpt lat="44.84463" lon="-0.56472">
        <ele>4.1</ele>
        <time>2024-08-03T15:05:12Z</time>
      </trkpt>
      <trkpt lat="44.84466" lon="-0.56472">
        <ele>4.1</ele>
        <time>2024-08-03T15:05:13Z</time>
      </trkpt>
      <trkpt lat="44.8447" lon="-0.56472">
        <ele>4.1</ele>
        <time>2024-08-03T15:05:14Z</time>
      </trkpt>
      <trkpt lat="44.84472" lon="-0.56472">
        <ele>4.1</ele>
        <time>2024-08-03T15:05:15Z</time>
      </trkpt>
      <trkpt lat="44.84475" lon="-0.56472">
        <ele>4.1</ele>
        <time>2024-08-03T15:05:16Z</time>
      </trkpt>
      <trkpt lat="44.8448" lon="-0.56474">
        <ele>4.1</ele>
        <time>2024-08-03T15:05:18Z</time>
      </trkpt>
      <trkpt lat="44.84484" lon="-0.56476">
        <ele>4.1</ele>
        <time>2024-08-03T15:05:19Z</time>
      </trkpt>
      <trkpt lat="44.84485" lon="-0.56476">
        <ele>4.1</ele>
        <time>2024-08-03T15:05:20Z</time>
      </trkpt>
      <trkpt lat="44.84489" lon="-0.56477">
        <ele>4.1</ele>
        <time>2024-08-03T15:05:21Z</time>
      </trkpt>
      <trkpt lat="44.8449" lon="-0.56477">
        <ele>4.1</ele>
        <time>2024-08-03T15:05:22Z</time>
      </trkpt>
      <trkpt lat="44.84494" lon="-0.56478">
        <ele>4.1</ele>
        <time>2024-08-03T15:05:23Z</time>
      </trkpt>
      <trkpt lat="44.84495" lon="-0.56479">
        <ele>4.1</ele>
        <time>2024-08-03T15:05:24Z</time>
      </trkpt>
      <trkpt lat="44.84498" lon="-0.56479">
        <ele>4.1</ele>
        <time>2024-08-03T15:05:25Z</time>
      </trkpt>
      <trkpt lat="44.84501" lon="-0.56479">
        <ele>4.1</ele>
        <time>2024-08-03T15:05:26Z</time>
      </trkpt>
      <trkpt lat="44.84504" lon="-0.5648">
        <ele>4.1</ele>
        <time>2024-08-03T15:05:27Z</time>
      </trkpt>
      <trkpt lat="44.84506" lon="-0.5648">
        <ele>4.1</ele>
        <time>2024-08-03T15:05:28Z</time>
      </trkpt>
      <trkpt lat="44.84509" lon="-0.56481">
        <ele>4.1</ele>
        <time>2024-08-03T15:05:29Z</time>
      </trkpt>
      <trkpt lat="44.84512" lon="-0.56482">
        <ele>4.1</ele>
        <time>2024-08-03T15:05:30Z</time>
      </trkpt>
      <trkpt lat="44.84513" lon="-0.56483">
        <ele>4.1</ele>
        <time>2024-08-03T15:05:31Z</time>
      </trkpt>
      <trkpt lat="44.84517" lon="-0.56484">
        <ele>4.1</ele>
        <time>2024-08-03T15:05:32Z</time>
      </trkpt>
      <trkpt lat="44.8452" lon="-0.56484">
        <ele>4.1</ele>
        <time>2024-08-03T15:05:33Z</time>
      </trkpt>
      <trkpt lat="44.84523" lon="-0.56485">
        <ele>4.1</ele>
        <time>2024-08-03T15:05:34Z</time>
      </trkpt>
      <trkpt lat="44.84526" lon="-0.56485">
        <ele>4.1</ele>
        <time>2024-08-03T15:05:35Z</time>
      </trkpt>
      <trkpt lat="44.8453" lon="-0.56486">
        <ele>4.1</ele>
        <time>2024-08-03T15:05:36Z</time>
      </trkpt>
      <trkpt lat="44.84533" lon="-0.56487">
        <ele>4.1</ele>
        <time>2024-08-03T15:05:37Z</time>
      </trkpt>
      <trkpt lat="44.84535" lon="-0.56488">
        <ele>4.1</ele>
        <time>2024-08-03T15:05:38Z</time>
      </trkpt>
      <trkpt lat="44.84538" lon="-0.56489">
        <ele>4.1</ele>
        <time>2024-08-03T15:05:39Z</time>
      </trkpt>
      <trkpt lat="44.84542" lon="-0.5649">
        <ele>4.1</ele>
        <time>2024-08-03T15:05:40Z</time>
      </trkpt>
      <trkpt lat="44.84543" lon="-0.56491">
        <ele>4.1</ele>
        <time>2024-08-03T15:05:41Z</time>
      </trkpt>
      <trkpt lat="44.84546" lon="-0.56492">
        <ele>4.1</ele>
        <time>2024-08-03T15:05:42Z</time>
      </trkpt>
      <trkpt lat="44.84547" lon="-0.56492">
        <ele>4.1</ele>
        <time>2024-08-03T15:05:43Z</time>
      </trkpt>
      <trkpt lat="44.8455" lon="-0.56493">
        <ele>4.1</ele>
        <time>2024-08-03T15:05:44Z</time>
      </trkpt>
      <trkpt lat="44.84554" lon="-0.56494">
        <ele>4.1</ele>
        <time>2024-08-03T15:05:45Z</time>
      </trkpt>
      <trkpt lat="44.84555" lon="-0.56494">
        <ele>4.1</ele>
        <time>2024-08-03T15:05:46Z</time>
      </trkpt>
      <trkpt lat="44.84557" lon="-0.56495">
        <ele>4.1</ele>
        <time>2024-08-03T15:05:47Z</time>
      </trkpt>
      <trkpt lat="44.84564" lon="-0.56496">
        <ele>4.1</ele>
        <time>2024-08-03T15:05:48Z</time>
      </trkpt>
      <trkpt lat="44.84568" lon="-0.56496">
        <ele>4.1</ele>
        <time>2024-08-03T15:05:49Z</time>
      </trkpt>
      <trkpt lat="44.8457" lon="-0.56496">
        <ele>4.1</ele>
        <time>2024-08-03T15:05:50Z</time>
      </trkpt>
      <trkpt lat="44.84574" lon="-0.56497">
        <ele>4.1</ele>
        <time>2024-08-03T15:05:51Z</time>
      </trkpt>
      <trkpt lat="44.84577" lon="-0.56497">
        <ele>4.2</ele>
        <time>2024-08-03T15:05:52Z</time>
      </trkpt>
      <trkpt lat="44.8458" lon="-0.56498">
        <ele>4.2</ele>
        <time>2024-08-03T15:05:53Z</time>
      </trkpt>
      <trkpt lat="44.84583" lon="-0.56498">
        <ele>4.2</ele>
        <time>2024-08-03T15:05:54Z</time>
      </trkpt>
      <trkpt lat="44.84586" lon="-0.56499">
        <ele>4.2</ele>
        <time>2024-08-03T15:05:55Z</time>
      </trkpt>
      <trkpt lat="44.84589" lon="-0.56501">
        <ele>4.2</ele>
        <time>2024-08-03T15:05:56Z</time>
      </trkpt>
      <trkpt lat="44.84593" lon="-0.56502">
        <ele>4.2</ele>
        <time>2024-08-03T15:05:57Z</time>
      </trkpt>
      <trkpt lat="44.84596" lon="-0.56502">
        <ele>4.2</ele>
        <time>2024-08-03T15:05:58Z</time>
      </trkpt>
      <trkpt lat="44.84599" lon="-0.56503">
        <ele>4.2</ele>
        <time>2024-08-03T15:05:59Z</time>
      </trkpt>
      <trkpt lat="44.84601" lon="-0.56504">
        <ele>4.3</ele>
        <time>2024-08-03T15:06:00Z</time>
      </trkpt>
      <trkpt lat="44.84605" lon="-0.56505">
        <ele>4.3</ele>
        <time>2024-08-03T15:06:01Z</time>
      </trkpt>
      <trkpt lat="44.84607" lon="-0.56505">
        <ele>4.3</ele>
        <time>2024-08-03T15:06:02Z</time>
      </trkpt>
      <trkpt lat="44.8461" lon="-0.56506">
        <ele>4.3</ele>
        <time>2024-08-03T15:06:03Z</time>
      </trkpt>
      <trkpt lat="44.84613" lon="-0.56507">
        <ele>4.3</ele>
        <time>2024-08-03T15:06:04Z</time>
      </trkpt>
      <trkpt lat="44.84616" lon="-0.56507">
        <ele>4.4</ele>
        <time>2024-08-03T15:06:05Z</time>
      </trkpt>
      <trkpt lat="44.84619" lon="-0.56508">
        <ele>4.4</ele>
        <time>2024-08-03T15:06:06Z</time>
      </trkpt>
      <trkpt lat="44.8462" lon="-0.56508">
        <ele>4.4</ele>
        <time>2024-08-03T15:06:07Z</time>
      </trkpt>
      <trkpt lat="44.84622" lon="-0.56507">
        <ele>4.4</ele>
        <time>2024-08-03T15:06:08Z</time>
      </trkpt>
      <trkpt lat="44.84626" lon="-0.56507">
        <ele>4.4</ele>
        <time>2024-08-03T15:06:10Z</time>
      </trkpt>
      <trkpt lat="44.84629" lon="-0.56507">
        <ele>4.4</ele>
        <time>2024-08-03T15:06:11Z</time>
      </trkpt>
      <trkpt lat="44.84632" lon="-0.56507">
        <ele>4.4</ele>
        <time>2024-08-03T15:06:12Z</time>
      </trkpt>
      <trkpt lat="44.84633" lon="-0.56507">
        <ele>4.4</ele>
        <time>2024-08-03T15:06:13Z</time>
      </trkpt>
      <trkpt lat="44.84636" lon="-0.56506">
        <ele>4.4</ele>
        <time>2024-08-03T15:06:14Z</time>
      </trkpt>
      <trkpt lat="44.84637" lon="-0.56506">
        <ele>4.4</ele>
        <time>2024-08-03T15:06:15Z</time>
      </trkpt>
      <trkpt lat="44.84641" lon="-0.56505">
        <ele>4.4</ele>
        <time>2024-08-03T15:06:16Z</time>
      </trkpt>
      <trkpt lat="44.84642" lon="-0.56504">
        <ele>4.4</ele>
        <time>2024-08-03T15:06:17Z</time>
      </trkpt>
      <trkpt lat="44.84645" lon="-0.56502">
        <ele>4.4</ele>
        <time>2024-08-03T15:06:18Z</time>
      </trkpt>
      <trkpt lat="44.84646" lon="-0.56502">
        <ele>4.4</ele>
        <time>2024-08-03T15:06:19Z</time>
      </trkpt>
      <trkpt lat="44.84649" lon="-0.56501">
        <ele>4.4</ele>
        <time>2024-08-03T15:06:20Z</time>
      </trkpt>
      <trkpt lat="44.84654" lon="-0.56501">
        <ele>4.4</ele>
        <time>2024-08-03T15:06:22Z</time>
      </trkpt>
      <trkpt lat="44.84659" lon="-0.56501">
        <ele>4.4</ele>
        <time>2024-08-03T15:06:23Z</time>
      </trkpt>
      <trkpt lat="44.8466" lon="-0.56501">
        <ele>4.4</ele>
        <time>2024-08-03T15:06:24Z</time>
      </trkpt>
      <trkpt lat="44.84663" lon="-0.56501">
        <ele>4.4</ele>
        <time>2024-08-03T15:06:25Z</time>
      </trkpt>
      <trkpt lat="44.84667" lon="-0.565">
        <ele>4.4</ele>
        <time>2024-08-03T15:06:26Z</time>
      </trkpt>
      <trkpt lat="44.84671" lon="-0.56499">
        <ele>4.4</ele>
        <time>2024-08-03T15:06:28Z</time>
      </trkpt>
      <trkpt lat="44.84675" lon="-0.56499">
        <ele>4.4</ele>
        <time>2024-08-03T15:06:29Z</time>
      </trkpt>
      <trkpt lat="44.84677" lon="-0.56499">
        <ele>4.4</ele>
        <time>2024-08-03T15:06:30Z</time>
      </trkpt>
      <trkpt lat="44.8468" lon="-0.56498">
        <ele>4.4</ele>
        <time>2024-08-03T15:06:31Z</time>
      </trkpt>
      <trkpt lat="44.84681" lon="-0.56498">
        <ele>4.4</ele>
        <time>2024-08-03T15:06:32Z</time>
      </trkpt>
      <trkpt lat="44.84686" lon="-0.56495">
        <ele>4.4</ele>
        <time>2024-08-03T15:06:34Z</time>
      </trkpt>
      <trkpt lat="44.84689" lon="-0.56494">
        <ele>4.4</ele>
        <time>2024-08-03T15:06:35Z</time>
      </trkpt>
      <trkpt lat="44.84691" lon="-0.56493">
        <ele>4.4</ele>
        <time>2024-08-03T15:06:36Z</time>
      </trkpt>
      <trkpt lat="44.84694" lon="-0.56491">
        <ele>4.4</ele>
        <time>2024-08-03T15:06:37Z</time>
      </trkpt>
      <trkpt lat="44.84697" lon="-0.56489">
        <ele>4.5</ele>
        <time>2024-08-03T15:06:38Z</time>
      </trkpt>
      <trkpt lat="44.84702" lon="-0.56485">
        <ele>4.5</ele>
        <time>2024-08-03T15:06:40Z</time>
      </trkpt>
      <trkpt lat="44.84704" lon="-0.56484">
        <ele>4.5</ele>
        <time>2024-08-03T15:06:41Z</time>
      </trkpt>
      <trkpt lat="44.84707" lon="-0.56482">
        <ele>4.5</ele>
        <time>2024-08-03T15:06:42Z</time>
      </trkpt>
      <trkpt lat="44.84708" lon="-0.56481">
        <ele>4.5</ele>
        <time>2024-08-03T15:06:43Z</time>
      </trkpt>
      <trkpt lat="44.84711" lon="-0.5648">
        <ele>4.5</ele>
        <time>2024-08-03T15:06:44Z</time>
      </trkpt>
      <trkpt lat="44.84716" lon="-0.56477">
        <ele>4.5</ele>
        <time>2024-08-03T15:06:46Z</time>
      </trkpt>
      <trkpt lat="44.8472" lon="-0.56476">
        <ele>4.5</ele>
        <time>2024-08-03T15:06:47Z</time>
      </trkpt>
      <trkpt lat="44.84721" lon="-0.56475">
        <ele>4.5</ele>
        <time>2024-08-03T15:06:48Z</time>
      </trkpt>
      <trkpt lat="44.84724" lon="-0.56475">
        <ele>4.5</ele>
        <time>2024-08-03T15:06:49Z</time>
      </trkpt>
      <trkpt lat="44.84726" lon="-0.56474">
        <ele>4.5</ele>
        <time>2024-08-03T15:06:50Z</time>
      </trkpt>
      <trkpt lat="44.84732" lon="-0.56469">
        <ele>4.5</ele>
        <time>2024-08-03T15:06:52Z</time>
      </trkpt>
      <trkpt lat="44.84735" lon="-0.56465">
        <ele>4.5</ele>
        <time>2024-08-03T15:06:53Z</time>
      </trkpt>
      <trkpt lat="44.84738" lon="-0.56463">
        <ele>4.5</ele>
        <time>2024-08-03T15:06:54Z</time>
      </trkpt>
      <trkpt lat="44.84742" lon="-0.5646">
        <ele>4.5</ele>
        <time>2024-08-03T15:06:55Z</time>
      </trkpt>
      <trkpt lat="44.84743" lon="-0.5646">
        <ele>4.5</ele>
        <time>2024-08-03T15:06:56Z</time>
      </trkpt>
      <trkpt lat="44.84747" lon="-0.56457">
        <ele>4.5</ele>
        <time>2024-08-03T15:06:58Z</time>
      </trkpt>
      <trkpt lat="44.84751" lon="-0.56454">
        <ele>4.4</ele>
        <time>2024-08-03T15:06:59Z</time>
      </trkpt>
      <trkpt lat="44.84752" lon="-0.56453">
        <ele>4.4</ele>
        <time>2024-08-03T15:07:00Z</time>
      </trkpt>
      <trkpt lat="44.84755" lon="-0.5645">
        <ele>4.4</ele>
        <time>2024-08-03T15:07:01Z</time>
      </trkpt>
      <trkpt lat="44.84756" lon="-0.5645">
        <ele>4.4</ele>
        <time>2024-08-03T15:07:02Z</time>
      </trkpt>
      <trkpt lat="44.84759" lon="-0.56448">
        <ele>4.4</ele>
        <time>2024-08-03T15:07:03Z</time>
      </trkpt>
      <trkpt lat="44.84761" lon="-0.56446">
        <ele>4.4</ele>
        <time>2024-08-03T15:07:04Z</time>
      </trkpt>
      <trkpt lat="44.84765" lon="-0.56444">
        <ele>4.4</ele>
        <time>2024-08-03T15:07:05Z</time>
      </trkpt>
      <trkpt lat="44.84766" lon="-0.56443">
        <ele>4.4</ele>
        <time>2024-08-03T15:07:06Z</time>
      </trkpt>
      <trkpt lat="44.8477" lon="-0.56439">
        <ele>4.4</ele>
        <time>2024-08-03T15:07:07Z</time>
      </trkpt>
      <trkpt lat="44.84771" lon="-0.56437">
        <ele>4.4</ele>
        <time>2024-08-03T15:07:08Z</time>
      </trkpt>
      <trkpt lat="44.84773" lon="-0.56435">
        <ele>4.4</ele>
        <time>2024-08-03T15:07:09Z</time>
      </trkpt>
      <trkpt lat="44.84775" lon="-0.56433">
        <ele>4.4</ele>
        <time>2024-08-03T15:07:10Z</time>
      </trkpt>
      <trkpt lat="44.84777" lon="-0.56431">
        <ele>4.3</ele>
        <time>2024-08-03T15:07:11Z</time>
      </trkpt>
      <trkpt lat="44.84781" lon="-0.56431">
        <ele>4.3</ele>
        <time>2024-08-03T15:07:12Z</time>
      </trkpt>
      <trkpt lat="44.84782" lon="-0.56432">
        <ele>4.2</ele>
        <time>2024-08-03T15:07:13Z</time>
      </trkpt>
      <trkpt lat="44.84785" lon="-0.56434">
        <ele>4.2</ele>
        <time>2024-08-03T15:07:14Z</time>
      </trkpt>
      <trkpt lat="44.84788" lon="-0.56436">
        <ele>4.1</ele>
        <time>2024-08-03T15:07:15Z</time>
      </trkpt>
      <trkpt lat="44.84791" lon="-0.56437">
        <ele>4.1</ele>
        <time>2024-08-03T15:07:16Z</time>
      </trkpt>
      <trkpt lat="44.84794" lon="-0.56438">
        <ele>4.1</ele>
        <time>2024-08-03T15:07:17Z</time>
      </trkpt>
      <trkpt lat="44.84797" lon="-0.56437">
        <ele>4.1</ele>
        <time>2024-08-03T15:07:18Z</time>
      </trkpt>
      <trkpt lat="44.84798" lon="-0.56436">
        <ele>4.1</ele>
        <time>2024-08-03T15:07:19Z</time>
      </trkpt>
      <trkpt lat="44.84798" lon="-0.56436">
        <ele>4.1</ele>
        <time>2024-08-03T15:07:20Z</time>
      </trkpt>
      <trkpt lat="44.84801" lon="-0.56435">
        <ele>4.1</ele>
        <time>2024-08-03T15:07:21Z</time>
      </trkpt>
      <trkpt lat="44.84803" lon="-0.56433">
        <ele>4.1</ele>
        <time>2024-08-03T15:07:22Z</time>
      </trkpt>
      <trkpt lat="44.84804" lon="-0.56433">
        <ele>4.1</ele>
        <time>2024-08-03T15:07:23Z</time>
      </trkpt>
      <trkpt lat="44.84806" lon="-0.56432">
        <ele>4.1</ele>
        <time>2024-08-03T15:07:24Z</time>
      </trkpt>
      <trkpt lat="44.84807" lon="-0.56431">
        <ele>4.1</ele>
        <time>2024-08-03T15:07:25Z</time>
      </trkpt>
      <trkpt lat="44.84807" lon="-0.56431">
        <ele>4.1</ele>
        <time>2024-08-03T15:07:26Z</time>
      </trkpt>
      <trkpt lat="44.8481" lon="-0.56428">
        <ele>4.1</ele>
        <time>2024-08-03T15:07:27Z</time>
      </trkpt>
      <trkpt lat="44.84813" lon="-0.56426">
        <ele>4.1</ele>
        <time>2024-08-03T15:07:28Z</time>
      </trkpt>
      <trkpt lat="44.84813" lon="-0.56426">
        <ele>4.1</ele>
        <time>2024-08-03T15:07:29Z</time>
      </trkpt>
      <trkpt lat="44.84815" lon="-0.56425">
        <ele>4.1</ele>
        <time>2024-08-03T15:07:30Z</time>
      </trkpt>
      <trkpt lat="44.84816" lon="-0.56423">
        <ele>4.1</ele>
        <time>2024-08-03T15:07:31Z</time>
      </trkpt>
      <trkpt lat="44.84817" lon="-0.56422">
        <ele>4.1</ele>
        <time>2024-08-03T15:07:32Z</time>
      </trkpt>
      <trkpt lat="44.84818" lon="-0.56421">
        <ele>4.1</ele>
        <time>2024-08-03T15:07:33Z</time>
      </trkpt>
      <trkpt lat="44.8482" lon="-0.56419">
        <ele>4.1</ele>
        <time>2024-08-03T15:07:34Z</time>
      </trkpt>
      <trkpt lat="44.84821" lon="-0.56418">
        <ele>4.1</ele>
        <time>2024-08-03T15:07:35Z</time>
      </trkpt>
      <trkpt lat="44.84823" lon="-0.56417">
        <ele>4.1</ele>
        <time>2024-08-03T15:07:36Z</time>
      </trkpt>
      <trkpt lat="44.84824" lon="-0.56416">
        <ele>4.1</ele>
        <time>2024-08-03T15:07:37Z</time>
      </trkpt>
      <trkpt lat="44.84824" lon="-0.56416">
        <ele>4.1</ele>
        <time>2024-08-03T15:07:38Z</time>
      </trkpt>
      <trkpt lat="44.84827" lon="-0.56415">
        <ele>4.1</ele>
        <time>2024-08-03T15:07:39Z</time>
      </trkpt>
      <trkpt lat="44.84828" lon="-0.56413">
        <ele>4.1</ele>
        <time>2024-08-03T15:07:40Z</time>
      </trkpt>
      <trkpt lat="44.8483" lon="-0.56412">
        <ele>4.1</ele>
        <time>2024-08-03T15:07:41Z</time>
      </trkpt>
      <trkpt lat="44.84831" lon="-0.56411">
        <ele>4.2</ele>
        <time>2024-08-03T15:07:42Z</time>
      </trkpt>
      <trkpt lat="44.84832" lon="-0.5641">
        <ele>4.2</ele>
        <time>2024-08-03T15:07:43Z</time>
      </trkpt>
      <trkpt lat="44.84834" lon="-0.56407">
        <ele>4.2</ele>
        <time>2024-08-03T15:07:44Z</time>
      </trkpt>
      <trkpt lat="44.84835" lon="-0.56406">
        <ele>4.2</ele>
        <time>2024-08-03T15:07:45Z</time>
      </trkpt>
      <trkpt lat="44.84837" lon="-0.56404">
        <ele>4.2</ele>
        <time>2024-08-03T15:07:46Z</time>
      </trkpt>
      <trkpt lat="44.84839" lon="-0.56401">
        <ele>4.2</ele>
        <time>2024-08-03T15:07:47Z</time>
      </trkpt>
      <trkpt lat="44.84841" lon="-0.56399">
        <ele>4.2</ele>
        <time>2024-08-03T15:07:48Z</time>
      </trkpt>
      <trkpt lat="44.84846" lon="-0.56396">
        <ele>4.2</ele>
        <time>2024-08-03T15:07:50Z</time>
      </trkpt>
      <trkpt lat="44.84849" lon="-0.56394">
        <ele>4.2</ele>
        <time>2024-08-03T15:07:51Z</time>
      </trkpt>
      <trkpt lat="44.84852" lon="-0.56393">
        <ele>4.3</ele>
        <time>2024-08-03T15:07:52Z</time>
      </trkpt>
      <trkpt lat="44.84855" lon="-0.56391">
        <ele>4.3</ele>
        <time>2024-08-03T15:07:53Z</time>
      </trkpt>
      <trkpt lat="44.84858" lon="-0.5639">
        <ele>4.3</ele>
        <time>2024-08-03T15:07:54Z</time>
      </trkpt>
      <trkpt lat="44.84861" lon="-0.56386">
        <ele>4.3</ele>
        <time>2024-08-03T15:07:56Z</time>
      </trkpt>
      <trkpt lat="44.84864" lon="-0.56384">
        <ele>4.3</ele>
        <time>2024-08-03T15:07:57Z</time>
      </trkpt>
      <trkpt lat="44.84867" lon="-0.56382">
        <ele>4.3</ele>
        <time>2024-08-03T15:07:58Z</time>
      </trkpt>
      <trkpt lat="44.84869" lon="-0.5638">
        <ele>4.3</ele>
        <time>2024-08-03T15:07:59Z</time>
      </trkpt>
      <trkpt lat="44.84872" lon="-0.56377">
        <ele>4.3</ele>
        <time>2024-08-03T15:08:00Z</time>
      </trkpt>
      <trkpt lat="44.84877" lon="-0.56373">
        <ele>4.3</ele>
        <time>2024-08-03T15:08:02Z</time>
      </trkpt>
      <trkpt lat="44.84879" lon="-0.56372">
        <ele>4.3</ele>
        <time>2024-08-03T15:08:03Z</time>
      </trkpt>
      <trkpt lat="44.84882" lon="-0.5637">
        <ele>4.4</ele>
        <time>2024-08-03T15:08:04Z</time>
      </trkpt>
      <trkpt lat="44.84885" lon="-0.56368">
        <ele>4.4</ele>
        <time>2024-08-03T15:08:05Z</time>
      </trkpt>
      <trkpt lat="44.84885" lon="-0.56367">
        <ele>4.4</ele>
        <time>2024-08-03T15:08:06Z</time>
      </trkpt>
      <trkpt lat="44.8489" lon="-0.56363">
        <ele>4.4</ele>
        <time>2024-08-03T15:08:08Z</time>
      </trkpt>
      <trkpt lat="44.84892" lon="-0.5636">
        <ele>4.4</ele>
        <time>2024-08-03T15:08:09Z</time>
      </trkpt>
      <trkpt lat="44.84894" lon="-0.56357">
        <ele>4.4</ele>
        <time>2024-08-03T15:08:10Z</time>
      </trkpt>
      <trkpt lat="44.84897" lon="-0.56353">
        <ele>4.4</ele>
        <time>2024-08-03T15:08:11Z</time>
      </trkpt>
      <trkpt lat="44.84898" lon="-0.56351">
        <ele>4.4</ele>
        <time>2024-08-03T15:08:12Z</time>
      </trkpt>
      <trkpt lat="44.84902" lon="-0.56345">
        <ele>4.4</ele>
        <time>2024-08-03T15:08:14Z</time>
      </trkpt>
      <trkpt lat="44.84904" lon="-0.56342">
        <ele>4.4</ele>
        <time>2024-08-03T15:08:15Z</time>
      </trkpt>
      <trkpt lat="44.84907" lon="-0.56339">
        <ele>4.4</ele>
        <time>2024-08-03T15:08:16Z</time>
      </trkpt>
      <trkpt lat="44.84909" lon="-0.56337">
        <ele>4.4</ele>
        <time>2024-08-03T15:08:17Z</time>
      </trkpt>
      <trkpt lat="44.84911" lon="-0.56335">
        <ele>4.4</ele>
        <time>2024-08-03T15:08:18Z</time>
      </trkpt>
      <trkpt lat="44.84916" lon="-0.56331">
        <ele>4.4</ele>
        <time>2024-08-03T15:08:20Z</time>
      </trkpt>
      <trkpt lat="44.84918" lon="-0.5633">
        <ele>4.4</ele>
        <time>2024-08-03T15:08:21Z</time>
      </trkpt>
      <trkpt lat="44.84922" lon="-0.56329">
        <ele>4.4</ele>
        <time>2024-08-03T15:08:22Z</time>
      </trkpt>
      <trkpt lat="44.84925" lon="-0.56327">
        <ele>4.4</ele>
        <time>2024-08-03T15:08:23Z</time>
      </trkpt>
      <trkpt lat="44.84928" lon="-0.56325">
        <ele>4.4</ele>
        <time>2024-08-03T15:08:24Z</time>
      </trkpt>
      <trkpt lat="44.84933" lon="-0.5632">
        <ele>4.4</ele>
        <time>2024-08-03T15:08:26Z</time>
      </trkpt>
      <trkpt lat="44.84936" lon="-0.56317">
        <ele>4.4</ele>
        <time>2024-08-03T15:08:27Z</time>
      </trkpt>
      <trkpt lat="44.84938" lon="-0.56315">
        <ele>4.4</ele>
        <time>2024-08-03T15:08:28Z</time>
      </trkpt>
      <trkpt lat="44.8494" lon="-0.56312">
        <ele>4.4</ele>
        <time>2024-08-03T15:08:29Z</time>
      </trkpt>
      <trkpt lat="44.84942" lon="-0.5631">
        <ele>4.4</ele>
        <time>2024-08-03T15:08:30Z</time>
      </trkpt>
      <trkpt lat="44.84947" lon="-0.56305">
        <ele>4.4</ele>
        <time>2024-08-03T15:08:32Z</time>
      </trkpt>
      <trkpt lat="44.84949" lon="-0.56302">
        <ele>4.4</ele>
        <time>2024-08-03T15:08:33Z</time>
      </trkpt>
      <trkpt lat="44.84952" lon="-0.56299">
        <ele>4.4</ele>
        <time>2024-08-03T15:08:34Z</time>
      </trkpt>
      <trkpt lat="44.84954" lon="-0.56297">
        <ele>4.4</ele>
        <time>2024-08-03T15:08:35Z</time>
      </trkpt>
      <trkpt lat="44.84957" lon="-0.56293">
        <ele>4.4</ele>
        <time>2024-08-03T15:08:36Z</time>
      </trkpt>
      <trkpt lat="44.84957" lon="-0.56292">
        <ele>4.4</ele>
        <time>2024-08-03T15:08:37Z</time>
      </trkpt>
      <trkpt lat="44.8496" lon="-0.56288">
        <ele>4.4</ele>
        <time>2024-08-03T15:08:38Z</time>
      </trkpt>
      <trkpt lat="44.84961" lon="-0.56287">
        <ele>4.4</ele>
        <time>2024-08-03T15:08:39Z</time>
      </trkpt>
      <trkpt lat="44.84963" lon="-0.56284">
        <ele>4.4</ele>
        <time>2024-08-03T15:08:40Z</time>
      </trkpt>
      <trkpt lat="44.84966" lon="-0.56279">
        <ele>4.4</ele>
        <time>2024-08-03T15:08:41Z</time>
      </trkpt>
      <trkpt lat="44.84967" lon="-0.56277">
        <ele>4.4</ele>
        <time>2024-08-03T15:08:42Z</time>
      </trkpt>
      <trkpt lat="44.84969" lon="-0.56275">
        <ele>4.4</ele>
        <time>2024-08-03T15:08:43Z</time>
      </trkpt>
      <trkpt lat="44.84971" lon="-0.56272">
        <ele>4.4</ele>
        <time>2024-08-03T15:08:44Z</time>
      </trkpt>
      <trkpt lat="44.84975" lon="-0.5627">
        <ele>4.4</ele>
        <time>2024-08-03T15:08:45Z</time>
      </trkpt>
      <trkpt lat="44.84977" lon="-0.56268">
        <ele>4.4</ele>
        <time>2024-08-03T15:08:46Z</time>
      </trkpt>
      <trkpt lat="44.8498" lon="-0.56266">
        <ele>4.4</ele>
        <time>2024-08-03T15:08:47Z</time>
      </trkpt>
      <trkpt lat="44.84982" lon="-0.56263">
        <ele>4.4</ele>
        <time>2024-08-03T15:08:48Z</time>
      </trkpt>
      <trkpt lat="44.84985" lon="-0.5626">
        <ele>4.4</ele>
        <time>2024-08-03T15:08:49Z</time>
      </trkpt>
      <trkpt lat="44.84988" lon="-0.56258">
        <ele>4.4</ele>
        <time>2024-08-03T15:08:50Z</time>
      </trkpt>
      <trkpt lat="44.8499" lon="-0.56255">
        <ele>4.4</ele>
        <time>2024-08-03T15:08:51Z</time>
      </trkpt>
      <trkpt lat="44.84993" lon="-0.56252">
        <ele>4.4</ele>
        <time>2024-08-03T15:08:52Z</time>
      </trkpt>
      <trkpt lat="44.84995" lon="-0.5625">
        <ele>4.4</ele>
        <time>2024-08-03T15:08:53Z</time>
      </trkpt>
      <trkpt lat="44.84997" lon="-0.56247">
        <ele>4.4</ele>
        <time>2024-08-03T15:08:54Z</time>
      </trkpt>
      <trkpt lat="44.84999" lon="-0.56244">
        <ele>4.4</ele>
        <time>2024-08-03T15:08:55Z</time>
      </trkpt>
      <trkpt lat="44.85002" lon="-0.5624">
        <ele>4.4</ele>
        <time>2024-08-03T15:08:56Z</time>
      </trkpt>
      <trkpt lat="44.85003" lon="-0.56239">
        <ele>4.4</ele>
        <time>2024-08-03T15:08:57Z</time>
      </trkpt>
      <trkpt lat="44.85005" lon="-0.56235">
        <ele>4.5</ele>
        <time>2024-08-03T15:08:58Z</time>
      </trkpt>
      <trkpt lat="44.85006" lon="-0.56234">
        <ele>4.5</ele>
        <time>2024-08-03T15:08:59Z</time>
      </trkpt>
      <trkpt lat="44.85007" lon="-0.56232">
        <ele>4.5</ele>
        <time>2024-08-03T15:09:00Z</time>
      </trkpt>
      <trkpt lat="44.85008" lon="-0.56229">
        <ele>4.5</ele>
        <time>2024-08-03T15:09:01Z</time>
      </trkpt>
      <trkpt lat="44.85011" lon="-0.56225">
        <ele>4.5</ele>
        <time>2024-08-03T15:09:02Z</time>
      </trkpt>
      <trkpt lat="44.85012" lon="-0.56224">
        <ele>4.5</ele>
        <time>2024-08-03T15:09:03Z</time>
      </trkpt>
      <trkpt lat="44.85014" lon="-0.5622">
        <ele>4.5</ele>
        <time>2024-08-03T15:09:04Z</time>
      </trkpt>
      <trkpt lat="44.85015" lon="-0.56219">
        <ele>4.5</ele>
        <time>2024-08-03T15:09:05Z</time>
      </trkpt>
      <trkpt lat="44.85017" lon="-0.56216">
        <ele>4.5</ele>
        <time>2024-08-03T15:09:06Z</time>
      </trkpt>
      <trkpt lat="44.85019" lon="-0.56213">
        <ele>4.5</ele>
        <time>2024-08-03T15:09:07Z</time>
      </trkpt>
      <trkpt lat="44.85022" lon="-0.5621">
        <ele>4.5</ele>
        <time>2024-08-03T15:09:08Z</time>
      </trkpt>
      <trkpt lat="44.85024" lon="-0.56208">
        <ele>4.5</ele>
        <time>2024-08-03T15:09:09Z</time>
      </trkpt>
      <trkpt lat="44.85027" lon="-0.56205">
        <ele>4.5</ele>
        <time>2024-08-03T15:09:10Z</time>
      </trkpt>
      <trkpt lat="44.8503" lon="-0.56202">
        <ele>4.5</ele>
        <time>2024-08-03T15:09:11Z</time>
      </trkpt>
      <trkpt lat="44.85031" lon="-0.56201">
        <ele>4.5</ele>
        <time>2024-08-03T15:09:12Z</time>
      </trkpt>
      <trkpt lat="44.85032" lon="-0.562">
        <ele>4.6</ele>
        <time>2024-08-03T15:09:13Z</time>
      </trkpt>
      <trkpt lat="44.85035" lon="-0.56198">
        <ele>4.6</ele>
        <time>2024-08-03T15:09:14Z</time>
      </trkpt>
      <trkpt lat="44.85037" lon="-0.56196">
        <ele>4.6</ele>
        <time>2024-08-03T15:09:15Z</time>
      </trkpt>
      <trkpt lat="44.85038" lon="-0.56195">
        <ele>4.5</ele>
        <time>2024-08-03T15:09:16Z</time>
      </trkpt>
      <trkpt lat="44.85041" lon="-0.5619">
        <ele>4.5</ele>
        <time>2024-08-03T15:09:17Z</time>
      </trkpt>
      <trkpt lat="44.85041" lon="-0.56188">
        <ele>4.5</ele>
        <time>2024-08-03T15:09:18Z</time>
      </trkpt>
      <trkpt lat="44.85042" lon="-0.56186">
        <ele>4.5</ele>
        <time>2024-08-03T15:09:19Z</time>
      </trkpt>
      <trkpt lat="44.85043" lon="-0.56182">
        <ele>4.5</ele>
        <time>2024-08-03T15:09:20Z</time>
      </trkpt>
      <trkpt lat="44.85045" lon="-0.56178">
        <ele>4.5</ele>
        <time>2024-08-03T15:09:21Z</time>
      </trkpt>
      <trkpt lat="44.85046" lon="-0.56177">
        <ele>4.5</ele>
        <time>2024-08-03T15:09:22Z</time>
      </trkpt>
      <trkpt lat="44.85048" lon="-0.56172">
        <ele>4.5</ele>
        <time>2024-08-03T15:09:23Z</time>
      </trkpt>
      <trkpt lat="44.85049" lon="-0.56171">
        <ele>4.5</ele>
        <time>2024-08-03T15:09:24Z</time>
      </trkpt>
      <trkpt lat="44.85055" lon="-0.56164">
        <ele>4.5</ele>
        <time>2024-08-03T15:09:26Z</time>
      </trkpt>
      <trkpt lat="44.85055" lon="-0.56162">
        <ele>4.5</ele>
        <time>2024-08-03T15:09:27Z</time>
      </trkpt>
      <trkpt lat="44.85057" lon="-0.5616">
        <ele>4.5</ele>
        <time>2024-08-03T15:09:28Z</time>
      </trkpt>
      <trkpt lat="44.8506" lon="-0.56154">
        <ele>4.5</ele>
        <time>2024-08-03T15:09:30Z</time>
      </trkpt>
      <trkpt lat="44.85063" lon="-0.56151">
        <ele>4.5</ele>
        <time>2024-08-03T15:09:31Z</time>
      </trkpt>
      <trkpt lat="44.85066" lon="-0.56148">
        <ele>4.5</ele>
        <time>2024-08-03T15:09:32Z</time>
      </trkpt>
      <trkpt lat="44.85069" lon="-0.56145">
        <ele>4.4</ele>
        <time>2024-08-03T15:09:33Z</time>
      </trkpt>
      <trkpt lat="44.85071" lon="-0.56143">
        <ele>4.4</ele>
        <time>2024-08-03T15:09:34Z</time>
      </trkpt>
      <trkpt lat="44.85076" lon="-0.56136">
        <ele>4.4</ele>
        <time>2024-08-03T15:09:36Z</time>
      </trkpt>
      <trkpt lat="44.85078" lon="-0.56133">
        <ele>4.4</ele>
        <time>2024-08-03T15:09:37Z</time>
      </trkpt>
      <trkpt lat="44.85079" lon="-0.56129">
        <ele>4.4</ele>
        <time>2024-08-03T15:09:38Z</time>
      </trkpt>
      <trkpt lat="44.85081" lon="-0.56124">
        <ele>4.4</ele>
        <time>2024-08-03T15:09:39Z</time>
      </trkpt>
      <trkpt lat="44.85081" lon="-0.56122">
        <ele>4.4</ele>
        <time>2024-08-03T15:09:40Z</time>
      </trkpt>
      <trkpt lat="44.85085" lon="-0.56115">
        <ele>4.4</ele>
        <time>2024-08-03T15:09:42Z</time>
      </trkpt>
      <trkpt lat="44.85087" lon="-0.56112">
        <ele>4.4</ele>
        <time>2024-08-03T15:09:43Z</time>
      </trkpt>
      <trkpt lat="44.85089" lon="-0.56109">
        <ele>4.4</ele>
        <time>2024-08-03T15:09:44Z</time>
      </trkpt>
      <trkpt lat="44.85091" lon="-0.56105">
        <ele>4.4</ele>
        <time>2024-08-03T15:09:45Z</time>
      </trkpt>
      <trkpt lat="44.85093" lon="-0.56102">
        <ele>4.4</ele>
        <time>2024-08-03T15:09:46Z</time>
      </trkpt>
      <trkpt lat="44.85095" lon="-0.56099">
        <ele>4.4</ele>
        <time>2024-08-03T15:09:47Z</time>
      </trkpt>
      <trkpt lat="44.85097" lon="-0.56096">
        <ele>4.4</ele>
        <time>2024-08-03T15:09:48Z</time>
      </trkpt>
      <trkpt lat="44.85099" lon="-0.56093">
        <ele>4.4</ele>
        <time>2024-08-03T15:09:49Z</time>
      </trkpt>
      <trkpt lat="44.85102" lon="-0.5609">
        <ele>4.4</ele>
        <time>2024-08-03T15:09:50Z</time>
      </trkpt>
      <trkpt lat="44.85104" lon="-0.56087">
        <ele>4.4</ele>
        <time>2024-08-03T15:09:51Z</time>
      </trkpt>
      <trkpt lat="44.85106" lon="-0.56084">
        <ele>4.4</ele>
        <time>2024-08-03T15:09:52Z</time>
      </trkpt>
      <trkpt lat="44.85107" lon="-0.56082">
        <ele>4.4</ele>
        <time>2024-08-03T15:09:53Z</time>
      </trkpt>
      <trkpt lat="44.85109" lon="-0.56079">
        <ele>4.4</ele>
        <time>2024-08-03T15:09:54Z</time>
      </trkpt>
      <trkpt lat="44.85111" lon="-0.56076">
        <ele>4.4</ele>
        <time>2024-08-03T15:09:55Z</time>
      </trkpt>
      <trkpt lat="44.85113" lon="-0.56073">
        <ele>4.5</ele>
        <time>2024-08-03T15:09:56Z</time>
      </trkpt>
      <trkpt lat="44.85116" lon="-0.5607">
        <ele>4.5</ele>
        <time>2024-08-03T15:09:57Z</time>
      </trkpt>
      <trkpt lat="44.85118" lon="-0.56067">
        <ele>4.5</ele>
        <time>2024-08-03T15:09:58Z</time>
      </trkpt>
      <trkpt lat="44.8512" lon="-0.56064">
        <ele>4.5</ele>
        <time>2024-08-03T15:09:59Z</time>
      </trkpt>
      <trkpt lat="44.85123" lon="-0.5606">
        <ele>4.5</ele>
        <time>2024-08-03T15:10:00Z</time>
      </trkpt>
      <trkpt lat="44.85125" lon="-0.56057">
        <ele>4.5</ele>
        <time>2024-08-03T15:10:01Z</time>
      </trkpt>
      <trkpt lat="44.85125" lon="-0.56057">
        <ele>4.5</ele>
        <time>2024-08-03T15:10:02Z</time>
      </trkpt>
      <trkpt lat="44.85129" lon="-0.56052">
        <ele>4.5</ele>
        <time>2024-08-03T15:10:03Z</time>
      </trkpt>
      <trkpt lat="44.8513" lon="-0.5605">
        <ele>4.5</ele>
        <time>2024-08-03T15:10:04Z</time>
      </trkpt>
      <trkpt lat="44.85132" lon="-0.56047">
        <ele>4.6</ele>
        <time>2024-08-03T15:10:05Z</time>
      </trkpt>
      <trkpt lat="44.85134" lon="-0.56044">
        <ele>4.6</ele>
        <time>2024-08-03T15:10:06Z</time>
      </trkpt>
      <trkpt lat="44.85137" lon="-0.56039">
        <ele>4.6</ele>
        <time>2024-08-03T15:10:07Z</time>
      </trkpt>
      <trkpt lat="44.85138" lon="-0.56037">
        <ele>4.6</ele>
        <time>2024-08-03T15:10:08Z</time>
      </trkpt>
      <trkpt lat="44.85139" lon="-0.56035">
        <ele>4.6</ele>
        <time>2024-08-03T15:10:09Z</time>
      </trkpt>
      <trkpt lat="44.85141" lon="-0.56032">
        <ele>4.6</ele>
        <time>2024-08-03T15:10:10Z</time>
      </trkpt>
      <trkpt lat="44.85143" lon="-0.56029">
        <ele>4.6</ele>
        <time>2024-08-03T15:10:11Z</time>
      </trkpt>
      <trkpt lat="44.85145" lon="-0.56025">
        <ele>4.6</ele>
        <time>2024-08-03T15:10:12Z</time>
      </trkpt>
      <trkpt lat="44.85146" lon="-0.56024">
        <ele>4.6</ele>
        <time>2024-08-03T15:10:13Z</time>
      </trkpt>
      <trkpt lat="44.85149" lon="-0.56019">
        <ele>4.6</ele>
        <time>2024-08-03T15:10:14Z</time>
      </trkpt>
      <trkpt lat="44.8515" lon="-0.56018">
        <ele>4.6</ele>
        <time>2024-08-03T15:10:15Z</time>
      </trkpt>
      <trkpt lat="44.85152" lon="-0.56015">
        <ele>4.6</ele>
        <time>2024-08-03T15:10:16Z</time>
      </trkpt>
      <trkpt lat="44.85154" lon="-0.56011">
        <ele>4.5</ele>
        <time>2024-08-03T15:10:17Z</time>
      </trkpt>
      <trkpt lat="44.85155" lon="-0.56009">
        <ele>4.5</ele>
        <time>2024-08-03T15:10:18Z</time>
      </trkpt>
      <trkpt lat="44.85158" lon="-0.56004">
        <ele>4.5</ele>
        <time>2024-08-03T15:10:20Z</time>
      </trkpt>
      <trkpt lat="44.85159" lon="-0.56003">
        <ele>4.5</ele>
        <time>2024-08-03T15:10:21Z</time>
      </trkpt>
      <trkpt lat="44.8516" lon="-0.56002">
        <ele>4.5</ele>
        <time>2024-08-03T15:10:22Z</time>
      </trkpt>
      <trkpt lat="44.8516" lon="-0.56001">
        <ele>4.5</ele>
        <time>2024-08-03T15:10:23Z</time>
      </trkpt>
      <trkpt lat="44.8516" lon="-0.56001">
        <ele>4.5</ele>
        <time>2024-08-03T15:10:24Z</time>
      </trkpt>
      <trkpt lat="44.85161" lon="-0.56001">
        <ele>4.5</ele>
        <time>2024-08-03T15:10:26Z</time>
      </trkpt>
      <trkpt lat="44.85161" lon="-0.56001">
        <ele>4.5</ele>
        <time>2024-08-03T15:10:27Z</time>
      </trkpt>
      <trkpt lat="44.85162" lon="-0.56001">
        <ele>4.5</ele>
        <time>2024-08-03T15:10:28Z</time>
      </trkpt>
      <trkpt lat="44.85162" lon="-0.56001">
        <ele>4.5</ele>
        <time>2024-08-03T15:10:29Z</time>
      </trkpt>
      <trkpt lat="44.85162" lon="-0.56002">
        <ele>4.5</ele>
        <time>2024-08-03T15:10:30Z</time>
      </trkpt>
      <trkpt lat="44.85166" lon="-0.56001">
        <ele>4.5</ele>
        <time>2024-08-03T15:10:32Z</time>
      </trkpt>
      <trkpt lat="44.85168" lon="-0.55999">
        <ele>4.5</ele>
        <time>2024-08-03T15:10:33Z</time>
      </trkpt>
      <trkpt lat="44.85169" lon="-0.55998">
        <ele>4.5</ele>
        <time>2024-08-03T15:10:34Z</time>
      </trkpt>
      <trkpt lat="44.85169" lon="-0.55996">
        <ele>4.4</ele>
        <time>2024-08-03T15:10:35Z</time>
      </trkpt>
      <trkpt lat="44.8517" lon="-0.55994">
        <ele>4.4</ele>
        <time>2024-08-03T15:10:36Z</time>
      </trkpt>
      <trkpt lat="44.85172" lon="-0.55988">
        <ele>4.4</ele>
        <time>2024-08-03T15:10:38Z</time>
      </trkpt>
      <trkpt lat="44.85172" lon="-0.55986">
        <ele>4.4</ele>
        <time>2024-08-03T15:10:39Z</time>
      </trkpt>
      <trkpt lat="44.85173" lon="-0.55984">
        <ele>4.4</ele>
        <time>2024-08-03T15:10:40Z</time>
      </trkpt>
      <trkpt lat="44.85175" lon="-0.55981">
        <ele>4.4</ele>
        <time>2024-08-03T15:10:41Z</time>
      </trkpt>
      <trkpt lat="44.85177" lon="-0.55978">
        <ele>4.4</ele>
        <time>2024-08-03T15:10:42Z</time>
      </trkpt>
      <trkpt lat="44.85181" lon="-0.55971">
        <ele>4.4</ele>
        <time>2024-08-03T15:10:44Z</time>
      </trkpt>
      <trkpt lat="44.85183" lon="-0.55968">
        <ele>4.4</ele>
        <time>2024-08-03T15:10:45Z</time>
      </trkpt>
      <trkpt lat="44.85186" lon="-0.55964">
        <ele>4.4</ele>
        <time>2024-08-03T15:10:46Z</time>
      </trkpt>
      <trkpt lat="44.85187" lon="-0.55962">
        <ele>4.4</ele>
        <time>2024-08-03T15:10:47Z</time>
      </trkpt>
      <trkpt lat="44.85188" lon="-0.55959">
        <ele>4.3</ele>
        <time>2024-08-03T15:10:48Z</time>
      </trkpt>
      <trkpt lat="44.85191" lon="-0.55954">
        <ele>4.3</ele>
        <time>2024-08-03T15:10:50Z</time>
      </trkpt>
      <trkpt lat="44.85193" lon="-0.55951">
        <ele>4.3</ele>
        <time>2024-08-03T15:10:51Z</time>
      </trkpt>
      <trkpt lat="44.85195" lon="-0.55947">
        <ele>4.3</ele>
        <time>2024-08-03T15:10:52Z</time>
      </trkpt>
      <trkpt lat="44.85197" lon="-0.55944">
        <ele>4.3</ele>
        <time>2024-08-03T15:10:53Z</time>
      </trkpt>
      <trkpt lat="44.85199" lon="-0.55941">
        <ele>4.3</ele>
        <time>2024-08-03T15:10:54Z</time>
      </trkpt>
      <trkpt lat="44.85201" lon="-0.55938">
        <ele>4.3</ele>
        <time>2024-08-03T15:10:55Z</time>
      </trkpt>
      <trkpt lat="44.85203" lon="-0.55935">
        <ele>4.3</ele>
        <time>2024-08-03T15:10:56Z</time>
      </trkpt>
      <trkpt lat="44.85205" lon="-0.55932">
        <ele>4.3</ele>
        <time>2024-08-03T15:10:57Z</time>
      </trkpt>
      <trkpt lat="44.85206" lon="-0.55929">
        <ele>4.3</ele>
        <time>2024-08-03T15:10:58Z</time>
      </trkpt>
      <trkpt lat="44.85208" lon="-0.55926">
        <ele>4.3</ele>
        <time>2024-08-03T15:10:59Z</time>
      </trkpt>
      <trkpt lat="44.85211" lon="-0.55922">
        <ele>4.3</ele>
        <time>2024-08-03T15:11:00Z</time>
      </trkpt>
      <trkpt lat="44.85213" lon="-0.55918">
        <ele>4.3</ele>
        <time>2024-08-03T15:11:01Z</time>
      </trkpt>
      <trkpt lat="44.85215" lon="-0.55915">
        <ele>4.4</ele>
        <time>2024-08-03T15:11:02Z</time>
      </trkpt>
      <trkpt lat="44.85217" lon="-0.55911">
        <ele>4.4</ele>
        <time>2024-08-03T15:11:03Z</time>
      </trkpt>
      <trkpt lat="44.85217" lon="-0.55909">
        <ele>4.4</ele>
        <time>2024-08-03T15:11:04Z</time>
      </trkpt>
      <trkpt lat="44.85219" lon="-0.55906">
        <ele>4.4</ele>
        <time>2024-08-03T15:11:05Z</time>
      </trkpt>
      <trkpt lat="44.85219" lon="-0.55906">
        <ele>4.4</ele>
        <time>2024-08-03T15:11:06Z</time>
      </trkpt>
      <trkpt lat="44.85222" lon="-0.559">
        <ele>4.4</ele>
        <time>2024-08-03T15:11:07Z</time>
      </trkpt>
      <trkpt lat="44.85224" lon="-0.55896">
        <ele>4.4</ele>
        <time>2024-08-03T15:11:08Z</time>
      </trkpt>
      <trkpt lat="44.85226" lon="-0.55893">
        <ele>4.4</ele>
        <time>2024-08-03T15:11:09Z</time>
      </trkpt>
      <trkpt lat="44.85228" lon="-0.5589">
        <ele>4.4</ele>
        <time>2024-08-03T15:11:10Z</time>
      </trkpt>
      <trkpt lat="44.8523" lon="-0.55885">
        <ele>4.4</ele>
        <time>2024-08-03T15:11:11Z</time>
      </trkpt>
      <trkpt lat="44.85231" lon="-0.55883">
        <ele>4.4</ele>
        <time>2024-08-03T15:11:12Z</time>
      </trkpt>
      <trkpt lat="44.85232" lon="-0.55881">
        <ele>4.4</ele>
        <time>2024-08-03T15:11:13Z</time>
      </trkpt>
      <trkpt lat="44.85234" lon="-0.55876">
        <ele>4.4</ele>
        <time>2024-08-03T15:11:14Z</time>
      </trkpt>
      <trkpt lat="44.85235" lon="-0.55875">
        <ele>4.4</ele>
        <time>2024-08-03T15:11:15Z</time>
      </trkpt>
      <trkpt lat="44.85237" lon="-0.5587">
        <ele>4.4</ele>
        <time>2024-08-03T15:11:16Z</time>
      </trkpt>
      <trkpt lat="44.85238" lon="-0.55869">
        <ele>4.4</ele>
        <time>2024-08-03T15:11:17Z</time>
      </trkpt>
      <trkpt lat="44.8524" lon="-0.55865">
        <ele>4.4</ele>
        <time>2024-08-03T15:11:18Z</time>
      </trkpt>
      <trkpt lat="44.85242" lon="-0.55861">
        <ele>4.4</ele>
        <time>2024-08-03T15:11:19Z</time>
      </trkpt>
      <trkpt lat="44.85242" lon="-0.55859">
        <ele>4.4</ele>
        <time>2024-08-03T15:11:20Z</time>
      </trkpt>
      <trkpt lat="44.85243" lon="-0.55855">
        <ele>4.4</ele>
        <time>2024-08-03T15:11:21Z</time>
      </trkpt>
      <trkpt lat="44.85245" lon="-0.55851">
        <ele>4.4</ele>
        <time>2024-08-03T15:11:22Z</time>
      </trkpt>
      <trkpt lat="44.85246" lon="-0.55848">
        <ele>4.4</ele>
        <time>2024-08-03T15:11:23Z</time>
      </trkpt>
      <trkpt lat="44.85248" lon="-0.55844">
        <ele>4.3</ele>
        <time>2024-08-03T15:11:24Z</time>
      </trkpt>
      <trkpt lat="44.8525" lon="-0.55841">
        <ele>4.3</ele>
        <time>2024-08-03T15:11:25Z</time>
      </trkpt>
      <trkpt lat="44.85253" lon="-0.55838">
        <ele>4.3</ele>
        <time>2024-08-03T15:11:26Z</time>
      </trkpt>
      <trkpt lat="44.85254" lon="-0.55835">
        <ele>4.3</ele>
        <time>2024-08-03T15:11:27Z</time>
      </trkpt>
      <trkpt lat="44.85256" lon="-0.55832">
        <ele>4.3</ele>
        <time>2024-08-03T15:11:28Z</time>
      </trkpt>
      <trkpt lat="44.85258" lon="-0.55828">
        <ele>4.3</ele>
        <time>2024-08-03T15:11:29Z</time>
      </trkpt>
      <trkpt lat="44.8526" lon="-0.55825">
        <ele>4.3</ele>
        <time>2024-08-03T15:11:30Z</time>
      </trkpt>
      <trkpt lat="44.85261" lon="-0.55822">
        <ele>4.3</ele>
        <time>2024-08-03T15:11:31Z</time>
      </trkpt>
      <trkpt lat="44.85263" lon="-0.55819">
        <ele>4.3</ele>
        <time>2024-08-03T15:11:32Z</time>
      </trkpt>
      <trkpt lat="44.85266" lon="-0.55815">
        <ele>4.3</ele>
        <time>2024-08-03T15:11:33Z</time>
      </trkpt>
      <trkpt lat="44.85268" lon="-0.55812">
        <ele>4.3</ele>
        <time>2024-08-03T15:11:34Z</time>
      </trkpt>
      <trkpt lat="44.8527" lon="-0.55809">
        <ele>4.3</ele>
        <time>2024-08-03T15:11:35Z</time>
      </trkpt>
      <trkpt lat="44.85272" lon="-0.55806">
        <ele>4.3</ele>
        <time>2024-08-03T15:11:36Z</time>
      </trkpt>
      <trkpt lat="44.85274" lon="-0.55801">
        <ele>4.3</ele>
        <time>2024-08-03T15:11:37Z</time>
      </trkpt>
      <trkpt lat="44.85275" lon="-0.55799">
        <ele>4.3</ele>
        <time>2024-08-03T15:11:38Z</time>
      </trkpt>
      <trkpt lat="44.85276" lon="-0.55796">
        <ele>4.3</ele>
        <time>2024-08-03T15:11:39Z</time>
      </trkpt>
      <trkpt lat="44.85278" lon="-0.55793">
        <ele>4.3</ele>
        <time>2024-08-03T15:11:40Z</time>
      </trkpt>
      <trkpt lat="44.85279" lon="-0.5579">
        <ele>4.3</ele>
        <time>2024-08-03T15:11:41Z</time>
      </trkpt>
      <trkpt lat="44.8528" lon="-0.55786">
        <ele>4.3</ele>
        <time>2024-08-03T15:11:42Z</time>
      </trkpt>
      <trkpt lat="44.85281" lon="-0.55785">
        <ele>4.3</ele>
        <time>2024-08-03T15:11:43Z</time>
      </trkpt>
      <trkpt lat="44.85283" lon="-0.55781">
        <ele>4.3</ele>
        <time>2024-08-03T15:11:44Z</time>
      </trkpt>
      <trkpt lat="44.85284" lon="-0.55779">
        <ele>4.3</ele>
        <time>2024-08-03T15:11:45Z</time>
      </trkpt>
      <trkpt lat="44.85286" lon="-0.55775">
        <ele>4.3</ele>
        <time>2024-08-03T15:11:46Z</time>
      </trkpt>
      <trkpt lat="44.85286" lon="-0.55773">
        <ele>4.3</ele>
        <time>2024-08-03T15:11:47Z</time>
      </trkpt>
      <trkpt lat="44.85288" lon="-0.5577">
        <ele>4.3</ele>
        <time>2024-08-03T15:11:48Z</time>
      </trkpt>
      <trkpt lat="44.8529" lon="-0.55766">
        <ele>4.3</ele>
        <time>2024-08-03T15:11:49Z</time>
      </trkpt>
      <trkpt lat="44.85291" lon="-0.55763">
        <ele>4.3</ele>
        <time>2024-08-03T15:11:50Z</time>
      </trkpt>
      <trkpt lat="44.85294" lon="-0.55756">
        <ele>4.4</ele>
        <time>2024-08-03T15:11:52Z</time>
      </trkpt>
      <trkpt lat="44.85296" lon="-0.55753">
        <ele>4.4</ele>
        <time>2024-08-03T15:11:53Z</time>
      </trkpt>
      <trkpt lat="44.85298" lon="-0.5575">
        <ele>4.4</ele>
        <time>2024-08-03T15:11:54Z</time>
      </trkpt>
      <trkpt lat="44.853" lon="-0.55746">
        <ele>4.4</ele>
        <time>2024-08-03T15:11:55Z</time>
      </trkpt>
      <trkpt lat="44.85302" lon="-0.55743">
        <ele>4.4</ele>
        <time>2024-08-03T15:11:56Z</time>
      </trkpt>
      <trkpt lat="44.85306" lon="-0.55737">
        <ele>4.4</ele>
        <time>2024-08-03T15:11:58Z</time>
      </trkpt>
      <trkpt lat="44.85308" lon="-0.55734">
        <ele>4.4</ele>
        <time>2024-08-03T15:11:59Z</time>
      </trkpt>
      <trkpt lat="44.85311" lon="-0.5573">
        <ele>4.4</ele>
        <time>2024-08-03T15:12:00Z</time>
      </trkpt>
      <trkpt lat="44.85311" lon="-0.55729">
        <ele>4.4</ele>
        <time>2024-08-03T15:12:01Z</time>
      </trkpt>
      <trkpt lat="44.85312" lon="-0.55727">
        <ele>4.4</ele>
        <time>2024-08-03T15:12:02Z</time>
      </trkpt>
      <trkpt lat="44.85315" lon="-0.55721">
        <ele>4.4</ele>
        <time>2024-08-03T15:12:04Z</time>
      </trkpt>
      <trkpt lat="44.85316" lon="-0.55717">
        <ele>4.4</ele>
        <time>2024-08-03T15:12:05Z</time>
      </trkpt>
      <trkpt lat="44.85318" lon="-0.55714">
        <ele>4.4</ele>
        <time>2024-08-03T15:12:06Z</time>
      </trkpt>
      <trkpt lat="44.8532" lon="-0.5571">
        <ele>4.4</ele>
        <time>2024-08-03T15:12:07Z</time>
      </trkpt>
      <trkpt lat="44.8532" lon="-0.55709">
        <ele>4.4</ele>
        <time>2024-08-03T15:12:08Z</time>
      </trkpt>
      <trkpt lat="44.85323" lon="-0.55702">
        <ele>4.4</ele>
        <time>2024-08-03T15:12:10Z</time>
      </trkpt>
      <trkpt lat="44.85325" lon="-0.55698">
        <ele>4.4</ele>
        <time>2024-08-03T15:12:11Z</time>
      </trkpt>
      <trkpt lat="44.85328" lon="-0.55695">
        <ele>4.5</ele>
        <time>2024-08-03T15:12:12Z</time>
      </trkpt>
      <trkpt lat="44.8533" lon="-0.55692">
        <ele>4.5</ele>
        <time>2024-08-03T15:12:13Z</time>
      </trkpt>
      <trkpt lat="44.85332" lon="-0.55689">
        <ele>4.5</ele>
        <time>2024-08-03T15:12:14Z</time>
      </trkpt>
      <trkpt lat="44.85335" lon="-0.55683">
        <ele>4.5</ele>
        <time>2024-08-03T15:12:16Z</time>
      </trkpt>
      <trkpt lat="44.85337" lon="-0.5568">
        <ele>4.5</ele>
        <time>2024-08-03T15:12:17Z</time>
      </trkpt>
      <trkpt lat="44.85339" lon="-0.55675">
        <ele>4.5</ele>
        <time>2024-08-03T15:12:18Z</time>
      </trkpt>
      <trkpt lat="44.85339" lon="-0.55674">
        <ele>4.5</ele>
        <time>2024-08-03T15:12:19Z</time>
      </trkpt>
      <trkpt lat="44.85341" lon="-0.55671">
        <ele>4.5</ele>
        <time>2024-08-03T15:12:20Z</time>
      </trkpt>
      <trkpt lat="44.85343" lon="-0.55667">
        <ele>4.5</ele>
        <time>2024-08-03T15:12:21Z</time>
      </trkpt>
      <trkpt lat="44.85345" lon="-0.55663">
        <ele>4.5</ele>
        <time>2024-08-03T15:12:22Z</time>
      </trkpt>
      <trkpt lat="44.85345" lon="-0.55661">
        <ele>4.5</ele>
        <time>2024-08-03T15:12:23Z</time>
      </trkpt>
      <trkpt lat="44.85347" lon="-0.55657">
        <ele>4.5</ele>
        <time>2024-08-03T15:12:24Z</time>
      </trkpt>
      <trkpt lat="44.85347" lon="-0.55656">
        <ele>4.5</ele>
        <time>2024-08-03T15:12:25Z</time>
      </trkpt>
      <trkpt lat="44.85349" lon="-0.55651">
        <ele>4.5</ele>
        <time>2024-08-03T15:12:26Z</time>
      </trkpt>
      <trkpt lat="44.85349" lon="-0.5565">
        <ele>4.5</ele>
        <time>2024-08-03T15:12:27Z</time>
      </trkpt>
      <trkpt lat="44.8535" lon="-0.55645">
        <ele>4.5</ele>
        <time>2024-08-03T15:12:28Z</time>
      </trkpt>
      <trkpt lat="44.85351" lon="-0.55643">
        <ele>4.5</ele>
        <time>2024-08-03T15:12:29Z</time>
      </trkpt>
      <trkpt lat="44.85352" lon="-0.5564">
        <ele>4.5</ele>
        <time>2024-08-03T15:12:30Z</time>
      </trkpt>
      <trkpt lat="44.85354" lon="-0.55635">
        <ele>4.5</ele>
        <time>2024-08-03T15:12:32Z</time>
      </trkpt>
      <trkpt lat="44.85355" lon="-0.55631">
        <ele>4.5</ele>
        <time>2024-08-03T15:12:33Z</time>
      </trkpt>
      <trkpt lat="44.85357" lon="-0.55627">
        <ele>4.5</ele>
        <time>2024-08-03T15:12:34Z</time>
      </trkpt>
      <trkpt lat="44.85358" lon="-0.55626">
        <ele>4.5</ele>
        <time>2024-08-03T15:12:35Z</time>
      </trkpt>
      <trkpt lat="44.8536" lon="-0.55621">
        <ele>4.6</ele>
        <time>2024-08-03T15:12:36Z</time>
      </trkpt>
      <trkpt lat="44.85361" lon="-0.55619">
        <ele>4.6</ele>
        <time>2024-08-03T15:12:37Z</time>
      </trkpt>
      <trkpt lat="44.85362" lon="-0.55617">
        <ele>4.6</ele>
        <time>2024-08-03T15:12:38Z</time>
      </trkpt>
      <trkpt lat="44.85364" lon="-0.55614">
        <ele>4.6</ele>
        <time>2024-08-03T15:12:39Z</time>
      </trkpt>
      <trkpt lat="44.85365" lon="-0.55611">
        <ele>4.6</ele>
        <time>2024-08-03T15:12:40Z</time>
      </trkpt>
      <trkpt lat="44.85366" lon="-0.55608">
        <ele>4.6</ele>
        <time>2024-08-03T15:12:41Z</time>
      </trkpt>
      <trkpt lat="44.85368" lon="-0.55603">
        <ele>4.6</ele>
        <time>2024-08-03T15:12:42Z</time>
      </trkpt>
      <trkpt lat="44.85369" lon="-0.556">
        <ele>4.6</ele>
        <time>2024-08-03T15:12:43Z</time>
      </trkpt>
      <trkpt lat="44.8537" lon="-0.55598">
        <ele>4.6</ele>
        <time>2024-08-03T15:12:44Z</time>
      </trkpt>
      <trkpt lat="44.85372" lon="-0.55593">
        <ele>4.6</ele>
        <time>2024-08-03T15:12:45Z</time>
      </trkpt>
      <trkpt lat="44.85373" lon="-0.55592">
        <ele>4.6</ele>
        <time>2024-08-03T15:12:46Z</time>
      </trkpt>
      <trkpt lat="44.85374" lon="-0.55587">
        <ele>4.7</ele>
        <time>2024-08-03T15:12:47Z</time>
      </trkpt>
      <trkpt lat="44.85375" lon="-0.55585">
        <ele>4.7</ele>
        <time>2024-08-03T15:12:48Z</time>
      </trkpt>
      <trkpt lat="44.85376" lon="-0.55582">
        <ele>4.7</ele>
        <time>2024-08-03T15:12:49Z</time>
      </trkpt>
      <trkpt lat="44.85378" lon="-0.55579">
        <ele>4.7</ele>
        <time>2024-08-03T15:12:50Z</time>
      </trkpt>
      <trkpt lat="44.8538" lon="-0.55574">
        <ele>4.7</ele>
        <time>2024-08-03T15:12:51Z</time>
      </trkpt>
      <trkpt lat="44.85381" lon="-0.55572">
        <ele>4.7</ele>
        <time>2024-08-03T15:12:52Z</time>
      </trkpt>
      <trkpt lat="44.85383" lon="-0.55568">
        <ele>4.7</ele>
        <time>2024-08-03T15:12:53Z</time>
      </trkpt>
      <trkpt lat="44.85383" lon="-0.55566">
        <ele>4.7</ele>
        <time>2024-08-03T15:12:54Z</time>
      </trkpt>
      <trkpt lat="44.85385" lon="-0.55563">
        <ele>4.7</ele>
        <time>2024-08-03T15:12:55Z</time>
      </trkpt>
      <trkpt lat="44.85387" lon="-0.5556">
        <ele>4.7</ele>
        <time>2024-08-03T15:12:56Z</time>
      </trkpt>
      <trkpt lat="44.8539" lon="-0.55556">
        <ele>4.7</ele>
        <time>2024-08-03T15:12:57Z</time>
      </trkpt>
      <trkpt lat="44.8539" lon="-0.55555">
        <ele>4.7</ele>
        <time>2024-08-03T15:12:58Z</time>
      </trkpt>
      <trkpt lat="44.85392" lon="-0.55551">
        <ele>4.7</ele>
        <time>2024-08-03T15:12:59Z</time>
      </trkpt>
      <trkpt lat="44.85393" lon="-0.55548">
        <ele>4.7</ele>
        <time>2024-08-03T15:13:00Z</time>
      </trkpt>
      <trkpt lat="44.85395" lon="-0.55543">
        <ele>4.6</ele>
        <time>2024-08-03T15:13:01Z</time>
      </trkpt>
      <trkpt lat="44.85396" lon="-0.55541">
        <ele>4.6</ele>
        <time>2024-08-03T15:13:02Z</time>
      </trkpt>
      <trkpt lat="44.85396" lon="-0.55537">
        <ele>4.6</ele>
        <time>2024-08-03T15:13:03Z</time>
      </trkpt>
      <trkpt lat="44.85397" lon="-0.55535">
        <ele>4.6</ele>
        <time>2024-08-03T15:13:04Z</time>
      </trkpt>
      <trkpt lat="44.85398" lon="-0.55531">
        <ele>4.6</ele>
        <time>2024-08-03T15:13:05Z</time>
      </trkpt>
      <trkpt lat="44.854" lon="-0.55525">
        <ele>4.6</ele>
        <time>2024-08-03T15:13:07Z</time>
      </trkpt>
      <trkpt lat="44.85402" lon="-0.55522">
        <ele>4.6</ele>
        <time>2024-08-03T15:13:08Z</time>
      </trkpt>
      <trkpt lat="44.85403" lon="-0.55518">
        <ele>4.6</ele>
        <time>2024-08-03T15:13:09Z</time>
      </trkpt>
      <trkpt lat="44.85404" lon="-0.55514">
        <ele>4.6</ele>
        <time>2024-08-03T15:13:10Z</time>
      </trkpt>
      <trkpt lat="44.85405" lon="-0.55513">
        <ele>4.6</ele>
        <time>2024-08-03T15:13:11Z</time>
      </trkpt>
      <trkpt lat="44.85407" lon="-0.55507">
        <ele>4.6</ele>
        <time>2024-08-03T15:13:13Z</time>
      </trkpt>
      <trkpt lat="44.85409" lon="-0.55503">
        <ele>4.6</ele>
        <time>2024-08-03T15:13:14Z</time>
      </trkpt>
      <trkpt lat="44.8541" lon="-0.55501">
        <ele>4.6</ele>
        <time>2024-08-03T15:13:15Z</time>
      </trkpt>
      <trkpt lat="44.85411" lon="-0.55497">
        <ele>4.5</ele>
        <time>2024-08-03T15:13:16Z</time>
      </trkpt>
      <trkpt lat="44.85413" lon="-0.55493">
        <ele>4.5</ele>
        <time>2024-08-03T15:13:17Z</time>
      </trkpt>
      <trkpt lat="44.85415" lon="-0.55489">
        <ele>4.5</ele>
        <time>2024-08-03T15:13:18Z</time>
      </trkpt>
      <trkpt lat="44.85417" lon="-0.55486">
        <ele>4.5</ele>
        <time>2024-08-03T15:13:19Z</time>
      </trkpt>
      <trkpt lat="44.85419" lon="-0.55483">
        <ele>4.5</ele>
        <time>2024-08-03T15:13:20Z</time>
      </trkpt>
      <trkpt lat="44.85421" lon="-0.55479">
        <ele>4.5</ele>
        <time>2024-08-03T15:13:21Z</time>
      </trkpt>
      <trkpt lat="44.85423" lon="-0.55476">
        <ele>4.5</ele>
        <time>2024-08-03T15:13:22Z</time>
      </trkpt>
      <trkpt lat="44.85425" lon="-0.55472">
        <ele>4.4</ele>
        <time>2024-08-03T15:13:23Z</time>
      </trkpt>
      <trkpt lat="44.85427" lon="-0.55469">
        <ele>4.4</ele>
        <time>2024-08-03T15:13:24Z</time>
      </trkpt>
      <trkpt lat="44.85429" lon="-0.55465">
        <ele>4.4</ele>
        <time>2024-08-03T15:13:25Z</time>
      </trkpt>
      <trkpt lat="44.85431" lon="-0.55461">
        <ele>4.4</ele>
        <time>2024-08-03T15:13:26Z</time>
      </trkpt>
      <trkpt lat="44.85433" lon="-0.55457">
        <ele>4.4</ele>
        <time>2024-08-03T15:13:27Z</time>
      </trkpt>
      <trkpt lat="44.85436" lon="-0.55455">
        <ele>4.4</ele>
        <time>2024-08-03T15:13:28Z</time>
      </trkpt>
      <trkpt lat="44.85438" lon="-0.55453">
        <ele>4.4</ele>
        <time>2024-08-03T15:13:29Z</time>
      </trkpt>
      <trkpt lat="44.85441" lon="-0.55449">
        <ele>4.4</ele>
        <time>2024-08-03T15:13:30Z</time>
      </trkpt>
      <trkpt lat="44.85442" lon="-0.55447">
        <ele>4.5</ele>
        <time>2024-08-03T15:13:31Z</time>
      </trkpt>
      <trkpt lat="44.85445" lon="-0.55442">
        <ele>4.5</ele>
        <time>2024-08-03T15:13:33Z</time>
      </trkpt>
      <trkpt lat="44.85449" lon="-0.55435">
        <ele>4.5</ele>
        <time>2024-08-03T15:13:35Z</time>
      </trkpt>
      <trkpt lat="44.85451" lon="-0.55431">
        <ele>4.5</ele>
        <time>2024-08-03T15:13:36Z</time>
      </trkpt>
      <trkpt lat="44.85451" lon="-0.55429">
        <ele>4.5</ele>
        <time>2024-08-03T15:13:37Z</time>
      </trkpt>
      <trkpt lat="44.85454" lon="-0.55424">
        <ele>4.5</ele>
        <time>2024-08-03T15:13:38Z</time>
      </trkpt>
      <trkpt lat="44.85456" lon="-0.5542">
        <ele>4.5</ele>
        <time>2024-08-03T15:13:39Z</time>
      </trkpt>
      <trkpt lat="44.85461" lon="-0.55413">
        <ele>4.5</ele>
        <time>2024-08-03T15:13:41Z</time>
      </trkpt>
      <trkpt lat="44.85463" lon="-0.55409">
        <ele>4.5</ele>
        <time>2024-08-03T15:13:42Z</time>
      </trkpt>
      <trkpt lat="44.85464" lon="-0.55404">
        <ele>4.5</ele>
        <time>2024-08-03T15:13:43Z</time>
      </trkpt>
      <trkpt lat="44.85465" lon="-0.55402">
        <ele>4.5</ele>
        <time>2024-08-03T15:13:44Z</time>
      </trkpt>
      <trkpt lat="44.85467" lon="-0.55399">
        <ele>4.5</ele>
        <time>2024-08-03T15:13:45Z</time>
      </trkpt>
      <trkpt lat="44.8547" lon="-0.55393">
        <ele>4.5</ele>
        <time>2024-08-03T15:13:47Z</time>
      </trkpt>
      <trkpt lat="44.85471" lon="-0.5539">
        <ele>4.5</ele>
        <time>2024-08-03T15:13:48Z</time>
      </trkpt>
      <trkpt lat="44.85473" lon="-0.55386">
        <ele>4.5</ele>
        <time>2024-08-03T15:13:49Z</time>
      </trkpt>
      <trkpt lat="44.85475" lon="-0.55383">
        <ele>4.5</ele>
        <time>2024-08-03T15:13:50Z</time>
      </trkpt>
      <trkpt lat="44.85476" lon="-0.5538">
        <ele>4.5</ele>
        <time>2024-08-03T15:13:51Z</time>
      </trkpt>
      <trkpt lat="44.8548" lon="-0.55373">
        <ele>4.5</ele>
        <time>2024-08-03T15:13:53Z</time>
      </trkpt>
      <trkpt lat="44.85481" lon="-0.5537">
        <ele>4.4</ele>
        <time>2024-08-03T15:13:54Z</time>
      </trkpt>
      <trkpt lat="44.85482" lon="-0.55366">
        <ele>4.4</ele>
        <time>2024-08-03T15:13:55Z</time>
      </trkpt>
      <trkpt lat="44.85484" lon="-0.55363">
        <ele>4.4</ele>
        <time>2024-08-03T15:13:56Z</time>
      </trkpt>
      <trkpt lat="44.85485" lon="-0.55359">
        <ele>4.4</ele>
        <time>2024-08-03T15:13:57Z</time>
      </trkpt>
      <trkpt lat="44.85486" lon="-0.55357">
        <ele>4.4</ele>
        <time>2024-08-03T15:13:58Z</time>
      </trkpt>
      <trkpt lat="44.85487" lon="-0.55352">
        <ele>4.4</ele>
        <time>2024-08-03T15:13:59Z</time>
      </trkpt>
      <trkpt lat="44.85487" lon="-0.5535">
        <ele>4.4</ele>
        <time>2024-08-03T15:14:00Z</time>
      </trkpt>
      <trkpt lat="44.85489" lon="-0.55345">
        <ele>4.4</ele>
        <time>2024-08-03T15:14:01Z</time>
      </trkpt>
      <trkpt lat="44.85489" lon="-0.55344">
        <ele>4.4</ele>
        <time>2024-08-03T15:14:02Z</time>
      </trkpt>
      <trkpt lat="44.85489" lon="-0.55344">
        <ele>4.4</ele>
        <time>2024-08-03T15:14:03Z</time>
      </trkpt>
      <trkpt lat="44.8549" lon="-0.55336">
        <ele>4.5</ele>
        <time>2024-08-03T15:14:04Z</time>
      </trkpt>
      <trkpt lat="44.85491" lon="-0.55333">
        <ele>4.5</ele>
        <time>2024-08-03T15:14:05Z</time>
      </trkpt>
      <trkpt lat="44.85492" lon="-0.55328">
        <ele>4.5</ele>
        <time>2024-08-03T15:14:06Z</time>
      </trkpt>
      <trkpt lat="44.85492" lon="-0.55326">
        <ele>4.5</ele>
        <time>2024-08-03T15:14:07Z</time>
      </trkpt>
      <trkpt lat="44.85493" lon="-0.55322">
        <ele>4.5</ele>
        <time>2024-08-03T15:14:08Z</time>
      </trkpt>
      <trkpt lat="44.85493" lon="-0.55319">
        <ele>4.5</ele>
        <time>2024-08-03T15:14:09Z</time>
      </trkpt>
      <trkpt lat="44.85494" lon="-0.55315">
        <ele>4.5</ele>
        <time>2024-08-03T15:14:10Z</time>
      </trkpt>
      <trkpt lat="44.85495" lon="-0.55311">
        <ele>4.5</ele>
        <time>2024-08-03T15:14:11Z</time>
      </trkpt>
      <trkpt lat="44.85496" lon="-0.55308">
        <ele>4.5</ele>
        <time>2024-08-03T15:14:12Z</time>
      </trkpt>
      <trkpt lat="44.85497" lon="-0.55304">
        <ele>4.5</ele>
        <time>2024-08-03T15:14:13Z</time>
      </trkpt>
      <trkpt lat="44.85499" lon="-0.553">
        <ele>4.5</ele>
        <time>2024-08-03T15:14:14Z</time>
      </trkpt>
      <trkpt lat="44.85499" lon="-0.553">
        <ele>4.5</ele>
        <time>2024-08-03T15:14:15Z</time>
      </trkpt>
      <trkpt lat="44.85501" lon="-0.55294">
        <ele>4.5</ele>
        <time>2024-08-03T15:14:16Z</time>
      </trkpt>
      <trkpt lat="44.85501" lon="-0.55291">
        <ele>4.5</ele>
        <time>2024-08-03T15:14:17Z</time>
      </trkpt>
      <trkpt lat="44.85502" lon="-0.55286">
        <ele>4.5</ele>
        <time>2024-08-03T15:14:18Z</time>
      </trkpt>
      <trkpt lat="44.85502" lon="-0.55284">
        <ele>4.5</ele>
        <time>2024-08-03T15:14:19Z</time>
      </trkpt>
      <trkpt lat="44.85503" lon="-0.5528">
        <ele>4.5</ele>
        <time>2024-08-03T15:14:20Z</time>
      </trkpt>
      <trkpt lat="44.85504" lon="-0.55277">
        <ele>4.5</ele>
        <time>2024-08-03T15:14:21Z</time>
      </trkpt>
      <trkpt lat="44.85505" lon="-0.55273">
        <ele>4.5</ele>
        <time>2024-08-03T15:14:22Z</time>
      </trkpt>
      <trkpt lat="44.85506" lon="-0.5527">
        <ele>4.5</ele>
        <time>2024-08-03T15:14:23Z</time>
      </trkpt>
      <trkpt lat="44.85508" lon="-0.55267">
        <ele>4.5</ele>
        <time>2024-08-03T15:14:24Z</time>
      </trkpt>
      <trkpt lat="44.85509" lon="-0.55263">
        <ele>4.5</ele>
        <time>2024-08-03T15:14:25Z</time>
      </trkpt>
      <trkpt lat="44.85512" lon="-0.55258">
        <ele>4.5</ele>
        <time>2024-08-03T15:14:26Z</time>
      </trkpt>
      <trkpt lat="44.85513" lon="-0.55255">
        <ele>4.5</ele>
        <time>2024-08-03T15:14:27Z</time>
      </trkpt>
      <trkpt lat="44.85514" lon="-0.55253">
        <ele>4.5</ele>
        <time>2024-08-03T15:14:28Z</time>
      </trkpt>
      <trkpt lat="44.85515" lon="-0.5525">
        <ele>4.6</ele>
        <time>2024-08-03T15:14:29Z</time>
      </trkpt>
      <trkpt lat="44.85517" lon="-0.55245">
        <ele>4.6</ele>
        <time>2024-08-03T15:14:30Z</time>
      </trkpt>
      <trkpt lat="44.85518" lon="-0.55243">
        <ele>4.6</ele>
        <time>2024-08-03T15:14:31Z</time>
      </trkpt>
      <trkpt lat="44.85519" lon="-0.55239">
        <ele>4.6</ele>
        <time>2024-08-03T15:14:32Z</time>
      </trkpt>
      <trkpt lat="44.85519" lon="-0.55236">
        <ele>4.6</ele>
        <time>2024-08-03T15:14:33Z</time>
      </trkpt>
      <trkpt lat="44.8552" lon="-0.55232">
        <ele>4.6</ele>
        <time>2024-08-03T15:14:34Z</time>
      </trkpt>
      <trkpt lat="44.85521" lon="-0.55227">
        <ele>4.6</ele>
        <time>2024-08-03T15:14:35Z</time>
      </trkpt>
      <trkpt lat="44.85521" lon="-0.55225">
        <ele>4.6</ele>
        <time>2024-08-03T15:14:36Z</time>
      </trkpt>
      <trkpt lat="44.85522" lon="-0.55221">
        <ele>4.6</ele>
        <time>2024-08-03T15:14:37Z</time>
      </trkpt>
      <trkpt lat="44.85523" lon="-0.55219">
        <ele>4.6</ele>
        <time>2024-08-03T15:14:38Z</time>
      </trkpt>
      <trkpt lat="44.85525" lon="-0.55216">
        <ele>4.6</ele>
        <time>2024-08-03T15:14:39Z</time>
      </trkpt>
      <trkpt lat="44.85526" lon="-0.55213">
        <ele>4.6</ele>
        <time>2024-08-03T15:14:40Z</time>
      </trkpt>
      <trkpt lat="44.85529" lon="-0.55209">
        <ele>4.6</ele>
        <time>2024-08-03T15:14:41Z</time>
      </trkpt>
      <trkpt lat="44.8553" lon="-0.55208">
        <ele>4.6</ele>
        <time>2024-08-03T15:14:42Z</time>
      </trkpt>
      <trkpt lat="44.85532" lon="-0.55203">
        <ele>4.6</ele>
        <time>2024-08-03T15:14:43Z</time>
      </trkpt>
      <trkpt lat="44.85532" lon="-0.55202">
        <ele>4.6</ele>
        <time>2024-08-03T15:14:44Z</time>
      </trkpt>
      <trkpt lat="44.85533" lon="-0.55198">
        <ele>4.6</ele>
        <time>2024-08-03T15:14:45Z</time>
      </trkpt>
      <trkpt lat="44.85535" lon="-0.55195">
        <ele>4.6</ele>
        <time>2024-08-03T15:14:46Z</time>
      </trkpt>
      <trkpt lat="44.85536" lon="-0.5519">
        <ele>4.6</ele>
        <time>2024-08-03T15:14:47Z</time>
      </trkpt>
      <trkpt lat="44.85537" lon="-0.55188">
        <ele>4.6</ele>
        <time>2024-08-03T15:14:48Z</time>
      </trkpt>
      <trkpt lat="44.85539" lon="-0.55185">
        <ele>4.6</ele>
        <time>2024-08-03T15:14:49Z</time>
      </trkpt>
      <trkpt lat="44.8554" lon="-0.5518">
        <ele>4.6</ele>
        <time>2024-08-03T15:14:50Z</time>
      </trkpt>
      <trkpt lat="44.85541" lon="-0.55178">
        <ele>4.6</ele>
        <time>2024-08-03T15:14:51Z</time>
      </trkpt>
      <trkpt lat="44.85541" lon="-0.55176">
        <ele>4.6</ele>
        <time>2024-08-03T15:14:52Z</time>
      </trkpt>
      <trkpt lat="44.85542" lon="-0.55172">
        <ele>4.6</ele>
        <time>2024-08-03T15:14:53Z</time>
      </trkpt>
      <trkpt lat="44.85544" lon="-0.55169">
        <ele>4.6</ele>
        <time>2024-08-03T15:14:54Z</time>
      </trkpt>
      <trkpt lat="44.85546" lon="-0.55165">
        <ele>4.5</ele>
        <time>2024-08-03T15:14:55Z</time>
      </trkpt>
      <trkpt lat="44.85547" lon="-0.55162">
        <ele>4.5</ele>
        <time>2024-08-03T15:14:56Z</time>
      </trkpt>
      <trkpt lat="44.85549" lon="-0.55158">
        <ele>4.5</ele>
        <time>2024-08-03T15:14:57Z</time>
      </trkpt>
      <trkpt lat="44.85551" lon="-0.55155">
        <ele>4.5</ele>
        <time>2024-08-03T15:14:58Z</time>
      </trkpt>
      <trkpt lat="44.85553" lon="-0.55151">
        <ele>4.5</ele>
        <time>2024-08-03T15:14:59Z</time>
      </trkpt>
      <trkpt lat="44.85554" lon="-0.55148">
        <ele>4.5</ele>
        <time>2024-08-03T15:15:00Z</time>
      </trkpt>
      <trkpt lat="44.85556" lon="-0.55144">
        <ele>4.5</ele>
        <time>2024-08-03T15:15:01Z</time>
      </trkpt>
      <trkpt lat="44.85558" lon="-0.5514">
        <ele>4.5</ele>
        <time>2024-08-03T15:15:02Z</time>
      </trkpt>
      <trkpt lat="44.85559" lon="-0.55136">
        <ele>4.5</ele>
        <time>2024-08-03T15:15:03Z</time>
      </trkpt>
      <trkpt lat="44.85561" lon="-0.55133">
        <ele>4.5</ele>
        <time>2024-08-03T15:15:04Z</time>
      </trkpt>
      <trkpt lat="44.85562" lon="-0.55129">
        <ele>4.5</ele>
        <time>2024-08-03T15:15:05Z</time>
      </trkpt>
      <trkpt lat="44.85564" lon="-0.55126">
        <ele>4.5</ele>
        <time>2024-08-03T15:15:06Z</time>
      </trkpt>
      <trkpt lat="44.85565" lon="-0.55122">
        <ele>4.5</ele>
        <time>2024-08-03T15:15:07Z</time>
      </trkpt>
      <trkpt lat="44.85566" lon="-0.55119">
        <ele>4.5</ele>
        <time>2024-08-03T15:15:08Z</time>
      </trkpt>
      <trkpt lat="44.85566" lon="-0.55119">
        <ele>4.5</ele>
        <time>2024-08-03T15:15:09Z</time>
      </trkpt>
      <trkpt lat="44.85569" lon="-0.55112">
        <ele>4.6</ele>
        <time>2024-08-03T15:15:10Z</time>
      </trkpt>
      <trkpt lat="44.85571" lon="-0.55109">
        <ele>4.6</ele>
        <time>2024-08-03T15:15:11Z</time>
      </trkpt>
      <trkpt lat="44.85572" lon="-0.55105">
        <ele>4.6</ele>
        <time>2024-08-03T15:15:12Z</time>
      </trkpt>
      <trkpt lat="44.85574" lon="-0.551">
        <ele>4.6</ele>
        <time>2024-08-03T15:15:13Z</time>
      </trkpt>
      <trkpt lat="44.85575" lon="-0.55099">
        <ele>4.6</ele>
        <time>2024-08-03T15:15:14Z</time>
      </trkpt>
      <trkpt lat="44.85576" lon="-0.55095">
        <ele>4.6</ele>
        <time>2024-08-03T15:15:15Z</time>
      </trkpt>
      <trkpt lat="44.85578" lon="-0.55091">
        <ele>4.7</ele>
        <time>2024-08-03T15:15:16Z</time>
      </trkpt>
      <trkpt lat="44.85579" lon="-0.55089">
        <ele>4.7</ele>
        <time>2024-08-03T15:15:17Z</time>
      </trkpt>
      <trkpt lat="44.8558" lon="-0.55085">
        <ele>4.7</ele>
        <time>2024-08-03T15:15:18Z</time>
      </trkpt>
      <trkpt lat="44.85581" lon="-0.55082">
        <ele>4.7</ele>
        <time>2024-08-03T15:15:19Z</time>
      </trkpt>
      <trkpt lat="44.85585" lon="-0.55076">
        <ele>4.7</ele>
        <time>2024-08-03T15:15:21Z</time>
      </trkpt>
      <trkpt lat="44.85586" lon="-0.55072">
        <ele>4.8</ele>
        <time>2024-08-03T15:15:22Z</time>
      </trkpt>
      <trkpt lat="44.85587" lon="-0.5507">
        <ele>4.8</ele>
        <time>2024-08-03T15:15:23Z</time>
      </trkpt>
      <trkpt lat="44.85589" lon="-0.55063">
        <ele>4.8</ele>
        <time>2024-08-03T15:15:25Z</time>
      </trkpt>
      <trkpt lat="44.85591" lon="-0.55058">
        <ele>4.8</ele>
        <time>2024-08-03T15:15:26Z</time>
      </trkpt>
      <trkpt lat="44.85591" lon="-0.55057">
        <ele>4.8</ele>
        <time>2024-08-03T15:15:27Z</time>
      </trkpt>
      <trkpt lat="44.85593" lon="-0.55052">
        <ele>4.8</ele>
        <time>2024-08-03T15:15:28Z</time>
      </trkpt>
      <trkpt lat="44.85593" lon="-0.5505">
        <ele>4.8</ele>
        <time>2024-08-03T15:15:29Z</time>
      </trkpt>
      <trkpt lat="44.85595" lon="-0.55043">
        <ele>4.8</ele>
        <time>2024-08-03T15:15:31Z</time>
      </trkpt>
      <trkpt lat="44.85596" lon="-0.5504">
        <ele>4.8</ele>
        <time>2024-08-03T15:15:32Z</time>
      </trkpt>
      <trkpt lat="44.85598" lon="-0.55035">
        <ele>4.8</ele>
        <time>2024-08-03T15:15:33Z</time>
      </trkpt>
      <trkpt lat="44.85599" lon="-0.55034">
        <ele>4.8</ele>
        <time>2024-08-03T15:15:34Z</time>
      </trkpt>
      <trkpt lat="44.856" lon="-0.55031">
        <ele>4.8</ele>
        <time>2024-08-03T15:15:35Z</time>
      </trkpt>
      <trkpt lat="44.85601" lon="-0.55025">
        <ele>4.8</ele>
        <time>2024-08-03T15:15:37Z</time>
      </trkpt>
      <trkpt lat="44.85602" lon="-0.55022">
        <ele>4.8</ele>
        <time>2024-08-03T15:15:38Z</time>
      </trkpt>
      <trkpt lat="44.85602" lon="-0.55018">
        <ele>4.8</ele>
        <time>2024-08-03T15:15:39Z</time>
      </trkpt>
      <trkpt lat="44.85603" lon="-0.55016">
        <ele>4.8</ele>
        <time>2024-08-03T15:15:40Z</time>
      </trkpt>
      <trkpt lat="44.85604" lon="-0.55013">
        <ele>4.8</ele>
        <time>2024-08-03T15:15:41Z</time>
      </trkpt>
      <trkpt lat="44.85606" lon="-0.55007">
        <ele>4.8</ele>
        <time>2024-08-03T15:15:43Z</time>
      </trkpt>
      <trkpt lat="44.85607" lon="-0.55004">
        <ele>4.9</ele>
        <time>2024-08-03T15:15:44Z</time>
      </trkpt>
      <trkpt lat="44.85609" lon="-0.55">
        <ele>4.9</ele>
        <time>2024-08-03T15:15:45Z</time>
      </trkpt>
      <trkpt lat="44.85611" lon="-0.54997">
        <ele>4.9</ele>
        <time>2024-08-03T15:15:46Z</time>
      </trkpt>
      <trkpt lat="44.85612" lon="-0.54994">
        <ele>5</ele>
        <time>2024-08-03T15:15:47Z</time>
      </trkpt>
      <trkpt lat="44.85611" lon="-0.54987">
        <ele>5</ele>
        <time>2024-08-03T15:15:49Z</time>
      </trkpt>
      <trkpt lat="44.85609" lon="-0.54985">
        <ele>5</ele>
        <time>2024-08-03T15:15:50Z</time>
      </trkpt>
      <trkpt lat="44.85606" lon="-0.54984">
        <ele>5</ele>
        <time>2024-08-03T15:15:51Z</time>
      </trkpt>
      <trkpt lat="44.85605" lon="-0.54984">
        <ele>5</ele>
        <time>2024-08-03T15:15:52Z</time>
      </trkpt>
      <trkpt lat="44.85604" lon="-0.54984">
        <ele>5.1</ele>
        <time>2024-08-03T15:15:53Z</time>
      </trkpt>
      <trkpt lat="44.85602" lon="-0.54978">
        <ele>5.1</ele>
        <time>2024-08-03T15:15:55Z</time>
      </trkpt>
      <trkpt lat="44.85604" lon="-0.54974">
        <ele>5.2</ele>
        <time>2024-08-03T15:15:56Z</time>
      </trkpt>
      <trkpt lat="44.85605" lon="-0.54974">
        <ele>5.3</ele>
        <time>2024-08-03T15:15:57Z</time>
      </trkpt>
      <trkpt lat="44.85608" lon="-0.54974">
        <ele>5.3</ele>
        <time>2024-08-03T15:15:58Z</time>
      </trkpt>
      <trkpt lat="44.85611" lon="-0.54976">
        <ele>5.4</ele>
        <time>2024-08-03T15:15:59Z</time>
      </trkpt>
      <trkpt lat="44.85614" lon="-0.54978">
        <ele>5.4</ele>
        <time>2024-08-03T15:16:00Z</time>
      </trkpt>
      <trkpt lat="44.85617" lon="-0.5498">
        <ele>5.4</ele>
        <time>2024-08-03T15:16:01Z</time>
      </trkpt>
      <trkpt lat="44.8562" lon="-0.54982">
        <ele>5.4</ele>
        <time>2024-08-03T15:16:02Z</time>
      </trkpt>
      <trkpt lat="44.85622" lon="-0.54984">
        <ele>5.5</ele>
        <time>2024-08-03T15:16:03Z</time>
      </trkpt>
      <trkpt lat="44.85624" lon="-0.54987">
        <ele>5.5</ele>
        <time>2024-08-03T15:16:04Z</time>
      </trkpt>
      <trkpt lat="44.85627" lon="-0.54989">
        <ele>5.5</ele>
        <time>2024-08-03T15:16:05Z</time>
      </trkpt>
      <trkpt lat="44.85629" lon="-0.54992">
        <ele>5.5</ele>
        <time>2024-08-03T15:16:06Z</time>
      </trkpt>
      <trkpt lat="44.85631" lon="-0.54994">
        <ele>5.6</ele>
        <time>2024-08-03T15:16:07Z</time>
      </trkpt>
      <trkpt lat="44.85635" lon="-0.54997">
        <ele>5.8</ele>
        <time>2024-08-03T15:16:08Z</time>
      </trkpt>
      <trkpt lat="44.85636" lon="-0.54998">
        <ele>5.8</ele>
        <time>2024-08-03T15:16:09Z</time>
      </trkpt>
      <trkpt lat="44.8564" lon="-0.55002">
        <ele>6</ele>
        <time>2024-08-03T15:16:10Z</time>
      </trkpt>
      <trkpt lat="44.85641" lon="-0.55003">
        <ele>6</ele>
        <time>2024-08-03T15:16:11Z</time>
      </trkpt>
      <trkpt lat="44.85643" lon="-0.55005">
        <ele>6.1</ele>
        <time>2024-08-03T15:16:12Z</time>
      </trkpt>
      <trkpt lat="44.85646" lon="-0.55008">
        <ele>6.2</ele>
        <time>2024-08-03T15:16:13Z</time>
      </trkpt>
      <trkpt lat="44.85647" lon="-0.55009">
        <ele>6.2</ele>
        <time>2024-08-03T15:16:14Z</time>
      </trkpt>
      <trkpt lat="44.8565" lon="-0.55012">
        <ele>6.3</ele>
        <time>2024-08-03T15:16:15Z</time>
      </trkpt>
      <trkpt lat="44.85651" lon="-0.55013">
        <ele>6.4</ele>
        <time>2024-08-03T15:16:16Z</time>
      </trkpt>
      <trkpt lat="44.85653" lon="-0.55015">
        <ele>6.5</ele>
        <time>2024-08-03T15:16:17Z</time>
      </trkpt>
      <trkpt lat="44.85655" lon="-0.55017">
        <ele>6.5</ele>
        <time>2024-08-03T15:16:18Z</time>
      </trkpt>
      <trkpt lat="44.85658" lon="-0.5502">
        <ele>6.6</ele>
        <time>2024-08-03T15:16:19Z</time>
      </trkpt>
      <trkpt lat="44.85659" lon="-0.55021">
        <ele>6.7</ele>
        <time>2024-08-03T15:16:20Z</time>
      </trkpt>
      <trkpt lat="44.85661" lon="-0.55024">
        <ele>6.8</ele>
        <time>2024-08-03T15:16:21Z</time>
      </trkpt>
      <trkpt lat="44.85664" lon="-0.55026">
        <ele>6.9</ele>
        <time>2024-08-03T15:16:22Z</time>
      </trkpt>
      <trkpt lat="44.85664" lon="-0.55026">
        <ele>6.9</ele>
        <time>2024-08-03T15:16:23Z</time>
      </trkpt>
      <trkpt lat="44.85668" lon="-0.55031">
        <ele>7.1</ele>
        <time>2024-08-03T15:16:24Z</time>
      </trkpt>
      <trkpt lat="44.8567" lon="-0.55033">
        <ele>7.2</ele>
        <time>2024-08-03T15:16:25Z</time>
      </trkpt>
      <trkpt lat="44.85673" lon="-0.55036">
        <ele>7.3</ele>
        <time>2024-08-03T15:16:26Z</time>
      </trkpt>
      <trkpt lat="44.85674" lon="-0.55037">
        <ele>7.4</ele>
        <time>2024-08-03T15:16:27Z</time>
      </trkpt>
      <trkpt lat="44.85677" lon="-0.55041">
        <ele>7.5</ele>
        <time>2024-08-03T15:16:28Z</time>
      </trkpt>
      <trkpt lat="44.85679" lon="-0.55042">
        <ele>7.6</ele>
        <time>2024-08-03T15:16:29Z</time>
      </trkpt>
      <trkpt lat="44.8568" lon="-0.55043">
        <ele>7.6</ele>
        <time>2024-08-03T15:16:30Z</time>
      </trkpt>
      <trkpt lat="44.85683" lon="-0.55046">
        <ele>7.8</ele>
        <time>2024-08-03T15:16:31Z</time>
      </trkpt>
      <trkpt lat="44.85685" lon="-0.55047">
        <ele>7.8</ele>
        <time>2024-08-03T15:16:32Z</time>
      </trkpt>
      <trkpt lat="44.85687" lon="-0.55049">
        <ele>7.9</ele>
        <time>2024-08-03T15:16:33Z</time>
      </trkpt>
      <trkpt lat="44.8569" lon="-0.55053">
        <ele>8</ele>
        <time>2024-08-03T15:16:34Z</time>
      </trkpt>
      <trkpt lat="44.85692" lon="-0.55054">
        <ele>8.1</ele>
        <time>2024-08-03T15:16:35Z</time>
      </trkpt>
      <trkpt lat="44.85693" lon="-0.55056">
        <ele>8.2</ele>
        <time>2024-08-03T15:16:36Z</time>
      </trkpt>
      <trkpt lat="44.85695" lon="-0.55058">
        <ele>8.2</ele>
        <time>2024-08-03T15:16:37Z</time>
      </trkpt>
      <trkpt lat="44.85698" lon="-0.55062">
        <ele>8.4</ele>
        <time>2024-08-03T15:16:38Z</time>
      </trkpt>
      <trkpt lat="44.85699" lon="-0.55063">
        <ele>8.4</ele>
        <time>2024-08-03T15:16:39Z</time>
      </trkpt>
      <trkpt lat="44.85701" lon="-0.55066">
        <ele>8.5</ele>
        <time>2024-08-03T15:16:40Z</time>
      </trkpt>
      <trkpt lat="44.85704" lon="-0.55069">
        <ele>8.6</ele>
        <time>2024-08-03T15:16:41Z</time>
      </trkpt>
      <trkpt lat="44.85705" lon="-0.5507">
        <ele>8.7</ele>
        <time>2024-08-03T15:16:42Z</time>
      </trkpt>
      <trkpt lat="44.85708" lon="-0.55074">
        <ele>8.8</ele>
        <time>2024-08-03T15:16:43Z</time>
      </trkpt>
      <trkpt lat="44.85709" lon="-0.55075">
        <ele>8.9</ele>
        <time>2024-08-03T15:16:44Z</time>
      </trkpt>
      <trkpt lat="44.85711" lon="-0.55077">
        <ele>9</ele>
        <time>2024-08-03T15:16:45Z</time>
      </trkpt>
      <trkpt lat="44.85715" lon="-0.55081">
        <ele>9.1</ele>
        <time>2024-08-03T15:16:47Z</time>
      </trkpt>
      <trkpt lat="44.85717" lon="-0.55083">
        <ele>9.2</ele>
        <time>2024-08-03T15:16:48Z</time>
      </trkpt>
      <trkpt lat="44.8572" lon="-0.55086">
        <ele>9.4</ele>
        <time>2024-08-03T15:16:49Z</time>
      </trkpt>
      <trkpt lat="44.85721" lon="-0.55087">
        <ele>9.4</ele>
        <time>2024-08-03T15:16:50Z</time>
      </trkpt>
      <trkpt lat="44.85724" lon="-0.5509">
        <ele>9.5</ele>
        <time>2024-08-03T15:16:51Z</time>
      </trkpt>
      <trkpt lat="44.85727" lon="-0.55094">
        <ele>9.7</ele>
        <time>2024-08-03T15:16:53Z</time>
      </trkpt>
      <trkpt lat="44.8573" lon="-0.55097">
        <ele>9.8</ele>
        <time>2024-08-03T15:16:54Z</time>
      </trkpt>
      <trkpt lat="44.85731" lon="-0.55098">
        <ele>9.9</ele>
        <time>2024-08-03T15:16:55Z</time>
      </trkpt>
      <trkpt lat="44.85734" lon="-0.55101">
        <ele>10</ele>
        <time>2024-08-03T15:16:56Z</time>
      </trkpt>
      <trkpt lat="44.85735" lon="-0.55102">
        <ele>10.1</ele>
        <time>2024-08-03T15:16:57Z</time>
      </trkpt>
      <trkpt lat="44.85738" lon="-0.55104">
        <ele>10.2</ele>
        <time>2024-08-03T15:16:58Z</time>
      </trkpt>
      <trkpt lat="44.85741" lon="-0.55108">
        <ele>10.3</ele>
        <time>2024-08-03T15:16:59Z</time>
      </trkpt>
      <trkpt lat="44.85742" lon="-0.55109">
        <ele>10.4</ele>
        <time>2024-08-03T15:17:00Z</time>
      </trkpt>
      <trkpt lat="44.85745" lon="-0.55112">
        <ele>10.5</ele>
        <time>2024-08-03T15:17:01Z</time>
      </trkpt>
      <trkpt lat="44.85746" lon="-0.55114">
        <ele>10.5</ele>
        <time>2024-08-03T15:17:02Z</time>
      </trkpt>
      <trkpt lat="44.85749" lon="-0.55117">
        <ele>10.7</ele>
        <time>2024-08-03T15:17:03Z</time>
      </trkpt>
      <trkpt lat="44.8575" lon="-0.55118">
        <ele>10.8</ele>
        <time>2024-08-03T15:17:04Z</time>
      </trkpt>
      <trkpt lat="44.85753" lon="-0.55122">
        <ele>10.9</ele>
        <time>2024-08-03T15:17:05Z</time>
      </trkpt>
      <trkpt lat="44.85754" lon="-0.55123">
        <ele>11</ele>
        <time>2024-08-03T15:17:06Z</time>
      </trkpt>
      <trkpt lat="44.85756" lon="-0.55126">
        <ele>11.1</ele>
        <time>2024-08-03T15:17:07Z</time>
      </trkpt>
      <trkpt lat="44.8576" lon="-0.55131">
        <ele>11.2</ele>
        <time>2024-08-03T15:17:09Z</time>
      </trkpt>
      <trkpt lat="44.85763" lon="-0.55134">
        <ele>11.4</ele>
        <time>2024-08-03T15:17:10Z</time>
      </trkpt>
      <trkpt lat="44.85764" lon="-0.55135">
        <ele>11.4</ele>
        <time>2024-08-03T15:17:11Z</time>
      </trkpt>
      <trkpt lat="44.85767" lon="-0.55138">
        <ele>11.6</ele>
        <time>2024-08-03T15:17:12Z</time>
      </trkpt>
      <trkpt lat="44.85768" lon="-0.55139">
        <ele>11.6</ele>
        <time>2024-08-03T15:17:13Z</time>
      </trkpt>
      <trkpt lat="44.85773" lon="-0.55144">
        <ele>11.8</ele>
        <time>2024-08-03T15:17:15Z</time>
      </trkpt>
      <trkpt lat="44.85774" lon="-0.55146">
        <ele>11.9</ele>
        <time>2024-08-03T15:17:16Z</time>
      </trkpt>
      <trkpt lat="44.85777" lon="-0.55149">
        <ele>12</ele>
        <time>2024-08-03T15:17:17Z</time>
      </trkpt>
      <trkpt lat="44.85778" lon="-0.5515">
        <ele>12.1</ele>
        <time>2024-08-03T15:17:18Z</time>
      </trkpt>
      <trkpt lat="44.8578" lon="-0.55153">
        <ele>12.2</ele>
        <time>2024-08-03T15:17:19Z</time>
      </trkpt>
      <trkpt lat="44.85783" lon="-0.55156">
        <ele>12.3</ele>
        <time>2024-08-03T15:17:20Z</time>
      </trkpt>
      <trkpt lat="44.85784" lon="-0.55157">
        <ele>12.4</ele>
        <time>2024-08-03T15:17:21Z</time>
      </trkpt>
      <trkpt lat="44.85787" lon="-0.55161">
        <ele>12.5</ele>
        <time>2024-08-03T15:17:22Z</time>
      </trkpt>
      <trkpt lat="44.85788" lon="-0.55162">
        <ele>12.5</ele>
        <time>2024-08-03T15:17:23Z</time>
      </trkpt>
      <trkpt lat="44.8579" lon="-0.55164">
        <ele>12.6</ele>
        <time>2024-08-03T15:17:24Z</time>
      </trkpt>
      <trkpt lat="44.85792" lon="-0.55166">
        <ele>12.6</ele>
        <time>2024-08-03T15:17:25Z</time>
      </trkpt>
      <trkpt lat="44.85794" lon="-0.55168">
        <ele>12.7</ele>
        <time>2024-08-03T15:17:26Z</time>
      </trkpt>
      <trkpt lat="44.85797" lon="-0.55172">
        <ele>12.8</ele>
        <time>2024-08-03T15:17:27Z</time>
      </trkpt>
      <trkpt lat="44.85798" lon="-0.55173">
        <ele>12.8</ele>
        <time>2024-08-03T15:17:28Z</time>
      </trkpt>
      <trkpt lat="44.85802" lon="-0.55176">
        <ele>12.9</ele>
        <time>2024-08-03T15:17:29Z</time>
      </trkpt>
      <trkpt lat="44.85803" lon="-0.55177">
        <ele>12.9</ele>
        <time>2024-08-03T15:17:30Z</time>
      </trkpt>
      <trkpt lat="44.85805" lon="-0.5518">
        <ele>12.9</ele>
        <time>2024-08-03T15:17:31Z</time>
      </trkpt>
      <trkpt lat="44.85807" lon="-0.55182">
        <ele>13</ele>
        <time>2024-08-03T15:17:32Z</time>
      </trkpt>
      <trkpt lat="44.8581" lon="-0.55185">
        <ele>13</ele>
        <time>2024-08-03T15:17:33Z</time>
      </trkpt>
      <trkpt lat="44.85811" lon="-0.55186">
        <ele>13</ele>
        <time>2024-08-03T15:17:34Z</time>
      </trkpt>
      <trkpt lat="44.85814" lon="-0.55189">
        <ele>13</ele>
        <time>2024-08-03T15:17:35Z</time>
      </trkpt>
      <trkpt lat="44.85815" lon="-0.5519">
        <ele>13</ele>
        <time>2024-08-03T15:17:36Z</time>
      </trkpt>
      <trkpt lat="44.85817" lon="-0.55193">
        <ele>13</ele>
        <time>2024-08-03T15:17:37Z</time>
      </trkpt>
      <trkpt lat="44.85819" lon="-0.55195">
        <ele>13</ele>
        <time>2024-08-03T15:17:38Z</time>
      </trkpt>
      <trkpt lat="44.85822" lon="-0.55198">
        <ele>13</ele>
        <time>2024-08-03T15:17:39Z</time>
      </trkpt>
      <trkpt lat="44.85823" lon="-0.55199">
        <ele>13</ele>
        <time>2024-08-03T15:17:40Z</time>
      </trkpt>
      <trkpt lat="44.85826" lon="-0.55201">
        <ele>13</ele>
        <time>2024-08-03T15:17:41Z</time>
      </trkpt>
      <trkpt lat="44.85827" lon="-0.55202">
        <ele>13</ele>
        <time>2024-08-03T15:17:42Z</time>
      </trkpt>
      <trkpt lat="44.85829" lon="-0.55204">
        <ele>13</ele>
        <time>2024-08-03T15:17:43Z</time>
      </trkpt>
      <trkpt lat="44.8583" lon="-0.55206">
        <ele>13</ele>
        <time>2024-08-03T15:17:44Z</time>
      </trkpt>
      <trkpt lat="44.85834" lon="-0.55209">
        <ele>12.9</ele>
        <time>2024-08-03T15:17:45Z</time>
      </trkpt>
      <trkpt lat="44.85835" lon="-0.55211">
        <ele>12.9</ele>
        <time>2024-08-03T15:17:46Z</time>
      </trkpt>
      <trkpt lat="44.85838" lon="-0.55214">
        <ele>12.9</ele>
        <time>2024-08-03T15:17:47Z</time>
      </trkpt>
      <trkpt lat="44.85839" lon="-0.55215">
        <ele>12.8</ele>
        <time>2024-08-03T15:17:48Z</time>
      </trkpt>
      <trkpt lat="44.85842" lon="-0.55218">
        <ele>12.8</ele>
        <time>2024-08-03T15:17:49Z</time>
      </trkpt>
      <trkpt lat="44.85843" lon="-0.55218">
        <ele>12.7</ele>
        <time>2024-08-03T15:17:50Z</time>
      </trkpt>
      <trkpt lat="44.85846" lon="-0.55221">
        <ele>12.6</ele>
        <time>2024-08-03T15:17:51Z</time>
      </trkpt>
      <trkpt lat="44.85847" lon="-0.55222">
        <ele>12.6</ele>
        <time>2024-08-03T15:17:52Z</time>
      </trkpt>
      <trkpt lat="44.8585" lon="-0.55225">
        <ele>12.5</ele>
        <time>2024-08-03T15:17:53Z</time>
      </trkpt>
      <trkpt lat="44.85854" lon="-0.55229">
        <ele>12.3</ele>
        <time>2024-08-03T15:17:55Z</time>
      </trkpt>
      <trkpt lat="44.85858" lon="-0.55233">
        <ele>12.2</ele>
        <time>2024-08-03T15:17:56Z</time>
      </trkpt>
      <trkpt lat="44.85859" lon="-0.55234">
        <ele>12.1</ele>
        <time>2024-08-03T15:17:57Z</time>
      </trkpt>
      <trkpt lat="44.85861" lon="-0.55236">
        <ele>12</ele>
        <time>2024-08-03T15:17:58Z</time>
      </trkpt>
      <trkpt lat="44.85863" lon="-0.55238">
        <ele>11.9</ele>
        <time>2024-08-03T15:17:59Z</time>
      </trkpt>
      <trkpt lat="44.85868" lon="-0.55243">
        <ele>11.7</ele>
        <time>2024-08-03T15:18:01Z</time>
      </trkpt>
      <trkpt lat="44.8587" lon="-0.55245">
        <ele>11.6</ele>
        <time>2024-08-03T15:18:02Z</time>
      </trkpt>
      <trkpt lat="44.85873" lon="-0.55248">
        <ele>11.5</ele>
        <time>2024-08-03T15:18:03Z</time>
      </trkpt>
      <trkpt lat="44.85875" lon="-0.55249">
        <ele>11.4</ele>
        <time>2024-08-03T15:18:04Z</time>
      </trkpt>
      <trkpt lat="44.85877" lon="-0.55251">
        <ele>11.3</ele>
        <time>2024-08-03T15:18:05Z</time>
      </trkpt>
      <trkpt lat="44.8588" lon="-0.55254">
        <ele>11.2</ele>
        <time>2024-08-03T15:18:06Z</time>
      </trkpt>
      <trkpt lat="44.85882" lon="-0.55255">
        <ele>11.1</ele>
        <time>2024-08-03T15:18:07Z</time>
      </trkpt>
      <trkpt lat="44.85885" lon="-0.55259">
        <ele>10.9</ele>
        <time>2024-08-03T15:18:08Z</time>
      </trkpt>
      <trkpt lat="44.85886" lon="-0.5526">
        <ele>10.9</ele>
        <time>2024-08-03T15:18:09Z</time>
      </trkpt>
      <trkpt lat="44.85889" lon="-0.55262">
        <ele>10.7</ele>
        <time>2024-08-03T15:18:10Z</time>
      </trkpt>
      <trkpt lat="44.85891" lon="-0.55264">
        <ele>10.6</ele>
        <time>2024-08-03T15:18:11Z</time>
      </trkpt>
      <trkpt lat="44.85893" lon="-0.55267">
        <ele>10.4</ele>
        <time>2024-08-03T15:18:12Z</time>
      </trkpt>
      <trkpt lat="44.85897" lon="-0.5527">
        <ele>10.2</ele>
        <time>2024-08-03T15:18:13Z</time>
      </trkpt>
      <trkpt lat="44.85898" lon="-0.55271">
        <ele>10.2</ele>
        <time>2024-08-03T15:18:14Z</time>
      </trkpt>
      <trkpt lat="44.859" lon="-0.55274">
        <ele>10</ele>
        <time>2024-08-03T15:18:15Z</time>
      </trkpt>
      <trkpt lat="44.85902" lon="-0.55276">
        <ele>9.9</ele>
        <time>2024-08-03T15:18:16Z</time>
      </trkpt>
      <trkpt lat="44.85905" lon="-0.55279">
        <ele>9.7</ele>
        <time>2024-08-03T15:18:17Z</time>
      </trkpt>
      <trkpt lat="44.85908" lon="-0.55282">
        <ele>9.5</ele>
        <time>2024-08-03T15:18:18Z</time>
      </trkpt>
      <trkpt lat="44.85909" lon="-0.55283">
        <ele>9.5</ele>
        <time>2024-08-03T15:18:19Z</time>
      </trkpt>
      <trkpt lat="44.85912" lon="-0.55285">
        <ele>9.3</ele>
        <time>2024-08-03T15:18:20Z</time>
      </trkpt>
      <trkpt lat="44.85914" lon="-0.55288">
        <ele>9.2</ele>
        <time>2024-08-03T15:18:21Z</time>
      </trkpt>
      <trkpt lat="44.85919" lon="-0.55293">
        <ele>8.9</ele>
        <time>2024-08-03T15:18:23Z</time>
      </trkpt>
      <trkpt lat="44.8592" lon="-0.55294">
        <ele>8.8</ele>
        <time>2024-08-03T15:18:24Z</time>
      </trkpt>
      <trkpt lat="44.85924" lon="-0.55297">
        <ele>8.7</ele>
        <time>2024-08-03T15:18:25Z</time>
      </trkpt>
      <trkpt lat="44.85925" lon="-0.55298">
        <ele>8.6</ele>
        <time>2024-08-03T15:18:26Z</time>
      </trkpt>
      <trkpt lat="44.85927" lon="-0.553">
        <ele>8.5</ele>
        <time>2024-08-03T15:18:27Z</time>
      </trkpt>
      <trkpt lat="44.85931" lon="-0.55305">
        <ele>8.2</ele>
        <time>2024-08-03T15:18:29Z</time>
      </trkpt>
      <trkpt lat="44.85934" lon="-0.55307">
        <ele>8.1</ele>
        <time>2024-08-03T15:18:30Z</time>
      </trkpt>
      <trkpt lat="44.85937" lon="-0.5531">
        <ele>8</ele>
        <time>2024-08-03T15:18:31Z</time>
      </trkpt>
      <trkpt lat="44.85938" lon="-0.55311">
        <ele>7.9</ele>
        <time>2024-08-03T15:18:32Z</time>
      </trkpt>
      <trkpt lat="44.8594" lon="-0.55313">
        <ele>7.8</ele>
        <time>2024-08-03T15:18:33Z</time>
      </trkpt>
      <trkpt lat="44.85944" lon="-0.55317">
        <ele>7.6</ele>
        <time>2024-08-03T15:18:35Z</time>
      </trkpt>
      <trkpt lat="44.85946" lon="-0.55319">
        <ele>7.5</ele>
        <time>2024-08-03T15:18:36Z</time>
      </trkpt>
      <trkpt lat="44.8595" lon="-0.55322">
        <ele>7.3</ele>
        <time>2024-08-03T15:18:37Z</time>
      </trkpt>
      <trkpt lat="44.85951" lon="-0.55323">
        <ele>7.2</ele>
        <time>2024-08-03T15:18:38Z</time>
      </trkpt>
      <trkpt lat="44.85953" lon="-0.55326">
        <ele>7.1</ele>
        <time>2024-08-03T15:18:39Z</time>
      </trkpt>
      <trkpt lat="44.85955" lon="-0.55328">
        <ele>7</ele>
        <time>2024-08-03T15:18:40Z</time>
      </trkpt>
      <trkpt lat="44.85959" lon="-0.55331">
        <ele>6.9</ele>
        <time>2024-08-03T15:18:41Z</time>
      </trkpt>
      <trkpt lat="44.8596" lon="-0.55332">
        <ele>6.8</ele>
        <time>2024-08-03T15:18:42Z</time>
      </trkpt>
      <trkpt lat="44.85963" lon="-0.55336">
        <ele>6.6</ele>
        <time>2024-08-03T15:18:43Z</time>
      </trkpt>
      <trkpt lat="44.85964" lon="-0.55337">
        <ele>6.6</ele>
        <time>2024-08-03T15:18:44Z</time>
      </trkpt>
      <trkpt lat="44.85966" lon="-0.5534">
        <ele>6.4</ele>
        <time>2024-08-03T15:18:45Z</time>
      </trkpt>
      <trkpt lat="44.85972" lon="-0.55345">
        <ele>6.1</ele>
        <time>2024-08-03T15:18:47Z</time>
      </trkpt>
      <trkpt lat="44.85973" lon="-0.55346">
        <ele>6.1</ele>
        <time>2024-08-03T15:18:48Z</time>
      </trkpt>
      <trkpt lat="44.85976" lon="-0.5535">
        <ele>6</ele>
        <time>2024-08-03T15:18:49Z</time>
      </trkpt>
      <trkpt lat="44.85977" lon="-0.55351">
        <ele>5.9</ele>
        <time>2024-08-03T15:18:50Z</time>
      </trkpt>
      <trkpt lat="44.85979" lon="-0.55354">
        <ele>5.8</ele>
        <time>2024-08-03T15:18:51Z</time>
      </trkpt>
      <trkpt lat="44.85983" lon="-0.55358">
        <ele>5.7</ele>
        <time>2024-08-03T15:18:53Z</time>
      </trkpt>
      <trkpt lat="44.85984" lon="-0.5536">
        <ele>5.6</ele>
        <time>2024-08-03T15:18:54Z</time>
      </trkpt>
      <trkpt lat="44.85985" lon="-0.55361">
        <ele>5.5</ele>
        <time>2024-08-03T15:18:55Z</time>
      </trkpt>
      <trkpt lat="44.85985" lon="-0.55364">
        <ele>5.4</ele>
        <time>2024-08-03T15:18:56Z</time>
      </trkpt>
      <trkpt lat="44.85985" lon="-0.55365">
        <ele>5.3</ele>
        <time>2024-08-03T15:18:57Z</time>
      </trkpt>
      <trkpt lat="44.85984" lon="-0.55365">
        <ele>5.2</ele>
        <time>2024-08-03T15:18:59Z</time>
      </trkpt>
      <trkpt lat="44.85983" lon="-0.55366">
        <ele>5.1</ele>
        <time>2024-08-03T15:19:00Z</time>
      </trkpt>
      <trkpt lat="44.85982" lon="-0.55367">
        <ele>5.1</ele>
        <time>2024-08-03T15:19:01Z</time>
      </trkpt>
      <trkpt lat="44.85982" lon="-0.55368">
        <ele>5.1</ele>
        <time>2024-08-03T15:19:02Z</time>
      </trkpt>
      <trkpt lat="44.85979" lon="-0.55367">
        <ele>5</ele>
        <time>2024-08-03T15:19:03Z</time>
      </trkpt>
      <trkpt lat="44.85978" lon="-0.55366">
        <ele>5</ele>
        <time>2024-08-03T15:19:04Z</time>
      </trkpt>
      <trkpt lat="44.85976" lon="-0.55365">
        <ele>4.9</ele>
        <time>2024-08-03T15:19:05Z</time>
      </trkpt>
      <trkpt lat="44.85974" lon="-0.55366">
        <ele>4.8</ele>
        <time>2024-08-03T15:19:06Z</time>
      </trkpt>
      <trkpt lat="44.85973" lon="-0.55366">
        <ele>4.8</ele>
        <time>2024-08-03T15:19:07Z</time>
      </trkpt>
      <trkpt lat="44.85972" lon="-0.55367">
        <ele>4.8</ele>
        <time>2024-08-03T15:19:08Z</time>
      </trkpt>
      <trkpt lat="44.85972" lon="-0.55367">
        <ele>4.8</ele>
        <time>2024-08-03T15:19:09Z</time>
      </trkpt>
      <trkpt lat="44.85969" lon="-0.55368">
        <ele>4.7</ele>
        <time>2024-08-03T15:19:10Z</time>
      </trkpt>
      <trkpt lat="44.85968" lon="-0.55369">
        <ele>4.7</ele>
        <time>2024-08-03T15:19:11Z</time>
      </trkpt>
      <trkpt lat="44.85967" lon="-0.55371">
        <ele>4.6</ele>
        <time>2024-08-03T15:19:12Z</time>
      </trkpt>
      <trkpt lat="44.85966" lon="-0.55373">
        <ele>4.6</ele>
        <time>2024-08-03T15:19:13Z</time>
      </trkpt>
      <trkpt lat="44.85965" lon="-0.55374">
        <ele>4.6</ele>
        <time>2024-08-03T15:19:14Z</time>
      </trkpt>
      <trkpt lat="44.85965" lon="-0.55375">
        <ele>4.6</ele>
        <time>2024-08-03T15:19:15Z</time>
      </trkpt>
      <trkpt lat="44.85965" lon="-0.55376">
        <ele>4.6</ele>
        <time>2024-08-03T15:19:16Z</time>
      </trkpt>
      <trkpt lat="44.85963" lon="-0.5538">
        <ele>4.6</ele>
        <time>2024-08-03T15:19:17Z</time>
      </trkpt>
      <trkpt lat="44.85962" lon="-0.55381">
        <ele>4.6</ele>
        <time>2024-08-03T15:19:18Z</time>
      </trkpt>
      <trkpt lat="44.8596" lon="-0.55386">
        <ele>4.6</ele>
        <time>2024-08-03T15:19:19Z</time>
      </trkpt>
      <trkpt lat="44.85959" lon="-0.55388">
        <ele>4.6</ele>
        <time>2024-08-03T15:19:20Z</time>
      </trkpt>
      <trkpt lat="44.85957" lon="-0.55392">
        <ele>4.6</ele>
        <time>2024-08-03T15:19:21Z</time>
      </trkpt>
      <trkpt lat="44.85957" lon="-0.55394">
        <ele>4.6</ele>
        <time>2024-08-03T15:19:22Z</time>
      </trkpt>
      <trkpt lat="44.85956" lon="-0.55398">
        <ele>4.6</ele>
        <time>2024-08-03T15:19:23Z</time>
      </trkpt>
      <trkpt lat="44.85954" lon="-0.55403">
        <ele>4.6</ele>
        <time>2024-08-03T15:19:24Z</time>
      </trkpt>
      <trkpt lat="44.85954" lon="-0.55406">
        <ele>4.6</ele>
        <time>2024-08-03T15:19:25Z</time>
      </trkpt>
      <trkpt lat="44.85953" lon="-0.55408">
        <ele>4.6</ele>
        <time>2024-08-03T15:19:26Z</time>
      </trkpt>
      <trkpt lat="44.85952" lon="-0.55412">
        <ele>4.6</ele>
        <time>2024-08-03T15:19:27Z</time>
      </trkpt>
      <trkpt lat="44.85951" lon="-0.55416">
        <ele>4.6</ele>
        <time>2024-08-03T15:19:28Z</time>
      </trkpt>
      <trkpt lat="44.85949" lon="-0.55419">
        <ele>4.6</ele>
        <time>2024-08-03T15:19:29Z</time>
      </trkpt>
      <trkpt lat="44.85947" lon="-0.55423">
        <ele>4.6</ele>
        <time>2024-08-03T15:19:30Z</time>
      </trkpt>
      <trkpt lat="44.85945" lon="-0.55426">
        <ele>4.6</ele>
        <time>2024-08-03T15:19:31Z</time>
      </trkpt>
      <trkpt lat="44.85943" lon="-0.5543">
        <ele>4.5</ele>
        <time>2024-08-03T15:19:32Z</time>
      </trkpt>
      <trkpt lat="44.85942" lon="-0.55433">
        <ele>4.5</ele>
        <time>2024-08-03T15:19:33Z</time>
      </trkpt>
      <trkpt lat="44.8594" lon="-0.55436">
        <ele>4.5</ele>
        <time>2024-08-03T15:19:34Z</time>
      </trkpt>
      <trkpt lat="44.85937" lon="-0.5544">
        <ele>4.6</ele>
        <time>2024-08-03T15:19:35Z</time>
      </trkpt>
      <trkpt lat="44.85933" lon="-0.55447">
        <ele>4.6</ele>
        <time>2024-08-03T15:19:37Z</time>
      </trkpt>
      <trkpt lat="44.85931" lon="-0.5545">
        <ele>4.6</ele>
        <time>2024-08-03T15:19:38Z</time>
      </trkpt>
      <trkpt lat="44.85929" lon="-0.55453">
        <ele>4.6</ele>
        <time>2024-08-03T15:19:39Z</time>
      </trkpt>
      <trkpt lat="44.85927" lon="-0.55457">
        <ele>4.6</ele>
        <time>2024-08-03T15:19:40Z</time>
      </trkpt>
      <trkpt lat="44.85925" lon="-0.5546">
        <ele>4.6</ele>
        <time>2024-08-03T15:19:41Z</time>
      </trkpt>
      <trkpt lat="44.85921" lon="-0.55466">
        <ele>4.6</ele>
        <time>2024-08-03T15:19:43Z</time>
      </trkpt>
      <trkpt lat="44.8592" lon="-0.55469">
        <ele>4.6</ele>
        <time>2024-08-03T15:19:44Z</time>
      </trkpt>
      <trkpt lat="44.85918" lon="-0.55474">
        <ele>4.6</ele>
        <time>2024-08-03T15:19:45Z</time>
      </trkpt>
      <trkpt lat="44.85918" lon="-0.55475">
        <ele>4.6</ele>
        <time>2024-08-03T15:19:46Z</time>
      </trkpt>
      <trkpt lat="44.85916" lon="-0.55479">
        <ele>4.6</ele>
        <time>2024-08-03T15:19:47Z</time>
      </trkpt>
      <trkpt lat="44.85913" lon="-0.55486">
        <ele>4.6</ele>
        <time>2024-08-03T15:19:49Z</time>
      </trkpt>
      <trkpt lat="44.85911" lon="-0.55489">
        <ele>4.6</ele>
        <time>2024-08-03T15:19:50Z</time>
      </trkpt>
      <trkpt lat="44.85909" lon="-0.55493">
        <ele>4.6</ele>
        <time>2024-08-03T15:19:51Z</time>
      </trkpt>
      <trkpt lat="44.85908" lon="-0.55497">
        <ele>4.6</ele>
        <time>2024-08-03T15:19:52Z</time>
      </trkpt>
      <trkpt lat="44.85907" lon="-0.55499">
        <ele>4.6</ele>
        <time>2024-08-03T15:19:53Z</time>
      </trkpt>
      <trkpt lat="44.85905" lon="-0.55504">
        <ele>4.6</ele>
        <time>2024-08-03T15:19:55Z</time>
      </trkpt>
      <trkpt lat="44.85903" lon="-0.55507">
        <ele>4.6</ele>
        <time>2024-08-03T15:19:56Z</time>
      </trkpt>
      <trkpt lat="44.85902" lon="-0.55511">
        <ele>4.6</ele>
        <time>2024-08-03T15:19:57Z</time>
      </trkpt>
      <trkpt lat="44.859" lon="-0.55514">
        <ele>4.6</ele>
        <time>2024-08-03T15:19:58Z</time>
      </trkpt>
      <trkpt lat="44.85899" lon="-0.55517">
        <ele>4.6</ele>
        <time>2024-08-03T15:19:59Z</time>
      </trkpt>
      <trkpt lat="44.85896" lon="-0.55524">
        <ele>4.7</ele>
        <time>2024-08-03T15:20:01Z</time>
      </trkpt>
      <trkpt lat="44.85894" lon="-0.55528">
        <ele>4.7</ele>
        <time>2024-08-03T15:20:02Z</time>
      </trkpt>
      <trkpt lat="44.85892" lon="-0.55532">
        <ele>4.7</ele>
        <time>2024-08-03T15:20:03Z</time>
      </trkpt>
      <trkpt lat="44.8589" lon="-0.55536">
        <ele>4.7</ele>
        <time>2024-08-03T15:20:04Z</time>
      </trkpt>
      <trkpt lat="44.85889" lon="-0.55539">
        <ele>4.7</ele>
        <time>2024-08-03T15:20:05Z</time>
      </trkpt>
      <trkpt lat="44.85885" lon="-0.55547">
        <ele>4.7</ele>
        <time>2024-08-03T15:20:07Z</time>
      </trkpt>
      <trkpt lat="44.85885" lon="-0.55548">
        <ele>4.7</ele>
        <time>2024-08-03T15:20:08Z</time>
      </trkpt>
      <trkpt lat="44.85882" lon="-0.55553">
        <ele>4.7</ele>
        <time>2024-08-03T15:20:09Z</time>
      </trkpt>
      <trkpt lat="44.85882" lon="-0.55554">
        <ele>4.7</ele>
        <time>2024-08-03T15:20:10Z</time>
      </trkpt>
      <trkpt lat="44.85881" lon="-0.55557">
        <ele>4.7</ele>
        <time>2024-08-03T15:20:11Z</time>
      </trkpt>
      <trkpt lat="44.85878" lon="-0.55563">
        <ele>4.7</ele>
        <time>2024-08-03T15:20:13Z</time>
      </trkpt>
      <trkpt lat="44.85876" lon="-0.55567">
        <ele>4.7</ele>
        <time>2024-08-03T15:20:14Z</time>
      </trkpt>
      <trkpt lat="44.85874" lon="-0.55571">
        <ele>4.7</ele>
        <time>2024-08-03T15:20:15Z</time>
      </trkpt>
      <trkpt lat="44.85873" lon="-0.55572">
        <ele>4.7</ele>
        <time>2024-08-03T15:20:16Z</time>
      </trkpt>
      <trkpt lat="44.85872" lon="-0.55575">
        <ele>4.7</ele>
        <time>2024-08-03T15:20:17Z</time>
      </trkpt>
      <trkpt lat="44.85868" lon="-0.55581">
        <ele>4.7</ele>
        <time>2024-08-03T15:20:19Z</time>
      </trkpt>
      <trkpt lat="44.85866" lon="-0.55585">
        <ele>4.7</ele>
        <time>2024-08-03T15:20:20Z</time>
      </trkpt>
      <trkpt lat="44.85864" lon="-0.55589">
        <ele>4.7</ele>
        <time>2024-08-03T15:20:21Z</time>
      </trkpt>
      <trkpt lat="44.85864" lon="-0.55591">
        <ele>4.7</ele>
        <time>2024-08-03T15:20:22Z</time>
      </trkpt>
      <trkpt lat="44.85862" lon="-0.55595">
        <ele>4.7</ele>
        <time>2024-08-03T15:20:23Z</time>
      </trkpt>
      <trkpt lat="44.8586" lon="-0.55599">
        <ele>4.7</ele>
        <time>2024-08-03T15:20:24Z</time>
      </trkpt>
      <trkpt lat="44.85859" lon="-0.55601">
        <ele>4.7</ele>
        <time>2024-08-03T15:20:25Z</time>
      </trkpt>
      <trkpt lat="44.85857" lon="-0.55605">
        <ele>4.7</ele>
        <time>2024-08-03T15:20:26Z</time>
      </trkpt>
      <trkpt lat="44.85857" lon="-0.55607">
        <ele>4.7</ele>
        <time>2024-08-03T15:20:27Z</time>
      </trkpt>
      <trkpt lat="44.85855" lon="-0.5561">
        <ele>4.7</ele>
        <time>2024-08-03T15:20:28Z</time>
      </trkpt>
      <trkpt lat="44.85855" lon="-0.5561">
        <ele>4.7</ele>
        <time>2024-08-03T15:20:29Z</time>
      </trkpt>
      <trkpt lat="44.85852" lon="-0.55617">
        <ele>4.7</ele>
        <time>2024-08-03T15:20:30Z</time>
      </trkpt>
      <trkpt lat="44.8585" lon="-0.5562">
        <ele>4.7</ele>
        <time>2024-08-03T15:20:31Z</time>
      </trkpt>
      <trkpt lat="44.85849" lon="-0.55624">
        <ele>4.7</ele>
        <time>2024-08-03T15:20:32Z</time>
      </trkpt>
      <trkpt lat="44.85847" lon="-0.55628">
        <ele>4.7</ele>
        <time>2024-08-03T15:20:33Z</time>
      </trkpt>
      <trkpt lat="44.85846" lon="-0.55632">
        <ele>4.7</ele>
        <time>2024-08-03T15:20:34Z</time>
      </trkpt>
      <trkpt lat="44.85845" lon="-0.55635">
        <ele>4.7</ele>
        <time>2024-08-03T15:20:35Z</time>
      </trkpt>
      <trkpt lat="44.85844" lon="-0.55638">
        <ele>4.7</ele>
        <time>2024-08-03T15:20:36Z</time>
      </trkpt>
      <trkpt lat="44.85843" lon="-0.55641">
        <ele>4.7</ele>
        <time>2024-08-03T15:20:37Z</time>
      </trkpt>
      <trkpt lat="44.85841" lon="-0.55644">
        <ele>4.7</ele>
        <time>2024-08-03T15:20:38Z</time>
      </trkpt>
      <trkpt lat="44.85839" lon="-0.55649">
        <ele>4.6</ele>
        <time>2024-08-03T15:20:39Z</time>
      </trkpt>
      <trkpt lat="44.85839" lon="-0.5565">
        <ele>4.6</ele>
        <time>2024-08-03T15:20:40Z</time>
      </trkpt>
      <trkpt lat="44.85837" lon="-0.55653">
        <ele>4.6</ele>
        <time>2024-08-03T15:20:41Z</time>
      </trkpt>
      <trkpt lat="44.85835" lon="-0.55656">
        <ele>4.6</ele>
        <time>2024-08-03T15:20:42Z</time>
      </trkpt>
      <trkpt lat="44.85833" lon="-0.5566">
        <ele>4.6</ele>
        <time>2024-08-03T15:20:43Z</time>
      </trkpt>
      <trkpt lat="44.85833" lon="-0.55662">
        <ele>4.6</ele>
        <time>2024-08-03T15:20:44Z</time>
      </trkpt>
      <trkpt lat="44.85832" lon="-0.55667">
        <ele>4.6</ele>
        <time>2024-08-03T15:20:45Z</time>
      </trkpt>
      <trkpt lat="44.85832" lon="-0.55668">
        <ele>4.6</ele>
        <time>2024-08-03T15:20:46Z</time>
      </trkpt>
      <trkpt lat="44.85831" lon="-0.55672">
        <ele>4.6</ele>
        <time>2024-08-03T15:20:47Z</time>
      </trkpt>
      <trkpt lat="44.85829" lon="-0.55675">
        <ele>4.6</ele>
        <time>2024-08-03T15:20:48Z</time>
      </trkpt>
      <trkpt lat="44.85827" lon="-0.5568">
        <ele>4.6</ele>
        <time>2024-08-03T15:20:49Z</time>
      </trkpt>
      <trkpt lat="44.85826" lon="-0.55681">
        <ele>4.6</ele>
        <time>2024-08-03T15:20:50Z</time>
      </trkpt>
      <trkpt lat="44.85824" lon="-0.55685">
        <ele>4.6</ele>
        <time>2024-08-03T15:20:51Z</time>
      </trkpt>
      <trkpt lat="44.85824" lon="-0.55686">
        <ele>4.6</ele>
        <time>2024-08-03T15:20:52Z</time>
      </trkpt>
      <trkpt lat="44.85823" lon="-0.55689">
        <ele>4.6</ele>
        <time>2024-08-03T15:20:53Z</time>
      </trkpt>
      <trkpt lat="44.85821" lon="-0.55691">
        <ele>4.6</ele>
        <time>2024-08-03T15:20:54Z</time>
      </trkpt>
      <trkpt lat="44.85819" lon="-0.55695">
        <ele>4.6</ele>
        <time>2024-08-03T15:20:55Z</time>
      </trkpt>
      <trkpt lat="44.85818" lon="-0.55697">
        <ele>4.6</ele>
        <time>2024-08-03T15:20:56Z</time>
      </trkpt>
      <trkpt lat="44.85817" lon="-0.557">
        <ele>4.6</ele>
        <time>2024-08-03T15:20:57Z</time>
      </trkpt>
      <trkpt lat="44.85815" lon="-0.55704">
        <ele>4.6</ele>
        <time>2024-08-03T15:20:58Z</time>
      </trkpt>
      <trkpt lat="44.85814" lon="-0.55708">
        <ele>4.6</ele>
        <time>2024-08-03T15:20:59Z</time>
      </trkpt>
      <trkpt lat="44.85813" lon="-0.55712">
        <ele>4.6</ele>
        <time>2024-08-03T15:21:00Z</time>
      </trkpt>
      <trkpt lat="44.85811" lon="-0.55716">
        <ele>4.6</ele>
        <time>2024-08-03T15:21:01Z</time>
      </trkpt>
      <trkpt lat="44.85809" lon="-0.5572">
        <ele>4.6</ele>
        <time>2024-08-03T15:21:02Z</time>
      </trkpt>
      <trkpt lat="44.85807" lon="-0.55724">
        <ele>4.6</ele>
        <time>2024-08-03T15:21:03Z</time>
      </trkpt>
      <trkpt lat="44.85806" lon="-0.55727">
        <ele>4.6</ele>
        <time>2024-08-03T15:21:04Z</time>
      </trkpt>
      <trkpt lat="44.85804" lon="-0.55731">
        <ele>4.6</ele>
        <time>2024-08-03T15:21:05Z</time>
      </trkpt>
      <trkpt lat="44.85802" lon="-0.55734">
        <ele>4.6</ele>
        <time>2024-08-03T15:21:06Z</time>
      </trkpt>
      <trkpt lat="44.858" lon="-0.55738">
        <ele>4.6</ele>
        <time>2024-08-03T15:21:07Z</time>
      </trkpt>
      <trkpt lat="44.85799" lon="-0.5574">
        <ele>4.6</ele>
        <time>2024-08-03T15:21:08Z</time>
      </trkpt>
      <trkpt lat="44.85797" lon="-0.55743">
        <ele>4.6</ele>
        <time>2024-08-03T15:21:09Z</time>
      </trkpt>
      <trkpt lat="44.85796" lon="-0.55747">
        <ele>4.6</ele>
        <time>2024-08-03T15:21:10Z</time>
      </trkpt>
      <trkpt lat="44.85794" lon="-0.5575">
        <ele>4.6</ele>
        <time>2024-08-03T15:21:11Z</time>
      </trkpt>
      <trkpt lat="44.85793" lon="-0.55754">
        <ele>4.6</ele>
        <time>2024-08-03T15:21:12Z</time>
      </trkpt>
      <trkpt lat="44.85791" lon="-0.55758">
        <ele>4.6</ele>
        <time>2024-08-03T15:21:13Z</time>
      </trkpt>
      <trkpt lat="44.85789" lon="-0.55762">
        <ele>4.6</ele>
        <time>2024-08-03T15:21:14Z</time>
      </trkpt>
      <trkpt lat="44.85788" lon="-0.55764">
        <ele>4.6</ele>
        <time>2024-08-03T15:21:15Z</time>
      </trkpt>
      <trkpt lat="44.85787" lon="-0.55767">
        <ele>4.6</ele>
        <time>2024-08-03T15:21:16Z</time>
      </trkpt>
      <trkpt lat="44.85785" lon="-0.55771">
        <ele>4.6</ele>
        <time>2024-08-03T15:21:17Z</time>
      </trkpt>
      <trkpt lat="44.85783" lon="-0.55774">
        <ele>4.6</ele>
        <time>2024-08-03T15:21:18Z</time>
      </trkpt>
      <trkpt lat="44.85781" lon="-0.55777">
        <ele>4.6</ele>
        <time>2024-08-03T15:21:19Z</time>
      </trkpt>
      <trkpt lat="44.85779" lon="-0.55781">
        <ele>4.6</ele>
        <time>2024-08-03T15:21:20Z</time>
      </trkpt>
      <trkpt lat="44.85778" lon="-0.55782">
        <ele>4.6</ele>
        <time>2024-08-03T15:21:21Z</time>
      </trkpt>
      <trkpt lat="44.85777" lon="-0.55786">
        <ele>4.6</ele>
        <time>2024-08-03T15:21:22Z</time>
      </trkpt>
      <trkpt lat="44.85777" lon="-0.55786">
        <ele>4.6</ele>
        <time>2024-08-03T15:21:23Z</time>
      </trkpt>
      <trkpt lat="44.85774" lon="-0.55792">
        <ele>4.6</ele>
        <time>2024-08-03T15:21:24Z</time>
      </trkpt>
      <trkpt lat="44.85772" lon="-0.55795">
        <ele>4.6</ele>
        <time>2024-08-03T15:21:25Z</time>
      </trkpt>
      <trkpt lat="44.8577" lon="-0.55799">
        <ele>4.6</ele>
        <time>2024-08-03T15:21:26Z</time>
      </trkpt>
      <trkpt lat="44.85768" lon="-0.55802">
        <ele>4.6</ele>
        <time>2024-08-03T15:21:27Z</time>
      </trkpt>
      <trkpt lat="44.85766" lon="-0.55805">
        <ele>4.6</ele>
        <time>2024-08-03T15:21:28Z</time>
      </trkpt>
      <trkpt lat="44.85765" lon="-0.55808">
        <ele>4.6</ele>
        <time>2024-08-03T15:21:29Z</time>
      </trkpt>
      <trkpt lat="44.85763" lon="-0.55811">
        <ele>4.6</ele>
        <time>2024-08-03T15:21:30Z</time>
      </trkpt>
      <trkpt lat="44.85761" lon="-0.55816">
        <ele>4.6</ele>
        <time>2024-08-03T15:21:31Z</time>
      </trkpt>
      <trkpt lat="44.85759" lon="-0.5582">
        <ele>4.7</ele>
        <time>2024-08-03T15:21:32Z</time>
      </trkpt>
      <trkpt lat="44.85758" lon="-0.55824">
        <ele>4.7</ele>
        <time>2024-08-03T15:21:33Z</time>
      </trkpt>
      <trkpt lat="44.85757" lon="-0.5583">
        <ele>4.7</ele>
        <time>2024-08-03T15:21:34Z</time>
      </trkpt>
      <trkpt lat="44.85756" lon="-0.55832">
        <ele>4.7</ele>
        <time>2024-08-03T15:21:35Z</time>
      </trkpt>
      <trkpt lat="44.85755" lon="-0.55834">
        <ele>4.7</ele>
        <time>2024-08-03T15:21:36Z</time>
      </trkpt>
      <trkpt lat="44.85753" lon="-0.55839">
        <ele>4.7</ele>
        <time>2024-08-03T15:21:37Z</time>
      </trkpt>
      <trkpt lat="44.85753" lon="-0.5584">
        <ele>4.7</ele>
        <time>2024-08-03T15:21:38Z</time>
      </trkpt>
      <trkpt lat="44.85751" lon="-0.55845">
        <ele>4.7</ele>
        <time>2024-08-03T15:21:39Z</time>
      </trkpt>
      <trkpt lat="44.8575" lon="-0.55847">
        <ele>4.7</ele>
        <time>2024-08-03T15:21:40Z</time>
      </trkpt>
      <trkpt lat="44.85748" lon="-0.55851">
        <ele>4.7</ele>
        <time>2024-08-03T15:21:41Z</time>
      </trkpt>
      <trkpt lat="44.85746" lon="-0.55854">
        <ele>4.7</ele>
        <time>2024-08-03T15:21:42Z</time>
      </trkpt>
      <trkpt lat="44.85744" lon="-0.55859">
        <ele>4.7</ele>
        <time>2024-08-03T15:21:43Z</time>
      </trkpt>
      <trkpt lat="44.85744" lon="-0.5586">
        <ele>4.7</ele>
        <time>2024-08-03T15:21:44Z</time>
      </trkpt>
      <trkpt lat="44.85742" lon="-0.55864">
        <ele>4.7</ele>
        <time>2024-08-03T15:21:45Z</time>
      </trkpt>
      <trkpt lat="44.85741" lon="-0.55867">
        <ele>4.7</ele>
        <time>2024-08-03T15:21:46Z</time>
      </trkpt>
      <trkpt lat="44.85739" lon="-0.5587">
        <ele>4.7</ele>
        <time>2024-08-03T15:21:47Z</time>
      </trkpt>
      <trkpt lat="44.85737" lon="-0.55873">
        <ele>4.7</ele>
        <time>2024-08-03T15:21:48Z</time>
      </trkpt>
      <trkpt lat="44.85735" lon="-0.55878">
        <ele>4.7</ele>
        <time>2024-08-03T15:21:49Z</time>
      </trkpt>
      <trkpt lat="44.85734" lon="-0.55879">
        <ele>4.7</ele>
        <time>2024-08-03T15:21:50Z</time>
      </trkpt>
      <trkpt lat="44.85733" lon="-0.55882">
        <ele>4.7</ele>
        <time>2024-08-03T15:21:51Z</time>
      </trkpt>
      <trkpt lat="44.85731" lon="-0.55889">
        <ele>4.7</ele>
        <time>2024-08-03T15:21:53Z</time>
      </trkpt>
      <trkpt lat="44.85729" lon="-0.55892">
        <ele>4.8</ele>
        <time>2024-08-03T15:21:54Z</time>
      </trkpt>
      <trkpt lat="44.85727" lon="-0.55895">
        <ele>4.8</ele>
        <time>2024-08-03T15:21:55Z</time>
      </trkpt>
      <trkpt lat="44.85725" lon="-0.55899">
        <ele>4.8</ele>
        <time>2024-08-03T15:21:56Z</time>
      </trkpt>
      <trkpt lat="44.85723" lon="-0.55903">
        <ele>4.8</ele>
        <time>2024-08-03T15:21:57Z</time>
      </trkpt>
      <trkpt lat="44.85721" lon="-0.55909">
        <ele>4.8</ele>
        <time>2024-08-03T15:21:59Z</time>
      </trkpt>
      <trkpt lat="44.8572" lon="-0.55912">
        <ele>4.8</ele>
        <time>2024-08-03T15:22:00Z</time>
      </trkpt>
      <trkpt lat="44.85718" lon="-0.55916">
        <ele>4.8</ele>
        <time>2024-08-03T15:22:01Z</time>
      </trkpt>
      <trkpt lat="44.85716" lon="-0.55921">
        <ele>4.8</ele>
        <time>2024-08-03T15:22:02Z</time>
      </trkpt>
      <trkpt lat="44.85715" lon="-0.55922">
        <ele>4.7</ele>
        <time>2024-08-03T15:22:03Z</time>
      </trkpt>
      <trkpt lat="44.85713" lon="-0.55927">
        <ele>4.7</ele>
        <time>2024-08-03T15:22:04Z</time>
      </trkpt>
      <trkpt lat="44.85712" lon="-0.55929">
        <ele>4.7</ele>
        <time>2024-08-03T15:22:05Z</time>
      </trkpt>
      <trkpt lat="44.8571" lon="-0.55933">
        <ele>4.7</ele>
        <time>2024-08-03T15:22:06Z</time>
      </trkpt>
      <trkpt lat="44.8571" lon="-0.55934">
        <ele>4.7</ele>
        <time>2024-08-03T15:22:07Z</time>
      </trkpt>
      <trkpt lat="44.85708" lon="-0.55937">
        <ele>4.7</ele>
        <time>2024-08-03T15:22:08Z</time>
      </trkpt>
      <trkpt lat="44.85706" lon="-0.55941">
        <ele>4.7</ele>
        <time>2024-08-03T15:22:09Z</time>
      </trkpt>
      <trkpt lat="44.85706" lon="-0.55942">
        <ele>4.7</ele>
        <time>2024-08-03T15:22:10Z</time>
      </trkpt>
      <trkpt lat="44.85704" lon="-0.55946">
        <ele>4.7</ele>
        <time>2024-08-03T15:22:11Z</time>
      </trkpt>
      <trkpt lat="44.85703" lon="-0.55949">
        <ele>4.7</ele>
        <time>2024-08-03T15:22:12Z</time>
      </trkpt>
      <trkpt lat="44.85702" lon="-0.55953">
        <ele>4.7</ele>
        <time>2024-08-03T15:22:13Z</time>
      </trkpt>
      <trkpt lat="44.85699" lon="-0.55962">
        <ele>4.7</ele>
        <time>2024-08-03T15:22:15Z</time>
      </trkpt>
      <trkpt lat="44.85698" lon="-0.55965">
        <ele>4.7</ele>
        <time>2024-08-03T15:22:16Z</time>
      </trkpt>
      <trkpt lat="44.85696" lon="-0.55969">
        <ele>4.7</ele>
        <time>2024-08-03T15:22:17Z</time>
      </trkpt>
      <trkpt lat="44.85694" lon="-0.55973">
        <ele>4.7</ele>
        <time>2024-08-03T15:22:18Z</time>
      </trkpt>
      <trkpt lat="44.85694" lon="-0.55975">
        <ele>4.7</ele>
        <time>2024-08-03T15:22:19Z</time>
      </trkpt>
      <trkpt lat="44.85691" lon="-0.5598">
        <ele>4.7</ele>
        <time>2024-08-03T15:22:21Z</time>
      </trkpt>
      <trkpt lat="44.8569" lon="-0.55985">
        <ele>4.7</ele>
        <time>2024-08-03T15:22:22Z</time>
      </trkpt>
      <trkpt lat="44.85689" lon="-0.55986">
        <ele>4.7</ele>
        <time>2024-08-03T15:22:23Z</time>
      </trkpt>
      <trkpt lat="44.85687" lon="-0.55991">
        <ele>4.7</ele>
        <time>2024-08-03T15:22:24Z</time>
      </trkpt>
      <trkpt lat="44.85686" lon="-0.55992">
        <ele>4.7</ele>
        <time>2024-08-03T15:22:25Z</time>
      </trkpt>
      <trkpt lat="44.85684" lon="-0.55998">
        <ele>4.7</ele>
        <time>2024-08-03T15:22:27Z</time>
      </trkpt>
      <trkpt lat="44.85683" lon="-0.56002">
        <ele>4.7</ele>
        <time>2024-08-03T15:22:28Z</time>
      </trkpt>
      <trkpt lat="44.85682" lon="-0.56003">
        <ele>4.7</ele>
        <time>2024-08-03T15:22:29Z</time>
      </trkpt>
      <trkpt lat="44.8568" lon="-0.56008">
        <ele>4.7</ele>
        <time>2024-08-03T15:22:30Z</time>
      </trkpt>
      <trkpt lat="44.8568" lon="-0.56009">
        <ele>4.7</ele>
        <time>2024-08-03T15:22:31Z</time>
      </trkpt>
      <trkpt lat="44.85678" lon="-0.56013">
        <ele>4.7</ele>
        <time>2024-08-03T15:22:32Z</time>
      </trkpt>
      <trkpt lat="44.85677" lon="-0.56015">
        <ele>4.7</ele>
        <time>2024-08-03T15:22:33Z</time>
      </trkpt>
      <trkpt lat="44.85675" lon="-0.56019">
        <ele>4.7</ele>
        <time>2024-08-03T15:22:34Z</time>
      </trkpt>
      <trkpt lat="44.85674" lon="-0.56021">
        <ele>4.7</ele>
        <time>2024-08-03T15:22:35Z</time>
      </trkpt>
      <trkpt lat="44.85672" lon="-0.56024">
        <ele>4.7</ele>
        <time>2024-08-03T15:22:36Z</time>
      </trkpt>
      <trkpt lat="44.85672" lon="-0.56024">
        <ele>4.7</ele>
        <time>2024-08-03T15:22:37Z</time>
      </trkpt>
      <trkpt lat="44.85669" lon="-0.56031">
        <ele>4.7</ele>
        <time>2024-08-03T15:22:38Z</time>
      </trkpt>
      <trkpt lat="44.85668" lon="-0.56034">
        <ele>4.7</ele>
        <time>2024-08-03T15:22:39Z</time>
      </trkpt>
      <trkpt lat="44.85666" lon="-0.56037">
        <ele>4.7</ele>
        <time>2024-08-03T15:22:40Z</time>
      </trkpt>
      <trkpt lat="44.85664" lon="-0.5604">
        <ele>4.7</ele>
        <time>2024-08-03T15:22:41Z</time>
      </trkpt>
      <trkpt lat="44.85663" lon="-0.56043">
        <ele>4.7</ele>
        <time>2024-08-03T15:22:42Z</time>
      </trkpt>
      <trkpt lat="44.85661" lon="-0.56046">
        <ele>4.7</ele>
        <time>2024-08-03T15:22:43Z</time>
      </trkpt>
      <trkpt lat="44.85659" lon="-0.5605">
        <ele>4.7</ele>
        <time>2024-08-03T15:22:44Z</time>
      </trkpt>
      <trkpt lat="44.85658" lon="-0.56053">
        <ele>4.7</ele>
        <time>2024-08-03T15:22:45Z</time>
      </trkpt>
      <trkpt lat="44.85656" lon="-0.56057">
        <ele>4.7</ele>
        <time>2024-08-03T15:22:46Z</time>
      </trkpt>
      <trkpt lat="44.85655" lon="-0.56059">
        <ele>4.7</ele>
        <time>2024-08-03T15:22:47Z</time>
      </trkpt>
      <trkpt lat="44.85653" lon="-0.56063">
        <ele>4.7</ele>
        <time>2024-08-03T15:22:48Z</time>
      </trkpt>
      <trkpt lat="44.85652" lon="-0.56065">
        <ele>4.7</ele>
        <time>2024-08-03T15:22:49Z</time>
      </trkpt>
      <trkpt lat="44.85649" lon="-0.56069">
        <ele>4.7</ele>
        <time>2024-08-03T15:22:50Z</time>
      </trkpt>
      <trkpt lat="44.85648" lon="-0.56071">
        <ele>4.7</ele>
        <time>2024-08-03T15:22:51Z</time>
      </trkpt>
      <trkpt lat="44.85647" lon="-0.56073">
        <ele>4.7</ele>
        <time>2024-08-03T15:22:52Z</time>
      </trkpt>
      <trkpt lat="44.85645" lon="-0.56076">
        <ele>4.7</ele>
        <time>2024-08-03T15:22:53Z</time>
      </trkpt>
      <trkpt lat="44.85643" lon="-0.56081">
        <ele>4.7</ele>
        <time>2024-08-03T15:22:54Z</time>
      </trkpt>
      <trkpt lat="44.85642" lon="-0.56083">
        <ele>4.7</ele>
        <time>2024-08-03T15:22:55Z</time>
      </trkpt>
      <trkpt lat="44.8564" lon="-0.56088">
        <ele>4.6</ele>
        <time>2024-08-03T15:22:56Z</time>
      </trkpt>
      <trkpt lat="44.85639" lon="-0.5609">
        <ele>4.6</ele>
        <time>2024-08-03T15:22:57Z</time>
      </trkpt>
      <trkpt lat="44.85639" lon="-0.56093">
        <ele>4.6</ele>
        <time>2024-08-03T15:22:58Z</time>
      </trkpt>
      <trkpt lat="44.85637" lon="-0.56096">
        <ele>4.6</ele>
        <time>2024-08-03T15:22:59Z</time>
      </trkpt>
      <trkpt lat="44.85635" lon="-0.56101">
        <ele>4.6</ele>
        <time>2024-08-03T15:23:00Z</time>
      </trkpt>
      <trkpt lat="44.85634" lon="-0.56102">
        <ele>4.6</ele>
        <time>2024-08-03T15:23:01Z</time>
      </trkpt>
      <trkpt lat="44.85631" lon="-0.56109">
        <ele>4.7</ele>
        <time>2024-08-03T15:23:03Z</time>
      </trkpt>
      <trkpt lat="44.8563" lon="-0.56111">
        <ele>4.7</ele>
        <time>2024-08-03T15:23:04Z</time>
      </trkpt>
      <trkpt lat="44.85628" lon="-0.56116">
        <ele>4.7</ele>
        <time>2024-08-03T15:23:05Z</time>
      </trkpt>
      <trkpt lat="44.85627" lon="-0.56118">
        <ele>4.7</ele>
        <time>2024-08-03T15:23:06Z</time>
      </trkpt>
      <trkpt lat="44.85625" lon="-0.56122">
        <ele>4.7</ele>
        <time>2024-08-03T15:23:07Z</time>
      </trkpt>
      <trkpt lat="44.85624" lon="-0.56124">
        <ele>4.7</ele>
        <time>2024-08-03T15:23:08Z</time>
      </trkpt>
      <trkpt lat="44.85622" lon="-0.56127">
        <ele>4.7</ele>
        <time>2024-08-03T15:23:09Z</time>
      </trkpt>
      <trkpt lat="44.85621" lon="-0.5613">
        <ele>4.7</ele>
        <time>2024-08-03T15:23:10Z</time>
      </trkpt>
      <trkpt lat="44.85619" lon="-0.56133">
        <ele>4.7</ele>
        <time>2024-08-03T15:23:11Z</time>
      </trkpt>
      <trkpt lat="44.85617" lon="-0.56137">
        <ele>4.7</ele>
        <time>2024-08-03T15:23:12Z</time>
      </trkpt>
      <trkpt lat="44.85615" lon="-0.56139">
        <ele>4.7</ele>
        <time>2024-08-03T15:23:13Z</time>
      </trkpt>
      <trkpt lat="44.85614" lon="-0.56142">
        <ele>4.7</ele>
        <time>2024-08-03T15:23:14Z</time>
      </trkpt>
      <trkpt lat="44.85612" lon="-0.56145">
        <ele>4.7</ele>
        <time>2024-08-03T15:23:15Z</time>
      </trkpt>
      <trkpt lat="44.8561" lon="-0.5615">
        <ele>4.7</ele>
        <time>2024-08-03T15:23:16Z</time>
      </trkpt>
      <trkpt lat="44.8561" lon="-0.56152">
        <ele>4.7</ele>
        <time>2024-08-03T15:23:17Z</time>
      </trkpt>
      <trkpt lat="44.85609" lon="-0.56155">
        <ele>4.7</ele>
        <time>2024-08-03T15:23:18Z</time>
      </trkpt>
      <trkpt lat="44.85607" lon="-0.56158">
        <ele>4.7</ele>
        <time>2024-08-03T15:23:19Z</time>
      </trkpt>
      <trkpt lat="44.85606" lon="-0.56161">
        <ele>4.7</ele>
        <time>2024-08-03T15:23:20Z</time>
      </trkpt>
      <trkpt lat="44.85604" lon="-0.56164">
        <ele>4.7</ele>
        <time>2024-08-03T15:23:21Z</time>
      </trkpt>
      <trkpt lat="44.85602" lon="-0.56167">
        <ele>4.7</ele>
        <time>2024-08-03T15:23:22Z</time>
      </trkpt>
      <trkpt lat="44.856" lon="-0.5617">
        <ele>4.7</ele>
        <time>2024-08-03T15:23:23Z</time>
      </trkpt>
      <trkpt lat="44.85599" lon="-0.56174">
        <ele>4.7</ele>
        <time>2024-08-03T15:23:24Z</time>
      </trkpt>
      <trkpt lat="44.85598" lon="-0.56176">
        <ele>4.7</ele>
        <time>2024-08-03T15:23:25Z</time>
      </trkpt>
      <trkpt lat="44.85597" lon="-0.56179">
        <ele>4.7</ele>
        <time>2024-08-03T15:23:26Z</time>
      </trkpt>
      <trkpt lat="44.85594" lon="-0.56183">
        <ele>4.7</ele>
        <time>2024-08-03T15:23:27Z</time>
      </trkpt>
      <trkpt lat="44.85593" lon="-0.56184">
        <ele>4.7</ele>
        <time>2024-08-03T15:23:28Z</time>
      </trkpt>
      <trkpt lat="44.85591" lon="-0.56187">
        <ele>4.7</ele>
        <time>2024-08-03T15:23:29Z</time>
      </trkpt>
      <trkpt lat="44.85588" lon="-0.56192">
        <ele>4.7</ele>
        <time>2024-08-03T15:23:31Z</time>
      </trkpt>
      <trkpt lat="44.85587" lon="-0.56196">
        <ele>4.7</ele>
        <time>2024-08-03T15:23:32Z</time>
      </trkpt>
      <trkpt lat="44.85586" lon="-0.56197">
        <ele>4.7</ele>
        <time>2024-08-03T15:23:33Z</time>
      </trkpt>
      <trkpt lat="44.85584" lon="-0.56201">
        <ele>4.7</ele>
        <time>2024-08-03T15:23:34Z</time>
      </trkpt>
      <trkpt lat="44.85583" lon="-0.56202">
        <ele>4.7</ele>
        <time>2024-08-03T15:23:35Z</time>
      </trkpt>
      <trkpt lat="44.85581" lon="-0.56206">
        <ele>4.7</ele>
        <time>2024-08-03T15:23:36Z</time>
      </trkpt>
      <trkpt lat="44.8558" lon="-0.56208">
        <ele>4.7</ele>
        <time>2024-08-03T15:23:37Z</time>
      </trkpt>
      <trkpt lat="44.85578" lon="-0.56211">
        <ele>4.7</ele>
        <time>2024-08-03T15:23:38Z</time>
      </trkpt>
      <trkpt lat="44.85576" lon="-0.56215">
        <ele>4.7</ele>
        <time>2024-08-03T15:23:39Z</time>
      </trkpt>
      <trkpt lat="44.85575" lon="-0.56216">
        <ele>4.7</ele>
        <time>2024-08-03T15:23:40Z</time>
      </trkpt>
      <trkpt lat="44.85575" lon="-0.56216">
        <ele>4.7</ele>
        <time>2024-08-03T15:23:41Z</time>
      </trkpt>
      <trkpt lat="44.85572" lon="-0.56223">
        <ele>4.7</ele>
        <time>2024-08-03T15:23:42Z</time>
      </trkpt>
      <trkpt lat="44.85571" lon="-0.56226">
        <ele>4.7</ele>
        <time>2024-08-03T15:23:43Z</time>
      </trkpt>
      <trkpt lat="44.85568" lon="-0.5623">
        <ele>4.7</ele>
        <time>2024-08-03T15:23:44Z</time>
      </trkpt>
      <trkpt lat="44.85567" lon="-0.56232">
        <ele>4.7</ele>
        <time>2024-08-03T15:23:45Z</time>
      </trkpt>
      <trkpt lat="44.85565" lon="-0.56235">
        <ele>4.7</ele>
        <time>2024-08-03T15:23:46Z</time>
      </trkpt>
      <trkpt lat="44.85563" lon="-0.56239">
        <ele>4.7</ele>
        <time>2024-08-03T15:23:47Z</time>
      </trkpt>
      <trkpt lat="44.85561" lon="-0.56242">
        <ele>4.7</ele>
        <time>2024-08-03T15:23:48Z</time>
      </trkpt>
      <trkpt lat="44.85559" lon="-0.56247">
        <ele>4.7</ele>
        <time>2024-08-03T15:23:49Z</time>
      </trkpt>
      <trkpt lat="44.85558" lon="-0.56249">
        <ele>4.7</ele>
        <time>2024-08-03T15:23:50Z</time>
      </trkpt>
      <trkpt lat="44.85556" lon="-0.56253">
        <ele>4.7</ele>
        <time>2024-08-03T15:23:51Z</time>
      </trkpt>
      <trkpt lat="44.85555" lon="-0.56255">
        <ele>4.7</ele>
        <time>2024-08-03T15:23:52Z</time>
      </trkpt>
      <trkpt lat="44.85553" lon="-0.56258">
        <ele>4.7</ele>
        <time>2024-08-03T15:23:53Z</time>
      </trkpt>
      <trkpt lat="44.85551" lon="-0.56261">
        <ele>4.7</ele>
        <time>2024-08-03T15:23:54Z</time>
      </trkpt>
      <trkpt lat="44.85549" lon="-0.56264">
        <ele>4.7</ele>
        <time>2024-08-03T15:23:55Z</time>
      </trkpt>
      <trkpt lat="44.85548" lon="-0.56268">
        <ele>4.7</ele>
        <time>2024-08-03T15:23:56Z</time>
      </trkpt>
      <trkpt lat="44.85546" lon="-0.56271">
        <ele>4.7</ele>
        <time>2024-08-03T15:23:57Z</time>
      </trkpt>
      <trkpt lat="44.85544" lon="-0.56274">
        <ele>4.7</ele>
        <time>2024-08-03T15:23:58Z</time>
      </trkpt>
      <trkpt lat="44.85542" lon="-0.56277">
        <ele>4.7</ele>
        <time>2024-08-03T15:23:59Z</time>
      </trkpt>
      <trkpt lat="44.8554" lon="-0.5628">
        <ele>4.7</ele>
        <time>2024-08-03T15:24:00Z</time>
      </trkpt>
      <trkpt lat="44.85539" lon="-0.56284">
        <ele>4.7</ele>
        <time>2024-08-03T15:24:01Z</time>
      </trkpt>
      <trkpt lat="44.85537" lon="-0.56288">
        <ele>4.7</ele>
        <time>2024-08-03T15:24:02Z</time>
      </trkpt>
      <trkpt lat="44.85535" lon="-0.56291">
        <ele>4.7</ele>
        <time>2024-08-03T15:24:03Z</time>
      </trkpt>
      <trkpt lat="44.85532" lon="-0.56295">
        <ele>4.7</ele>
        <time>2024-08-03T15:24:04Z</time>
      </trkpt>
      <trkpt lat="44.85531" lon="-0.56298">
        <ele>4.7</ele>
        <time>2024-08-03T15:24:05Z</time>
      </trkpt>
      <trkpt lat="44.85529" lon="-0.563">
        <ele>4.7</ele>
        <time>2024-08-03T15:24:06Z</time>
      </trkpt>
      <trkpt lat="44.85528" lon="-0.56304">
        <ele>4.7</ele>
        <time>2024-08-03T15:24:07Z</time>
      </trkpt>
      <trkpt lat="44.85527" lon="-0.56308">
        <ele>4.7</ele>
        <time>2024-08-03T15:24:08Z</time>
      </trkpt>
      <trkpt lat="44.85525" lon="-0.56312">
        <ele>4.7</ele>
        <time>2024-08-03T15:24:09Z</time>
      </trkpt>
      <trkpt lat="44.85524" lon="-0.56314">
        <ele>4.7</ele>
        <time>2024-08-03T15:24:10Z</time>
      </trkpt>
      <trkpt lat="44.85522" lon="-0.56318">
        <ele>4.8</ele>
        <time>2024-08-03T15:24:11Z</time>
      </trkpt>
      <trkpt lat="44.85521" lon="-0.5632">
        <ele>4.8</ele>
        <time>2024-08-03T15:24:12Z</time>
      </trkpt>
      <trkpt lat="44.8552" lon="-0.56323">
        <ele>4.8</ele>
        <time>2024-08-03T15:24:13Z</time>
      </trkpt>
      <trkpt lat="44.85518" lon="-0.56326">
        <ele>4.8</ele>
        <time>2024-08-03T15:24:14Z</time>
      </trkpt>
      <trkpt lat="44.85516" lon="-0.56329">
        <ele>4.8</ele>
        <time>2024-08-03T15:24:15Z</time>
      </trkpt>
      <trkpt lat="44.85513" lon="-0.56334">
        <ele>4.7</ele>
        <time>2024-08-03T15:24:17Z</time>
      </trkpt>
      <trkpt lat="44.85511" lon="-0.56337">
        <ele>4.7</ele>
        <time>2024-08-03T15:24:18Z</time>
      </trkpt>
      <trkpt lat="44.85509" lon="-0.56341">
        <ele>4.7</ele>
        <time>2024-08-03T15:24:19Z</time>
      </trkpt>
      <trkpt lat="44.85507" lon="-0.56344">
        <ele>4.7</ele>
        <time>2024-08-03T15:24:20Z</time>
      </trkpt>
      <trkpt lat="44.85505" lon="-0.56347">
        <ele>4.7</ele>
        <time>2024-08-03T15:24:21Z</time>
      </trkpt>
      <trkpt lat="44.85503" lon="-0.5635">
        <ele>4.7</ele>
        <time>2024-08-03T15:24:22Z</time>
      </trkpt>
      <trkpt lat="44.85501" lon="-0.56354">
        <ele>4.7</ele>
        <time>2024-08-03T15:24:23Z</time>
      </trkpt>
      <trkpt lat="44.85498" lon="-0.56358">
        <ele>4.7</ele>
        <time>2024-08-03T15:24:24Z</time>
      </trkpt>
      <trkpt lat="44.85497" lon="-0.56359">
        <ele>4.7</ele>
        <time>2024-08-03T15:24:25Z</time>
      </trkpt>
      <trkpt lat="44.85495" lon="-0.56363">
        <ele>4.7</ele>
        <time>2024-08-03T15:24:26Z</time>
      </trkpt>
      <trkpt lat="44.85494" lon="-0.56365">
        <ele>4.7</ele>
        <time>2024-08-03T15:24:27Z</time>
      </trkpt>
      <trkpt lat="44.85493" lon="-0.56367">
        <ele>4.7</ele>
        <time>2024-08-03T15:24:28Z</time>
      </trkpt>
      <trkpt lat="44.85491" lon="-0.5637">
        <ele>4.7</ele>
        <time>2024-08-03T15:24:29Z</time>
      </trkpt>
      <trkpt lat="44.85488" lon="-0.56373">
        <ele>4.7</ele>
        <time>2024-08-03T15:24:30Z</time>
      </trkpt>
      <trkpt lat="44.85487" lon="-0.56377">
        <ele>4.7</ele>
        <time>2024-08-03T15:24:31Z</time>
      </trkpt>
      <trkpt lat="44.85486" lon="-0.56378">
        <ele>4.7</ele>
        <time>2024-08-03T15:24:32Z</time>
      </trkpt>
      <trkpt lat="44.85485" lon="-0.5638">
        <ele>4.7</ele>
        <time>2024-08-03T15:24:33Z</time>
      </trkpt>
      <trkpt lat="44.85483" lon="-0.56383">
        <ele>4.7</ele>
        <time>2024-08-03T15:24:34Z</time>
      </trkpt>
      <trkpt lat="44.85481" lon="-0.56386">
        <ele>4.7</ele>
        <time>2024-08-03T15:24:35Z</time>
      </trkpt>
      <trkpt lat="44.8548" lon="-0.56387">
        <ele>4.7</ele>
        <time>2024-08-03T15:24:36Z</time>
      </trkpt>
      <trkpt lat="44.85477" lon="-0.5639">
        <ele>4.7</ele>
        <time>2024-08-03T15:24:37Z</time>
      </trkpt>
      <trkpt lat="44.85476" lon="-0.56392">
        <ele>4.7</ele>
        <time>2024-08-03T15:24:38Z</time>
      </trkpt>
      <trkpt lat="44.85474" lon="-0.56395">
        <ele>4.7</ele>
        <time>2024-08-03T15:24:39Z</time>
      </trkpt>
      <trkpt lat="44.85472" lon="-0.56398">
        <ele>4.7</ele>
        <time>2024-08-03T15:24:40Z</time>
      </trkpt>
      <trkpt lat="44.8547" lon="-0.56401">
        <ele>4.7</ele>
        <time>2024-08-03T15:24:41Z</time>
      </trkpt>
      <trkpt lat="44.85467" lon="-0.56405">
        <ele>4.7</ele>
        <time>2024-08-03T15:24:42Z</time>
      </trkpt>
      <trkpt lat="44.85466" lon="-0.56407">
        <ele>4.7</ele>
        <time>2024-08-03T15:24:43Z</time>
      </trkpt>
      <trkpt lat="44.85464" lon="-0.56409">
        <ele>4.7</ele>
        <time>2024-08-03T15:24:44Z</time>
      </trkpt>
      <trkpt lat="44.85462" lon="-0.56412">
        <ele>4.7</ele>
        <time>2024-08-03T15:24:45Z</time>
      </trkpt>
      <trkpt lat="44.85459" lon="-0.56416">
        <ele>4.7</ele>
        <time>2024-08-03T15:24:46Z</time>
      </trkpt>
      <trkpt lat="44.85459" lon="-0.56417">
        <ele>4.7</ele>
        <time>2024-08-03T15:24:47Z</time>
      </trkpt>
      <trkpt lat="44.85456" lon="-0.56421">
        <ele>4.7</ele>
        <time>2024-08-03T15:24:48Z</time>
      </trkpt>
      <trkpt lat="44.85455" lon="-0.56422">
        <ele>4.7</ele>
        <time>2024-08-03T15:24:49Z</time>
      </trkpt>
      <trkpt lat="44.85452" lon="-0.56428">
        <ele>4.7</ele>
        <time>2024-08-03T15:24:51Z</time>
      </trkpt>
      <trkpt lat="44.85449" lon="-0.56431">
        <ele>4.7</ele>
        <time>2024-08-03T15:24:52Z</time>
      </trkpt>
      <trkpt lat="44.85447" lon="-0.56434">
        <ele>4.7</ele>
        <time>2024-08-03T15:24:53Z</time>
      </trkpt>
      <trkpt lat="44.85445" lon="-0.56437">
        <ele>4.7</ele>
        <time>2024-08-03T15:24:54Z</time>
      </trkpt>
      <trkpt lat="44.85444" lon="-0.56438">
        <ele>4.7</ele>
        <time>2024-08-03T15:24:55Z</time>
      </trkpt>
      <trkpt lat="44.85439" lon="-0.56443">
        <ele>4.7</ele>
        <time>2024-08-03T15:24:57Z</time>
      </trkpt>
      <trkpt lat="44.85437" lon="-0.56447">
        <ele>4.7</ele>
        <time>2024-08-03T15:24:58Z</time>
      </trkpt>
      <trkpt lat="44.85436" lon="-0.56448">
        <ele>4.7</ele>
        <time>2024-08-03T15:24:59Z</time>
      </trkpt>
      <trkpt lat="44.85433" lon="-0.56452">
        <ele>4.7</ele>
        <time>2024-08-03T15:25:00Z</time>
      </trkpt>
      <trkpt lat="44.85433" lon="-0.56453">
        <ele>4.7</ele>
        <time>2024-08-03T15:25:01Z</time>
      </trkpt>
      <trkpt lat="44.85429" lon="-0.56458">
        <ele>4.7</ele>
        <time>2024-08-03T15:25:03Z</time>
      </trkpt>
      <trkpt lat="44.85427" lon="-0.56461">
        <ele>4.7</ele>
        <time>2024-08-03T15:25:04Z</time>
      </trkpt>
      <trkpt lat="44.85425" lon="-0.56464">
        <ele>4.7</ele>
        <time>2024-08-03T15:25:05Z</time>
      </trkpt>
      <trkpt lat="44.85424" lon="-0.56465">
        <ele>4.7</ele>
        <time>2024-08-03T15:25:06Z</time>
      </trkpt>
      <trkpt lat="44.85422" lon="-0.56467">
        <ele>4.7</ele>
        <time>2024-08-03T15:25:07Z</time>
      </trkpt>
      <trkpt lat="44.85418" lon="-0.56472">
        <ele>4.7</ele>
        <time>2024-08-03T15:25:09Z</time>
      </trkpt>
      <trkpt lat="44.85417" lon="-0.56474">
        <ele>4.7</ele>
        <time>2024-08-03T15:25:10Z</time>
      </trkpt>
      <trkpt lat="44.85414" lon="-0.56478">
        <ele>4.7</ele>
        <time>2024-08-03T15:25:11Z</time>
      </trkpt>
      <trkpt lat="44.85413" lon="-0.5648">
        <ele>4.7</ele>
        <time>2024-08-03T15:25:12Z</time>
      </trkpt>
      <trkpt lat="44.85411" lon="-0.56482">
        <ele>4.7</ele>
        <time>2024-08-03T15:25:13Z</time>
      </trkpt>
      <trkpt lat="44.85407" lon="-0.56487">
        <ele>4.7</ele>
        <time>2024-08-03T15:25:15Z</time>
      </trkpt>
      <trkpt lat="44.85405" lon="-0.56491">
        <ele>4.7</ele>
        <time>2024-08-03T15:25:16Z</time>
      </trkpt>
      <trkpt lat="44.85404" lon="-0.56492">
        <ele>4.7</ele>
        <time>2024-08-03T15:25:17Z</time>
      </trkpt>
      <trkpt lat="44.85401" lon="-0.56496">
        <ele>4.8</ele>
        <time>2024-08-03T15:25:18Z</time>
      </trkpt>
      <trkpt lat="44.854" lon="-0.56497">
        <ele>4.8</ele>
        <time>2024-08-03T15:25:19Z</time>
      </trkpt>
      <trkpt lat="44.85398" lon="-0.565">
        <ele>4.8</ele>
        <time>2024-08-03T15:25:20Z</time>
      </trkpt>
      <trkpt lat="44.85396" lon="-0.56503">
        <ele>4.8</ele>
        <time>2024-08-03T15:25:21Z</time>
      </trkpt>
      <trkpt lat="44.85393" lon="-0.56506">
        <ele>4.8</ele>
        <time>2024-08-03T15:25:22Z</time>
      </trkpt>
      <trkpt lat="44.85393" lon="-0.56507">
        <ele>4.8</ele>
        <time>2024-08-03T15:25:23Z</time>
      </trkpt>
      <trkpt lat="44.8539" lon="-0.5651">
        <ele>4.7</ele>
        <time>2024-08-03T15:25:24Z</time>
      </trkpt>
      <trkpt lat="44.85389" lon="-0.56512">
        <ele>4.7</ele>
        <time>2024-08-03T15:25:25Z</time>
      </trkpt>
      <trkpt lat="44.85385" lon="-0.56517">
        <ele>4.7</ele>
        <time>2024-08-03T15:25:27Z</time>
      </trkpt>
      <trkpt lat="44.85382" lon="-0.56522">
        <ele>4.7</ele>
        <time>2024-08-03T15:25:28Z</time>
      </trkpt>
      <trkpt lat="44.85381" lon="-0.56524">
        <ele>4.7</ele>
        <time>2024-08-03T15:25:29Z</time>
      </trkpt>
      <trkpt lat="44.8538" lon="-0.56527">
        <ele>4.7</ele>
        <time>2024-08-03T15:25:30Z</time>
      </trkpt>
      <trkpt lat="44.85378" lon="-0.5653">
        <ele>4.7</ele>
        <time>2024-08-03T15:25:31Z</time>
      </trkpt>
      <trkpt lat="44.85375" lon="-0.56536">
        <ele>4.7</ele>
        <time>2024-08-03T15:25:33Z</time>
      </trkpt>
      <trkpt lat="44.85373" lon="-0.56539">
        <ele>4.7</ele>
        <time>2024-08-03T15:25:34Z</time>
      </trkpt>
      <trkpt lat="44.85371" lon="-0.56542">
        <ele>4.7</ele>
        <time>2024-08-03T15:25:35Z</time>
      </trkpt>
      <trkpt lat="44.8537" lon="-0.56544">
        <ele>4.7</ele>
        <time>2024-08-03T15:25:36Z</time>
      </trkpt>
      <trkpt lat="44.85369" lon="-0.56546">
        <ele>4.7</ele>
        <time>2024-08-03T15:25:37Z</time>
      </trkpt>
      <trkpt lat="44.85365" lon="-0.56551">
        <ele>4.7</ele>
        <time>2024-08-03T15:25:39Z</time>
      </trkpt>
      <trkpt lat="44.85363" lon="-0.56553">
        <ele>4.7</ele>
        <time>2024-08-03T15:25:40Z</time>
      </trkpt>
      <trkpt lat="44.85361" lon="-0.56556">
        <ele>4.7</ele>
        <time>2024-08-03T15:25:41Z</time>
      </trkpt>
      <trkpt lat="44.85358" lon="-0.56559">
        <ele>4.7</ele>
        <time>2024-08-03T15:25:42Z</time>
      </trkpt>
      <trkpt lat="44.85357" lon="-0.5656">
        <ele>4.7</ele>
        <time>2024-08-03T15:25:43Z</time>
      </trkpt>
      <trkpt lat="44.85355" lon="-0.56563">
        <ele>4.7</ele>
        <time>2024-08-03T15:25:44Z</time>
      </trkpt>
      <trkpt lat="44.85354" lon="-0.56564">
        <ele>4.7</ele>
        <time>2024-08-03T15:25:45Z</time>
      </trkpt>
      <trkpt lat="44.85351" lon="-0.56566">
        <ele>4.7</ele>
        <time>2024-08-03T15:25:46Z</time>
      </trkpt>
      <trkpt lat="44.8535" lon="-0.56567">
        <ele>4.7</ele>
        <time>2024-08-03T15:25:47Z</time>
      </trkpt>
      <trkpt lat="44.85348" lon="-0.56569">
        <ele>4.7</ele>
        <time>2024-08-03T15:25:48Z</time>
      </trkpt>
      <trkpt lat="44.85345" lon="-0.56571">
        <ele>4.7</ele>
        <time>2024-08-03T15:25:49Z</time>
      </trkpt>
      <trkpt lat="44.85343" lon="-0.56574">
        <ele>4.7</ele>
        <time>2024-08-03T15:25:50Z</time>
      </trkpt>
      <trkpt lat="44.85341" lon="-0.56578">
        <ele>4.7</ele>
        <time>2024-08-03T15:25:51Z</time>
      </trkpt>
      <trkpt lat="44.8534" lon="-0.56579">
        <ele>4.7</ele>
        <time>2024-08-03T15:25:52Z</time>
      </trkpt>
      <trkpt lat="44.85338" lon="-0.56582">
        <ele>4.7</ele>
        <time>2024-08-03T15:25:53Z</time>
      </trkpt>
      <trkpt lat="44.85336" lon="-0.56585">
        <ele>4.7</ele>
        <time>2024-08-03T15:25:54Z</time>
      </trkpt>
      <trkpt lat="44.85333" lon="-0.56587">
        <ele>4.7</ele>
        <time>2024-08-03T15:25:55Z</time>
      </trkpt>
      <trkpt lat="44.8533" lon="-0.56591">
        <ele>4.7</ele>
        <time>2024-08-03T15:25:56Z</time>
      </trkpt>
      <trkpt lat="44.85329" lon="-0.56592">
        <ele>4.7</ele>
        <time>2024-08-03T15:25:57Z</time>
      </trkpt>
      <trkpt lat="44.85326" lon="-0.56595">
        <ele>4.7</ele>
        <time>2024-08-03T15:25:58Z</time>
      </trkpt>
      <trkpt lat="44.85325" lon="-0.56596">
        <ele>4.7</ele>
        <time>2024-08-03T15:25:59Z</time>
      </trkpt>
      <trkpt lat="44.85322" lon="-0.566">
        <ele>4.7</ele>
        <time>2024-08-03T15:26:00Z</time>
      </trkpt>
      <trkpt lat="44.85321" lon="-0.56601">
        <ele>4.7</ele>
        <time>2024-08-03T15:26:01Z</time>
      </trkpt>
      <trkpt lat="44.85319" lon="-0.56603">
        <ele>4.7</ele>
        <time>2024-08-03T15:26:02Z</time>
      </trkpt>
      <trkpt lat="44.85318" lon="-0.56604">
        <ele>4.7</ele>
        <time>2024-08-03T15:26:03Z</time>
      </trkpt>
      <trkpt lat="44.85314" lon="-0.56607">
        <ele>4.7</ele>
        <time>2024-08-03T15:26:05Z</time>
      </trkpt>
      <trkpt lat="44.85309" lon="-0.56611">
        <ele>4.7</ele>
        <time>2024-08-03T15:26:07Z</time>
      </trkpt>
      <trkpt lat="44.85307" lon="-0.56614">
        <ele>4.7</ele>
        <time>2024-08-03T15:26:08Z</time>
      </trkpt>
      <trkpt lat="44.85305" lon="-0.56617">
        <ele>4.7</ele>
        <time>2024-08-03T15:26:09Z</time>
      </trkpt>
      <trkpt lat="44.85303" lon="-0.5662">
        <ele>4.7</ele>
        <time>2024-08-03T15:26:10Z</time>
      </trkpt>
      <trkpt lat="44.853" lon="-0.56623">
        <ele>4.7</ele>
        <time>2024-08-03T15:26:11Z</time>
      </trkpt>
      <trkpt lat="44.85295" lon="-0.5663">
        <ele>4.7</ele>
        <time>2024-08-03T15:26:13Z</time>
      </trkpt>
      <trkpt lat="44.85294" lon="-0.56631">
        <ele>4.7</ele>
        <time>2024-08-03T15:26:14Z</time>
      </trkpt>
      <trkpt lat="44.85291" lon="-0.56634">
        <ele>4.7</ele>
        <time>2024-08-03T15:26:15Z</time>
      </trkpt>
      <trkpt lat="44.85289" lon="-0.56635">
        <ele>4.7</ele>
        <time>2024-08-03T15:26:16Z</time>
      </trkpt>
      <trkpt lat="44.85287" lon="-0.56637">
        <ele>4.7</ele>
        <time>2024-08-03T15:26:17Z</time>
      </trkpt>
      <trkpt lat="44.85282" lon="-0.56641">
        <ele>4.7</ele>
        <time>2024-08-03T15:26:19Z</time>
      </trkpt>
      <trkpt lat="44.8528" lon="-0.56645">
        <ele>4.7</ele>
        <time>2024-08-03T15:26:20Z</time>
      </trkpt>
      <trkpt lat="44.85279" lon="-0.56646">
        <ele>4.7</ele>
        <time>2024-08-03T15:26:21Z</time>
      </trkpt>
      <trkpt lat="44.85276" lon="-0.56649">
        <ele>4.7</ele>
        <time>2024-08-03T15:26:22Z</time>
      </trkpt>
      <trkpt lat="44.85275" lon="-0.5665">
        <ele>4.7</ele>
        <time>2024-08-03T15:26:23Z</time>
      </trkpt>
      <trkpt lat="44.85271" lon="-0.56655">
        <ele>4.7</ele>
        <time>2024-08-03T15:26:25Z</time>
      </trkpt>
      <trkpt lat="44.85269" lon="-0.56657">
        <ele>4.7</ele>
        <time>2024-08-03T15:26:26Z</time>
      </trkpt>
      <trkpt lat="44.85267" lon="-0.5666">
        <ele>4.7</ele>
        <time>2024-08-03T15:26:27Z</time>
      </trkpt>
      <trkpt lat="44.85265" lon="-0.56663">
        <ele>4.7</ele>
        <time>2024-08-03T15:26:28Z</time>
      </trkpt>
      <trkpt lat="44.85264" lon="-0.56665">
        <ele>4.7</ele>
        <time>2024-08-03T15:26:29Z</time>
      </trkpt>
      <trkpt lat="44.85261" lon="-0.56668">
        <ele>4.7</ele>
        <time>2024-08-03T15:26:30Z</time>
      </trkpt>
      <trkpt lat="44.8526" lon="-0.56669">
        <ele>4.7</ele>
        <time>2024-08-03T15:26:31Z</time>
      </trkpt>
      <trkpt lat="44.85257" lon="-0.56673">
        <ele>4.7</ele>
        <time>2024-08-03T15:26:32Z</time>
      </trkpt>
      <trkpt lat="44.85256" lon="-0.56674">
        <ele>4.7</ele>
        <time>2024-08-03T15:26:33Z</time>
      </trkpt>
      <trkpt lat="44.85253" lon="-0.56679">
        <ele>4.7</ele>
        <time>2024-08-03T15:26:34Z</time>
      </trkpt>
      <trkpt lat="44.85252" lon="-0.5668">
        <ele>4.7</ele>
        <time>2024-08-03T15:26:35Z</time>
      </trkpt>
      <trkpt lat="44.8525" lon="-0.56682">
        <ele>4.7</ele>
        <time>2024-08-03T15:26:36Z</time>
      </trkpt>
      <trkpt lat="44.85248" lon="-0.56686">
        <ele>4.7</ele>
        <time>2024-08-03T15:26:37Z</time>
      </trkpt>
      <trkpt lat="44.85247" lon="-0.56687">
        <ele>4.7</ele>
        <time>2024-08-03T15:26:38Z</time>
      </trkpt>
      <trkpt lat="44.85244" lon="-0.5669">
        <ele>4.7</ele>
        <time>2024-08-03T15:26:39Z</time>
      </trkpt>
      <trkpt lat="44.85243" lon="-0.56692">
        <ele>4.7</ele>
        <time>2024-08-03T15:26:40Z</time>
      </trkpt>
      <trkpt lat="44.85241" lon="-0.56694">
        <ele>4.7</ele>
        <time>2024-08-03T15:26:41Z</time>
      </trkpt>
      <trkpt lat="44.8524" lon="-0.56697">
        <ele>4.7</ele>
        <time>2024-08-03T15:26:42Z</time>
      </trkpt>
      <trkpt lat="44.85238" lon="-0.567">
        <ele>4.7</ele>
        <time>2024-08-03T15:26:43Z</time>
      </trkpt>
      <trkpt lat="44.85235" lon="-0.56703">
        <ele>4.7</ele>
        <time>2024-08-03T15:26:44Z</time>
      </trkpt>
      <trkpt lat="44.85234" lon="-0.56704">
        <ele>4.7</ele>
        <time>2024-08-03T15:26:45Z</time>
      </trkpt>
      <trkpt lat="44.85231" lon="-0.56708">
        <ele>4.7</ele>
        <time>2024-08-03T15:26:46Z</time>
      </trkpt>
      <trkpt lat="44.8523" lon="-0.5671">
        <ele>4.7</ele>
        <time>2024-08-03T15:26:47Z</time>
      </trkpt>
      <trkpt lat="44.85228" lon="-0.56712">
        <ele>4.7</ele>
        <time>2024-08-03T15:26:48Z</time>
      </trkpt>
      <trkpt lat="44.85227" lon="-0.56714">
        <ele>4.7</ele>
        <time>2024-08-03T15:26:49Z</time>
      </trkpt>
      <trkpt lat="44.85224" lon="-0.56718">
        <ele>4.7</ele>
        <time>2024-08-03T15:26:50Z</time>
      </trkpt>
      <trkpt lat="44.85223" lon="-0.56719">
        <ele>4.7</ele>
        <time>2024-08-03T15:26:51Z</time>
      </trkpt>
      <trkpt lat="44.8522" lon="-0.56722">
        <ele>4.7</ele>
        <time>2024-08-03T15:26:52Z</time>
      </trkpt>
      <trkpt lat="44.85219" lon="-0.56724">
        <ele>4.7</ele>
        <time>2024-08-03T15:26:53Z</time>
      </trkpt>
      <trkpt lat="44.85217" lon="-0.56725">
        <ele>4.7</ele>
        <time>2024-08-03T15:26:54Z</time>
      </trkpt>
      <trkpt lat="44.85216" lon="-0.56727">
        <ele>4.7</ele>
        <time>2024-08-03T15:26:55Z</time>
      </trkpt>
      <trkpt lat="44.85213" lon="-0.5673">
        <ele>4.7</ele>
        <time>2024-08-03T15:26:56Z</time>
      </trkpt>
      <trkpt lat="44.85212" lon="-0.56731">
        <ele>4.7</ele>
        <time>2024-08-03T15:26:57Z</time>
      </trkpt>
      <trkpt lat="44.8521" lon="-0.56734">
        <ele>4.7</ele>
        <time>2024-08-03T15:26:58Z</time>
      </trkpt>
      <trkpt lat="44.85208" lon="-0.56736">
        <ele>4.7</ele>
        <time>2024-08-03T15:26:59Z</time>
      </trkpt>
      <trkpt lat="44.85206" lon="-0.56738">
        <ele>4.7</ele>
        <time>2024-08-03T15:27:00Z</time>
      </trkpt>
      <trkpt lat="44.85203" lon="-0.56741">
        <ele>4.7</ele>
        <time>2024-08-03T15:27:01Z</time>
      </trkpt>
      <trkpt lat="44.85201" lon="-0.56743">
        <ele>4.7</ele>
        <time>2024-08-03T15:27:02Z</time>
      </trkpt>
      <trkpt lat="44.85198" lon="-0.56746">
        <ele>4.7</ele>
        <time>2024-08-03T15:27:03Z</time>
      </trkpt>
      <trkpt lat="44.85196" lon="-0.56747">
        <ele>4.7</ele>
        <time>2024-08-03T15:27:04Z</time>
      </trkpt>
      <trkpt lat="44.85194" lon="-0.5675">
        <ele>4.7</ele>
        <time>2024-08-03T15:27:05Z</time>
      </trkpt>
      <trkpt lat="44.85192" lon="-0.56752">
        <ele>4.7</ele>
        <time>2024-08-03T15:27:06Z</time>
      </trkpt>
      <trkpt lat="44.85189" lon="-0.56756">
        <ele>4.7</ele>
        <time>2024-08-03T15:27:07Z</time>
      </trkpt>
      <trkpt lat="44.85188" lon="-0.56757">
        <ele>4.7</ele>
        <time>2024-08-03T15:27:08Z</time>
      </trkpt>
      <trkpt lat="44.85185" lon="-0.56761">
        <ele>4.7</ele>
        <time>2024-08-03T15:27:09Z</time>
      </trkpt>
      <trkpt lat="44.85184" lon="-0.56762">
        <ele>4.7</ele>
        <time>2024-08-03T15:27:10Z</time>
      </trkpt>
      <trkpt lat="44.85182" lon="-0.56764">
        <ele>4.7</ele>
        <time>2024-08-03T15:27:11Z</time>
      </trkpt>
      <trkpt lat="44.8518" lon="-0.56766">
        <ele>4.7</ele>
        <time>2024-08-03T15:27:12Z</time>
      </trkpt>
      <trkpt lat="44.85177" lon="-0.56769">
        <ele>4.7</ele>
        <time>2024-08-03T15:27:13Z</time>
      </trkpt>
      <trkpt lat="44.85174" lon="-0.56772">
        <ele>4.8</ele>
        <time>2024-08-03T15:27:14Z</time>
      </trkpt>
      <trkpt lat="44.85173" lon="-0.56774">
        <ele>4.8</ele>
        <time>2024-08-03T15:27:15Z</time>
      </trkpt>
      <trkpt lat="44.85171" lon="-0.56776">
        <ele>4.8</ele>
        <time>2024-08-03T15:27:16Z</time>
      </trkpt>
      <trkpt lat="44.85168" lon="-0.5678">
        <ele>4.8</ele>
        <time>2024-08-03T15:27:17Z</time>
      </trkpt>
      <trkpt lat="44.85167" lon="-0.56781">
        <ele>4.8</ele>
        <time>2024-08-03T15:27:18Z</time>
      </trkpt>
      <trkpt lat="44.85164" lon="-0.56785">
        <ele>4.8</ele>
        <time>2024-08-03T15:27:19Z</time>
      </trkpt>
      <trkpt lat="44.85163" lon="-0.56786">
        <ele>4.8</ele>
        <time>2024-08-03T15:27:20Z</time>
      </trkpt>
      <trkpt lat="44.85161" lon="-0.56789">
        <ele>4.8</ele>
        <time>2024-08-03T15:27:21Z</time>
      </trkpt>
      <trkpt lat="44.85159" lon="-0.56791">
        <ele>4.8</ele>
        <time>2024-08-03T15:27:22Z</time>
      </trkpt>
      <trkpt lat="44.85156" lon="-0.56795">
        <ele>4.8</ele>
        <time>2024-08-03T15:27:23Z</time>
      </trkpt>
      <trkpt lat="44.85155" lon="-0.56797">
        <ele>4.8</ele>
        <time>2024-08-03T15:27:24Z</time>
      </trkpt>
      <trkpt lat="44.85153" lon="-0.56801">
        <ele>4.8</ele>
        <time>2024-08-03T15:27:25Z</time>
      </trkpt>
      <trkpt lat="44.85153" lon="-0.56802">
        <ele>4.8</ele>
        <time>2024-08-03T15:27:26Z</time>
      </trkpt>
      <trkpt lat="44.85151" lon="-0.56805">
        <ele>4.8</ele>
        <time>2024-08-03T15:27:27Z</time>
      </trkpt>
      <trkpt lat="44.85148" lon="-0.56811">
        <ele>4.8</ele>
        <time>2024-08-03T15:27:29Z</time>
      </trkpt>
      <trkpt lat="44.85146" lon="-0.56813">
        <ele>4.8</ele>
        <time>2024-08-03T15:27:30Z</time>
      </trkpt>
      <trkpt lat="44.85143" lon="-0.56817">
        <ele>4.8</ele>
        <time>2024-08-03T15:27:31Z</time>
      </trkpt>
      <trkpt lat="44.85142" lon="-0.56818">
        <ele>4.8</ele>
        <time>2024-08-03T15:27:32Z</time>
      </trkpt>
      <trkpt lat="44.8514" lon="-0.56821">
        <ele>4.8</ele>
        <time>2024-08-03T15:27:33Z</time>
      </trkpt>
      <trkpt lat="44.85137" lon="-0.56824">
        <ele>4.8</ele>
        <time>2024-08-03T15:27:34Z</time>
      </trkpt>
      <trkpt lat="44.85136" lon="-0.56826">
        <ele>4.8</ele>
        <time>2024-08-03T15:27:35Z</time>
      </trkpt>
      <trkpt lat="44.85133" lon="-0.56829">
        <ele>4.8</ele>
        <time>2024-08-03T15:27:36Z</time>
      </trkpt>
      <trkpt lat="44.85132" lon="-0.5683">
        <ele>4.8</ele>
        <time>2024-08-03T15:27:37Z</time>
      </trkpt>
      <trkpt lat="44.8513" lon="-0.56832">
        <ele>4.8</ele>
        <time>2024-08-03T15:27:38Z</time>
      </trkpt>
      <trkpt lat="44.85127" lon="-0.56835">
        <ele>4.8</ele>
        <time>2024-08-03T15:27:39Z</time>
      </trkpt>
      <trkpt lat="44.85125" lon="-0.56837">
        <ele>4.8</ele>
        <time>2024-08-03T15:27:40Z</time>
      </trkpt>
      <trkpt lat="44.85122" lon="-0.56839">
        <ele>4.8</ele>
        <time>2024-08-03T15:27:41Z</time>
      </trkpt>
      <trkpt lat="44.8512" lon="-0.56841">
        <ele>4.8</ele>
        <time>2024-08-03T15:27:42Z</time>
      </trkpt>
      <trkpt lat="44.85118" lon="-0.56844">
        <ele>4.8</ele>
        <time>2024-08-03T15:27:43Z</time>
      </trkpt>
      <trkpt lat="44.85114" lon="-0.56846">
        <ele>4.8</ele>
        <time>2024-08-03T15:27:44Z</time>
      </trkpt>
      <trkpt lat="44.85113" lon="-0.56847">
        <ele>4.8</ele>
        <time>2024-08-03T15:27:45Z</time>
      </trkpt>
      <trkpt lat="44.8511" lon="-0.5685">
        <ele>4.8</ele>
        <time>2024-08-03T15:27:46Z</time>
      </trkpt>
      <trkpt lat="44.85109" lon="-0.56851">
        <ele>4.8</ele>
        <time>2024-08-03T15:27:47Z</time>
      </trkpt>
      <trkpt lat="44.85106" lon="-0.56852">
        <ele>4.8</ele>
        <time>2024-08-03T15:27:48Z</time>
      </trkpt>
      <trkpt lat="44.85104" lon="-0.56854">
        <ele>4.8</ele>
        <time>2024-08-03T15:27:49Z</time>
      </trkpt>
      <trkpt lat="44.85101" lon="-0.56856">
        <ele>4.8</ele>
        <time>2024-08-03T15:27:50Z</time>
      </trkpt>
      <trkpt lat="44.85099" lon="-0.56857">
        <ele>4.8</ele>
        <time>2024-08-03T15:27:51Z</time>
      </trkpt>
      <trkpt lat="44.85096" lon="-0.56859">
        <ele>4.8</ele>
        <time>2024-08-03T15:27:52Z</time>
      </trkpt>
      <trkpt lat="44.85093" lon="-0.5686">
        <ele>4.8</ele>
        <time>2024-08-03T15:27:53Z</time>
      </trkpt>
      <trkpt lat="44.8509" lon="-0.56862">
        <ele>4.8</ele>
        <time>2024-08-03T15:27:54Z</time>
      </trkpt>
      <trkpt lat="44.85088" lon="-0.56862">
        <ele>4.8</ele>
        <time>2024-08-03T15:27:55Z</time>
      </trkpt>
      <trkpt lat="44.85086" lon="-0.56863">
        <ele>4.8</ele>
        <time>2024-08-03T15:27:56Z</time>
      </trkpt>
      <trkpt lat="44.85086" lon="-0.56863">
        <ele>4.8</ele>
        <time>2024-08-03T15:27:57Z</time>
      </trkpt>
      <trkpt lat="44.85081" lon="-0.56866">
        <ele>4.8</ele>
        <time>2024-08-03T15:27:58Z</time>
      </trkpt>
      <trkpt lat="44.85078" lon="-0.56868">
        <ele>4.8</ele>
        <time>2024-08-03T15:27:59Z</time>
      </trkpt>
      <trkpt lat="44.85076" lon="-0.56869">
        <ele>4.8</ele>
        <time>2024-08-03T15:28:00Z</time>
      </trkpt>
      <trkpt lat="44.85073" lon="-0.56871">
        <ele>4.9</ele>
        <time>2024-08-03T15:28:01Z</time>
      </trkpt>
      <trkpt lat="44.8507" lon="-0.56872">
        <ele>4.9</ele>
        <time>2024-08-03T15:28:02Z</time>
      </trkpt>
      <trkpt lat="44.85068" lon="-0.56873">
        <ele>4.9</ele>
        <time>2024-08-03T15:28:03Z</time>
      </trkpt>
      <trkpt lat="44.85065" lon="-0.56874">
        <ele>4.9</ele>
        <time>2024-08-03T15:28:04Z</time>
      </trkpt>
      <trkpt lat="44.85061" lon="-0.56876">
        <ele>4.9</ele>
        <time>2024-08-03T15:28:05Z</time>
      </trkpt>
      <trkpt lat="44.8506" lon="-0.56877">
        <ele>4.9</ele>
        <time>2024-08-03T15:28:06Z</time>
      </trkpt>
      <trkpt lat="44.85057" lon="-0.56879">
        <ele>4.9</ele>
        <time>2024-08-03T15:28:07Z</time>
      </trkpt>
      <trkpt lat="44.85055" lon="-0.5688">
        <ele>4.9</ele>
        <time>2024-08-03T15:28:08Z</time>
      </trkpt>
      <trkpt lat="44.85052" lon="-0.56882">
        <ele>4.9</ele>
        <time>2024-08-03T15:28:09Z</time>
      </trkpt>
      <trkpt lat="44.85049" lon="-0.56884">
        <ele>4.9</ele>
        <time>2024-08-03T15:28:10Z</time>
      </trkpt>
      <trkpt lat="44.85047" lon="-0.56886">
        <ele>4.9</ele>
        <time>2024-08-03T15:28:11Z</time>
      </trkpt>
      <trkpt lat="44.85044" lon="-0.56887">
        <ele>4.9</ele>
        <time>2024-08-03T15:28:12Z</time>
      </trkpt>
      <trkpt lat="44.85041" lon="-0.56889">
        <ele>4.9</ele>
        <time>2024-08-03T15:28:13Z</time>
      </trkpt>
      <trkpt lat="44.85039" lon="-0.56891">
        <ele>4.9</ele>
        <time>2024-08-03T15:28:14Z</time>
      </trkpt>
      <trkpt lat="44.85036" lon="-0.56893">
        <ele>4.9</ele>
        <time>2024-08-03T15:28:15Z</time>
      </trkpt>
      <trkpt lat="44.85033" lon="-0.56894">
        <ele>4.9</ele>
        <time>2024-08-03T15:28:16Z</time>
      </trkpt>
      <trkpt lat="44.8503" lon="-0.56895">
        <ele>4.9</ele>
        <time>2024-08-03T15:28:17Z</time>
      </trkpt>
      <trkpt lat="44.85028" lon="-0.56896">
        <ele>4.9</ele>
        <time>2024-08-03T15:28:18Z</time>
      </trkpt>
      <trkpt lat="44.85026" lon="-0.56897">
        <ele>4.9</ele>
        <time>2024-08-03T15:28:19Z</time>
      </trkpt>
      <trkpt lat="44.85021" lon="-0.569">
        <ele>4.9</ele>
        <time>2024-08-03T15:28:21Z</time>
      </trkpt>
      <trkpt lat="44.85019" lon="-0.56901">
        <ele>4.9</ele>
        <time>2024-08-03T15:28:22Z</time>
      </trkpt>
      <trkpt lat="44.85016" lon="-0.56902">
        <ele>4.9</ele>
        <time>2024-08-03T15:28:23Z</time>
      </trkpt>
      <trkpt lat="44.85015" lon="-0.56903">
        <ele>4.9</ele>
        <time>2024-08-03T15:28:24Z</time>
      </trkpt>
      <trkpt lat="44.85012" lon="-0.56905">
        <ele>4.9</ele>
        <time>2024-08-03T15:28:25Z</time>
      </trkpt>
      <trkpt lat="44.85011" lon="-0.56906">
        <ele>4.9</ele>
        <time>2024-08-03T15:28:26Z</time>
      </trkpt>
      <trkpt lat="44.85007" lon="-0.56908">
        <ele>4.9</ele>
        <time>2024-08-03T15:28:27Z</time>
      </trkpt>
      <trkpt lat="44.85006" lon="-0.56909">
        <ele>5</ele>
        <time>2024-08-03T15:28:28Z</time>
      </trkpt>
      <trkpt lat="44.85002" lon="-0.5691">
        <ele>5</ele>
        <time>2024-08-03T15:28:29Z</time>
      </trkpt>
      <trkpt lat="44.85001" lon="-0.56911">
        <ele>5</ele>
        <time>2024-08-03T15:28:30Z</time>
      </trkpt>
      <trkpt lat="44.84999" lon="-0.56912">
        <ele>5</ele>
        <time>2024-08-03T15:28:31Z</time>
      </trkpt>
      <trkpt lat="44.84996" lon="-0.56914">
        <ele>5</ele>
        <time>2024-08-03T15:28:32Z</time>
      </trkpt>
      <trkpt lat="44.84994" lon="-0.56915">
        <ele>5</ele>
        <time>2024-08-03T15:28:33Z</time>
      </trkpt>
      <trkpt lat="44.84991" lon="-0.56917">
        <ele>5</ele>
        <time>2024-08-03T15:28:34Z</time>
      </trkpt>
      <trkpt lat="44.84989" lon="-0.56919">
        <ele>5</ele>
        <time>2024-08-03T15:28:35Z</time>
      </trkpt>
      <trkpt lat="44.84985" lon="-0.56921">
        <ele>5</ele>
        <time>2024-08-03T15:28:36Z</time>
      </trkpt>
      <trkpt lat="44.84984" lon="-0.56922">
        <ele>5</ele>
        <time>2024-08-03T15:28:37Z</time>
      </trkpt>
      <trkpt lat="44.84983" lon="-0.56923">
        <ele>5</ele>
        <time>2024-08-03T15:28:38Z</time>
      </trkpt>
      <trkpt lat="44.8498" lon="-0.56924">
        <ele>5</ele>
        <time>2024-08-03T15:28:39Z</time>
      </trkpt>
      <trkpt lat="44.84977" lon="-0.56926">
        <ele>5</ele>
        <time>2024-08-03T15:28:40Z</time>
      </trkpt>
      <trkpt lat="44.84976" lon="-0.56927">
        <ele>5</ele>
        <time>2024-08-03T15:28:41Z</time>
      </trkpt>
      <trkpt lat="44.84971" lon="-0.56928">
        <ele>5</ele>
        <time>2024-08-03T15:28:42Z</time>
      </trkpt>
      <trkpt lat="44.84969" lon="-0.56929">
        <ele>5</ele>
        <time>2024-08-03T15:28:43Z</time>
      </trkpt>
      <trkpt lat="44.84967" lon="-0.56929">
        <ele>5</ele>
        <time>2024-08-03T15:28:44Z</time>
      </trkpt>
      <trkpt lat="44.84965" lon="-0.5693">
        <ele>5.1</ele>
        <time>2024-08-03T15:28:45Z</time>
      </trkpt>
      <trkpt lat="44.84962" lon="-0.56931">
        <ele>5.1</ele>
        <time>2024-08-03T15:28:46Z</time>
      </trkpt>
      <trkpt lat="44.84959" lon="-0.56932">
        <ele>5.1</ele>
        <time>2024-08-03T15:28:47Z</time>
      </trkpt>
      <trkpt lat="44.84955" lon="-0.56934">
        <ele>5.1</ele>
        <time>2024-08-03T15:28:48Z</time>
      </trkpt>
      <trkpt lat="44.84953" lon="-0.56935">
        <ele>5.1</ele>
        <time>2024-08-03T15:28:49Z</time>
      </trkpt>
      <trkpt lat="44.84952" lon="-0.56936">
        <ele>5.1</ele>
        <time>2024-08-03T15:28:50Z</time>
      </trkpt>
      <trkpt lat="44.84949" lon="-0.56938">
        <ele>5.1</ele>
        <time>2024-08-03T15:28:51Z</time>
      </trkpt>
      <trkpt lat="44.84947" lon="-0.5694">
        <ele>5.1</ele>
        <time>2024-08-03T15:28:52Z</time>
      </trkpt>
      <trkpt lat="44.84944" lon="-0.56941">
        <ele>5.1</ele>
        <time>2024-08-03T15:28:53Z</time>
      </trkpt>
      <trkpt lat="44.84941" lon="-0.56944">
        <ele>5.1</ele>
        <time>2024-08-03T15:28:54Z</time>
      </trkpt>
      <trkpt lat="44.84939" lon="-0.56944">
        <ele>5.1</ele>
        <time>2024-08-03T15:28:55Z</time>
      </trkpt>
      <trkpt lat="44.84937" lon="-0.56946">
        <ele>5.1</ele>
        <time>2024-08-03T15:28:56Z</time>
      </trkpt>
      <trkpt lat="44.84934" lon="-0.56947">
        <ele>5.1</ele>
        <time>2024-08-03T15:28:57Z</time>
      </trkpt>
      <trkpt lat="44.84931" lon="-0.5695">
        <ele>5.1</ele>
        <time>2024-08-03T15:28:58Z</time>
      </trkpt>
      <trkpt lat="44.84929" lon="-0.5695">
        <ele>5.1</ele>
        <time>2024-08-03T15:28:59Z</time>
      </trkpt>
      <trkpt lat="44.84924" lon="-0.56954">
        <ele>5.2</ele>
        <time>2024-08-03T15:29:01Z</time>
      </trkpt>
      <trkpt lat="44.84919" lon="-0.56957">
        <ele>5.2</ele>
        <time>2024-08-03T15:29:03Z</time>
      </trkpt>
      <trkpt lat="44.84915" lon="-0.56959">
        <ele>5.2</ele>
        <time>2024-08-03T15:29:04Z</time>
      </trkpt>
      <trkpt lat="44.84914" lon="-0.5696">
        <ele>5.2</ele>
        <time>2024-08-03T15:29:05Z</time>
      </trkpt>
      <trkpt lat="44.84909" lon="-0.56962">
        <ele>5.2</ele>
        <time>2024-08-03T15:29:07Z</time>
      </trkpt>
      <trkpt lat="44.84906" lon="-0.56963">
        <ele>5.2</ele>
        <time>2024-08-03T15:29:08Z</time>
      </trkpt>
      <trkpt lat="44.84903" lon="-0.56964">
        <ele>5.2</ele>
        <time>2024-08-03T15:29:09Z</time>
      </trkpt>
      <trkpt lat="44.849" lon="-0.56965">
        <ele>5.2</ele>
        <time>2024-08-03T15:29:10Z</time>
      </trkpt>
      <trkpt lat="44.84898" lon="-0.56965">
        <ele>5.2</ele>
        <time>2024-08-03T15:29:11Z</time>
      </trkpt>
      <trkpt lat="44.84891" lon="-0.56967">
        <ele>5.2</ele>
        <time>2024-08-03T15:29:13Z</time>
      </trkpt>
      <trkpt lat="44.8489" lon="-0.56968">
        <ele>5.2</ele>
        <time>2024-08-03T15:29:14Z</time>
      </trkpt>
      <trkpt lat="44.84887" lon="-0.56968">
        <ele>5.2</ele>
        <time>2024-08-03T15:29:15Z</time>
      </trkpt>
      <trkpt lat="44.84883" lon="-0.56968">
        <ele>5.2</ele>
        <time>2024-08-03T15:29:16Z</time>
      </trkpt>
      <trkpt lat="44.84882" lon="-0.56968">
        <ele>5.2</ele>
        <time>2024-08-03T15:29:17Z</time>
      </trkpt>
      <trkpt lat="44.84877" lon="-0.56969">
        <ele>5.2</ele>
        <time>2024-08-03T15:29:19Z</time>
      </trkpt>
      <trkpt lat="44.84874" lon="-0.5697">
        <ele>5.2</ele>
        <time>2024-08-03T15:29:20Z</time>
      </trkpt>
      <trkpt lat="44.84871" lon="-0.5697">
        <ele>5.2</ele>
        <time>2024-08-03T15:29:21Z</time>
      </trkpt>
      <trkpt lat="44.84869" lon="-0.5697">
        <ele>5.2</ele>
        <time>2024-08-03T15:29:22Z</time>
      </trkpt>
      <trkpt lat="44.84866" lon="-0.56971">
        <ele>5.2</ele>
        <time>2024-08-03T15:29:23Z</time>
      </trkpt>
      <trkpt lat="44.84863" lon="-0.56972">
        <ele>5.2</ele>
        <time>2024-08-03T15:29:24Z</time>
      </trkpt>
      <trkpt lat="44.8486" lon="-0.56973">
        <ele>5.2</ele>
        <time>2024-08-03T15:29:25Z</time>
      </trkpt>
      <trkpt lat="44.84856" lon="-0.56974">
        <ele>5.2</ele>
        <time>2024-08-03T15:29:26Z</time>
      </trkpt>
      <trkpt lat="44.84854" lon="-0.56974">
        <ele>5.1</ele>
        <time>2024-08-03T15:29:27Z</time>
      </trkpt>
      <trkpt lat="44.84852" lon="-0.56975">
        <ele>5.1</ele>
        <time>2024-08-03T15:29:28Z</time>
      </trkpt>
      <trkpt lat="44.84849" lon="-0.56975">
        <ele>5.1</ele>
        <time>2024-08-03T15:29:29Z</time>
      </trkpt>
      <trkpt lat="44.84846" lon="-0.56975">
        <ele>5.1</ele>
        <time>2024-08-03T15:29:30Z</time>
      </trkpt>
      <trkpt lat="44.84843" lon="-0.56975">
        <ele>5.1</ele>
        <time>2024-08-03T15:29:31Z</time>
      </trkpt>
      <trkpt lat="44.8484" lon="-0.56975">
        <ele>5.1</ele>
        <time>2024-08-03T15:29:32Z</time>
      </trkpt>
      <trkpt lat="44.84837" lon="-0.56975">
        <ele>5.1</ele>
        <time>2024-08-03T15:29:33Z</time>
      </trkpt>
      <trkpt lat="44.84832" lon="-0.56976">
        <ele>5.1</ele>
        <time>2024-08-03T15:29:34Z</time>
      </trkpt>
      <trkpt lat="44.8483" lon="-0.56976">
        <ele>5.1</ele>
        <time>2024-08-03T15:29:35Z</time>
      </trkpt>
      <trkpt lat="44.84829" lon="-0.56977">
        <ele>5.1</ele>
        <time>2024-08-03T15:29:36Z</time>
      </trkpt>
      <trkpt lat="44.84826" lon="-0.56977">
        <ele>5.1</ele>
        <time>2024-08-03T15:29:37Z</time>
      </trkpt>
      <trkpt lat="44.84822" lon="-0.56978">
        <ele>5.1</ele>
        <time>2024-08-03T15:29:38Z</time>
      </trkpt>
      <trkpt lat="44.84821" lon="-0.56978">
        <ele>5.1</ele>
        <time>2024-08-03T15:29:39Z</time>
      </trkpt>
      <trkpt lat="44.84816" lon="-0.56978">
        <ele>5.1</ele>
        <time>2024-08-03T15:29:40Z</time>
      </trkpt>
      <trkpt lat="44.84814" lon="-0.56979">
        <ele>5.1</ele>
        <time>2024-08-03T15:29:41Z</time>
      </trkpt>
      <trkpt lat="44.84813" lon="-0.56979">
        <ele>5.1</ele>
        <time>2024-08-03T15:29:42Z</time>
      </trkpt>
      <trkpt lat="44.8481" lon="-0.56979">
        <ele>5.1</ele>
        <time>2024-08-03T15:29:43Z</time>
      </trkpt>
      <trkpt lat="44.84807" lon="-0.56979">
        <ele>5.1</ele>
        <time>2024-08-03T15:29:44Z</time>
      </trkpt>
      <trkpt lat="44.84804" lon="-0.5698">
        <ele>5.1</ele>
        <time>2024-08-03T15:29:45Z</time>
      </trkpt>
      <trkpt lat="44.84802" lon="-0.5698">
        <ele>5.1</ele>
        <time>2024-08-03T15:29:46Z</time>
      </trkpt>
      <trkpt lat="44.84798" lon="-0.56982">
        <ele>5.1</ele>
        <time>2024-08-03T15:29:47Z</time>
      </trkpt>
      <trkpt lat="44.84796" lon="-0.56983">
        <ele>5.1</ele>
        <time>2024-08-03T15:29:48Z</time>
      </trkpt>
      <trkpt lat="44.84794" lon="-0.56983">
        <ele>5.1</ele>
        <time>2024-08-03T15:29:49Z</time>
      </trkpt>
      <trkpt lat="44.84791" lon="-0.56984">
        <ele>5.1</ele>
        <time>2024-08-03T15:29:50Z</time>
      </trkpt>
      <trkpt lat="44.84788" lon="-0.56984">
        <ele>5.1</ele>
        <time>2024-08-03T15:29:51Z</time>
      </trkpt>
      <trkpt lat="44.84783" lon="-0.56985">
        <ele>5.1</ele>
        <time>2024-08-03T15:29:53Z</time>
      </trkpt>
      <trkpt lat="44.84779" lon="-0.56985">
        <ele>5.1</ele>
        <time>2024-08-03T15:29:54Z</time>
      </trkpt>
      <trkpt lat="44.84778" lon="-0.56985">
        <ele>5.1</ele>
        <time>2024-08-03T15:29:55Z</time>
      </trkpt>
      <trkpt lat="44.84774" lon="-0.56985">
        <ele>5.1</ele>
        <time>2024-08-03T15:29:56Z</time>
      </trkpt>
      <trkpt lat="44.84773" lon="-0.56985">
        <ele>5.1</ele>
        <time>2024-08-03T15:29:57Z</time>
      </trkpt>
      <trkpt lat="44.84768" lon="-0.56986">
        <ele>5.1</ele>
        <time>2024-08-03T15:29:59Z</time>
      </trkpt>
      <trkpt lat="44.84764" lon="-0.56987">
        <ele>5.1</ele>
        <time>2024-08-03T15:30:00Z</time>
      </trkpt>
      <trkpt lat="44.84763" lon="-0.56988">
        <ele>5.1</ele>
        <time>2024-08-03T15:30:01Z</time>
      </trkpt>
      <trkpt lat="44.84759" lon="-0.56989">
        <ele>5</ele>
        <time>2024-08-03T15:30:02Z</time>
      </trkpt>
      <trkpt lat="44.84758" lon="-0.56989">
        <ele>5</ele>
        <time>2024-08-03T15:30:03Z</time>
      </trkpt>
      <trkpt lat="44.84756" lon="-0.56989">
        <ele>5</ele>
        <time>2024-08-03T15:30:04Z</time>
      </trkpt>
      <trkpt lat="44.84754" lon="-0.5699">
        <ele>5</ele>
        <time>2024-08-03T15:30:05Z</time>
      </trkpt>
      <trkpt lat="44.8475" lon="-0.56991">
        <ele>5</ele>
        <time>2024-08-03T15:30:06Z</time>
      </trkpt>
      <trkpt lat="44.84749" lon="-0.56992">
        <ele>5</ele>
        <time>2024-08-03T15:30:07Z</time>
      </trkpt>
      <trkpt lat="44.84745" lon="-0.56993">
        <ele>5</ele>
        <time>2024-08-03T15:30:08Z</time>
      </trkpt>
      <trkpt lat="44.84743" lon="-0.56993">
        <ele>5</ele>
        <time>2024-08-03T15:30:09Z</time>
      </trkpt>
      <trkpt lat="44.84742" lon="-0.56994">
        <ele>5</ele>
        <time>2024-08-03T15:30:10Z</time>
      </trkpt>
      <trkpt lat="44.84739" lon="-0.56995">
        <ele>5</ele>
        <time>2024-08-03T15:30:11Z</time>
      </trkpt>
      <trkpt lat="44.84735" lon="-0.56995">
        <ele>5</ele>
        <time>2024-08-03T15:30:12Z</time>
      </trkpt>
      <trkpt lat="44.84734" lon="-0.56996">
        <ele>5</ele>
        <time>2024-08-03T15:30:13Z</time>
      </trkpt>
      <trkpt lat="44.8473" lon="-0.56997">
        <ele>5.1</ele>
        <time>2024-08-03T15:30:14Z</time>
      </trkpt>
      <trkpt lat="44.84728" lon="-0.56997">
        <ele>5.1</ele>
        <time>2024-08-03T15:30:15Z</time>
      </trkpt>
      <trkpt lat="44.84725" lon="-0.56998">
        <ele>5.1</ele>
        <time>2024-08-03T15:30:16Z</time>
      </trkpt>
      <trkpt lat="44.84723" lon="-0.56998">
        <ele>5.1</ele>
        <time>2024-08-03T15:30:17Z</time>
      </trkpt>
      <trkpt lat="44.8472" lon="-0.56998">
        <ele>5.1</ele>
        <time>2024-08-03T15:30:18Z</time>
      </trkpt>
      <trkpt lat="44.84717" lon="-0.56998">
        <ele>5.1</ele>
        <time>2024-08-03T15:30:19Z</time>
      </trkpt>
      <trkpt lat="44.84713" lon="-0.56997">
        <ele>5.1</ele>
        <time>2024-08-03T15:30:20Z</time>
      </trkpt>
      <trkpt lat="44.84712" lon="-0.56997">
        <ele>5.1</ele>
        <time>2024-08-03T15:30:21Z</time>
      </trkpt>
      <trkpt lat="44.84708" lon="-0.56998">
        <ele>5.1</ele>
        <time>2024-08-03T15:30:22Z</time>
      </trkpt>
      <trkpt lat="44.84707" lon="-0.56999">
        <ele>5.1</ele>
        <time>2024-08-03T15:30:23Z</time>
      </trkpt>
      <trkpt lat="44.84704" lon="-0.56999">
        <ele>5.1</ele>
        <time>2024-08-03T15:30:24Z</time>
      </trkpt>
      <trkpt lat="44.847" lon="-0.56999">
        <ele>5.1</ele>
        <time>2024-08-03T15:30:25Z</time>
      </trkpt>
      <trkpt lat="44.84699" lon="-0.56999">
        <ele>5.1</ele>
        <time>2024-08-03T15:30:26Z</time>
      </trkpt>
      <trkpt lat="44.84695" lon="-0.56999">
        <ele>5.1</ele>
        <time>2024-08-03T15:30:27Z</time>
      </trkpt>
      <trkpt lat="44.84693" lon="-0.56999">
        <ele>5.1</ele>
        <time>2024-08-03T15:30:28Z</time>
      </trkpt>
      <trkpt lat="44.8469" lon="-0.56999">
        <ele>5.1</ele>
        <time>2024-08-03T15:30:29Z</time>
      </trkpt>
      <trkpt lat="44.84688" lon="-0.56999">
        <ele>5.1</ele>
        <time>2024-08-03T15:30:30Z</time>
      </trkpt>
      <trkpt lat="44.84685" lon="-0.57">
        <ele>5.1</ele>
        <time>2024-08-03T15:30:31Z</time>
      </trkpt>
      <trkpt lat="44.84682" lon="-0.57001">
        <ele>5.1</ele>
        <time>2024-08-03T15:30:32Z</time>
      </trkpt>
      <trkpt lat="44.8468" lon="-0.57001">
        <ele>5.1</ele>
        <time>2024-08-03T15:30:33Z</time>
      </trkpt>
      <trkpt lat="44.84677" lon="-0.57002">
        <ele>5.1</ele>
        <time>2024-08-03T15:30:34Z</time>
      </trkpt>
      <trkpt lat="44.84673" lon="-0.57003">
        <ele>5.1</ele>
        <time>2024-08-03T15:30:35Z</time>
      </trkpt>
      <trkpt lat="44.84672" lon="-0.57004">
        <ele>5.1</ele>
        <time>2024-08-03T15:30:36Z</time>
      </trkpt>
      <trkpt lat="44.84669" lon="-0.57005">
        <ele>5.1</ele>
        <time>2024-08-03T15:30:37Z</time>
      </trkpt>
      <trkpt lat="44.84666" lon="-0.57005">
        <ele>5.1</ele>
        <time>2024-08-03T15:30:38Z</time>
      </trkpt>
      <trkpt lat="44.84664" lon="-0.57006">
        <ele>5.1</ele>
        <time>2024-08-03T15:30:39Z</time>
      </trkpt>
      <trkpt lat="44.84661" lon="-0.57006">
        <ele>5.1</ele>
        <time>2024-08-03T15:30:40Z</time>
      </trkpt>
      <trkpt lat="44.84657" lon="-0.57007">
        <ele>5.1</ele>
        <time>2024-08-03T15:30:41Z</time>
      </trkpt>
      <trkpt lat="44.84656" lon="-0.57007">
        <ele>5.1</ele>
        <time>2024-08-03T15:30:42Z</time>
      </trkpt>
      <trkpt lat="44.84653" lon="-0.57007">
        <ele>5.1</ele>
        <time>2024-08-03T15:30:43Z</time>
      </trkpt>
      <trkpt lat="44.84649" lon="-0.57008">
        <ele>5.1</ele>
        <time>2024-08-03T15:30:44Z</time>
      </trkpt>
      <trkpt lat="44.84647" lon="-0.57008">
        <ele>5.1</ele>
        <time>2024-08-03T15:30:45Z</time>
      </trkpt>
      <trkpt lat="44.84645" lon="-0.57009">
        <ele>5.1</ele>
        <time>2024-08-03T15:30:46Z</time>
      </trkpt>
      <trkpt lat="44.84643" lon="-0.57009">
        <ele>5.1</ele>
        <time>2024-08-03T15:30:47Z</time>
      </trkpt>
      <trkpt lat="44.84639" lon="-0.5701">
        <ele>5.1</ele>
        <time>2024-08-03T15:30:48Z</time>
      </trkpt>
      <trkpt lat="44.84638" lon="-0.57011">
        <ele>5.1</ele>
        <time>2024-08-03T15:30:49Z</time>
      </trkpt>
      <trkpt lat="44.84635" lon="-0.57011">
        <ele>5.1</ele>
        <time>2024-08-03T15:30:50Z</time>
      </trkpt>
      <trkpt lat="44.84633" lon="-0.57011">
        <ele>5.1</ele>
        <time>2024-08-03T15:30:51Z</time>
      </trkpt>
      <trkpt lat="44.8463" lon="-0.57011">
        <ele>5.1</ele>
        <time>2024-08-03T15:30:52Z</time>
      </trkpt>
      <trkpt lat="44.84626" lon="-0.57011">
        <ele>5.1</ele>
        <time>2024-08-03T15:30:53Z</time>
      </trkpt>
      <trkpt lat="44.84625" lon="-0.57011">
        <ele>5.1</ele>
        <time>2024-08-03T15:30:54Z</time>
      </trkpt>
      <trkpt lat="44.84621" lon="-0.5701">
        <ele>5.1</ele>
        <time>2024-08-03T15:30:55Z</time>
      </trkpt>
      <trkpt lat="44.8462" lon="-0.5701">
        <ele>5.1</ele>
        <time>2024-08-03T15:30:56Z</time>
      </trkpt>
      <trkpt lat="44.84617" lon="-0.5701">
        <ele>5.1</ele>
        <time>2024-08-03T15:30:57Z</time>
      </trkpt>
      <trkpt lat="44.84614" lon="-0.5701">
        <ele>5.1</ele>
        <time>2024-08-03T15:30:58Z</time>
      </trkpt>
      <trkpt lat="44.84611" lon="-0.5701">
        <ele>5.1</ele>
        <time>2024-08-03T15:30:59Z</time>
      </trkpt>
      <trkpt lat="44.84608" lon="-0.57009">
        <ele>5.1</ele>
        <time>2024-08-03T15:31:00Z</time>
      </trkpt>
      <trkpt lat="44.84606" lon="-0.57008">
        <ele>5.1</ele>
        <time>2024-08-03T15:31:01Z</time>
      </trkpt>
      <trkpt lat="44.84603" lon="-0.57008">
        <ele>5.1</ele>
        <time>2024-08-03T15:31:02Z</time>
      </trkpt>
      <trkpt lat="44.84603" lon="-0.57008">
        <ele>5.1</ele>
        <time>2024-08-03T15:31:03Z</time>
      </trkpt>
      <trkpt lat="44.84598" lon="-0.57006">
        <ele>5.1</ele>
        <time>2024-08-03T15:31:04Z</time>
      </trkpt>
      <trkpt lat="44.84595" lon="-0.57005">
        <ele>5.1</ele>
        <time>2024-08-03T15:31:05Z</time>
      </trkpt>
      <trkpt lat="44.84592" lon="-0.57005">
        <ele>5.1</ele>
        <time>2024-08-03T15:31:06Z</time>
      </trkpt>
      <trkpt lat="44.84588" lon="-0.57004">
        <ele>5.1</ele>
        <time>2024-08-03T15:31:07Z</time>
      </trkpt>
      <trkpt lat="44.84587" lon="-0.57003">
        <ele>5.1</ele>
        <time>2024-08-03T15:31:08Z</time>
      </trkpt>
      <trkpt lat="44.84585" lon="-0.57003">
        <ele>5.1</ele>
        <time>2024-08-03T15:31:09Z</time>
      </trkpt>
      <trkpt lat="44.84582" lon="-0.57002">
        <ele>5.1</ele>
        <time>2024-08-03T15:31:10Z</time>
      </trkpt>
      <trkpt lat="44.84579" lon="-0.57001">
        <ele>5.1</ele>
        <time>2024-08-03T15:31:11Z</time>
      </trkpt>
      <trkpt lat="44.84576" lon="-0.57001">
        <ele>5.1</ele>
        <time>2024-08-03T15:31:12Z</time>
      </trkpt>
      <trkpt lat="44.84575" lon="-0.57">
        <ele>5.1</ele>
        <time>2024-08-03T15:31:13Z</time>
      </trkpt>
      <trkpt lat="44.84571" lon="-0.57">
        <ele>5.1</ele>
        <time>2024-08-03T15:31:14Z</time>
      </trkpt>
      <trkpt lat="44.8457" lon="-0.56999">
        <ele>5.1</ele>
        <time>2024-08-03T15:31:15Z</time>
      </trkpt>
      <trkpt lat="44.84567" lon="-0.56999">
        <ele>5.1</ele>
        <time>2024-08-03T15:31:16Z</time>
      </trkpt>
      <trkpt lat="44.84564" lon="-0.56998">
        <ele>5.1</ele>
        <time>2024-08-03T15:31:17Z</time>
      </trkpt>
      <trkpt lat="44.84562" lon="-0.56997">
        <ele>5.1</ele>
        <time>2024-08-03T15:31:18Z</time>
      </trkpt>
      <trkpt lat="44.84559" lon="-0.56995">
        <ele>5.1</ele>
        <time>2024-08-03T15:31:19Z</time>
      </trkpt>
      <trkpt lat="44.84556" lon="-0.56994">
        <ele>5.1</ele>
        <time>2024-08-03T15:31:20Z</time>
      </trkpt>
      <trkpt lat="44.84554" lon="-0.56993">
        <ele>5.1</ele>
        <time>2024-08-03T15:31:21Z</time>
      </trkpt>
      <trkpt lat="44.84552" lon="-0.56992">
        <ele>5.1</ele>
        <time>2024-08-03T15:31:22Z</time>
      </trkpt>
      <trkpt lat="44.84548" lon="-0.56991">
        <ele>5.1</ele>
        <time>2024-08-03T15:31:23Z</time>
      </trkpt>
      <trkpt lat="44.84546" lon="-0.5699">
        <ele>5.1</ele>
        <time>2024-08-03T15:31:24Z</time>
      </trkpt>
      <trkpt lat="44.84543" lon="-0.56989">
        <ele>5.1</ele>
        <time>2024-08-03T15:31:25Z</time>
      </trkpt>
      <trkpt lat="44.8454" lon="-0.56988">
        <ele>5.1</ele>
        <time>2024-08-03T15:31:26Z</time>
      </trkpt>
      <trkpt lat="44.84538" lon="-0.56988">
        <ele>5.1</ele>
        <time>2024-08-03T15:31:27Z</time>
      </trkpt>
      <trkpt lat="44.84534" lon="-0.56988">
        <ele>5.1</ele>
        <time>2024-08-03T15:31:28Z</time>
      </trkpt>
      <trkpt lat="44.84533" lon="-0.56988">
        <ele>5.1</ele>
        <time>2024-08-03T15:31:29Z</time>
      </trkpt>
      <trkpt lat="44.84529" lon="-0.56987">
        <ele>5.1</ele>
        <time>2024-08-03T15:31:30Z</time>
      </trkpt>
      <trkpt lat="44.84528" lon="-0.56987">
        <ele>5.1</ele>
        <time>2024-08-03T15:31:31Z</time>
      </trkpt>
      <trkpt lat="44.84524" lon="-0.56987">
        <ele>5</ele>
        <time>2024-08-03T15:31:32Z</time>
      </trkpt>
      <trkpt lat="44.84523" lon="-0.56987">
        <ele>5</ele>
        <time>2024-08-03T15:31:33Z</time>
      </trkpt>
      <trkpt lat="44.84519" lon="-0.56986">
        <ele>5</ele>
        <time>2024-08-03T15:31:34Z</time>
      </trkpt>
      <trkpt lat="44.84517" lon="-0.56986">
        <ele>5</ele>
        <time>2024-08-03T15:31:35Z</time>
      </trkpt>
      <trkpt lat="44.84514" lon="-0.56985">
        <ele>5</ele>
        <time>2024-08-03T15:31:36Z</time>
      </trkpt>
      <trkpt lat="44.84512" lon="-0.56984">
        <ele>5</ele>
        <time>2024-08-03T15:31:37Z</time>
      </trkpt>
      <trkpt lat="44.84507" lon="-0.56983">
        <ele>5</ele>
        <time>2024-08-03T15:31:39Z</time>
      </trkpt>
      <trkpt lat="44.84504" lon="-0.56983">
        <ele>5</ele>
        <time>2024-08-03T15:31:40Z</time>
      </trkpt>
      <trkpt lat="44.84501" lon="-0.56983">
        <ele>5</ele>
        <time>2024-08-03T15:31:41Z</time>
      </trkpt>
      <trkpt lat="44.84499" lon="-0.56983">
        <ele>5</ele>
        <time>2024-08-03T15:31:42Z</time>
      </trkpt>
      <trkpt lat="44.84496" lon="-0.56982">
        <ele>5</ele>
        <time>2024-08-03T15:31:43Z</time>
      </trkpt>
      <trkpt lat="44.84492" lon="-0.56982">
        <ele>5</ele>
        <time>2024-08-03T15:31:44Z</time>
      </trkpt>
      <trkpt lat="44.84491" lon="-0.56981">
        <ele>5</ele>
        <time>2024-08-03T15:31:45Z</time>
      </trkpt>
      <trkpt lat="44.84488" lon="-0.56981">
        <ele>5</ele>
        <time>2024-08-03T15:31:46Z</time>
      </trkpt>
      <trkpt lat="44.84485" lon="-0.56981">
        <ele>5</ele>
        <time>2024-08-03T15:31:47Z</time>
      </trkpt>
      <trkpt lat="44.84481" lon="-0.56981">
        <ele>5</ele>
        <time>2024-08-03T15:31:48Z</time>
      </trkpt>
      <trkpt lat="44.84479" lon="-0.56981">
        <ele>5</ele>
        <time>2024-08-03T15:31:49Z</time>
      </trkpt>
      <trkpt lat="44.84477" lon="-0.56981">
        <ele>5</ele>
        <time>2024-08-03T15:31:50Z</time>
      </trkpt>
      <trkpt lat="44.84474" lon="-0.56981">
        <ele>5</ele>
        <time>2024-08-03T15:31:51Z</time>
      </trkpt>
      <trkpt lat="44.84471" lon="-0.56981">
        <ele>5</ele>
        <time>2024-08-03T15:31:52Z</time>
      </trkpt>
      <trkpt lat="44.84468" lon="-0.56982">
        <ele>5</ele>
        <time>2024-08-03T15:31:53Z</time>
      </trkpt>
      <trkpt lat="44.84466" lon="-0.56983">
        <ele>5</ele>
        <time>2024-08-03T15:31:54Z</time>
      </trkpt>
      <trkpt lat="44.84466" lon="-0.56983">
        <ele>5</ele>
        <time>2024-08-03T15:31:55Z</time>
      </trkpt>
      <trkpt lat="44.84461" lon="-0.56984">
        <ele>5</ele>
        <time>2024-08-03T15:31:56Z</time>
      </trkpt>
      <trkpt lat="44.84459" lon="-0.56985">
        <ele>5</ele>
        <time>2024-08-03T15:31:57Z</time>
      </trkpt>
      <trkpt lat="44.84455" lon="-0.56986">
        <ele>5</ele>
        <time>2024-08-03T15:31:58Z</time>
      </trkpt>
      <trkpt lat="44.84454" lon="-0.56986">
        <ele>5</ele>
        <time>2024-08-03T15:31:59Z</time>
      </trkpt>
      <trkpt lat="44.84451" lon="-0.56986">
        <ele>5</ele>
        <time>2024-08-03T15:32:00Z</time>
      </trkpt>
      <trkpt lat="44.84449" lon="-0.56986">
        <ele>5</ele>
        <time>2024-08-03T15:32:01Z</time>
      </trkpt>
      <trkpt lat="44.84446" lon="-0.56986">
        <ele>5</ele>
        <time>2024-08-03T15:32:02Z</time>
      </trkpt>
      <trkpt lat="44.84444" lon="-0.56986">
        <ele>5</ele>
        <time>2024-08-03T15:32:03Z</time>
      </trkpt>
      <trkpt lat="44.84441" lon="-0.56986">
        <ele>5</ele>
        <time>2024-08-03T15:32:04Z</time>
      </trkpt>
      <trkpt lat="44.84439" lon="-0.56986">
        <ele>5</ele>
        <time>2024-08-03T15:32:05Z</time>
      </trkpt>
      <trkpt lat="44.84435" lon="-0.56985">
        <ele>5</ele>
        <time>2024-08-03T15:32:07Z</time>
      </trkpt>
      <trkpt lat="44.84432" lon="-0.56984">
        <ele>5</ele>
        <time>2024-08-03T15:32:08Z</time>
      </trkpt>
      <trkpt lat="44.84429" lon="-0.56983">
        <ele>4.9</ele>
        <time>2024-08-03T15:32:09Z</time>
      </trkpt>
      <trkpt lat="44.84428" lon="-0.56982">
        <ele>4.9</ele>
        <time>2024-08-03T15:32:10Z</time>
      </trkpt>
      <trkpt lat="44.84425" lon="-0.56981">
        <ele>4.9</ele>
        <time>2024-08-03T15:32:11Z</time>
      </trkpt>
      <trkpt lat="44.8442" lon="-0.5698">
        <ele>4.9</ele>
        <time>2024-08-03T15:32:13Z</time>
      </trkpt>
      <trkpt lat="44.84418" lon="-0.56979">
        <ele>4.9</ele>
        <time>2024-08-03T15:32:14Z</time>
      </trkpt>
      <trkpt lat="44.84415" lon="-0.56978">
        <ele>4.9</ele>
        <time>2024-08-03T15:32:15Z</time>
      </trkpt>
      <trkpt lat="44.84412" lon="-0.56976">
        <ele>4.9</ele>
        <time>2024-08-03T15:32:16Z</time>
      </trkpt>
      <trkpt lat="44.84409" lon="-0.56974">
        <ele>4.9</ele>
        <time>2024-08-03T15:32:17Z</time>
      </trkpt>
      <trkpt lat="44.84406" lon="-0.56972">
        <ele>4.9</ele>
        <time>2024-08-03T15:32:18Z</time>
      </trkpt>
      <trkpt lat="44.84405" lon="-0.56971">
        <ele>4.9</ele>
        <time>2024-08-03T15:32:19Z</time>
      </trkpt>
      <trkpt lat="44.84403" lon="-0.56969">
        <ele>4.9</ele>
        <time>2024-08-03T15:32:20Z</time>
      </trkpt>
      <trkpt lat="44.844" lon="-0.56966">
        <ele>4.9</ele>
        <time>2024-08-03T15:32:21Z</time>
      </trkpt>
      <trkpt lat="44.84398" lon="-0.56963">
        <ele>4.9</ele>
        <time>2024-08-03T15:32:22Z</time>
      </trkpt>
      <trkpt lat="44.84395" lon="-0.56962">
        <ele>4.9</ele>
        <time>2024-08-03T15:32:23Z</time>
      </trkpt>
      <trkpt lat="44.84393" lon="-0.5696">
        <ele>4.9</ele>
        <time>2024-08-03T15:32:24Z</time>
      </trkpt>
      <trkpt lat="44.8439" lon="-0.5696">
        <ele>4.9</ele>
        <time>2024-08-03T15:32:25Z</time>
      </trkpt>
      <trkpt lat="44.84387" lon="-0.56959">
        <ele>4.9</ele>
        <time>2024-08-03T15:32:26Z</time>
      </trkpt>
      <trkpt lat="44.84384" lon="-0.56957">
        <ele>4.9</ele>
        <time>2024-08-03T15:32:27Z</time>
      </trkpt>
      <trkpt lat="44.84381" lon="-0.56955">
        <ele>4.9</ele>
        <time>2024-08-03T15:32:28Z</time>
      </trkpt>
      <trkpt lat="44.84379" lon="-0.56953">
        <ele>4.9</ele>
        <time>2024-08-03T15:32:29Z</time>
      </trkpt>
      <trkpt lat="44.84376" lon="-0.56952">
        <ele>4.9</ele>
        <time>2024-08-03T15:32:30Z</time>
      </trkpt>
      <trkpt lat="44.84374" lon="-0.5695">
        <ele>4.9</ele>
        <time>2024-08-03T15:32:31Z</time>
      </trkpt>
      <trkpt lat="44.84368" lon="-0.56947">
        <ele>4.9</ele>
        <time>2024-08-03T15:32:33Z</time>
      </trkpt>
      <trkpt lat="44.84362" lon="-0.56942">
        <ele>4.9</ele>
        <time>2024-08-03T15:32:35Z</time>
      </trkpt>
      <trkpt lat="44.8436" lon="-0.5694">
        <ele>4.9</ele>
        <time>2024-08-03T15:32:36Z</time>
      </trkpt>
      <trkpt lat="44.84356" lon="-0.56939">
        <ele>4.9</ele>
        <time>2024-08-03T15:32:37Z</time>
      </trkpt>
      <trkpt lat="44.84355" lon="-0.56938">
        <ele>4.9</ele>
        <time>2024-08-03T15:32:38Z</time>
      </trkpt>
      <trkpt lat="44.84352" lon="-0.56938">
        <ele>4.9</ele>
        <time>2024-08-03T15:32:39Z</time>
      </trkpt>
      <trkpt lat="44.84349" lon="-0.56938">
        <ele>4.9</ele>
        <time>2024-08-03T15:32:41Z</time>
      </trkpt>
      <trkpt lat="44.84344" lon="-0.56937">
        <ele>4.9</ele>
        <time>2024-08-03T15:32:42Z</time>
      </trkpt>
      <trkpt lat="44.84341" lon="-0.56936">
        <ele>4.9</ele>
        <time>2024-08-03T15:32:43Z</time>
      </trkpt>
      <trkpt lat="44.84338" lon="-0.56935">
        <ele>4.9</ele>
        <time>2024-08-03T15:32:44Z</time>
      </trkpt>
      <trkpt lat="44.84336" lon="-0.56935">
        <ele>4.9</ele>
        <time>2024-08-03T15:32:45Z</time>
      </trkpt>
      <trkpt lat="44.84334" lon="-0.56934">
        <ele>4.9</ele>
        <time>2024-08-03T15:32:46Z</time>
      </trkpt>
      <trkpt lat="44.84332" lon="-0.56934">
        <ele>4.9</ele>
        <time>2024-08-03T15:32:47Z</time>
      </trkpt>
      <trkpt lat="44.84328" lon="-0.56933">
        <ele>4.9</ele>
        <time>2024-08-03T15:32:48Z</time>
      </trkpt>
      <trkpt lat="44.84328" lon="-0.56933">
        <ele>4.9</ele>
        <time>2024-08-03T15:32:49Z</time>
      </trkpt>
      <trkpt lat="44.84325" lon="-0.56932">
        <ele>4.8</ele>
        <time>2024-08-03T15:32:50Z</time>
      </trkpt>
      <trkpt lat="44.84323" lon="-0.56932">
        <ele>4.8</ele>
        <time>2024-08-03T15:32:51Z</time>
      </trkpt>
      <trkpt lat="44.84323" lon="-0.56932">
        <ele>4.8</ele>
        <time>2024-08-03T15:32:52Z</time>
      </trkpt>
      <trkpt lat="44.84319" lon="-0.56928">
        <ele>4.8</ele>
        <time>2024-08-03T15:32:53Z</time>
      </trkpt>
      <trkpt lat="44.84316" lon="-0.56927">
        <ele>4.8</ele>
        <time>2024-08-03T15:32:54Z</time>
      </trkpt>
      <trkpt lat="44.84314" lon="-0.56925">
        <ele>4.8</ele>
        <time>2024-08-03T15:32:55Z</time>
      </trkpt>
      <trkpt lat="44.84311" lon="-0.56924">
        <ele>4.8</ele>
        <time>2024-08-03T15:32:56Z</time>
      </trkpt>
      <trkpt lat="44.84307" lon="-0.56922">
        <ele>4.8</ele>
        <time>2024-08-03T15:32:57Z</time>
      </trkpt>
      <trkpt lat="44.84305" lon="-0.56922">
        <ele>4.8</ele>
        <time>2024-08-03T15:32:58Z</time>
      </trkpt>
      <trkpt lat="44.84304" lon="-0.56921">
        <ele>4.8</ele>
        <time>2024-08-03T15:32:59Z</time>
      </trkpt>
      <trkpt lat="44.843" lon="-0.5692">
        <ele>4.8</ele>
        <time>2024-08-03T15:33:00Z</time>
      </trkpt>
      <trkpt lat="44.84298" lon="-0.5692">
        <ele>4.8</ele>
        <time>2024-08-03T15:33:01Z</time>
      </trkpt>
      <trkpt lat="44.84295" lon="-0.56918">
        <ele>4.8</ele>
        <time>2024-08-03T15:33:02Z</time>
      </trkpt>
      <trkpt lat="44.84294" lon="-0.56918">
        <ele>4.8</ele>
        <time>2024-08-03T15:33:03Z</time>
      </trkpt>
      <trkpt lat="44.8429" lon="-0.56917">
        <ele>4.8</ele>
        <time>2024-08-03T15:33:04Z</time>
      </trkpt>
      <trkpt lat="44.84289" lon="-0.56917">
        <ele>4.8</ele>
        <time>2024-08-03T15:33:05Z</time>
      </trkpt>
      <trkpt lat="44.84285" lon="-0.56915">
        <ele>4.8</ele>
        <time>2024-08-03T15:33:06Z</time>
      </trkpt>
      <trkpt lat="44.84283" lon="-0.56915">
        <ele>4.8</ele>
        <time>2024-08-03T15:33:07Z</time>
      </trkpt>
      <trkpt lat="44.84281" lon="-0.56914">
        <ele>4.8</ele>
        <time>2024-08-03T15:33:08Z</time>
      </trkpt>
      <trkpt lat="44.84278" lon="-0.56912">
        <ele>4.8</ele>
        <time>2024-08-03T15:33:09Z</time>
      </trkpt>
      <trkpt lat="44.84274" lon="-0.56911">
        <ele>4.8</ele>
        <time>2024-08-03T15:33:10Z</time>
      </trkpt>
      <trkpt lat="44.84273" lon="-0.5691">
        <ele>4.8</ele>
        <time>2024-08-03T15:33:11Z</time>
      </trkpt>
      <trkpt lat="44.8427" lon="-0.56909">
        <ele>4.8</ele>
        <time>2024-08-03T15:33:12Z</time>
      </trkpt>
      <trkpt lat="44.84269" lon="-0.56909">
        <ele>4.8</ele>
        <time>2024-08-03T15:33:13Z</time>
      </trkpt>
      <trkpt lat="44.84266" lon="-0.56909">
        <ele>4.8</ele>
        <time>2024-08-03T15:33:14Z</time>
      </trkpt>
      <trkpt lat="44.84265" lon="-0.56909">
        <ele>4.8</ele>
        <time>2024-08-03T15:33:15Z</time>
      </trkpt>
      <trkpt lat="44.84262" lon="-0.56908">
        <ele>4.8</ele>
        <time>2024-08-03T15:33:16Z</time>
      </trkpt>
      <trkpt lat="44.8426" lon="-0.56908">
        <ele>4.8</ele>
        <time>2024-08-03T15:33:17Z</time>
      </trkpt>
      <trkpt lat="44.8426" lon="-0.56908">
        <ele>4.8</ele>
        <time>2024-08-03T15:33:18Z</time>
      </trkpt>
      <trkpt lat="44.84255" lon="-0.56908">
        <ele>4.8</ele>
        <time>2024-08-03T15:33:19Z</time>
      </trkpt>
      <trkpt lat="44.84252" lon="-0.56908">
        <ele>4.8</ele>
        <time>2024-08-03T15:33:20Z</time>
      </trkpt>
      <trkpt lat="44.8425" lon="-0.56908">
        <ele>4.8</ele>
        <time>2024-08-03T15:33:21Z</time>
      </trkpt>
      <trkpt lat="44.84247" lon="-0.56906">
        <ele>4.8</ele>
        <time>2024-08-03T15:33:22Z</time>
      </trkpt>
      <trkpt lat="44.84244" lon="-0.56903">
        <ele>4.8</ele>
        <time>2024-08-03T15:33:23Z</time>
      </trkpt>
      <trkpt lat="44.84242" lon="-0.569">
        <ele>4.8</ele>
        <time>2024-08-03T15:33:24Z</time>
      </trkpt>
      <trkpt lat="44.84239" lon="-0.56897">
        <ele>4.8</ele>
        <time>2024-08-03T15:33:25Z</time>
      </trkpt>
      <trkpt lat="44.84238" lon="-0.56896">
        <ele>4.8</ele>
        <time>2024-08-03T15:33:26Z</time>
      </trkpt>
      <trkpt lat="44.84236" lon="-0.56894">
        <ele>4.8</ele>
        <time>2024-08-03T15:33:27Z</time>
      </trkpt>
      <trkpt lat="44.84233" lon="-0.56893">
        <ele>4.8</ele>
        <time>2024-08-03T15:33:28Z</time>
      </trkpt>
      <trkpt lat="44.84229" lon="-0.56891">
        <ele>4.8</ele>
        <time>2024-08-03T15:33:30Z</time>
      </trkpt>
      <trkpt lat="44.84226" lon="-0.5689">
        <ele>4.8</ele>
        <time>2024-08-03T15:33:31Z</time>
      </trkpt>
      <trkpt lat="44.84224" lon="-0.56889">
        <ele>4.8</ele>
        <time>2024-08-03T15:33:32Z</time>
      </trkpt>
      <trkpt lat="44.84221" lon="-0.56888">
        <ele>4.8</ele>
        <time>2024-08-03T15:33:33Z</time>
      </trkpt>
      <trkpt lat="44.84217" lon="-0.56886">
        <ele>4.8</ele>
        <time>2024-08-03T15:33:34Z</time>
      </trkpt>
      <trkpt lat="44.84216" lon="-0.56885">
        <ele>4.8</ele>
        <time>2024-08-03T15:33:35Z</time>
      </trkpt>
      <trkpt lat="44.84213" lon="-0.56884">
        <ele>4.8</ele>
        <time>2024-08-03T15:33:36Z</time>
      </trkpt>
      <trkpt lat="44.84211" lon="-0.56883">
        <ele>4.8</ele>
        <time>2024-08-03T15:33:37Z</time>
      </trkpt>
      <trkpt lat="44.84208" lon="-0.56882">
        <ele>4.8</ele>
        <time>2024-08-03T15:33:38Z</time>
      </trkpt>
      <trkpt lat="44.84204" lon="-0.5688">
        <ele>4.8</ele>
        <time>2024-08-03T15:33:39Z</time>
      </trkpt>
      <trkpt lat="44.84202" lon="-0.56879">
        <ele>4.8</ele>
        <time>2024-08-03T15:33:40Z</time>
      </trkpt>
      <trkpt lat="44.842" lon="-0.56878">
        <ele>4.8</ele>
        <time>2024-08-03T15:33:41Z</time>
      </trkpt>
      <trkpt lat="44.84198" lon="-0.56877">
        <ele>4.8</ele>
        <time>2024-08-03T15:33:42Z</time>
      </trkpt>
      <trkpt lat="44.84195" lon="-0.56875">
        <ele>4.8</ele>
        <time>2024-08-03T15:33:43Z</time>
      </trkpt>
      <trkpt lat="44.84192" lon="-0.56873">
        <ele>4.8</ele>
        <time>2024-08-03T15:33:44Z</time>
      </trkpt>
      <trkpt lat="44.8419" lon="-0.56873">
        <ele>4.8</ele>
        <time>2024-08-03T15:33:45Z</time>
      </trkpt>
      <trkpt lat="44.84188" lon="-0.56872">
        <ele>4.8</ele>
        <time>2024-08-03T15:33:46Z</time>
      </trkpt>
      <trkpt lat="44.84185" lon="-0.5687">
        <ele>4.8</ele>
        <time>2024-08-03T15:33:47Z</time>
      </trkpt>
      <trkpt lat="44.84182" lon="-0.56869">
        <ele>4.8</ele>
        <time>2024-08-03T15:33:48Z</time>
      </trkpt>
      <trkpt lat="44.84178" lon="-0.56868">
        <ele>4.8</ele>
        <time>2024-08-03T15:33:49Z</time>
      </trkpt>
      <trkpt lat="44.84177" lon="-0.56867">
        <ele>4.8</ele>
        <time>2024-08-03T15:33:50Z</time>
      </trkpt>
      <trkpt lat="44.84173" lon="-0.56865">
        <ele>4.8</ele>
        <time>2024-08-03T15:33:51Z</time>
      </trkpt>
      <trkpt lat="44.84171" lon="-0.56865">
        <ele>4.8</ele>
        <time>2024-08-03T15:33:52Z</time>
      </trkpt>
      <trkpt lat="44.84169" lon="-0.56864">
        <ele>4.8</ele>
        <time>2024-08-03T15:33:53Z</time>
      </trkpt>
      <trkpt lat="44.84167" lon="-0.56863">
        <ele>4.8</ele>
        <time>2024-08-03T15:33:54Z</time>
      </trkpt>
      <trkpt lat="44.84163" lon="-0.56861">
        <ele>4.8</ele>
        <time>2024-08-03T15:33:55Z</time>
      </trkpt>
      <trkpt lat="44.84162" lon="-0.5686">
        <ele>4.8</ele>
        <time>2024-08-03T15:33:56Z</time>
      </trkpt>
      <trkpt lat="44.8416" lon="-0.56858">
        <ele>4.8</ele>
        <time>2024-08-03T15:33:57Z</time>
      </trkpt>
      <trkpt lat="44.84157" lon="-0.56856">
        <ele>4.8</ele>
        <time>2024-08-03T15:33:58Z</time>
      </trkpt>
      <trkpt lat="44.84154" lon="-0.56855">
        <ele>4.8</ele>
        <time>2024-08-03T15:33:59Z</time>
      </trkpt>
      <trkpt lat="44.84152" lon="-0.56854">
        <ele>4.8</ele>
        <time>2024-08-03T15:34:00Z</time>
      </trkpt>
      <trkpt lat="44.84149" lon="-0.56853">
        <ele>4.8</ele>
        <time>2024-08-03T15:34:01Z</time>
      </trkpt>
      <trkpt lat="44.84145" lon="-0.56851">
        <ele>4.8</ele>
        <time>2024-08-03T15:34:02Z</time>
      </trkpt>
      <trkpt lat="44.84144" lon="-0.56851">
        <ele>4.8</ele>
        <time>2024-08-03T15:34:03Z</time>
      </trkpt>
      <trkpt lat="44.8414" lon="-0.5685">
        <ele>4.8</ele>
        <time>2024-08-03T15:34:04Z</time>
      </trkpt>
      <trkpt lat="44.84139" lon="-0.56849">
        <ele>4.8</ele>
        <time>2024-08-03T15:34:05Z</time>
      </trkpt>
      <trkpt lat="44.84135" lon="-0.56848">
        <ele>4.8</ele>
        <time>2024-08-03T15:34:06Z</time>
      </trkpt>
      <trkpt lat="44.84134" lon="-0.56847">
        <ele>4.8</ele>
        <time>2024-08-03T15:34:07Z</time>
      </trkpt>
      <trkpt lat="44.8413" lon="-0.56846">
        <ele>4.8</ele>
        <time>2024-08-03T15:34:08Z</time>
      </trkpt>
      <trkpt lat="44.84129" lon="-0.56846">
        <ele>4.8</ele>
        <time>2024-08-03T15:34:09Z</time>
      </trkpt>
      <trkpt lat="44.84127" lon="-0.56845">
        <ele>4.8</ele>
        <time>2024-08-03T15:34:10Z</time>
      </trkpt>
      <trkpt lat="44.84121" lon="-0.56844">
        <ele>4.8</ele>
        <time>2024-08-03T15:34:12Z</time>
      </trkpt>
      <trkpt lat="44.84118" lon="-0.56843">
        <ele>4.8</ele>
        <time>2024-08-03T15:34:13Z</time>
      </trkpt>
      <trkpt lat="44.84115" lon="-0.56842">
        <ele>4.8</ele>
        <time>2024-08-03T15:34:14Z</time>
      </trkpt>
      <trkpt lat="44.84113" lon="-0.56841">
        <ele>4.8</ele>
        <time>2024-08-03T15:34:15Z</time>
      </trkpt>
      <trkpt lat="44.8411" lon="-0.5684">
        <ele>4.8</ele>
        <time>2024-08-03T15:34:16Z</time>
      </trkpt>
      <trkpt lat="44.84107" lon="-0.56839">
        <ele>4.8</ele>
        <time>2024-08-03T15:34:17Z</time>
      </trkpt>
      <trkpt lat="44.84104" lon="-0.56837">
        <ele>4.8</ele>
        <time>2024-08-03T15:34:18Z</time>
      </trkpt>
      <trkpt lat="44.84101" lon="-0.56835">
        <ele>4.8</ele>
        <time>2024-08-03T15:34:19Z</time>
      </trkpt>
      <trkpt lat="44.841" lon="-0.56834">
        <ele>4.8</ele>
        <time>2024-08-03T15:34:20Z</time>
      </trkpt>
      <trkpt lat="44.84095" lon="-0.56831">
        <ele>4.8</ele>
        <time>2024-08-03T15:34:22Z</time>
      </trkpt>
      <trkpt lat="44.84092" lon="-0.56829">
        <ele>4.8</ele>
        <time>2024-08-03T15:34:23Z</time>
      </trkpt>
      <trkpt lat="44.8409" lon="-0.56828">
        <ele>4.8</ele>
        <time>2024-08-03T15:34:24Z</time>
      </trkpt>
      <trkpt lat="44.84087" lon="-0.56826">
        <ele>4.7</ele>
        <time>2024-08-03T15:34:25Z</time>
      </trkpt>
      <trkpt lat="44.84084" lon="-0.56824">
        <ele>4.7</ele>
        <time>2024-08-03T15:34:26Z</time>
      </trkpt>
      <trkpt lat="44.84083" lon="-0.56823">
        <ele>4.7</ele>
        <time>2024-08-03T15:34:27Z</time>
      </trkpt>
      <trkpt lat="44.84079" lon="-0.56821">
        <ele>4.7</ele>
        <time>2024-08-03T15:34:28Z</time>
      </trkpt>
      <trkpt lat="44.84078" lon="-0.5682">
        <ele>4.7</ele>
        <time>2024-08-03T15:34:29Z</time>
      </trkpt>
      <trkpt lat="44.84076" lon="-0.56819">
        <ele>4.7</ele>
        <time>2024-08-03T15:34:30Z</time>
      </trkpt>
      <trkpt lat="44.84074" lon="-0.56818">
        <ele>4.7</ele>
        <time>2024-08-03T15:34:31Z</time>
      </trkpt>
      <trkpt lat="44.84071" lon="-0.56815">
        <ele>4.7</ele>
        <time>2024-08-03T15:34:32Z</time>
      </trkpt>
      <trkpt lat="44.8407" lon="-0.56815">
        <ele>4.7</ele>
        <time>2024-08-03T15:34:33Z</time>
      </trkpt>
      <trkpt lat="44.84069" lon="-0.56814">
        <ele>4.7</ele>
        <time>2024-08-03T15:34:34Z</time>
      </trkpt>
      <trkpt lat="44.84068" lon="-0.56813">
        <ele>4.7</ele>
        <time>2024-08-03T15:34:35Z</time>
      </trkpt>
      <trkpt lat="44.84066" lon="-0.56812">
        <ele>4.7</ele>
        <time>2024-08-03T15:34:36Z</time>
      </trkpt>
      <trkpt lat="44.84065" lon="-0.56811">
        <ele>4.7</ele>
        <time>2024-08-03T15:34:37Z</time>
      </trkpt>
      <trkpt lat="44.84064" lon="-0.56811">
        <ele>4.7</ele>
        <time>2024-08-03T15:34:38Z</time>
      </trkpt>
      <trkpt lat="44.84062" lon="-0.5681">
        <ele>4.7</ele>
        <time>2024-08-03T15:34:39Z</time>
      </trkpt>
      <trkpt lat="44.8406" lon="-0.56809">
        <ele>4.7</ele>
        <time>2024-08-03T15:34:40Z</time>
      </trkpt>
      <trkpt lat="44.84059" lon="-0.56808">
        <ele>4.7</ele>
        <time>2024-08-03T15:34:42Z</time>
      </trkpt>
      <trkpt lat="44.84058" lon="-0.56808">
        <ele>4.7</ele>
        <time>2024-08-03T15:34:43Z</time>
      </trkpt>
      <trkpt lat="44.84057" lon="-0.56807">
        <ele>4.7</ele>
        <time>2024-08-03T15:34:44Z</time>
      </trkpt>
      <trkpt lat="44.84055" lon="-0.56805">
        <ele>4.7</ele>
        <time>2024-08-03T15:34:45Z</time>
      </trkpt>
      <trkpt lat="44.84054" lon="-0.56804">
        <ele>4.7</ele>
        <time>2024-08-03T15:34:46Z</time>
      </trkpt>
      <trkpt lat="44.84052" lon="-0.56803">
        <ele>4.7</ele>
        <time>2024-08-03T15:34:47Z</time>
      </trkpt>
      <trkpt lat="44.84052" lon="-0.56803">
        <ele>4.7</ele>
        <time>2024-08-03T15:34:48Z</time>
      </trkpt>
      <trkpt lat="44.8405" lon="-0.56802">
        <ele>4.7</ele>
        <time>2024-08-03T15:34:49Z</time>
      </trkpt>
      <trkpt lat="44.84048" lon="-0.56801">
        <ele>4.7</ele>
        <time>2024-08-03T15:34:50Z</time>
      </trkpt>
      <trkpt lat="44.84047" lon="-0.568">
        <ele>4.7</ele>
        <time>2024-08-03T15:34:51Z</time>
      </trkpt>
      <trkpt lat="44.84045" lon="-0.568">
        <ele>4.7</ele>
        <time>2024-08-03T15:34:52Z</time>
      </trkpt>
      <trkpt lat="44.84043" lon="-0.56799">
        <ele>4.7</ele>
        <time>2024-08-03T15:34:53Z</time>
      </trkpt>
      <trkpt lat="44.84042" lon="-0.56798">
        <ele>4.7</ele>
        <time>2024-08-03T15:34:54Z</time>
      </trkpt>
      <trkpt lat="44.84041" lon="-0.56798">
        <ele>4.7</ele>
        <time>2024-08-03T15:34:55Z</time>
      </trkpt>
      <trkpt lat="44.8404" lon="-0.56797">
        <ele>4.7</ele>
        <time>2024-08-03T15:34:56Z</time>
      </trkpt>
      <trkpt lat="44.84038" lon="-0.56796">
        <ele>4.7</ele>
        <time>2024-08-03T15:34:57Z</time>
      </trkpt>
      <trkpt lat="44.84037" lon="-0.56795">
        <ele>4.8</ele>
        <time>2024-08-03T15:34:58Z</time>
      </trkpt>
      <trkpt lat="44.84036" lon="-0.56794">
        <ele>4.8</ele>
        <time>2024-08-03T15:34:59Z</time>
      </trkpt>
      <trkpt lat="44.84034" lon="-0.56793">
        <ele>4.8</ele>
        <time>2024-08-03T15:35:00Z</time>
      </trkpt>
      <trkpt lat="44.84033" lon="-0.56792">
        <ele>4.8</ele>
        <time>2024-08-03T15:35:01Z</time>
      </trkpt>
      <trkpt lat="44.84032" lon="-0.5679">
        <ele>4.8</ele>
        <time>2024-08-03T15:35:02Z</time>
      </trkpt>
      <trkpt lat="44.8403" lon="-0.56789">
        <ele>4.8</ele>
        <time>2024-08-03T15:35:03Z</time>
      </trkpt>
      <trkpt lat="44.84029" lon="-0.56788">
        <ele>4.8</ele>
        <time>2024-08-03T15:35:04Z</time>
      </trkpt>
      <trkpt lat="44.84027" lon="-0.56787">
        <ele>4.8</ele>
        <time>2024-08-03T15:35:05Z</time>
      </trkpt>
      <trkpt lat="44.84027" lon="-0.56787">
        <ele>4.8</ele>
        <time>2024-08-03T15:35:06Z</time>
      </trkpt>
      <trkpt lat="44.84024" lon="-0.56786">
        <ele>4.8</ele>
        <time>2024-08-03T15:35:07Z</time>
      </trkpt>
      <trkpt lat="44.84023" lon="-0.56784">
        <ele>4.8</ele>
        <time>2024-08-03T15:35:08Z</time>
      </trkpt>
      <trkpt lat="44.84022" lon="-0.56783">
        <ele>4.8</ele>
        <time>2024-08-03T15:35:09Z</time>
      </trkpt>
      <trkpt lat="44.84021" lon="-0.56782">
        <ele>4.8</ele>
        <time>2024-08-03T15:35:10Z</time>
      </trkpt>
      <trkpt lat="44.8402" lon="-0.5678">
        <ele>4.8</ele>
        <time>2024-08-03T15:35:11Z</time>
      </trkpt>
      <trkpt lat="44.84019" lon="-0.56779">
        <ele>4.8</ele>
        <time>2024-08-03T15:35:12Z</time>
      </trkpt>
      <trkpt lat="44.84018" lon="-0.56778">
        <ele>4.8</ele>
        <time>2024-08-03T15:35:13Z</time>
      </trkpt>
      <trkpt lat="44.84016" lon="-0.56777">
        <ele>4.8</ele>
        <time>2024-08-03T15:35:14Z</time>
      </trkpt>
      <trkpt lat="44.84015" lon="-0.56776">
        <ele>4.8</ele>
        <time>2024-08-03T15:35:15Z</time>
      </trkpt>
      <trkpt lat="44.84013" lon="-0.56775">
        <ele>4.8</ele>
        <time>2024-08-03T15:35:16Z</time>
      </trkpt>
      <trkpt lat="44.84011" lon="-0.56773">
        <ele>4.8</ele>
        <time>2024-08-03T15:35:18Z</time>
      </trkpt>
      <trkpt lat="44.84011" lon="-0.56773">
        <ele>4.8</ele>
        <time>2024-08-03T15:35:19Z</time>
      </trkpt>
      <trkpt lat="44.8401" lon="-0.56772">
        <ele>4.8</ele>
        <time>2024-08-03T15:35:20Z</time>
      </trkpt>
      <trkpt lat="44.8401" lon="-0.56772">
        <ele>4.8</ele>
        <time>2024-08-03T15:35:21Z</time>
      </trkpt>
      <trkpt lat="44.8401" lon="-0.56772">
        <ele>4.8</ele>
        <time>2024-08-03T15:35:22Z</time>
      </trkpt>
      <trkpt lat="44.8401" lon="-0.56772">
        <ele>4.8</ele>
        <time>2024-08-03T15:35:23Z</time>
      </trkpt>
      <trkpt lat="44.8401" lon="-0.56772">
        <ele>4.8</ele>
        <time>2024-08-03T15:35:24Z</time>
      </trkpt>
      <trkpt lat="44.8401" lon="-0.56772">
        <ele>4.8</ele>
        <time>2024-08-03T15:35:25Z</time>
      </trkpt>
      <trkpt lat="44.8401" lon="-0.56772">
        <ele>4.8</ele>
        <time>2024-08-03T15:35:26Z</time>
      </trkpt>
      <trkpt lat="44.8401" lon="-0.56772">
        <ele>4.8</ele>
        <time>2024-08-03T15:35:27Z</time>
      </trkpt>
      <trkpt lat="44.8401" lon="-0.56772">
        <ele>4.8</ele>
        <time>2024-08-03T15:35:28Z</time>
      </trkpt>
      <trkpt lat="44.8401" lon="-0.56772">
        <ele>4.8</ele>
        <time>2024-08-03T15:35:29Z</time>
      </trkpt>
      <trkpt lat="44.8401" lon="-0.56773">
        <ele>4.8</ele>
        <time>2024-08-03T15:35:30Z</time>
      </trkpt>
      <trkpt lat="44.8401" lon="-0.56773">
        <ele>4.8</ele>
        <time>2024-08-03T15:35:31Z</time>
      </trkpt>
      <trkpt lat="44.8401" lon="-0.56774">
        <ele>4.8</ele>
        <time>2024-08-03T15:35:32Z</time>
      </trkpt>
      <trkpt lat="44.8401" lon="-0.56774">
        <ele>4.8</ele>
        <time>2024-08-03T15:35:34Z</time>
      </trkpt>
      <trkpt lat="44.8401" lon="-0.56774">
        <ele>4.8</ele>
        <time>2024-08-03T15:35:35Z</time>
      </trkpt>
      <trkpt lat="44.84011" lon="-0.56774">
        <ele>4.8</ele>
        <time>2024-08-03T15:36:19Z</time>
      </trkpt>
      <trkpt lat="44.84011" lon="-0.56774">
        <ele>4.8</ele>
        <time>2024-08-03T15:36:21Z</time>
      </trkpt>
      <trkpt lat="44.84011" lon="-0.56774">
        <ele>4.8</ele>
        <time>2024-08-03T15:36:22Z</time>
      </trkpt>
      <trkpt lat="44.84011" lon="-0.56774">
        <ele>4.8</ele>
        <time>2024-08-03T15:36:23Z</time>
      </trkpt>
      <trkpt lat="44.84011" lon="-0.56774">
        <ele>4.8</ele>
        <time>2024-08-03T15:36:24Z</time>
      </trkpt>
      <trkpt lat="44.84011" lon="-0.56774">
        <ele>4.8</ele>
        <time>2024-08-03T15:36:25Z</time>
      </trkpt>
      <trkpt lat="44.84009" lon="-0.56773">
        <ele>4.8</ele>
        <time>2024-08-03T15:36:26Z</time>
      </trkpt>
      <trkpt lat="44.84009" lon="-0.56773">
        <ele>4.8</ele>
        <time>2024-08-03T15:36:27Z</time>
      </trkpt>
      <trkpt lat="44.84006" lon="-0.56771">
        <ele>4.8</ele>
        <time>2024-08-03T15:36:28Z</time>
      </trkpt>
      <trkpt lat="44.84005" lon="-0.5677">
        <ele>4.8</ele>
        <time>2024-08-03T15:36:29Z</time>
      </trkpt>
      <trkpt lat="44.84003" lon="-0.56769">
        <ele>4.8</ele>
        <time>2024-08-03T15:36:30Z</time>
      </trkpt>
      <trkpt lat="44.84003" lon="-0.56769">
        <ele>4.8</ele>
        <time>2024-08-03T15:36:31Z</time>
      </trkpt>
      <trkpt lat="44.84" lon="-0.56767">
        <ele>4.8</ele>
        <time>2024-08-03T15:36:32Z</time>
      </trkpt>
      <trkpt lat="44.83999" lon="-0.56766">
        <ele>4.8</ele>
        <time>2024-08-03T15:36:33Z</time>
      </trkpt>
      <trkpt lat="44.83995" lon="-0.56764">
        <ele>4.8</ele>
        <time>2024-08-03T15:36:34Z</time>
      </trkpt>
      <trkpt lat="44.83994" lon="-0.56763">
        <ele>4.8</ele>
        <time>2024-08-03T15:36:35Z</time>
      </trkpt>
      <trkpt lat="44.83991" lon="-0.56761">
        <ele>4.8</ele>
        <time>2024-08-03T15:36:36Z</time>
      </trkpt>
      <trkpt lat="44.8399" lon="-0.5676">
        <ele>4.8</ele>
        <time>2024-08-03T15:36:37Z</time>
      </trkpt>
      <trkpt lat="44.83987" lon="-0.56757">
        <ele>4.8</ele>
        <time>2024-08-03T15:36:38Z</time>
      </trkpt>
      <trkpt lat="44.83985" lon="-0.56755">
        <ele>4.8</ele>
        <time>2024-08-03T15:36:39Z</time>
      </trkpt>
      <trkpt lat="44.83982" lon="-0.56753">
        <ele>4.8</ele>
        <time>2024-08-03T15:36:40Z</time>
      </trkpt>
      <trkpt lat="44.8398" lon="-0.56751">
        <ele>4.8</ele>
        <time>2024-08-03T15:36:41Z</time>
      </trkpt>
      <trkpt lat="44.83976" lon="-0.56749">
        <ele>4.8</ele>
        <time>2024-08-03T15:36:42Z</time>
      </trkpt>
      <trkpt lat="44.83975" lon="-0.56749">
        <ele>4.8</ele>
        <time>2024-08-03T15:36:43Z</time>
      </trkpt>
      <trkpt lat="44.83971" lon="-0.56747">
        <ele>4.8</ele>
        <time>2024-08-03T15:36:44Z</time>
      </trkpt>
      <trkpt lat="44.83969" lon="-0.56746">
        <ele>4.8</ele>
        <time>2024-08-03T15:36:45Z</time>
      </trkpt>
      <trkpt lat="44.83967" lon="-0.56744">
        <ele>4.8</ele>
        <time>2024-08-03T15:36:46Z</time>
      </trkpt>
      <trkpt lat="44.83965" lon="-0.56742">
        <ele>4.8</ele>
        <time>2024-08-03T15:36:47Z</time>
      </trkpt>
      <trkpt lat="44.83962" lon="-0.56741">
        <ele>4.8</ele>
        <time>2024-08-03T15:36:48Z</time>
      </trkpt>
      <trkpt lat="44.8396" lon="-0.56738">
        <ele>4.8</ele>
        <time>2024-08-03T15:36:49Z</time>
      </trkpt>
      <trkpt lat="44.83957" lon="-0.56736">
        <ele>4.8</ele>
        <time>2024-08-03T15:36:50Z</time>
      </trkpt>
      <trkpt lat="44.83955" lon="-0.56734">
        <ele>4.8</ele>
        <time>2024-08-03T15:36:51Z</time>
      </trkpt>
      <trkpt lat="44.83952" lon="-0.56732">
        <ele>4.8</ele>
        <time>2024-08-03T15:36:52Z</time>
      </trkpt>
      <trkpt lat="44.8395" lon="-0.56731">
        <ele>4.8</ele>
        <time>2024-08-03T15:36:53Z</time>
      </trkpt>
      <trkpt lat="44.83948" lon="-0.56728">
        <ele>4.8</ele>
        <time>2024-08-03T15:36:54Z</time>
      </trkpt>
      <trkpt lat="44.83945" lon="-0.56725">
        <ele>4.8</ele>
        <time>2024-08-03T15:36:55Z</time>
      </trkpt>
      <trkpt lat="44.83944" lon="-0.56724">
        <ele>4.8</ele>
        <time>2024-08-03T15:36:56Z</time>
      </trkpt>
      <trkpt lat="44.83941" lon="-0.56723">
        <ele>4.8</ele>
        <time>2024-08-03T15:36:57Z</time>
      </trkpt>
      <trkpt lat="44.83936" lon="-0.56718">
        <ele>4.8</ele>
        <time>2024-08-03T15:36:59Z</time>
      </trkpt>
      <trkpt lat="44.83934" lon="-0.56716">
        <ele>4.8</ele>
        <time>2024-08-03T15:37:00Z</time>
      </trkpt>
      <trkpt lat="44.83931" lon="-0.56714">
        <ele>4.8</ele>
        <time>2024-08-03T15:37:01Z</time>
      </trkpt>
      <trkpt lat="44.83929" lon="-0.56713">
        <ele>4.8</ele>
        <time>2024-08-03T15:37:02Z</time>
      </trkpt>
      <trkpt lat="44.83927" lon="-0.56712">
        <ele>4.9</ele>
        <time>2024-08-03T15:37:03Z</time>
      </trkpt>
      <trkpt lat="44.83922" lon="-0.56709">
        <ele>4.9</ele>
        <time>2024-08-03T15:37:05Z</time>
      </trkpt>
      <trkpt lat="44.8392" lon="-0.56707">
        <ele>4.9</ele>
        <time>2024-08-03T15:37:06Z</time>
      </trkpt>
      <trkpt lat="44.83917" lon="-0.56706">
        <ele>4.9</ele>
        <time>2024-08-03T15:37:07Z</time>
      </trkpt>
      <trkpt lat="44.83913" lon="-0.56703">
        <ele>4.8</ele>
        <time>2024-08-03T15:37:08Z</time>
      </trkpt>
      <trkpt lat="44.83912" lon="-0.56703">
        <ele>4.8</ele>
        <time>2024-08-03T15:37:09Z</time>
      </trkpt>
      <trkpt lat="44.83906" lon="-0.56699">
        <ele>4.8</ele>
        <time>2024-08-03T15:37:11Z</time>
      </trkpt>
      <trkpt lat="44.83903" lon="-0.56698">
        <ele>4.8</ele>
        <time>2024-08-03T15:37:12Z</time>
      </trkpt>
      <trkpt lat="44.83901" lon="-0.56697">
        <ele>4.8</ele>
        <time>2024-08-03T15:37:13Z</time>
      </trkpt>
      <trkpt lat="44.83897" lon="-0.56696">
        <ele>4.8</ele>
        <time>2024-08-03T15:37:14Z</time>
      </trkpt>
      <trkpt lat="44.83896" lon="-0.56696">
        <ele>4.8</ele>
        <time>2024-08-03T15:37:15Z</time>
      </trkpt>
      <trkpt lat="44.83892" lon="-0.56695">
        <ele>4.7</ele>
        <time>2024-08-03T15:37:16Z</time>
      </trkpt>
      <trkpt lat="44.8389" lon="-0.56695">
        <ele>4.7</ele>
        <time>2024-08-03T15:37:17Z</time>
      </trkpt>
      <trkpt lat="44.83888" lon="-0.56694">
        <ele>4.7</ele>
        <time>2024-08-03T15:37:18Z</time>
      </trkpt>
      <trkpt lat="44.83884" lon="-0.56694">
        <ele>4.7</ele>
        <time>2024-08-03T15:37:19Z</time>
      </trkpt>
      <trkpt lat="44.83883" lon="-0.56694">
        <ele>4.7</ele>
        <time>2024-08-03T15:37:20Z</time>
      </trkpt>
      <trkpt lat="44.83881" lon="-0.56694">
        <ele>4.7</ele>
        <time>2024-08-03T15:37:21Z</time>
      </trkpt>
      <trkpt lat="44.83879" lon="-0.56693">
        <ele>4.7</ele>
        <time>2024-08-03T15:37:22Z</time>
      </trkpt>
      <trkpt lat="44.83875" lon="-0.56693">
        <ele>4.7</ele>
        <time>2024-08-03T15:37:23Z</time>
      </trkpt>
      <trkpt lat="44.83874" lon="-0.56693">
        <ele>4.7</ele>
        <time>2024-08-03T15:37:24Z</time>
      </trkpt>
      <trkpt lat="44.83872" lon="-0.56692">
        <ele>4.7</ele>
        <time>2024-08-03T15:37:25Z</time>
      </trkpt>
      <trkpt lat="44.8387" lon="-0.56692">
        <ele>4.7</ele>
        <time>2024-08-03T15:37:26Z</time>
      </trkpt>
      <trkpt lat="44.83868" lon="-0.56692">
        <ele>4.7</ele>
        <time>2024-08-03T15:37:27Z</time>
      </trkpt>
      <trkpt lat="44.83865" lon="-0.56692">
        <ele>4.7</ele>
        <time>2024-08-03T15:37:28Z</time>
      </trkpt>
      <trkpt lat="44.83861" lon="-0.56693">
        <ele>4.7</ele>
        <time>2024-08-03T15:37:29Z</time>
      </trkpt>
      <trkpt lat="44.83858" lon="-0.56694">
        <ele>4.7</ele>
        <time>2024-08-03T15:37:30Z</time>
      </trkpt>
      <trkpt lat="44.83855" lon="-0.56694">
        <ele>4.7</ele>
        <time>2024-08-03T15:37:31Z</time>
      </trkpt>
      <trkpt lat="44.83853" lon="-0.56694">
        <ele>4.8</ele>
        <time>2024-08-03T15:37:32Z</time>
      </trkpt>
      <trkpt lat="44.8385" lon="-0.56692">
        <ele>4.8</ele>
        <time>2024-08-03T15:37:33Z</time>
      </trkpt>
      <trkpt lat="44.83847" lon="-0.56691">
        <ele>4.8</ele>
        <time>2024-08-03T15:37:34Z</time>
      </trkpt>
      <trkpt lat="44.83844" lon="-0.56691">
        <ele>4.8</ele>
        <time>2024-08-03T15:37:35Z</time>
      </trkpt>
      <trkpt lat="44.83841" lon="-0.56691">
        <ele>4.8</ele>
        <time>2024-08-03T15:37:36Z</time>
      </trkpt>
      <trkpt lat="44.83839" lon="-0.56691">
        <ele>4.8</ele>
        <time>2024-08-03T15:37:37Z</time>
      </trkpt>
      <trkpt lat="44.83835" lon="-0.56691">
        <ele>4.8</ele>
        <time>2024-08-03T15:37:38Z</time>
      </trkpt>
      <trkpt lat="44.83833" lon="-0.56691">
        <ele>4.9</ele>
        <time>2024-08-03T15:37:39Z</time>
      </trkpt>
      <trkpt lat="44.8383" lon="-0.5669">
        <ele>4.9</ele>
        <time>2024-08-03T15:37:40Z</time>
      </trkpt>
      <trkpt lat="44.83828" lon="-0.56688">
        <ele>4.9</ele>
        <time>2024-08-03T15:37:41Z</time>
      </trkpt>
      <trkpt lat="44.83825" lon="-0.56685">
        <ele>4.9</ele>
        <time>2024-08-03T15:37:42Z</time>
      </trkpt>
      <trkpt lat="44.83822" lon="-0.56681">
        <ele>5</ele>
        <time>2024-08-03T15:37:43Z</time>
      </trkpt>
      <trkpt lat="44.8382" lon="-0.56678">
        <ele>5</ele>
        <time>2024-08-03T15:37:44Z</time>
      </trkpt>
      <trkpt lat="44.83818" lon="-0.56675">
        <ele>5.1</ele>
        <time>2024-08-03T15:37:45Z</time>
      </trkpt>
      <trkpt lat="44.83815" lon="-0.56671">
        <ele>5.1</ele>
        <time>2024-08-03T15:37:46Z</time>
      </trkpt>
      <trkpt lat="44.83814" lon="-0.5667">
        <ele>5.1</ele>
        <time>2024-08-03T15:37:47Z</time>
      </trkpt>
      <trkpt lat="44.83813" lon="-0.56668">
        <ele>5.1</ele>
        <time>2024-08-03T15:37:48Z</time>
      </trkpt>
      <trkpt lat="44.8381" lon="-0.56666">
        <ele>5.2</ele>
        <time>2024-08-03T15:37:49Z</time>
      </trkpt>
      <trkpt lat="44.83808" lon="-0.56663">
        <ele>5.3</ele>
        <time>2024-08-03T15:37:50Z</time>
      </trkpt>
      <trkpt lat="44.83805" lon="-0.56659">
        <ele>5.3</ele>
        <time>2024-08-03T15:37:51Z</time>
      </trkpt>
      <trkpt lat="44.83804" lon="-0.56658">
        <ele>5.4</ele>
        <time>2024-08-03T15:37:52Z</time>
      </trkpt>
      <trkpt lat="44.83802" lon="-0.56655">
        <ele>5.4</ele>
        <time>2024-08-03T15:37:53Z</time>
      </trkpt>
      <trkpt lat="44.83799" lon="-0.56652">
        <ele>5.5</ele>
        <time>2024-08-03T15:37:54Z</time>
      </trkpt>
      <trkpt lat="44.83797" lon="-0.56649">
        <ele>5.6</ele>
        <time>2024-08-03T15:37:55Z</time>
      </trkpt>
      <trkpt lat="44.83795" lon="-0.56646">
        <ele>5.7</ele>
        <time>2024-08-03T15:37:56Z</time>
      </trkpt>
      <trkpt lat="44.83794" lon="-0.56645">
        <ele>5.7</ele>
        <time>2024-08-03T15:37:57Z</time>
      </trkpt>
      <trkpt lat="44.83791" lon="-0.56642">
        <ele>5.8</ele>
        <time>2024-08-03T15:37:58Z</time>
      </trkpt>
      <trkpt lat="44.8379" lon="-0.56641">
        <ele>5.8</ele>
        <time>2024-08-03T15:37:59Z</time>
      </trkpt>
      <trkpt lat="44.83787" lon="-0.56639">
        <ele>5.9</ele>
        <time>2024-08-03T15:38:00Z</time>
      </trkpt>
      <trkpt lat="44.83785" lon="-0.56637">
        <ele>6</ele>
        <time>2024-08-03T15:38:01Z</time>
      </trkpt>
      <trkpt lat="44.83782" lon="-0.56633">
        <ele>6.1</ele>
        <time>2024-08-03T15:38:02Z</time>
      </trkpt>
      <trkpt lat="44.8378" lon="-0.56631">
        <ele>6.1</ele>
        <time>2024-08-03T15:38:03Z</time>
      </trkpt>
      <trkpt lat="44.83779" lon="-0.5663">
        <ele>6.2</ele>
        <time>2024-08-03T15:38:04Z</time>
      </trkpt>
      <trkpt lat="44.83776" lon="-0.56627">
        <ele>6.3</ele>
        <time>2024-08-03T15:38:05Z</time>
      </trkpt>
      <trkpt lat="44.83774" lon="-0.56623">
        <ele>6.4</ele>
        <time>2024-08-03T15:38:06Z</time>
      </trkpt>
      <trkpt lat="44.83773" lon="-0.56622">
        <ele>6.4</ele>
        <time>2024-08-03T15:38:07Z</time>
      </trkpt>
      <trkpt lat="44.83771" lon="-0.5662">
        <ele>6.5</ele>
        <time>2024-08-03T15:38:08Z</time>
      </trkpt>
      <trkpt lat="44.83771" lon="-0.5662">
        <ele>6.5</ele>
        <time>2024-08-03T15:38:09Z</time>
      </trkpt>
      <trkpt lat="44.83767" lon="-0.56616">
        <ele>6.7</ele>
        <time>2024-08-03T15:38:10Z</time>
      </trkpt>
      <trkpt lat="44.83765" lon="-0.56613">
        <ele>6.7</ele>
        <time>2024-08-03T15:38:11Z</time>
      </trkpt>
      <trkpt lat="44.83761" lon="-0.5661">
        <ele>6.9</ele>
        <time>2024-08-03T15:38:12Z</time>
      </trkpt>
      <trkpt lat="44.8376" lon="-0.56609">
        <ele>6.9</ele>
        <time>2024-08-03T15:38:13Z</time>
      </trkpt>
      <trkpt lat="44.83758" lon="-0.56607">
        <ele>7</ele>
        <time>2024-08-03T15:38:14Z</time>
      </trkpt>
      <trkpt lat="44.83756" lon="-0.56604">
        <ele>7.1</ele>
        <time>2024-08-03T15:38:15Z</time>
      </trkpt>
      <trkpt lat="44.83754" lon="-0.56601">
        <ele>7.3</ele>
        <time>2024-08-03T15:38:16Z</time>
      </trkpt>
      <trkpt lat="44.83753" lon="-0.566">
        <ele>7.3</ele>
        <time>2024-08-03T15:38:17Z</time>
      </trkpt>
      <trkpt lat="44.8375" lon="-0.56596">
        <ele>7.5</ele>
        <time>2024-08-03T15:38:18Z</time>
      </trkpt>
      <trkpt lat="44.83749" lon="-0.56594">
        <ele>7.5</ele>
        <time>2024-08-03T15:38:19Z</time>
      </trkpt>
      <trkpt lat="44.83745" lon="-0.56589">
        <ele>7.7</ele>
        <time>2024-08-03T15:38:21Z</time>
      </trkpt>
      <trkpt lat="44.83743" lon="-0.56586">
        <ele>7.9</ele>
        <time>2024-08-03T15:38:22Z</time>
      </trkpt>
      <trkpt lat="44.83742" lon="-0.56585">
        <ele>7.9</ele>
        <time>2024-08-03T15:38:23Z</time>
      </trkpt>
      <trkpt lat="44.8374" lon="-0.56582">
        <ele>8</ele>
        <time>2024-08-03T15:38:24Z</time>
      </trkpt>
      <trkpt lat="44.83738" lon="-0.56579">
        <ele>8.1</ele>
        <time>2024-08-03T15:38:25Z</time>
      </trkpt>
      <trkpt lat="44.83734" lon="-0.56575">
        <ele>8.3</ele>
        <time>2024-08-03T15:38:27Z</time>
      </trkpt>
      <trkpt lat="44.83732" lon="-0.56572">
        <ele>8.4</ele>
        <time>2024-08-03T15:38:28Z</time>
      </trkpt>
      <trkpt lat="44.83729" lon="-0.56568">
        <ele>8.6</ele>
        <time>2024-08-03T15:38:29Z</time>
      </trkpt>
      <trkpt lat="44.83728" lon="-0.56567">
        <ele>8.6</ele>
        <time>2024-08-03T15:38:30Z</time>
      </trkpt>
      <trkpt lat="44.83727" lon="-0.56564">
        <ele>8.8</ele>
        <time>2024-08-03T15:38:31Z</time>
      </trkpt>
      <trkpt lat="44.83723" lon="-0.56559">
        <ele>9</ele>
        <time>2024-08-03T15:38:33Z</time>
      </trkpt>
      <trkpt lat="44.83721" lon="-0.56556">
        <ele>9.1</ele>
        <time>2024-08-03T15:38:34Z</time>
      </trkpt>
      <trkpt lat="44.83719" lon="-0.56553">
        <ele>9.2</ele>
        <time>2024-08-03T15:38:35Z</time>
      </trkpt>
      <trkpt lat="44.83717" lon="-0.56551">
        <ele>9.3</ele>
        <time>2024-08-03T15:38:36Z</time>
      </trkpt>
      <trkpt lat="44.83715" lon="-0.56549">
        <ele>9.4</ele>
        <time>2024-08-03T15:38:37Z</time>
      </trkpt>
      <trkpt lat="44.83711" lon="-0.56547">
        <ele>9.6</ele>
        <time>2024-08-03T15:38:39Z</time>
      </trkpt>
      <trkpt lat="44.83709" lon="-0.56548">
        <ele>9.8</ele>
        <time>2024-08-03T15:38:40Z</time>
      </trkpt>
      <trkpt lat="44.83707" lon="-0.5655">
        <ele>10</ele>
        <time>2024-08-03T15:38:41Z</time>
      </trkpt>
      <trkpt lat="44.83706" lon="-0.56551">
        <ele>10.1</ele>
        <time>2024-08-03T15:38:42Z</time>
      </trkpt>
      <trkpt lat="44.83706" lon="-0.56553">
        <ele>10.1</ele>
        <time>2024-08-03T15:38:43Z</time>
      </trkpt>
      <trkpt lat="44.83704" lon="-0.56557">
        <ele>10.1</ele>
        <time>2024-08-03T15:38:45Z</time>
      </trkpt>
      <trkpt lat="44.83703" lon="-0.56558">
        <ele>10</ele>
        <time>2024-08-03T15:38:46Z</time>
      </trkpt>
      <trkpt lat="44.83701" lon="-0.5656">
        <ele>10</ele>
        <time>2024-08-03T15:38:47Z</time>
      </trkpt>
      <trkpt lat="44.837" lon="-0.56561">
        <ele>10</ele>
        <time>2024-08-03T15:38:48Z</time>
      </trkpt>
      <trkpt lat="44.83699" lon="-0.56562">
        <ele>9.9</ele>
        <time>2024-08-03T15:38:49Z</time>
      </trkpt>
      <trkpt lat="44.83697" lon="-0.56564">
        <ele>9.9</ele>
        <time>2024-08-03T15:38:51Z</time>
      </trkpt>
      <trkpt lat="44.83696" lon="-0.56564">
        <ele>9.9</ele>
        <time>2024-08-03T15:38:52Z</time>
      </trkpt>
      <trkpt lat="44.83695" lon="-0.56565">
        <ele>9.8</ele>
        <time>2024-08-03T15:38:53Z</time>
      </trkpt>
      <trkpt lat="44.83695" lon="-0.56566">
        <ele>9.8</ele>
        <time>2024-08-03T15:38:54Z</time>
      </trkpt>
      <trkpt lat="44.83693" lon="-0.56567">
        <ele>9.8</ele>
        <time>2024-08-03T15:38:55Z</time>
      </trkpt>
      <trkpt lat="44.83692" lon="-0.56569">
        <ele>9.7</ele>
        <time>2024-08-03T15:38:57Z</time>
      </trkpt>
      <trkpt lat="44.83691" lon="-0.5657">
        <ele>9.7</ele>
        <time>2024-08-03T15:38:58Z</time>
      </trkpt>
      <trkpt lat="44.83689" lon="-0.56573">
        <ele>9.7</ele>
        <time>2024-08-03T15:38:59Z</time>
      </trkpt>
      <trkpt lat="44.83687" lon="-0.56576">
        <ele>9.8</ele>
        <time>2024-08-03T15:39:00Z</time>
      </trkpt>
      <trkpt lat="44.83685" lon="-0.56578">
        <ele>9.9</ele>
        <time>2024-08-03T15:39:01Z</time>
      </trkpt>
      <trkpt lat="44.83682" lon="-0.56584">
        <ele>9.7</ele>
        <time>2024-08-03T15:39:03Z</time>
      </trkpt>
      <trkpt lat="44.83679" lon="-0.56588">
        <ele>9.5</ele>
        <time>2024-08-03T15:39:04Z</time>
      </trkpt>
      <trkpt lat="44.83678" lon="-0.56589">
        <ele>9.5</ele>
        <time>2024-08-03T15:39:05Z</time>
      </trkpt>
      <trkpt lat="44.83676" lon="-0.56593">
        <ele>9.3</ele>
        <time>2024-08-03T15:39:06Z</time>
      </trkpt>
      <trkpt lat="44.83674" lon="-0.56597">
        <ele>9.2</ele>
        <time>2024-08-03T15:39:07Z</time>
      </trkpt>
      <trkpt lat="44.8367" lon="-0.56603">
        <ele>8.9</ele>
        <time>2024-08-03T15:39:09Z</time>
      </trkpt>
      <trkpt lat="44.83668" lon="-0.56605">
        <ele>8.8</ele>
        <time>2024-08-03T15:39:10Z</time>
      </trkpt>
      <trkpt lat="44.83666" lon="-0.56608">
        <ele>8.7</ele>
        <time>2024-08-03T15:39:11Z</time>
      </trkpt>
      <trkpt lat="44.83664" lon="-0.56612">
        <ele>8.6</ele>
        <time>2024-08-03T15:39:12Z</time>
      </trkpt>
      <trkpt lat="44.83663" lon="-0.56613">
        <ele>8.5</ele>
        <time>2024-08-03T15:39:13Z</time>
      </trkpt>
      <trkpt lat="44.83658" lon="-0.56619">
        <ele>8.3</ele>
        <time>2024-08-03T15:39:15Z</time>
      </trkpt>
      <trkpt lat="44.83655" lon="-0.56622">
        <ele>8.2</ele>
        <time>2024-08-03T15:39:16Z</time>
      </trkpt>
      <trkpt lat="44.83652" lon="-0.56625">
        <ele>8.1</ele>
        <time>2024-08-03T15:39:17Z</time>
      </trkpt>
      <trkpt lat="44.8365" lon="-0.56628">
        <ele>8</ele>
        <time>2024-08-03T15:39:18Z</time>
      </trkpt>
      <trkpt lat="44.83649" lon="-0.56631">
        <ele>8</ele>
        <time>2024-08-03T15:39:19Z</time>
      </trkpt>
      <trkpt lat="44.83646" lon="-0.56637">
        <ele>7.9</ele>
        <time>2024-08-03T15:39:21Z</time>
      </trkpt>
      <trkpt lat="44.83645" lon="-0.5664">
        <ele>7.9</ele>
        <time>2024-08-03T15:39:22Z</time>
      </trkpt>
      <trkpt lat="44.83643" lon="-0.56644">
        <ele>7.9</ele>
        <time>2024-08-03T15:39:23Z</time>
      </trkpt>
      <trkpt lat="44.8364" lon="-0.56648">
        <ele>7.9</ele>
        <time>2024-08-03T15:39:24Z</time>
      </trkpt>
      <trkpt lat="44.83639" lon="-0.5665">
        <ele>7.9</ele>
        <time>2024-08-03T15:39:25Z</time>
      </trkpt>
      <trkpt lat="44.83636" lon="-0.56657">
        <ele>7.9</ele>
        <time>2024-08-03T15:39:27Z</time>
      </trkpt>
      <trkpt lat="44.83634" lon="-0.56661">
        <ele>7.9</ele>
        <time>2024-08-03T15:39:28Z</time>
      </trkpt>
      <trkpt lat="44.83634" lon="-0.56662">
        <ele>7.9</ele>
        <time>2024-08-03T15:39:29Z</time>
      </trkpt>
      <trkpt lat="44.8363" lon="-0.56665">
        <ele>7.9</ele>
        <time>2024-08-03T15:39:30Z</time>
      </trkpt>
      <trkpt lat="44.83629" lon="-0.56666">
        <ele>7.9</ele>
        <time>2024-08-03T15:39:31Z</time>
      </trkpt>
      <trkpt lat="44.83625" lon="-0.56669">
        <ele>8</ele>
        <time>2024-08-03T15:39:33Z</time>
      </trkpt>
      <trkpt lat="44.83624" lon="-0.56669">
        <ele>8</ele>
        <time>2024-08-03T15:39:34Z</time>
      </trkpt>
      <trkpt lat="44.83623" lon="-0.56669">
        <ele>8</ele>
        <time>2024-08-03T15:39:35Z</time>
      </trkpt>
      <trkpt lat="44.83622" lon="-0.56669">
        <ele>8.1</ele>
        <time>2024-08-03T15:39:36Z</time>
      </trkpt>
      <trkpt lat="44.8362" lon="-0.5667">
        <ele>8.1</ele>
        <time>2024-08-03T15:39:37Z</time>
      </trkpt>
      <trkpt lat="44.83617" lon="-0.56671">
        <ele>8.2</ele>
        <time>2024-08-03T15:39:39Z</time>
      </trkpt>
      <trkpt lat="44.83615" lon="-0.56672">
        <ele>8.5</ele>
        <time>2024-08-03T15:39:40Z</time>
      </trkpt>
      <trkpt lat="44.83613" lon="-0.56672">
        <ele>9</ele>
        <time>2024-08-03T15:39:41Z</time>
      </trkpt>
      <trkpt lat="44.83612" lon="-0.56672">
        <ele>9.1</ele>
        <time>2024-08-03T15:39:42Z</time>
      </trkpt>
      <trkpt lat="44.83611" lon="-0.56672">
        <ele>9.3</ele>
        <time>2024-08-03T15:39:43Z</time>
      </trkpt>
      <trkpt lat="44.8361" lon="-0.56673">
        <ele>9.7</ele>
        <time>2024-08-03T15:39:44Z</time>
      </trkpt>
      <trkpt lat="44.83608" lon="-0.56673">
        <ele>9.8</ele>
        <time>2024-08-03T15:39:45Z</time>
      </trkpt>
      <trkpt lat="44.83607" lon="-0.56673">
        <ele>9.8</ele>
        <time>2024-08-03T15:39:46Z</time>
      </trkpt>
      <trkpt lat="44.83606" lon="-0.56674">
        <ele>9.9</ele>
        <time>2024-08-03T15:39:47Z</time>
      </trkpt>
      <trkpt lat="44.83605" lon="-0.56674">
        <ele>9.9</ele>
        <time>2024-08-03T15:39:48Z</time>
      </trkpt>
      <trkpt lat="44.83605" lon="-0.56674">
        <ele>9.9</ele>
        <time>2024-08-03T15:39:49Z</time>
      </trkpt>
      <trkpt lat="44.83603" lon="-0.56675">
        <ele>9.9</ele>
        <time>2024-08-03T15:39:50Z</time>
      </trkpt>
      <trkpt lat="44.83602" lon="-0.56676">
        <ele>10</ele>
        <time>2024-08-03T15:39:51Z</time>
      </trkpt>
      <trkpt lat="44.836" lon="-0.56676">
        <ele>10.1</ele>
        <time>2024-08-03T15:39:52Z</time>
      </trkpt>
      <trkpt lat="44.83599" lon="-0.56677">
        <ele>10.1</ele>
        <time>2024-08-03T15:39:53Z</time>
      </trkpt>
      <trkpt lat="44.83597" lon="-0.56678">
        <ele>10.2</ele>
        <time>2024-08-03T15:39:54Z</time>
      </trkpt>
      <trkpt lat="44.83597" lon="-0.56678">
        <ele>10.2</ele>
        <time>2024-08-03T15:39:55Z</time>
      </trkpt>
      <trkpt lat="44.83595" lon="-0.56681">
        <ele>10.3</ele>
        <time>2024-08-03T15:39:56Z</time>
      </trkpt>
      <trkpt lat="44.83594" lon="-0.56682">
        <ele>10.3</ele>
        <time>2024-08-03T15:39:57Z</time>
      </trkpt>
      <trkpt lat="44.83594" lon="-0.56683">
        <ele>10.3</ele>
        <time>2024-08-03T15:39:58Z</time>
      </trkpt>
      <trkpt lat="44.83593" lon="-0.56684">
        <ele>10.4</ele>
        <time>2024-08-03T15:39:59Z</time>
      </trkpt>
      <trkpt lat="44.83593" lon="-0.56685">
        <ele>10.4</ele>
        <time>2024-08-03T15:40:00Z</time>
      </trkpt>
      <trkpt lat="44.83593" lon="-0.56685">
        <ele>10.4</ele>
        <time>2024-08-03T15:40:01Z</time>
      </trkpt>
      <trkpt lat="44.83591" lon="-0.56687">
        <ele>10.5</ele>
        <time>2024-08-03T15:40:02Z</time>
      </trkpt>
      <trkpt lat="44.83589" lon="-0.56688">
        <ele>10.6</ele>
        <time>2024-08-03T15:40:03Z</time>
      </trkpt>
      <trkpt lat="44.83587" lon="-0.56693">
        <ele>10.7</ele>
        <time>2024-08-03T15:40:04Z</time>
      </trkpt>
      <trkpt lat="44.83586" lon="-0.56694">
        <ele>10.7</ele>
        <time>2024-08-03T15:40:05Z</time>
      </trkpt>
      <trkpt lat="44.83585" lon="-0.56698">
        <ele>10.8</ele>
        <time>2024-08-03T15:40:06Z</time>
      </trkpt>
      <trkpt lat="44.83585" lon="-0.56701">
        <ele>10.9</ele>
        <time>2024-08-03T15:40:07Z</time>
      </trkpt>
      <trkpt lat="44.83584" lon="-0.56705">
        <ele>11</ele>
        <time>2024-08-03T15:40:08Z</time>
      </trkpt>
      <trkpt lat="44.83583" lon="-0.5671">
        <ele>11.1</ele>
        <time>2024-08-03T15:40:09Z</time>
      </trkpt>
      <trkpt lat="44.83583" lon="-0.56712">
        <ele>11.1</ele>
        <time>2024-08-03T15:40:10Z</time>
      </trkpt>
      <trkpt lat="44.83583" lon="-0.56718">
        <ele>11.2</ele>
        <time>2024-08-03T15:40:11Z</time>
      </trkpt>
      <trkpt lat="44.83582" lon="-0.5672">
        <ele>11.3</ele>
        <time>2024-08-03T15:40:12Z</time>
      </trkpt>
      <trkpt lat="44.83581" lon="-0.56724">
        <ele>11.4</ele>
        <time>2024-08-03T15:40:13Z</time>
      </trkpt>
      <trkpt lat="44.8358" lon="-0.56725">
        <ele>11.4</ele>
        <time>2024-08-03T15:40:14Z</time>
      </trkpt>
      <trkpt lat="44.83578" lon="-0.5673">
        <ele>11.5</ele>
        <time>2024-08-03T15:40:15Z</time>
      </trkpt>
      <trkpt lat="44.83577" lon="-0.56731">
        <ele>11.5</ele>
        <time>2024-08-03T15:40:16Z</time>
      </trkpt>
      <trkpt lat="44.83576" lon="-0.56735">
        <ele>11.6</ele>
        <time>2024-08-03T15:40:17Z</time>
      </trkpt>
      <trkpt lat="44.83575" lon="-0.5674">
        <ele>11.7</ele>
        <time>2024-08-03T15:40:18Z</time>
      </trkpt>
      <trkpt lat="44.83574" lon="-0.56743">
        <ele>11.8</ele>
        <time>2024-08-03T15:40:19Z</time>
      </trkpt>
      <trkpt lat="44.83573" lon="-0.56748">
        <ele>11.9</ele>
        <time>2024-08-03T15:40:20Z</time>
      </trkpt>
      <trkpt lat="44.83572" lon="-0.5675">
        <ele>11.9</ele>
        <time>2024-08-03T15:40:21Z</time>
      </trkpt>
      <trkpt lat="44.83571" lon="-0.56755">
        <ele>12</ele>
        <time>2024-08-03T15:40:22Z</time>
      </trkpt>
      <trkpt lat="44.83571" lon="-0.56757">
        <ele>12</ele>
        <time>2024-08-03T15:40:23Z</time>
      </trkpt>
      <trkpt lat="44.8357" lon="-0.56759">
        <ele>12.1</ele>
        <time>2024-08-03T15:40:24Z</time>
      </trkpt>
      <trkpt lat="44.8357" lon="-0.56763">
        <ele>12.2</ele>
        <time>2024-08-03T15:40:25Z</time>
      </trkpt>
      <trkpt lat="44.83569" lon="-0.56767">
        <ele>12.2</ele>
        <time>2024-08-03T15:40:26Z</time>
      </trkpt>
      <trkpt lat="44.83568" lon="-0.56773">
        <ele>12.3</ele>
        <time>2024-08-03T15:40:27Z</time>
      </trkpt>
      <trkpt lat="44.83567" lon="-0.56775">
        <ele>12.4</ele>
        <time>2024-08-03T15:40:28Z</time>
      </trkpt>
      <trkpt lat="44.83567" lon="-0.5678">
        <ele>12.5</ele>
        <time>2024-08-03T15:40:29Z</time>
      </trkpt>
      <trkpt lat="44.83566" lon="-0.56785">
        <ele>12.6</ele>
        <time>2024-08-03T15:40:30Z</time>
      </trkpt>
      <trkpt lat="44.83565" lon="-0.56789">
        <ele>12.7</ele>
        <time>2024-08-03T15:40:31Z</time>
      </trkpt>
      <trkpt lat="44.83564" lon="-0.56794">
        <ele>12.8</ele>
        <time>2024-08-03T15:40:32Z</time>
      </trkpt>
      <trkpt lat="44.83564" lon="-0.56796">
        <ele>12.8</ele>
        <time>2024-08-03T15:40:33Z</time>
      </trkpt>
      <trkpt lat="44.83563" lon="-0.56803">
        <ele>13</ele>
        <time>2024-08-03T15:40:35Z</time>
      </trkpt>
      <trkpt lat="44.83562" lon="-0.56808">
        <ele>13</ele>
        <time>2024-08-03T15:40:36Z</time>
      </trkpt>
      <trkpt lat="44.83562" lon="-0.5681">
        <ele>13.1</ele>
        <time>2024-08-03T15:40:37Z</time>
      </trkpt>
      <trkpt lat="44.83562" lon="-0.56814">
        <ele>13.1</ele>
        <time>2024-08-03T15:40:38Z</time>
      </trkpt>
      <trkpt lat="44.83562" lon="-0.56816">
        <ele>13.1</ele>
        <time>2024-08-03T15:40:39Z</time>
      </trkpt>
      <trkpt lat="44.83562" lon="-0.5682">
        <ele>13.2</ele>
        <time>2024-08-03T15:40:41Z</time>
      </trkpt>
      <trkpt lat="44.83562" lon="-0.56823">
        <ele>13.2</ele>
        <time>2024-08-03T15:40:42Z</time>
      </trkpt>
      <trkpt lat="44.83562" lon="-0.56825">
        <ele>13.3</ele>
        <time>2024-08-03T15:40:43Z</time>
      </trkpt>
      <trkpt lat="44.83562" lon="-0.56827">
        <ele>13.3</ele>
        <time>2024-08-03T15:40:44Z</time>
      </trkpt>
      <trkpt lat="44.83562" lon="-0.56828">
        <ele>13.3</ele>
        <time>2024-08-03T15:40:45Z</time>
      </trkpt>
      <trkpt lat="44.83562" lon="-0.56831">
        <ele>13.4</ele>
        <time>2024-08-03T15:40:47Z</time>
      </trkpt>
      <trkpt lat="44.83562" lon="-0.56832">
        <ele>13.4</ele>
        <time>2024-08-03T15:40:48Z</time>
      </trkpt>
      <trkpt lat="44.83562" lon="-0.56835">
        <ele>13.4</ele>
        <time>2024-08-03T15:40:49Z</time>
      </trkpt>
      <trkpt lat="44.83562" lon="-0.56836">
        <ele>13.4</ele>
        <time>2024-08-03T15:40:50Z</time>
      </trkpt>
      <trkpt lat="44.83561" lon="-0.56837">
        <ele>13.5</ele>
        <time>2024-08-03T15:40:51Z</time>
      </trkpt>
      <trkpt lat="44.83561" lon="-0.56841">
        <ele>13.5</ele>
        <time>2024-08-03T15:40:52Z</time>
      </trkpt>
      <trkpt lat="44.8356" lon="-0.56842">
        <ele>13.6</ele>
        <time>2024-08-03T15:40:53Z</time>
      </trkpt>
      <trkpt lat="44.8356" lon="-0.56847">
        <ele>13.6</ele>
        <time>2024-08-03T15:40:54Z</time>
      </trkpt>
      <trkpt lat="44.83559" lon="-0.56848">
        <ele>13.6</ele>
        <time>2024-08-03T15:40:55Z</time>
      </trkpt>
      <trkpt lat="44.83559" lon="-0.5685">
        <ele>13.7</ele>
        <time>2024-08-03T15:40:56Z</time>
      </trkpt>
      <trkpt lat="44.83559" lon="-0.5685">
        <ele>13.7</ele>
        <time>2024-08-03T15:40:57Z</time>
      </trkpt>
      <trkpt lat="44.83556" lon="-0.56856">
        <ele>13.8</ele>
        <time>2024-08-03T15:40:58Z</time>
      </trkpt>
      <trkpt lat="44.83555" lon="-0.56859">
        <ele>13.8</ele>
        <time>2024-08-03T15:40:59Z</time>
      </trkpt>
      <trkpt lat="44.83554" lon="-0.56863">
        <ele>13.9</ele>
        <time>2024-08-03T15:41:00Z</time>
      </trkpt>
      <trkpt lat="44.83552" lon="-0.56867">
        <ele>13.9</ele>
        <time>2024-08-03T15:41:01Z</time>
      </trkpt>
      <trkpt lat="44.83552" lon="-0.56868">
        <ele>14</ele>
        <time>2024-08-03T15:41:02Z</time>
      </trkpt>
      <trkpt lat="44.8355" lon="-0.56871">
        <ele>14</ele>
        <time>2024-08-03T15:41:03Z</time>
      </trkpt>
      <trkpt lat="44.83549" lon="-0.56874">
        <ele>14.1</ele>
        <time>2024-08-03T15:41:04Z</time>
      </trkpt>
      <trkpt lat="44.83547" lon="-0.56878">
        <ele>14.1</ele>
        <time>2024-08-03T15:41:05Z</time>
      </trkpt>
      <trkpt lat="44.83546" lon="-0.56883">
        <ele>14.2</ele>
        <time>2024-08-03T15:41:06Z</time>
      </trkpt>
      <trkpt lat="44.83545" lon="-0.56887">
        <ele>14.2</ele>
        <time>2024-08-03T15:41:07Z</time>
      </trkpt>
      <trkpt lat="44.83544" lon="-0.56893">
        <ele>14.3</ele>
        <time>2024-08-03T15:41:08Z</time>
      </trkpt>
      <trkpt lat="44.83544" lon="-0.56895">
        <ele>14.3</ele>
        <time>2024-08-03T15:41:09Z</time>
      </trkpt>
      <trkpt lat="44.83543" lon="-0.56897">
        <ele>14.3</ele>
        <time>2024-08-03T15:41:10Z</time>
      </trkpt>
      <trkpt lat="44.83542" lon="-0.56901">
        <ele>14.4</ele>
        <time>2024-08-03T15:41:11Z</time>
      </trkpt>
      <trkpt lat="44.83541" lon="-0.56906">
        <ele>14.4</ele>
        <time>2024-08-03T15:41:12Z</time>
      </trkpt>
      <trkpt lat="44.83541" lon="-0.5691">
        <ele>14.5</ele>
        <time>2024-08-03T15:41:13Z</time>
      </trkpt>
      <trkpt lat="44.8354" lon="-0.56914">
        <ele>14.5</ele>
        <time>2024-08-03T15:41:14Z</time>
      </trkpt>
      <trkpt lat="44.83539" lon="-0.56919">
        <ele>14.6</ele>
        <time>2024-08-03T15:41:15Z</time>
      </trkpt>
      <trkpt lat="44.83539" lon="-0.56923">
        <ele>14.6</ele>
        <time>2024-08-03T15:41:16Z</time>
      </trkpt>
      <trkpt lat="44.83538" lon="-0.56927">
        <ele>14.6</ele>
        <time>2024-08-03T15:41:17Z</time>
      </trkpt>
      <trkpt lat="44.83537" lon="-0.56931">
        <ele>14.6</ele>
        <time>2024-08-03T15:41:18Z</time>
      </trkpt>
      <trkpt lat="44.83536" lon="-0.56936">
        <ele>14.7</ele>
        <time>2024-08-03T15:41:19Z</time>
      </trkpt>
      <trkpt lat="44.83535" lon="-0.56937">
        <ele>14.7</ele>
        <time>2024-08-03T15:41:20Z</time>
      </trkpt>
      <trkpt lat="44.83533" lon="-0.5694">
        <ele>14.7</ele>
        <time>2024-08-03T15:41:21Z</time>
      </trkpt>
      <trkpt lat="44.83532" lon="-0.56943">
        <ele>14.7</ele>
        <time>2024-08-03T15:41:22Z</time>
      </trkpt>
      <trkpt lat="44.83531" lon="-0.56948">
        <ele>14.7</ele>
        <time>2024-08-03T15:41:23Z</time>
      </trkpt>
      <trkpt lat="44.83531" lon="-0.56949">
        <ele>14.8</ele>
        <time>2024-08-03T15:41:24Z</time>
      </trkpt>
      <trkpt lat="44.8353" lon="-0.56955">
        <ele>14.8</ele>
        <time>2024-08-03T15:41:25Z</time>
      </trkpt>
      <trkpt lat="44.8353" lon="-0.56957">
        <ele>14.8</ele>
        <time>2024-08-03T15:41:26Z</time>
      </trkpt>
      <trkpt lat="44.8353" lon="-0.56957">
        <ele>14.8</ele>
        <time>2024-08-03T15:41:27Z</time>
      </trkpt>
      <trkpt lat="44.83527" lon="-0.56963">
        <ele>14.8</ele>
        <time>2024-08-03T15:41:28Z</time>
      </trkpt>
      <trkpt lat="44.83526" lon="-0.56966">
        <ele>14.9</ele>
        <time>2024-08-03T15:41:29Z</time>
      </trkpt>
      <trkpt lat="44.83525" lon="-0.5697">
        <ele>14.9</ele>
        <time>2024-08-03T15:41:30Z</time>
      </trkpt>
      <trkpt lat="44.83524" lon="-0.56971">
        <ele>14.9</ele>
        <time>2024-08-03T15:41:31Z</time>
      </trkpt>
      <trkpt lat="44.83523" lon="-0.56976">
        <ele>14.9</ele>
        <time>2024-08-03T15:41:32Z</time>
      </trkpt>
      <trkpt lat="44.83523" lon="-0.56977">
        <ele>14.9</ele>
        <time>2024-08-03T15:41:33Z</time>
      </trkpt>
      <trkpt lat="44.83522" lon="-0.56982">
        <ele>15</ele>
        <time>2024-08-03T15:41:34Z</time>
      </trkpt>
      <trkpt lat="44.83521" lon="-0.56986">
        <ele>15</ele>
        <time>2024-08-03T15:41:35Z</time>
      </trkpt>
      <trkpt lat="44.83521" lon="-0.56987">
        <ele>15</ele>
        <time>2024-08-03T15:41:36Z</time>
      </trkpt>
      <trkpt lat="44.8352" lon="-0.5699">
        <ele>15</ele>
        <time>2024-08-03T15:41:37Z</time>
      </trkpt>
      <trkpt lat="44.83518" lon="-0.56995">
        <ele>15</ele>
        <time>2024-08-03T15:41:39Z</time>
      </trkpt>
      <trkpt lat="44.83515" lon="-0.57">
        <ele>15</ele>
        <time>2024-08-03T15:41:41Z</time>
      </trkpt>
      <trkpt lat="44.83514" lon="-0.57003">
        <ele>15.1</ele>
        <time>2024-08-03T15:41:42Z</time>
      </trkpt>
      <trkpt lat="44.83513" lon="-0.57005">
        <ele>15.1</ele>
        <time>2024-08-03T15:41:43Z</time>
      </trkpt>
      <trkpt lat="44.83511" lon="-0.57011">
        <ele>15.1</ele>
        <time>2024-08-03T15:41:45Z</time>
      </trkpt>
      <trkpt lat="44.8351" lon="-0.57014">
        <ele>15.1</ele>
        <time>2024-08-03T15:41:46Z</time>
      </trkpt>
      <trkpt lat="44.83509" lon="-0.57018">
        <ele>15.1</ele>
        <time>2024-08-03T15:41:47Z</time>
      </trkpt>
      <trkpt lat="44.83509" lon="-0.57023">
        <ele>15.2</ele>
        <time>2024-08-03T15:41:48Z</time>
      </trkpt>
      <trkpt lat="44.83509" lon="-0.57025">
        <ele>15.2</ele>
        <time>2024-08-03T15:41:49Z</time>
      </trkpt>
      <trkpt lat="44.83509" lon="-0.57031">
        <ele>15.2</ele>
        <time>2024-08-03T15:41:51Z</time>
      </trkpt>
      <trkpt lat="44.83508" lon="-0.57036">
        <ele>15.2</ele>
        <time>2024-08-03T15:41:52Z</time>
      </trkpt>
      <trkpt lat="44.83508" lon="-0.57037">
        <ele>15.2</ele>
        <time>2024-08-03T15:41:53Z</time>
      </trkpt>
      <trkpt lat="44.83507" lon="-0.57041">
        <ele>15.2</ele>
        <time>2024-08-03T15:41:54Z</time>
      </trkpt>
      <trkpt lat="44.83507" lon="-0.57042">
        <ele>15.2</ele>
        <time>2024-08-03T15:41:55Z</time>
      </trkpt>
      <trkpt lat="44.83506" lon="-0.57049">
        <ele>15.2</ele>
        <time>2024-08-03T15:41:57Z</time>
      </trkpt>
      <trkpt lat="44.83504" lon="-0.57054">
        <ele>15.3</ele>
        <time>2024-08-03T15:41:58Z</time>
      </trkpt>
      <trkpt lat="44.83504" lon="-0.57056">
        <ele>15.3</ele>
        <time>2024-08-03T15:41:59Z</time>
      </trkpt>
      <trkpt lat="44.83503" lon="-0.57061">
        <ele>15.3</ele>
        <time>2024-08-03T15:42:00Z</time>
      </trkpt>
      <trkpt lat="44.83503" lon="-0.57063">
        <ele>15.3</ele>
        <time>2024-08-03T15:42:01Z</time>
      </trkpt>
      <trkpt lat="44.83501" lon="-0.57073">
        <ele>15.4</ele>
        <time>2024-08-03T15:42:03Z</time>
      </trkpt>
      <trkpt lat="44.83501" lon="-0.57077">
        <ele>15.4</ele>
        <time>2024-08-03T15:42:04Z</time>
      </trkpt>
      <trkpt lat="44.83501" lon="-0.57079">
        <ele>15.4</ele>
        <time>2024-08-03T15:42:05Z</time>
      </trkpt>
      <trkpt lat="44.83501" lon="-0.57084">
        <ele>15.4</ele>
        <time>2024-08-03T15:42:06Z</time>
      </trkpt>
      <trkpt lat="44.83501" lon="-0.57085">
        <ele>15.4</ele>
        <time>2024-08-03T15:42:07Z</time>
      </trkpt>
      <trkpt lat="44.835" lon="-0.57091">
        <ele>15.5</ele>
        <time>2024-08-03T15:42:09Z</time>
      </trkpt>
      <trkpt lat="44.835" lon="-0.57096">
        <ele>15.5</ele>
        <time>2024-08-03T15:42:10Z</time>
      </trkpt>
      <trkpt lat="44.83499" lon="-0.57098">
        <ele>15.5</ele>
        <time>2024-08-03T15:42:11Z</time>
      </trkpt>
      <trkpt lat="44.83499" lon="-0.57102">
        <ele>15.5</ele>
        <time>2024-08-03T15:42:12Z</time>
      </trkpt>
      <trkpt lat="44.83499" lon="-0.57106">
        <ele>15.5</ele>
        <time>2024-08-03T15:42:13Z</time>
      </trkpt>
      <trkpt lat="44.83497" lon="-0.57112">
        <ele>15.5</ele>
        <time>2024-08-03T15:42:15Z</time>
      </trkpt>
      <trkpt lat="44.83495" lon="-0.57116">
        <ele>15.6</ele>
        <time>2024-08-03T15:42:16Z</time>
      </trkpt>
      <trkpt lat="44.83493" lon="-0.57119">
        <ele>15.9</ele>
        <time>2024-08-03T15:42:17Z</time>
      </trkpt>
      <trkpt lat="44.8349" lon="-0.57121">
        <ele>16.1</ele>
        <time>2024-08-03T15:42:18Z</time>
      </trkpt>
      <trkpt lat="44.83487" lon="-0.57123">
        <ele>16.1</ele>
        <time>2024-08-03T15:42:19Z</time>
      </trkpt>
      <trkpt lat="44.83484" lon="-0.57123">
        <ele>16.1</ele>
        <time>2024-08-03T15:42:20Z</time>
      </trkpt>
      <trkpt lat="44.83481" lon="-0.57123">
        <ele>16.2</ele>
        <time>2024-08-03T15:42:21Z</time>
      </trkpt>
      <trkpt lat="44.83478" lon="-0.57122">
        <ele>16.2</ele>
        <time>2024-08-03T15:42:22Z</time>
      </trkpt>
      <trkpt lat="44.83475" lon="-0.57122">
        <ele>16.2</ele>
        <time>2024-08-03T15:42:23Z</time>
      </trkpt>
      <trkpt lat="44.8347" lon="-0.5712">
        <ele>16.2</ele>
        <time>2024-08-03T15:42:24Z</time>
      </trkpt>
      <trkpt lat="44.83469" lon="-0.57119">
        <ele>16.2</ele>
        <time>2024-08-03T15:42:25Z</time>
      </trkpt>
      <trkpt lat="44.83467" lon="-0.57119">
        <ele>16.2</ele>
        <time>2024-08-03T15:42:26Z</time>
      </trkpt>
      <trkpt lat="44.83465" lon="-0.57118">
        <ele>16.2</ele>
        <time>2024-08-03T15:42:27Z</time>
      </trkpt>
      <trkpt lat="44.83461" lon="-0.57117">
        <ele>16.1</ele>
        <time>2024-08-03T15:42:28Z</time>
      </trkpt>
      <trkpt lat="44.8346" lon="-0.57117">
        <ele>16.1</ele>
        <time>2024-08-03T15:42:29Z</time>
      </trkpt>
      <trkpt lat="44.83457" lon="-0.57115">
        <ele>16.1</ele>
        <time>2024-08-03T15:42:30Z</time>
      </trkpt>
      <trkpt lat="44.83454" lon="-0.57115">
        <ele>16.1</ele>
        <time>2024-08-03T15:42:31Z</time>
      </trkpt>
      <trkpt lat="44.83451" lon="-0.57114">
        <ele>16.1</ele>
        <time>2024-08-03T15:42:32Z</time>
      </trkpt>
      <trkpt lat="44.83448" lon="-0.57114">
        <ele>16.1</ele>
        <time>2024-08-03T15:42:33Z</time>
      </trkpt>
      <trkpt lat="44.83446" lon="-0.57114">
        <ele>16.1</ele>
        <time>2024-08-03T15:42:34Z</time>
      </trkpt>
      <trkpt lat="44.83443" lon="-0.57114">
        <ele>16.1</ele>
        <time>2024-08-03T15:42:35Z</time>
      </trkpt>
      <trkpt lat="44.83439" lon="-0.57115">
        <ele>16</ele>
        <time>2024-08-03T15:42:36Z</time>
      </trkpt>
      <trkpt lat="44.83436" lon="-0.57115">
        <ele>16</ele>
        <time>2024-08-03T15:42:37Z</time>
      </trkpt>
      <trkpt lat="44.83433" lon="-0.57116">
        <ele>16</ele>
        <time>2024-08-03T15:42:38Z</time>
      </trkpt>
      <trkpt lat="44.83431" lon="-0.57117">
        <ele>16</ele>
        <time>2024-08-03T15:42:39Z</time>
      </trkpt>
      <trkpt lat="44.83428" lon="-0.57117">
        <ele>16</ele>
        <time>2024-08-03T15:42:40Z</time>
      </trkpt>
      <trkpt lat="44.83426" lon="-0.57118">
        <ele>16</ele>
        <time>2024-08-03T15:42:41Z</time>
      </trkpt>
      <trkpt lat="44.83422" lon="-0.57117">
        <ele>16</ele>
        <time>2024-08-03T15:42:43Z</time>
      </trkpt>
      <trkpt lat="44.8342" lon="-0.57117">
        <ele>16</ele>
        <time>2024-08-03T15:42:44Z</time>
      </trkpt>
      <trkpt lat="44.83418" lon="-0.57119">
        <ele>15.9</ele>
        <time>2024-08-03T15:42:45Z</time>
      </trkpt>
      <trkpt lat="44.83417" lon="-0.57119">
        <ele>15.9</ele>
        <time>2024-08-03T15:42:46Z</time>
      </trkpt>
      <trkpt lat="44.83414" lon="-0.57118">
        <ele>15.9</ele>
        <time>2024-08-03T15:42:47Z</time>
      </trkpt>
      <trkpt lat="44.83411" lon="-0.57117">
        <ele>15.9</ele>
        <time>2024-08-03T15:42:48Z</time>
      </trkpt>
      <trkpt lat="44.83408" lon="-0.57115">
        <ele>15.9</ele>
        <time>2024-08-03T15:42:49Z</time>
      </trkpt>
      <trkpt lat="44.83405" lon="-0.57114">
        <ele>15.9</ele>
        <time>2024-08-03T15:42:50Z</time>
      </trkpt>
      <trkpt lat="44.83403" lon="-0.57113">
        <ele>15.9</ele>
        <time>2024-08-03T15:42:51Z</time>
      </trkpt>
      <trkpt lat="44.83401" lon="-0.57112">
        <ele>15.9</ele>
        <time>2024-08-03T15:42:52Z</time>
      </trkpt>
      <trkpt lat="44.83398" lon="-0.57112">
        <ele>15.9</ele>
        <time>2024-08-03T15:42:53Z</time>
      </trkpt>
      <trkpt lat="44.83396" lon="-0.57111">
        <ele>15.9</ele>
        <time>2024-08-03T15:42:54Z</time>
      </trkpt>
      <trkpt lat="44.83393" lon="-0.5711">
        <ele>15.9</ele>
        <time>2024-08-03T15:42:55Z</time>
      </trkpt>
      <trkpt lat="44.8339" lon="-0.57108">
        <ele>15.9</ele>
        <time>2024-08-03T15:42:56Z</time>
      </trkpt>
      <trkpt lat="44.83389" lon="-0.57107">
        <ele>15.9</ele>
        <time>2024-08-03T15:42:57Z</time>
      </trkpt>
      <trkpt lat="44.83386" lon="-0.57106">
        <ele>15.9</ele>
        <time>2024-08-03T15:42:58Z</time>
      </trkpt>
      <trkpt lat="44.83384" lon="-0.57105">
        <ele>15.9</ele>
        <time>2024-08-03T15:42:59Z</time>
      </trkpt>
      <trkpt lat="44.83382" lon="-0.57104">
        <ele>15.9</ele>
        <time>2024-08-03T15:43:00Z</time>
      </trkpt>
      <trkpt lat="44.83378" lon="-0.57103">
        <ele>15.9</ele>
        <time>2024-08-03T15:43:01Z</time>
      </trkpt>
      <trkpt lat="44.83376" lon="-0.57103">
        <ele>15.9</ele>
        <time>2024-08-03T15:43:02Z</time>
      </trkpt>
      <trkpt lat="44.83373" lon="-0.57103">
        <ele>15.8</ele>
        <time>2024-08-03T15:43:03Z</time>
      </trkpt>
      <trkpt lat="44.83371" lon="-0.57104">
        <ele>15.8</ele>
        <time>2024-08-03T15:43:04Z</time>
      </trkpt>
      <trkpt lat="44.83371" lon="-0.57104">
        <ele>15.8</ele>
        <time>2024-08-03T15:43:05Z</time>
      </trkpt>
      <trkpt lat="44.83365" lon="-0.57104">
        <ele>15.8</ele>
        <time>2024-08-03T15:43:06Z</time>
      </trkpt>
      <trkpt lat="44.83362" lon="-0.57104">
        <ele>15.8</ele>
        <time>2024-08-03T15:43:07Z</time>
      </trkpt>
      <trkpt lat="44.83359" lon="-0.57102">
        <ele>15.8</ele>
        <time>2024-08-03T15:43:08Z</time>
      </trkpt>
      <trkpt lat="44.83357" lon="-0.57102">
        <ele>15.8</ele>
        <time>2024-08-03T15:43:09Z</time>
      </trkpt>
      <trkpt lat="44.83354" lon="-0.57101">
        <ele>15.7</ele>
        <time>2024-08-03T15:43:10Z</time>
      </trkpt>
      <trkpt lat="44.83352" lon="-0.57101">
        <ele>15.7</ele>
        <time>2024-08-03T15:43:11Z</time>
      </trkpt>
      <trkpt lat="44.83349" lon="-0.57102">
        <ele>15.7</ele>
        <time>2024-08-03T15:43:12Z</time>
      </trkpt>
      <trkpt lat="44.83346" lon="-0.57102">
        <ele>15.7</ele>
        <time>2024-08-03T15:43:13Z</time>
      </trkpt>
      <trkpt lat="44.83343" lon="-0.57102">
        <ele>15.7</ele>
        <time>2024-08-03T15:43:14Z</time>
      </trkpt>
      <trkpt lat="44.8334" lon="-0.57102">
        <ele>15.7</ele>
        <time>2024-08-03T15:43:15Z</time>
      </trkpt>
      <trkpt lat="44.83338" lon="-0.57102">
        <ele>15.7</ele>
        <time>2024-08-03T15:43:16Z</time>
      </trkpt>
      <trkpt lat="44.83336" lon="-0.57102">
        <ele>15.7</ele>
        <time>2024-08-03T15:43:17Z</time>
      </trkpt>
      <trkpt lat="44.83335" lon="-0.57103">
        <ele>15.7</ele>
        <time>2024-08-03T15:43:18Z</time>
      </trkpt>
      <trkpt lat="44.83331" lon="-0.57105">
        <ele>15.6</ele>
        <time>2024-08-03T15:43:19Z</time>
      </trkpt>
      <trkpt lat="44.8333" lon="-0.57106">
        <ele>15.6</ele>
        <time>2024-08-03T15:43:20Z</time>
      </trkpt>
      <trkpt lat="44.83327" lon="-0.57107">
        <ele>15.6</ele>
        <time>2024-08-03T15:43:21Z</time>
      </trkpt>
      <trkpt lat="44.83323" lon="-0.57107">
        <ele>15.6</ele>
        <time>2024-08-03T15:43:22Z</time>
      </trkpt>
      <trkpt lat="44.83322" lon="-0.57106">
        <ele>15.6</ele>
        <time>2024-08-03T15:43:23Z</time>
      </trkpt>
      <trkpt lat="44.83321" lon="-0.57105">
        <ele>15.6</ele>
        <time>2024-08-03T15:43:24Z</time>
      </trkpt>
      <trkpt lat="44.83319" lon="-0.57105">
        <ele>15.6</ele>
        <time>2024-08-03T15:43:25Z</time>
      </trkpt>
      <trkpt lat="44.83316" lon="-0.57106">
        <ele>15.6</ele>
        <time>2024-08-03T15:43:26Z</time>
      </trkpt>
      <trkpt lat="44.83315" lon="-0.57106">
        <ele>15.6</ele>
        <time>2024-08-03T15:43:27Z</time>
      </trkpt>
      <trkpt lat="44.83311" lon="-0.57105">
        <ele>15.6</ele>
        <time>2024-08-03T15:43:28Z</time>
      </trkpt>
      <trkpt lat="44.8331" lon="-0.57105">
        <ele>15.6</ele>
        <time>2024-08-03T15:43:29Z</time>
      </trkpt>
      <trkpt lat="44.83307" lon="-0.57104">
        <ele>15.6</ele>
        <time>2024-08-03T15:43:30Z</time>
      </trkpt>
      <trkpt lat="44.83303" lon="-0.57103">
        <ele>15.6</ele>
        <time>2024-08-03T15:43:31Z</time>
      </trkpt>
      <trkpt lat="44.83302" lon="-0.57102">
        <ele>15.6</ele>
        <time>2024-08-03T15:43:32Z</time>
      </trkpt>
      <trkpt lat="44.83299" lon="-0.57101">
        <ele>15.6</ele>
        <time>2024-08-03T15:43:33Z</time>
      </trkpt>
      <trkpt lat="44.83295" lon="-0.57098">
        <ele>15.6</ele>
        <time>2024-08-03T15:43:35Z</time>
      </trkpt>
      <trkpt lat="44.83292" lon="-0.57097">
        <ele>15.6</ele>
        <time>2024-08-03T15:43:36Z</time>
      </trkpt>
      <trkpt lat="44.83289" lon="-0.57096">
        <ele>15.7</ele>
        <time>2024-08-03T15:43:37Z</time>
      </trkpt>
      <trkpt lat="44.83287" lon="-0.57096">
        <ele>15.7</ele>
        <time>2024-08-03T15:43:38Z</time>
      </trkpt>
      <trkpt lat="44.83286" lon="-0.57096">
        <ele>15.7</ele>
        <time>2024-08-03T15:43:39Z</time>
      </trkpt>
      <trkpt lat="44.83282" lon="-0.57096">
        <ele>15.7</ele>
        <time>2024-08-03T15:43:41Z</time>
      </trkpt>
      <trkpt lat="44.83281" lon="-0.57096">
        <ele>15.8</ele>
        <time>2024-08-03T15:43:42Z</time>
      </trkpt>
      <trkpt lat="44.83279" lon="-0.57096">
        <ele>15.8</ele>
        <time>2024-08-03T15:43:43Z</time>
      </trkpt>
      <trkpt lat="44.83277" lon="-0.57096">
        <ele>15.8</ele>
        <time>2024-08-03T15:43:44Z</time>
      </trkpt>
      <trkpt lat="44.83274" lon="-0.57096">
        <ele>15.9</ele>
        <time>2024-08-03T15:43:45Z</time>
      </trkpt>
      <trkpt lat="44.83267" lon="-0.57099">
        <ele>16</ele>
        <time>2024-08-03T15:43:47Z</time>
      </trkpt>
      <trkpt lat="44.83266" lon="-0.57099">
        <ele>16</ele>
        <time>2024-08-03T15:43:48Z</time>
      </trkpt>
      <trkpt lat="44.83263" lon="-0.57101">
        <ele>16</ele>
        <time>2024-08-03T15:43:49Z</time>
      </trkpt>
      <trkpt lat="44.83259" lon="-0.57103">
        <ele>16.1</ele>
        <time>2024-08-03T15:43:50Z</time>
      </trkpt>
      <trkpt lat="44.83258" lon="-0.57105">
        <ele>16.1</ele>
        <time>2024-08-03T15:43:51Z</time>
      </trkpt>
      <trkpt lat="44.83255" lon="-0.5711">
        <ele>16.2</ele>
        <time>2024-08-03T15:43:53Z</time>
      </trkpt>
      <trkpt lat="44.83255" lon="-0.57113">
        <ele>16.2</ele>
        <time>2024-08-03T15:43:54Z</time>
      </trkpt>
      <trkpt lat="44.83254" lon="-0.57117">
        <ele>16.3</ele>
        <time>2024-08-03T15:43:55Z</time>
      </trkpt>
      <trkpt lat="44.83253" lon="-0.57122">
        <ele>16.3</ele>
        <time>2024-08-03T15:43:56Z</time>
      </trkpt>
      <trkpt lat="44.83253" lon="-0.57124">
        <ele>16.3</ele>
        <time>2024-08-03T15:43:57Z</time>
      </trkpt>
      <trkpt lat="44.83252" lon="-0.5713">
        <ele>16.4</ele>
        <time>2024-08-03T15:43:59Z</time>
      </trkpt>
      <trkpt lat="44.83251" lon="-0.57134">
        <ele>16.4</ele>
        <time>2024-08-03T15:44:00Z</time>
      </trkpt>
      <trkpt lat="44.83251" lon="-0.57136">
        <ele>16.4</ele>
        <time>2024-08-03T15:44:01Z</time>
      </trkpt>
      <trkpt lat="44.83251" lon="-0.57137">
        <ele>16.5</ele>
        <time>2024-08-03T15:44:02Z</time>
      </trkpt>
      <trkpt lat="44.8325" lon="-0.57139">
        <ele>16.5</ele>
        <time>2024-08-03T15:44:03Z</time>
      </trkpt>
      <trkpt lat="44.8325" lon="-0.57145">
        <ele>16.5</ele>
        <time>2024-08-03T15:44:05Z</time>
      </trkpt>
      <trkpt lat="44.8325" lon="-0.57148">
        <ele>16.6</ele>
        <time>2024-08-03T15:44:06Z</time>
      </trkpt>
      <trkpt lat="44.83249" lon="-0.5715">
        <ele>16.6</ele>
        <time>2024-08-03T15:44:07Z</time>
      </trkpt>
      <trkpt lat="44.83249" lon="-0.57152">
        <ele>16.6</ele>
        <time>2024-08-03T15:44:08Z</time>
      </trkpt>
      <trkpt lat="44.8325" lon="-0.57155">
        <ele>16.6</ele>
        <time>2024-08-03T15:44:09Z</time>
      </trkpt>
      <trkpt lat="44.83251" lon="-0.57162">
        <ele>16.7</ele>
        <time>2024-08-03T15:44:11Z</time>
      </trkpt>
      <trkpt lat="44.83251" lon="-0.57166">
        <ele>16.7</ele>
        <time>2024-08-03T15:44:12Z</time>
      </trkpt>
      <trkpt lat="44.83251" lon="-0.5717">
        <ele>16.8</ele>
        <time>2024-08-03T15:44:13Z</time>
      </trkpt>
      <trkpt lat="44.83251" lon="-0.57174">
        <ele>16.8</ele>
        <time>2024-08-03T15:44:14Z</time>
      </trkpt>
      <trkpt lat="44.83251" lon="-0.57179">
        <ele>16.8</ele>
        <time>2024-08-03T15:44:15Z</time>
      </trkpt>
      <trkpt lat="44.83251" lon="-0.57181">
        <ele>16.8</ele>
        <time>2024-08-03T15:44:16Z</time>
      </trkpt>
      <trkpt lat="44.83251" lon="-0.57185">
        <ele>16.8</ele>
        <time>2024-08-03T15:44:17Z</time>
      </trkpt>
      <trkpt lat="44.8325" lon="-0.5719">
        <ele>16.9</ele>
        <time>2024-08-03T15:44:18Z</time>
      </trkpt>
      <trkpt lat="44.8325" lon="-0.57194">
        <ele>16.9</ele>
        <time>2024-08-03T15:44:19Z</time>
      </trkpt>
      <trkpt lat="44.83251" lon="-0.57199">
        <ele>16.9</ele>
        <time>2024-08-03T15:44:20Z</time>
      </trkpt>
      <trkpt lat="44.83251" lon="-0.57202">
        <ele>16.9</ele>
        <time>2024-08-03T15:44:21Z</time>
      </trkpt>
      <trkpt lat="44.83251" lon="-0.57204">
        <ele>16.9</ele>
        <time>2024-08-03T15:44:22Z</time>
      </trkpt>
      <trkpt lat="44.8325" lon="-0.5721">
        <ele>17</ele>
        <time>2024-08-03T15:44:23Z</time>
      </trkpt>
      <trkpt lat="44.83247" lon="-0.57216">
        <ele>17</ele>
        <time>2024-08-03T15:44:25Z</time>
      </trkpt>
      <trkpt lat="44.83245" lon="-0.57217">
        <ele>17</ele>
        <time>2024-08-03T15:44:26Z</time>
      </trkpt>
      <trkpt lat="44.83245" lon="-0.57217">
        <ele>17</ele>
        <time>2024-08-03T15:44:27Z</time>
      </trkpt>
      <trkpt lat="44.83239" lon="-0.57218">
        <ele>17</ele>
        <time>2024-08-03T15:44:28Z</time>
      </trkpt>
      <trkpt lat="44.83237" lon="-0.57218">
        <ele>17</ele>
        <time>2024-08-03T15:44:29Z</time>
      </trkpt>
      <trkpt lat="44.83234" lon="-0.57218">
        <ele>17</ele>
        <time>2024-08-03T15:44:30Z</time>
      </trkpt>
      <trkpt lat="44.83233" lon="-0.57217">
        <ele>17</ele>
        <time>2024-08-03T15:44:31Z</time>
      </trkpt>
      <trkpt lat="44.83231" lon="-0.57217">
        <ele>17</ele>
        <time>2024-08-03T15:44:32Z</time>
      </trkpt>
      <trkpt lat="44.8323" lon="-0.57216">
        <ele>17</ele>
        <time>2024-08-03T15:44:33Z</time>
      </trkpt>
      <trkpt lat="44.83229" lon="-0.57216">
        <ele>17</ele>
        <time>2024-08-03T15:44:34Z</time>
      </trkpt>
      <trkpt lat="44.83228" lon="-0.57217">
        <ele>17</ele>
        <time>2024-08-03T15:44:35Z</time>
      </trkpt>
      <trkpt lat="44.83227" lon="-0.57217">
        <ele>17</ele>
        <time>2024-08-03T15:44:36Z</time>
      </trkpt>
      <trkpt lat="44.83226" lon="-0.57217">
        <ele>17</ele>
        <time>2024-08-03T15:44:37Z</time>
      </trkpt>
      <trkpt lat="44.83225" lon="-0.57217">
        <ele>17</ele>
        <time>2024-08-03T15:44:39Z</time>
      </trkpt>
      <trkpt lat="44.83225" lon="-0.57216">
        <ele>17</ele>
        <time>2024-08-03T15:44:40Z</time>
      </trkpt>
      <trkpt lat="44.83225" lon="-0.57216">
        <ele>17</ele>
        <time>2024-08-03T15:44:41Z</time>
      </trkpt>
      <trkpt lat="44.83225" lon="-0.57216">
        <ele>17</ele>
        <time>2024-08-03T15:44:42Z</time>
      </trkpt>
      <trkpt lat="44.83225" lon="-0.57216">
        <ele>17</ele>
        <time>2024-08-03T15:44:43Z</time>
      </trkpt>
      <trkpt lat="44.83224" lon="-0.57215">
        <ele>17</ele>
        <time>2024-08-03T15:44:45Z</time>
      </trkpt>
      <trkpt lat="44.83224" lon="-0.57215">
        <ele>17</ele>
        <time>2024-08-03T15:44:46Z</time>
      </trkpt>
      <trkpt lat="44.83222" lon="-0.57214">
        <ele>17</ele>
        <time>2024-08-03T15:44:47Z</time>
      </trkpt>
      <trkpt lat="44.83221" lon="-0.57214">
        <ele>17</ele>
        <time>2024-08-03T15:44:48Z</time>
      </trkpt>
      <trkpt lat="44.8322" lon="-0.57213">
        <ele>17</ele>
        <time>2024-08-03T15:44:49Z</time>
      </trkpt>
      <trkpt lat="44.83217" lon="-0.57213">
        <ele>17</ele>
        <time>2024-08-03T15:44:50Z</time>
      </trkpt>
      <trkpt lat="44.83215" lon="-0.57212">
        <ele>17</ele>
        <time>2024-08-03T15:44:51Z</time>
      </trkpt>
      <trkpt lat="44.83214" lon="-0.57212">
        <ele>17</ele>
        <time>2024-08-03T15:44:52Z</time>
      </trkpt>
      <trkpt lat="44.83213" lon="-0.57211">
        <ele>17</ele>
        <time>2024-08-03T15:44:53Z</time>
      </trkpt>
      <trkpt lat="44.83211" lon="-0.57211">
        <ele>17</ele>
        <time>2024-08-03T15:44:54Z</time>
      </trkpt>
      <trkpt lat="44.83211" lon="-0.57211">
        <ele>17</ele>
        <time>2024-08-03T15:44:55Z</time>
      </trkpt>
      <trkpt lat="44.83209" lon="-0.5721">
        <ele>17</ele>
        <time>2024-08-03T15:44:56Z</time>
      </trkpt>
      <trkpt lat="44.83208" lon="-0.5721">
        <ele>17</ele>
        <time>2024-08-03T15:44:57Z</time>
      </trkpt>
      <trkpt lat="44.83207" lon="-0.57209">
        <ele>17</ele>
        <time>2024-08-03T15:44:58Z</time>
      </trkpt>
      <trkpt lat="44.83205" lon="-0.57209">
        <ele>17</ele>
        <time>2024-08-03T15:44:59Z</time>
      </trkpt>
      <trkpt lat="44.83203" lon="-0.57208">
        <ele>17</ele>
        <time>2024-08-03T15:45:00Z</time>
      </trkpt>
      <trkpt lat="44.83202" lon="-0.57207">
        <ele>17</ele>
        <time>2024-08-03T15:45:01Z</time>
      </trkpt>
      <trkpt lat="44.832" lon="-0.57207">
        <ele>17</ele>
        <time>2024-08-03T15:45:02Z</time>
      </trkpt>
      <trkpt lat="44.83197" lon="-0.57207">
        <ele>17</ele>
        <time>2024-08-03T15:45:03Z</time>
      </trkpt>
      <trkpt lat="44.83196" lon="-0.57206">
        <ele>17</ele>
        <time>2024-08-03T15:45:04Z</time>
      </trkpt>
      <trkpt lat="44.83194" lon="-0.57206">
        <ele>17</ele>
        <time>2024-08-03T15:45:05Z</time>
      </trkpt>
      <trkpt lat="44.83188" lon="-0.57205">
        <ele>17</ele>
        <time>2024-08-03T15:45:07Z</time>
      </trkpt>
      <trkpt lat="44.83185" lon="-0.57205">
        <ele>17.1</ele>
        <time>2024-08-03T15:45:08Z</time>
      </trkpt>
      <trkpt lat="44.83182" lon="-0.57204">
        <ele>17.1</ele>
        <time>2024-08-03T15:45:09Z</time>
      </trkpt>
      <trkpt lat="44.83179" lon="-0.57204">
        <ele>17.1</ele>
        <time>2024-08-03T15:45:10Z</time>
      </trkpt>
      <trkpt lat="44.83178" lon="-0.57204">
        <ele>17.1</ele>
        <time>2024-08-03T15:45:11Z</time>
      </trkpt>
      <trkpt lat="44.83174" lon="-0.57203">
        <ele>17.2</ele>
        <time>2024-08-03T15:45:13Z</time>
      </trkpt>
      <trkpt lat="44.8317" lon="-0.57202">
        <ele>17.2</ele>
        <time>2024-08-03T15:45:14Z</time>
      </trkpt>
      <trkpt lat="44.83169" lon="-0.57201">
        <ele>17.2</ele>
        <time>2024-08-03T15:45:15Z</time>
      </trkpt>
      <trkpt lat="44.83166" lon="-0.572">
        <ele>17.2</ele>
        <time>2024-08-03T15:45:16Z</time>
      </trkpt>
      <trkpt lat="44.83164" lon="-0.572">
        <ele>17.2</ele>
        <time>2024-08-03T15:45:17Z</time>
      </trkpt>
      <trkpt lat="44.83162" lon="-0.572">
        <ele>17.2</ele>
        <time>2024-08-03T15:45:18Z</time>
      </trkpt>
      <trkpt lat="44.83159" lon="-0.57199">
        <ele>17.3</ele>
        <time>2024-08-03T15:45:19Z</time>
      </trkpt>
      <trkpt lat="44.83156" lon="-0.57199">
        <ele>17.3</ele>
        <time>2024-08-03T15:45:20Z</time>
      </trkpt>
      <trkpt lat="44.83154" lon="-0.57199">
        <ele>17.3</ele>
        <time>2024-08-03T15:45:21Z</time>
      </trkpt>
      <trkpt lat="44.83152" lon="-0.572">
        <ele>17.3</ele>
        <time>2024-08-03T15:45:22Z</time>
      </trkpt>
      <trkpt lat="44.83152" lon="-0.572">
        <ele>17.3</ele>
        <time>2024-08-03T15:45:23Z</time>
      </trkpt>
      <trkpt lat="44.8315" lon="-0.57202">
        <ele>17.3</ele>
        <time>2024-08-03T15:45:24Z</time>
      </trkpt>
      <trkpt lat="44.83148" lon="-0.57205">
        <ele>17.3</ele>
        <time>2024-08-03T15:45:25Z</time>
      </trkpt>
      <trkpt lat="44.83147" lon="-0.57206">
        <ele>17.3</ele>
        <time>2024-08-03T15:45:26Z</time>
      </trkpt>
      <trkpt lat="44.83143" lon="-0.57207">
        <ele>17.3</ele>
        <time>2024-08-03T15:45:27Z</time>
      </trkpt>
      <trkpt lat="44.83141" lon="-0.57207">
        <ele>17.2</ele>
        <time>2024-08-03T15:45:28Z</time>
      </trkpt>
      <trkpt lat="44.83138" lon="-0.57206">
        <ele>17.2</ele>
        <time>2024-08-03T15:45:29Z</time>
      </trkpt>
      <trkpt lat="44.83134" lon="-0.57203">
        <ele>17.2</ele>
        <time>2024-08-03T15:45:30Z</time>
      </trkpt>
      <trkpt lat="44.8313" lon="-0.57201">
        <ele>17.2</ele>
        <time>2024-08-03T15:45:31Z</time>
      </trkpt>
      <trkpt lat="44.83126" lon="-0.57198">
        <ele>17.1</ele>
        <time>2024-08-03T15:45:32Z</time>
      </trkpt>
      <trkpt lat="44.83123" lon="-0.57196">
        <ele>17.1</ele>
        <time>2024-08-03T15:45:33Z</time>
      </trkpt>
      <trkpt lat="44.83119" lon="-0.57193">
        <ele>17.1</ele>
        <time>2024-08-03T15:45:34Z</time>
      </trkpt>
      <trkpt lat="44.83116" lon="-0.57191">
        <ele>17.1</ele>
        <time>2024-08-03T15:45:35Z</time>
      </trkpt>
      <trkpt lat="44.8311" lon="-0.5719">
        <ele>17.1</ele>
        <time>2024-08-03T15:45:37Z</time>
      </trkpt>
      <trkpt lat="44.83108" lon="-0.5719">
        <ele>17.1</ele>
        <time>2024-08-03T15:45:38Z</time>
      </trkpt>
      <trkpt lat="44.83106" lon="-0.5719">
        <ele>17.1</ele>
        <time>2024-08-03T15:45:39Z</time>
      </trkpt>
      <trkpt lat="44.83105" lon="-0.57191">
        <ele>17.2</ele>
        <time>2024-08-03T15:45:40Z</time>
      </trkpt>
      <trkpt lat="44.83102" lon="-0.57192">
        <ele>17.2</ele>
        <time>2024-08-03T15:45:41Z</time>
      </trkpt>
      <trkpt lat="44.83098" lon="-0.57193">
        <ele>17.2</ele>
        <time>2024-08-03T15:45:43Z</time>
      </trkpt>
      <trkpt lat="44.83095" lon="-0.57193">
        <ele>17.2</ele>
        <time>2024-08-03T15:45:44Z</time>
      </trkpt>
      <trkpt lat="44.83092" lon="-0.57194">
        <ele>17.2</ele>
        <time>2024-08-03T15:45:45Z</time>
      </trkpt>
      <trkpt lat="44.83089" lon="-0.57196">
        <ele>17.3</ele>
        <time>2024-08-03T15:45:46Z</time>
      </trkpt>
      <trkpt lat="44.83087" lon="-0.57198">
        <ele>17.3</ele>
        <time>2024-08-03T15:45:47Z</time>
      </trkpt>
      <trkpt lat="44.83082" lon="-0.572">
        <ele>17.4</ele>
        <time>2024-08-03T15:45:49Z</time>
      </trkpt>
      <trkpt lat="44.8308" lon="-0.57201">
        <ele>17.4</ele>
        <time>2024-08-03T15:45:50Z</time>
      </trkpt>
      <trkpt lat="44.83077" lon="-0.57203">
        <ele>17.4</ele>
        <time>2024-08-03T15:45:51Z</time>
      </trkpt>
      <trkpt lat="44.83075" lon="-0.57207">
        <ele>17.5</ele>
        <time>2024-08-03T15:45:52Z</time>
      </trkpt>
      <trkpt lat="44.83075" lon="-0.57209">
        <ele>17.5</ele>
        <time>2024-08-03T15:45:53Z</time>
      </trkpt>
      <trkpt lat="44.83075" lon="-0.57216">
        <ele>17.5</ele>
        <time>2024-08-03T15:45:55Z</time>
      </trkpt>
      <trkpt lat="44.83074" lon="-0.57221">
        <ele>17.5</ele>
        <time>2024-08-03T15:45:56Z</time>
      </trkpt>
      <trkpt lat="44.83073" lon="-0.57225">
        <ele>17.5</ele>
        <time>2024-08-03T15:45:57Z</time>
      </trkpt>
      <trkpt lat="44.83072" lon="-0.57229">
        <ele>17.6</ele>
        <time>2024-08-03T15:45:58Z</time>
      </trkpt>
      <trkpt lat="44.83071" lon="-0.57231">
        <ele>17.6</ele>
        <time>2024-08-03T15:45:59Z</time>
      </trkpt>
      <trkpt lat="44.83067" lon="-0.57237">
        <ele>17.6</ele>
        <time>2024-08-03T15:46:01Z</time>
      </trkpt>
      <trkpt lat="44.83065" lon="-0.57241">
        <ele>17.6</ele>
        <time>2024-08-03T15:46:02Z</time>
      </trkpt>
      <trkpt lat="44.83064" lon="-0.57241">
        <ele>17.6</ele>
        <time>2024-08-03T15:46:03Z</time>
      </trkpt>
      <trkpt lat="44.83061" lon="-0.57243">
        <ele>17.7</ele>
        <time>2024-08-03T15:46:04Z</time>
      </trkpt>
      <trkpt lat="44.83061" lon="-0.57244">
        <ele>17.7</ele>
        <time>2024-08-03T15:46:05Z</time>
      </trkpt>
      <trkpt lat="44.83059" lon="-0.57246">
        <ele>17.7</ele>
        <time>2024-08-03T15:46:06Z</time>
      </trkpt>
      <trkpt lat="44.83058" lon="-0.57247">
        <ele>17.7</ele>
        <time>2024-08-03T15:46:07Z</time>
      </trkpt>
      <trkpt lat="44.83057" lon="-0.57247">
        <ele>17.7</ele>
        <time>2024-08-03T15:46:08Z</time>
      </trkpt>
      <trkpt lat="44.83056" lon="-0.57249">
        <ele>17.7</ele>
        <time>2024-08-03T15:46:09Z</time>
      </trkpt>
      <trkpt lat="44.83056" lon="-0.57251">
        <ele>17.7</ele>
        <time>2024-08-03T15:46:10Z</time>
      </trkpt>
      <trkpt lat="44.83055" lon="-0.57252">
        <ele>17.7</ele>
        <time>2024-08-03T15:46:11Z</time>
      </trkpt>
      <trkpt lat="44.83055" lon="-0.57255">
        <ele>17.8</ele>
        <time>2024-08-03T15:46:13Z</time>
      </trkpt>
      <trkpt lat="44.83054" lon="-0.57257">
        <ele>17.8</ele>
        <time>2024-08-03T15:46:14Z</time>
      </trkpt>
      <trkpt lat="44.83054" lon="-0.57258">
        <ele>17.8</ele>
        <time>2024-08-03T15:46:15Z</time>
      </trkpt>
      <trkpt lat="44.83053" lon="-0.57258">
        <ele>17.8</ele>
        <time>2024-08-03T15:46:16Z</time>
      </trkpt>
      <trkpt lat="44.83053" lon="-0.57258">
        <ele>17.8</ele>
        <time>2024-08-03T15:46:17Z</time>
      </trkpt>
      <trkpt lat="44.83053" lon="-0.57258">
        <ele>17.8</ele>
        <time>2024-08-03T15:46:19Z</time>
      </trkpt>
      <trkpt lat="44.83053" lon="-0.57258">
        <ele>17.8</ele>
        <time>2024-08-03T15:46:20Z</time>
      </trkpt>
      <trkpt lat="44.83053" lon="-0.57258">
        <ele>17.8</ele>
        <time>2024-08-03T15:46:21Z</time>
      </trkpt>
      <trkpt lat="44.83053" lon="-0.57258">
        <ele>17.8</ele>
        <time>2024-08-03T15:46:22Z</time>
      </trkpt>
      <trkpt lat="44.83053" lon="-0.57258">
        <ele>17.8</ele>
        <time>2024-08-03T15:46:23Z</time>
      </trkpt>
      <trkpt lat="44.83053" lon="-0.57257">
        <ele>17.8</ele>
        <time>2024-08-03T15:46:25Z</time>
      </trkpt>
      <trkpt lat="44.83054" lon="-0.57257">
        <ele>17.8</ele>
        <time>2024-08-03T15:46:26Z</time>
      </trkpt>
      <trkpt lat="44.83054" lon="-0.57257">
        <ele>17.8</ele>
        <time>2024-08-03T15:46:27Z</time>
      </trkpt>
      <trkpt lat="44.83054" lon="-0.57258">
        <ele>17.8</ele>
        <time>2024-08-03T15:46:28Z</time>
      </trkpt>
      <trkpt lat="44.83054" lon="-0.57258">
        <ele>17.8</ele>
        <time>2024-08-03T15:46:29Z</time>
      </trkpt>
      <trkpt lat="44.83053" lon="-0.5726">
        <ele>17.8</ele>
        <time>2024-08-03T15:46:31Z</time>
      </trkpt>
      <trkpt lat="44.83052" lon="-0.57261">
        <ele>17.8</ele>
        <time>2024-08-03T15:46:32Z</time>
      </trkpt>
      <trkpt lat="44.8305" lon="-0.57261">
        <ele>17.8</ele>
        <time>2024-08-03T15:46:33Z</time>
      </trkpt>
      <trkpt lat="44.83047" lon="-0.57263">
        <ele>17.9</ele>
        <time>2024-08-03T15:46:34Z</time>
      </trkpt>
      <trkpt lat="44.83045" lon="-0.57263">
        <ele>17.9</ele>
        <time>2024-08-03T15:46:35Z</time>
      </trkpt>
      <trkpt lat="44.83042" lon="-0.57266">
        <ele>17.9</ele>
        <time>2024-08-03T15:46:37Z</time>
      </trkpt>
      <trkpt lat="44.8304" lon="-0.57271">
        <ele>17.9</ele>
        <time>2024-08-03T15:46:38Z</time>
      </trkpt>
      <trkpt lat="44.8304" lon="-0.57272">
        <ele>17.8</ele>
        <time>2024-08-03T15:46:39Z</time>
      </trkpt>
      <trkpt lat="44.83038" lon="-0.57275">
        <ele>17.8</ele>
        <time>2024-08-03T15:46:40Z</time>
      </trkpt>
      <trkpt lat="44.83037" lon="-0.57276">
        <ele>17.8</ele>
        <time>2024-08-03T15:46:41Z</time>
      </trkpt>
      <trkpt lat="44.83033" lon="-0.5728">
        <ele>17.7</ele>
        <time>2024-08-03T15:46:43Z</time>
      </trkpt>
      <trkpt lat="44.83032" lon="-0.57282">
        <ele>17.7</ele>
        <time>2024-08-03T15:46:44Z</time>
      </trkpt>
      <trkpt lat="44.83031" lon="-0.57283">
        <ele>17.7</ele>
        <time>2024-08-03T15:46:45Z</time>
      </trkpt>
      <trkpt lat="44.83028" lon="-0.57284">
        <ele>17.7</ele>
        <time>2024-08-03T15:46:46Z</time>
      </trkpt>
      <trkpt lat="44.83027" lon="-0.57284">
        <ele>17.7</ele>
        <time>2024-08-03T15:46:47Z</time>
      </trkpt>
      <trkpt lat="44.83022" lon="-0.57285">
        <ele>17.6</ele>
        <time>2024-08-03T15:46:49Z</time>
      </trkpt>
      <trkpt lat="44.83021" lon="-0.57286">
        <ele>17.6</ele>
        <time>2024-08-03T15:46:50Z</time>
      </trkpt>
      <trkpt lat="44.8302" lon="-0.57286">
        <ele>17.6</ele>
        <time>2024-08-03T15:46:51Z</time>
      </trkpt>
      <trkpt lat="44.83016" lon="-0.57289">
        <ele>17.5</ele>
        <time>2024-08-03T15:46:52Z</time>
      </trkpt>
      <trkpt lat="44.83015" lon="-0.5729">
        <ele>17.5</ele>
        <time>2024-08-03T15:46:53Z</time>
      </trkpt>
      <trkpt lat="44.83011" lon="-0.57293">
        <ele>17.4</ele>
        <time>2024-08-03T15:46:55Z</time>
      </trkpt>
      <trkpt lat="44.83008" lon="-0.57296">
        <ele>17.4</ele>
        <time>2024-08-03T15:46:56Z</time>
      </trkpt>
      <trkpt lat="44.83006" lon="-0.57297">
        <ele>17.3</ele>
        <time>2024-08-03T15:46:57Z</time>
      </trkpt>
      <trkpt lat="44.83003" lon="-0.573">
        <ele>17.3</ele>
        <time>2024-08-03T15:46:58Z</time>
      </trkpt>
      <trkpt lat="44.83001" lon="-0.57303">
        <ele>17.2</ele>
        <time>2024-08-03T15:46:59Z</time>
      </trkpt>
      <trkpt lat="44.82998" lon="-0.57307">
        <ele>17.2</ele>
        <time>2024-08-03T15:47:00Z</time>
      </trkpt>
      <trkpt lat="44.82996" lon="-0.5731">
        <ele>17.2</ele>
        <time>2024-08-03T15:47:01Z</time>
      </trkpt>
      <trkpt lat="44.82994" lon="-0.57313">
        <ele>17.1</ele>
        <time>2024-08-03T15:47:02Z</time>
      </trkpt>
      <trkpt lat="44.82993" lon="-0.57315">
        <ele>17.1</ele>
        <time>2024-08-03T15:47:03Z</time>
      </trkpt>
      <trkpt lat="44.8299" lon="-0.57319">
        <ele>17</ele>
        <time>2024-08-03T15:47:04Z</time>
      </trkpt>
      <trkpt lat="44.8299" lon="-0.5732">
        <ele>17</ele>
        <time>2024-08-03T15:47:05Z</time>
      </trkpt>
      <trkpt lat="44.82988" lon="-0.57324">
        <ele>17</ele>
        <time>2024-08-03T15:47:06Z</time>
      </trkpt>
      <trkpt lat="44.82987" lon="-0.57326">
        <ele>16.9</ele>
        <time>2024-08-03T15:47:07Z</time>
      </trkpt>
      <trkpt lat="44.82983" lon="-0.57328">
        <ele>16.9</ele>
        <time>2024-08-03T15:47:08Z</time>
      </trkpt>
      <trkpt lat="44.82982" lon="-0.57329">
        <ele>16.8</ele>
        <time>2024-08-03T15:47:09Z</time>
      </trkpt>
      <trkpt lat="44.82979" lon="-0.5733">
        <ele>16.8</ele>
        <time>2024-08-03T15:47:10Z</time>
      </trkpt>
      <trkpt lat="44.82976" lon="-0.57331">
        <ele>16.7</ele>
        <time>2024-08-03T15:47:11Z</time>
      </trkpt>
      <trkpt lat="44.82972" lon="-0.57333">
        <ele>16.7</ele>
        <time>2024-08-03T15:47:13Z</time>
      </trkpt>
      <trkpt lat="44.8297" lon="-0.57336">
        <ele>16.6</ele>
        <time>2024-08-03T15:47:14Z</time>
      </trkpt>
      <trkpt lat="44.82969" lon="-0.57337">
        <ele>16.6</ele>
        <time>2024-08-03T15:47:15Z</time>
      </trkpt>
      <trkpt lat="44.82967" lon="-0.57341">
        <ele>16.6</ele>
        <time>2024-08-03T15:47:16Z</time>
      </trkpt>
      <trkpt lat="44.82966" lon="-0.57342">
        <ele>16.6</ele>
        <time>2024-08-03T15:47:17Z</time>
      </trkpt>
      <trkpt lat="44.82962" lon="-0.57346">
        <ele>16.5</ele>
        <time>2024-08-03T15:47:19Z</time>
      </trkpt>
      <trkpt lat="44.8296" lon="-0.57349">
        <ele>16.4</ele>
        <time>2024-08-03T15:47:20Z</time>
      </trkpt>
      <trkpt lat="44.82957" lon="-0.57352">
        <ele>16.4</ele>
        <time>2024-08-03T15:47:21Z</time>
      </trkpt>
      <trkpt lat="44.82954" lon="-0.57355">
        <ele>16.3</ele>
        <time>2024-08-03T15:47:22Z</time>
      </trkpt>
      <trkpt lat="44.82953" lon="-0.57356">
        <ele>16.3</ele>
        <time>2024-08-03T15:47:23Z</time>
      </trkpt>
      <trkpt lat="44.8295" lon="-0.5736">
        <ele>16.2</ele>
        <time>2024-08-03T15:47:25Z</time>
      </trkpt>
      <trkpt lat="44.82947" lon="-0.57362">
        <ele>16.2</ele>
        <time>2024-08-03T15:47:26Z</time>
      </trkpt>
      <trkpt lat="44.82944" lon="-0.57365">
        <ele>16.1</ele>
        <time>2024-08-03T15:47:27Z</time>
      </trkpt>
      <trkpt lat="44.82943" lon="-0.57366">
        <ele>16.1</ele>
        <time>2024-08-03T15:47:28Z</time>
      </trkpt>
      <trkpt lat="44.8294" lon="-0.57368">
        <ele>16</ele>
        <time>2024-08-03T15:47:29Z</time>
      </trkpt>
      <trkpt lat="44.82937" lon="-0.57371">
        <ele>16</ele>
        <time>2024-08-03T15:47:30Z</time>
      </trkpt>
      <trkpt lat="44.82935" lon="-0.57373">
        <ele>15.9</ele>
        <time>2024-08-03T15:47:31Z</time>
      </trkpt>
      <trkpt lat="44.82932" lon="-0.57375">
        <ele>15.9</ele>
        <time>2024-08-03T15:47:32Z</time>
      </trkpt>
      <trkpt lat="44.82929" lon="-0.57377">
        <ele>15.8</ele>
        <time>2024-08-03T15:47:33Z</time>
      </trkpt>
      <trkpt lat="44.82925" lon="-0.5738">
        <ele>15.7</ele>
        <time>2024-08-03T15:47:34Z</time>
      </trkpt>
      <trkpt lat="44.82924" lon="-0.57382">
        <ele>15.7</ele>
        <time>2024-08-03T15:47:35Z</time>
      </trkpt>
      <trkpt lat="44.82922" lon="-0.57383">
        <ele>15.7</ele>
        <time>2024-08-03T15:47:36Z</time>
      </trkpt>
      <trkpt lat="44.8292" lon="-0.57386">
        <ele>15.6</ele>
        <time>2024-08-03T15:47:37Z</time>
      </trkpt>
      <trkpt lat="44.82917" lon="-0.57389">
        <ele>15.6</ele>
        <time>2024-08-03T15:47:38Z</time>
      </trkpt>
      <trkpt lat="44.82916" lon="-0.5739">
        <ele>15.5</ele>
        <time>2024-08-03T15:47:39Z</time>
      </trkpt>
      <trkpt lat="44.82915" lon="-0.57391">
        <ele>15.5</ele>
        <time>2024-08-03T15:47:40Z</time>
      </trkpt>
      <trkpt lat="44.82915" lon="-0.57391">
        <ele>15.5</ele>
        <time>2024-08-03T15:47:41Z</time>
      </trkpt>
      <trkpt lat="44.82912" lon="-0.57393">
        <ele>15.5</ele>
        <time>2024-08-03T15:47:42Z</time>
      </trkpt>
      <trkpt lat="44.8291" lon="-0.57394">
        <ele>15.4</ele>
        <time>2024-08-03T15:47:43Z</time>
      </trkpt>
      <trkpt lat="44.82906" lon="-0.57396">
        <ele>15.4</ele>
        <time>2024-08-03T15:47:44Z</time>
      </trkpt>
      <trkpt lat="44.82905" lon="-0.57396">
        <ele>15.3</ele>
        <time>2024-08-03T15:47:45Z</time>
      </trkpt>
      <trkpt lat="44.82902" lon="-0.57399">
        <ele>15.3</ele>
        <time>2024-08-03T15:47:46Z</time>
      </trkpt>
      <trkpt lat="44.82901" lon="-0.574">
        <ele>15.3</ele>
        <time>2024-08-03T15:47:47Z</time>
      </trkpt>
      <trkpt lat="44.82899" lon="-0.57401">
        <ele>15.2</ele>
        <time>2024-08-03T15:47:48Z</time>
      </trkpt>
      <trkpt lat="44.82897" lon="-0.57403">
        <ele>15.2</ele>
        <time>2024-08-03T15:47:49Z</time>
      </trkpt>
      <trkpt lat="44.82895" lon="-0.57405">
        <ele>15.2</ele>
        <time>2024-08-03T15:47:50Z</time>
      </trkpt>
      <trkpt lat="44.82892" lon="-0.57409">
        <ele>15.1</ele>
        <time>2024-08-03T15:47:51Z</time>
      </trkpt>
      <trkpt lat="44.82891" lon="-0.5741">
        <ele>15.1</ele>
        <time>2024-08-03T15:47:52Z</time>
      </trkpt>
      <trkpt lat="44.82888" lon="-0.57413">
        <ele>15</ele>
        <time>2024-08-03T15:47:53Z</time>
      </trkpt>
      <trkpt lat="44.82886" lon="-0.57414">
        <ele>15</ele>
        <time>2024-08-03T15:47:54Z</time>
      </trkpt>
      <trkpt lat="44.82883" lon="-0.57417">
        <ele>15</ele>
        <time>2024-08-03T15:47:55Z</time>
      </trkpt>
      <trkpt lat="44.82882" lon="-0.57418">
        <ele>14.9</ele>
        <time>2024-08-03T15:47:56Z</time>
      </trkpt>
      <trkpt lat="44.82879" lon="-0.57421">
        <ele>14.9</ele>
        <time>2024-08-03T15:47:57Z</time>
      </trkpt>
      <trkpt lat="44.82875" lon="-0.57425">
        <ele>14.8</ele>
        <time>2024-08-03T15:47:59Z</time>
      </trkpt>
      <trkpt lat="44.82873" lon="-0.57427">
        <ele>14.8</ele>
        <time>2024-08-03T15:48:00Z</time>
      </trkpt>
      <trkpt lat="44.8287" lon="-0.57429">
        <ele>14.8</ele>
        <time>2024-08-03T15:48:01Z</time>
      </trkpt>
      <trkpt lat="44.82866" lon="-0.57431">
        <ele>14.7</ele>
        <time>2024-08-03T15:48:02Z</time>
      </trkpt>
      <trkpt lat="44.82865" lon="-0.57432">
        <ele>14.7</ele>
        <time>2024-08-03T15:48:03Z</time>
      </trkpt>
      <trkpt lat="44.82862" lon="-0.57434">
        <ele>14.7</ele>
        <time>2024-08-03T15:48:05Z</time>
      </trkpt>
      <trkpt lat="44.8286" lon="-0.57434">
        <ele>14.7</ele>
        <time>2024-08-03T15:48:06Z</time>
      </trkpt>
      <trkpt lat="44.82859" lon="-0.57435">
        <ele>14.7</ele>
        <time>2024-08-03T15:48:07Z</time>
      </trkpt>
      <trkpt lat="44.82858" lon="-0.57436">
        <ele>14.7</ele>
        <time>2024-08-03T15:48:08Z</time>
      </trkpt>
      <trkpt lat="44.82856" lon="-0.57437">
        <ele>14.7</ele>
        <time>2024-08-03T15:48:09Z</time>
      </trkpt>
      <trkpt lat="44.82853" lon="-0.57443">
        <ele>14.6</ele>
        <time>2024-08-03T15:48:11Z</time>
      </trkpt>
      <trkpt lat="44.8285" lon="-0.57446">
        <ele>14.6</ele>
        <time>2024-08-03T15:48:12Z</time>
      </trkpt>
      <trkpt lat="44.82848" lon="-0.57448">
        <ele>14.6</ele>
        <time>2024-08-03T15:48:13Z</time>
      </trkpt>
      <trkpt lat="44.82845" lon="-0.5745">
        <ele>14.6</ele>
        <time>2024-08-03T15:48:14Z</time>
      </trkpt>
      <trkpt lat="44.82842" lon="-0.57453">
        <ele>14.6</ele>
        <time>2024-08-03T15:48:15Z</time>
      </trkpt>
      <trkpt lat="44.82837" lon="-0.57457">
        <ele>14.6</ele>
        <time>2024-08-03T15:48:17Z</time>
      </trkpt>
      <trkpt lat="44.82834" lon="-0.57459">
        <ele>14.7</ele>
        <time>2024-08-03T15:48:18Z</time>
      </trkpt>
      <trkpt lat="44.82833" lon="-0.5746">
        <ele>14.7</ele>
        <time>2024-08-03T15:48:19Z</time>
      </trkpt>
      <trkpt lat="44.8283" lon="-0.57462">
        <ele>14.7</ele>
        <time>2024-08-03T15:48:20Z</time>
      </trkpt>
      <trkpt lat="44.82829" lon="-0.57463">
        <ele>14.7</ele>
        <time>2024-08-03T15:48:21Z</time>
      </trkpt>
      <trkpt lat="44.82824" lon="-0.57467">
        <ele>14.7</ele>
        <time>2024-08-03T15:48:23Z</time>
      </trkpt>
      <trkpt lat="44.82822" lon="-0.57469">
        <ele>14.7</ele>
        <time>2024-08-03T15:48:24Z</time>
      </trkpt>
      <trkpt lat="44.82819" lon="-0.57472">
        <ele>14.7</ele>
        <time>2024-08-03T15:48:25Z</time>
      </trkpt>
      <trkpt lat="44.82818" lon="-0.57473">
        <ele>14.7</ele>
        <time>2024-08-03T15:48:26Z</time>
      </trkpt>
      <trkpt lat="44.82816" lon="-0.57475">
        <ele>14.8</ele>
        <time>2024-08-03T15:48:27Z</time>
      </trkpt>
      <trkpt lat="44.82813" lon="-0.57479">
        <ele>14.8</ele>
        <time>2024-08-03T15:48:29Z</time>
      </trkpt>
      <trkpt lat="44.82811" lon="-0.57481">
        <ele>14.8</ele>
        <time>2024-08-03T15:48:30Z</time>
      </trkpt>
      <trkpt lat="44.82811" lon="-0.57482">
        <ele>14.8</ele>
        <time>2024-08-03T15:48:31Z</time>
      </trkpt>
      <trkpt lat="44.8281" lon="-0.57482">
        <ele>14.8</ele>
        <time>2024-08-03T15:48:32Z</time>
      </trkpt>
      <trkpt lat="44.82809" lon="-0.57484">
        <ele>14.8</ele>
        <time>2024-08-03T15:48:33Z</time>
      </trkpt>
      <trkpt lat="44.82804" lon="-0.5749">
        <ele>14.8</ele>
        <time>2024-08-03T15:48:35Z</time>
      </trkpt>
      <trkpt lat="44.82802" lon="-0.57493">
        <ele>14.9</ele>
        <time>2024-08-03T15:48:36Z</time>
      </trkpt>
      <trkpt lat="44.82799" lon="-0.57497">
        <ele>14.9</ele>
        <time>2024-08-03T15:48:37Z</time>
      </trkpt>
      <trkpt lat="44.82798" lon="-0.57498">
        <ele>14.9</ele>
        <time>2024-08-03T15:48:38Z</time>
      </trkpt>
      <trkpt lat="44.82796" lon="-0.57499">
        <ele>14.9</ele>
        <time>2024-08-03T15:48:39Z</time>
      </trkpt>
      <trkpt lat="44.82792" lon="-0.57502">
        <ele>15</ele>
        <time>2024-08-03T15:48:41Z</time>
      </trkpt>
      <trkpt lat="44.8279" lon="-0.57503">
        <ele>15</ele>
        <time>2024-08-03T15:48:42Z</time>
      </trkpt>
      <trkpt lat="44.82787" lon="-0.57506">
        <ele>15</ele>
        <time>2024-08-03T15:48:43Z</time>
      </trkpt>
      <trkpt lat="44.82785" lon="-0.57507">
        <ele>15</ele>
        <time>2024-08-03T15:48:44Z</time>
      </trkpt>
      <trkpt lat="44.82784" lon="-0.57511">
        <ele>15.1</ele>
        <time>2024-08-03T15:48:45Z</time>
      </trkpt>
      <trkpt lat="44.82782" lon="-0.57518">
        <ele>15.1</ele>
        <time>2024-08-03T15:48:47Z</time>
      </trkpt>
      <trkpt lat="44.82781" lon="-0.57522">
        <ele>15.2</ele>
        <time>2024-08-03T15:48:48Z</time>
      </trkpt>
      <trkpt lat="44.8278" lon="-0.57526">
        <ele>15.2</ele>
        <time>2024-08-03T15:48:49Z</time>
      </trkpt>
      <trkpt lat="44.82777" lon="-0.5753">
        <ele>15.2</ele>
        <time>2024-08-03T15:48:50Z</time>
      </trkpt>
      <trkpt lat="44.82777" lon="-0.57531">
        <ele>15.3</ele>
        <time>2024-08-03T15:48:51Z</time>
      </trkpt>
      <trkpt lat="44.82773" lon="-0.57536">
        <ele>15.3</ele>
        <time>2024-08-03T15:48:53Z</time>
      </trkpt>
      <trkpt lat="44.82771" lon="-0.5754">
        <ele>15.4</ele>
        <time>2024-08-03T15:48:54Z</time>
      </trkpt>
      <trkpt lat="44.8277" lon="-0.57541">
        <ele>15.4</ele>
        <time>2024-08-03T15:48:55Z</time>
      </trkpt>
      <trkpt lat="44.82767" lon="-0.57545">
        <ele>15.5</ele>
        <time>2024-08-03T15:48:56Z</time>
      </trkpt>
      <trkpt lat="44.82766" lon="-0.57546">
        <ele>15.5</ele>
        <time>2024-08-03T15:48:57Z</time>
      </trkpt>
      <trkpt lat="44.82762" lon="-0.57554">
        <ele>15.6</ele>
        <time>2024-08-03T15:48:59Z</time>
      </trkpt>
      <trkpt lat="44.8276" lon="-0.57558">
        <ele>15.7</ele>
        <time>2024-08-03T15:49:00Z</time>
      </trkpt>
      <trkpt lat="44.82758" lon="-0.57561">
        <ele>15.7</ele>
        <time>2024-08-03T15:49:01Z</time>
      </trkpt>
      <trkpt lat="44.82755" lon="-0.57563">
        <ele>15.8</ele>
        <time>2024-08-03T15:49:02Z</time>
      </trkpt>
      <trkpt lat="44.82754" lon="-0.57564">
        <ele>15.8</ele>
        <time>2024-08-03T15:49:03Z</time>
      </trkpt>
      <trkpt lat="44.82749" lon="-0.57566">
        <ele>15.9</ele>
        <time>2024-08-03T15:49:05Z</time>
      </trkpt>
      <trkpt lat="44.82746" lon="-0.57569">
        <ele>15.9</ele>
        <time>2024-08-03T15:49:06Z</time>
      </trkpt>
      <trkpt lat="44.82745" lon="-0.57569">
        <ele>15.9</ele>
        <time>2024-08-03T15:49:07Z</time>
      </trkpt>
      <trkpt lat="44.82742" lon="-0.57571">
        <ele>16</ele>
        <time>2024-08-03T15:49:08Z</time>
      </trkpt>
      <trkpt lat="44.82741" lon="-0.57571">
        <ele>16</ele>
        <time>2024-08-03T15:49:09Z</time>
      </trkpt>
      <trkpt lat="44.82737" lon="-0.57574">
        <ele>16</ele>
        <time>2024-08-03T15:49:11Z</time>
      </trkpt>
      <trkpt lat="44.82735" lon="-0.57577">
        <ele>16.1</ele>
        <time>2024-08-03T15:49:12Z</time>
      </trkpt>
      <trkpt lat="44.82734" lon="-0.57579">
        <ele>16.1</ele>
        <time>2024-08-03T15:49:13Z</time>
      </trkpt>
      <trkpt lat="44.82732" lon="-0.57583">
        <ele>16.1</ele>
        <time>2024-08-03T15:49:14Z</time>
      </trkpt>
      <trkpt lat="44.82731" lon="-0.57584">
        <ele>16.1</ele>
        <time>2024-08-03T15:49:15Z</time>
      </trkpt>
      <trkpt lat="44.82729" lon="-0.57588">
        <ele>16.2</ele>
        <time>2024-08-03T15:49:17Z</time>
      </trkpt>
      <trkpt lat="44.82726" lon="-0.57594">
        <ele>16.2</ele>
        <time>2024-08-03T15:49:19Z</time>
      </trkpt>
      <trkpt lat="44.82724" lon="-0.57597">
        <ele>16.3</ele>
        <time>2024-08-03T15:49:20Z</time>
      </trkpt>
      <trkpt lat="44.82723" lon="-0.57598">
        <ele>16.3</ele>
        <time>2024-08-03T15:49:21Z</time>
      </trkpt>
      <trkpt lat="44.82718" lon="-0.57603">
        <ele>16.3</ele>
        <time>2024-08-03T15:49:23Z</time>
      </trkpt>
      <trkpt lat="44.82715" lon="-0.57605">
        <ele>16.4</ele>
        <time>2024-08-03T15:49:24Z</time>
      </trkpt>
      <trkpt lat="44.82714" lon="-0.57606">
        <ele>16.4</ele>
        <time>2024-08-03T15:49:25Z</time>
      </trkpt>
      <trkpt lat="44.82711" lon="-0.57607">
        <ele>16.4</ele>
        <time>2024-08-03T15:49:26Z</time>
      </trkpt>
      <trkpt lat="44.82708" lon="-0.57609">
        <ele>16.4</ele>
        <time>2024-08-03T15:49:27Z</time>
      </trkpt>
      <trkpt lat="44.82704" lon="-0.57613">
        <ele>16.4</ele>
        <time>2024-08-03T15:49:29Z</time>
      </trkpt>
      <trkpt lat="44.82703" lon="-0.57614">
        <ele>16.4</ele>
        <time>2024-08-03T15:49:30Z</time>
      </trkpt>
      <trkpt lat="44.827" lon="-0.57617">
        <ele>16.5</ele>
        <time>2024-08-03T15:49:31Z</time>
      </trkpt>
      <trkpt lat="44.82699" lon="-0.57618">
        <ele>16.5</ele>
        <time>2024-08-03T15:49:32Z</time>
      </trkpt>
      <trkpt lat="44.82697" lon="-0.57621">
        <ele>16.5</ele>
        <time>2024-08-03T15:49:33Z</time>
      </trkpt>
      <trkpt lat="44.82694" lon="-0.57625">
        <ele>16.5</ele>
        <time>2024-08-03T15:49:35Z</time>
      </trkpt>
      <trkpt lat="44.82693" lon="-0.57629">
        <ele>16.5</ele>
        <time>2024-08-03T15:49:36Z</time>
      </trkpt>
      <trkpt lat="44.82692" lon="-0.57631">
        <ele>16.5</ele>
        <time>2024-08-03T15:49:37Z</time>
      </trkpt>
      <trkpt lat="44.8269" lon="-0.57634">
        <ele>16.5</ele>
        <time>2024-08-03T15:49:38Z</time>
      </trkpt>
      <trkpt lat="44.82689" lon="-0.57637">
        <ele>16.5</ele>
        <time>2024-08-03T15:49:39Z</time>
      </trkpt>
      <trkpt lat="44.82685" lon="-0.57643">
        <ele>16.4</ele>
        <time>2024-08-03T15:49:41Z</time>
      </trkpt>
      <trkpt lat="44.82683" lon="-0.57646">
        <ele>16.4</ele>
        <time>2024-08-03T15:49:42Z</time>
      </trkpt>
      <trkpt lat="44.82681" lon="-0.5765">
        <ele>16.4</ele>
        <time>2024-08-03T15:49:43Z</time>
      </trkpt>
      <trkpt lat="44.82679" lon="-0.57653">
        <ele>16.4</ele>
        <time>2024-08-03T15:49:44Z</time>
      </trkpt>
      <trkpt lat="44.82677" lon="-0.57656">
        <ele>16.3</ele>
        <time>2024-08-03T15:49:45Z</time>
      </trkpt>
      <trkpt lat="44.82672" lon="-0.57661">
        <ele>16.3</ele>
        <time>2024-08-03T15:49:47Z</time>
      </trkpt>
      <trkpt lat="44.82671" lon="-0.57662">
        <ele>16.2</ele>
        <time>2024-08-03T15:49:48Z</time>
      </trkpt>
      <trkpt lat="44.82668" lon="-0.57664">
        <ele>16.2</ele>
        <time>2024-08-03T15:49:49Z</time>
      </trkpt>
      <trkpt lat="44.82667" lon="-0.57665">
        <ele>16.2</ele>
        <time>2024-08-03T15:49:50Z</time>
      </trkpt>
      <trkpt lat="44.82665" lon="-0.57667">
        <ele>16.2</ele>
        <time>2024-08-03T15:49:51Z</time>
      </trkpt>
      <trkpt lat="44.82663" lon="-0.57669">
        <ele>16.1</ele>
        <time>2024-08-03T15:49:53Z</time>
      </trkpt>
      <trkpt lat="44.8266" lon="-0.5767">
        <ele>16.1</ele>
        <time>2024-08-03T15:49:54Z</time>
      </trkpt>
      <trkpt lat="44.82658" lon="-0.57672">
        <ele>16.1</ele>
        <time>2024-08-03T15:49:55Z</time>
      </trkpt>
      <trkpt lat="44.82657" lon="-0.57673">
        <ele>16</ele>
        <time>2024-08-03T15:49:56Z</time>
      </trkpt>
      <trkpt lat="44.82655" lon="-0.57675">
        <ele>16</ele>
        <time>2024-08-03T15:49:57Z</time>
      </trkpt>
      <trkpt lat="44.82651" lon="-0.57678">
        <ele>16</ele>
        <time>2024-08-03T15:49:59Z</time>
      </trkpt>
      <trkpt lat="44.8265" lon="-0.5768">
        <ele>15.9</ele>
        <time>2024-08-03T15:50:00Z</time>
      </trkpt>
      <trkpt lat="44.82647" lon="-0.57683">
        <ele>15.9</ele>
        <time>2024-08-03T15:50:01Z</time>
      </trkpt>
      <trkpt lat="44.82646" lon="-0.57684">
        <ele>15.9</ele>
        <time>2024-08-03T15:50:02Z</time>
      </trkpt>
      <trkpt lat="44.82644" lon="-0.57686">
        <ele>15.8</ele>
        <time>2024-08-03T15:50:03Z</time>
      </trkpt>
      <trkpt lat="44.82639" lon="-0.57692">
        <ele>15.8</ele>
        <time>2024-08-03T15:50:05Z</time>
      </trkpt>
      <trkpt lat="44.82638" lon="-0.57696">
        <ele>15.8</ele>
        <time>2024-08-03T15:50:06Z</time>
      </trkpt>
      <trkpt lat="44.82637" lon="-0.57697">
        <ele>15.7</ele>
        <time>2024-08-03T15:50:07Z</time>
      </trkpt>
      <trkpt lat="44.82635" lon="-0.57701">
        <ele>15.7</ele>
        <time>2024-08-03T15:50:08Z</time>
      </trkpt>
      <trkpt lat="44.82634" lon="-0.57702">
        <ele>15.7</ele>
        <time>2024-08-03T15:50:09Z</time>
      </trkpt>
      <trkpt lat="44.82628" lon="-0.57706">
        <ele>15.6</ele>
        <time>2024-08-03T15:50:11Z</time>
      </trkpt>
      <trkpt lat="44.82625" lon="-0.57707">
        <ele>15.6</ele>
        <time>2024-08-03T15:50:12Z</time>
      </trkpt>
      <trkpt lat="44.82621" lon="-0.57709">
        <ele>15.6</ele>
        <time>2024-08-03T15:50:13Z</time>
      </trkpt>
      <trkpt lat="44.82619" lon="-0.57712">
        <ele>15.5</ele>
        <time>2024-08-03T15:50:14Z</time>
      </trkpt>
      <trkpt lat="44.82616" lon="-0.57714">
        <ele>15.5</ele>
        <time>2024-08-03T15:50:15Z</time>
      </trkpt>
      <trkpt lat="44.82612" lon="-0.57717">
        <ele>15.5</ele>
        <time>2024-08-03T15:50:17Z</time>
      </trkpt>
      <trkpt lat="44.82609" lon="-0.57718">
        <ele>15.5</ele>
        <time>2024-08-03T15:50:18Z</time>
      </trkpt>
      <trkpt lat="44.82607" lon="-0.5772">
        <ele>15.5</ele>
        <time>2024-08-03T15:50:19Z</time>
      </trkpt>
      <trkpt lat="44.82604" lon="-0.57722">
        <ele>15.5</ele>
        <time>2024-08-03T15:50:20Z</time>
      </trkpt>
      <trkpt lat="44.82602" lon="-0.57723">
        <ele>15.5</ele>
        <time>2024-08-03T15:50:21Z</time>
      </trkpt>
      <trkpt lat="44.82598" lon="-0.57726">
        <ele>15.5</ele>
        <time>2024-08-03T15:50:23Z</time>
      </trkpt>
      <trkpt lat="44.82596" lon="-0.57727">
        <ele>15.5</ele>
        <time>2024-08-03T15:50:24Z</time>
      </trkpt>
      <trkpt lat="44.82595" lon="-0.57728">
        <ele>15.5</ele>
        <time>2024-08-03T15:50:25Z</time>
      </trkpt>
      <trkpt lat="44.82594" lon="-0.5773">
        <ele>15.5</ele>
        <time>2024-08-03T15:50:26Z</time>
      </trkpt>
      <trkpt lat="44.82592" lon="-0.57732">
        <ele>15.5</ele>
        <time>2024-08-03T15:50:27Z</time>
      </trkpt>
      <trkpt lat="44.82588" lon="-0.57736">
        <ele>15.5</ele>
        <time>2024-08-03T15:50:29Z</time>
      </trkpt>
      <trkpt lat="44.82587" lon="-0.57737">
        <ele>15.5</ele>
        <time>2024-08-03T15:50:30Z</time>
      </trkpt>
      <trkpt lat="44.82584" lon="-0.5774">
        <ele>15.5</ele>
        <time>2024-08-03T15:50:31Z</time>
      </trkpt>
      <trkpt lat="44.82583" lon="-0.57741">
        <ele>15.5</ele>
        <time>2024-08-03T15:50:32Z</time>
      </trkpt>
      <trkpt lat="44.8258" lon="-0.57743">
        <ele>15.5</ele>
        <time>2024-08-03T15:50:33Z</time>
      </trkpt>
      <trkpt lat="44.82575" lon="-0.57749">
        <ele>15.5</ele>
        <time>2024-08-03T15:50:35Z</time>
      </trkpt>
      <trkpt lat="44.82574" lon="-0.5775">
        <ele>15.5</ele>
        <time>2024-08-03T15:50:36Z</time>
      </trkpt>
      <trkpt lat="44.82572" lon="-0.57752">
        <ele>15.5</ele>
        <time>2024-08-03T15:50:37Z</time>
      </trkpt>
      <trkpt lat="44.8257" lon="-0.57755">
        <ele>15.5</ele>
        <time>2024-08-03T15:50:38Z</time>
      </trkpt>
      <trkpt lat="44.82568" lon="-0.57756">
        <ele>15.5</ele>
        <time>2024-08-03T15:50:39Z</time>
      </trkpt>
      <trkpt lat="44.82564" lon="-0.57757">
        <ele>15.6</ele>
        <time>2024-08-03T15:50:41Z</time>
      </trkpt>
      <trkpt lat="44.82563" lon="-0.57757">
        <ele>15.6</ele>
        <time>2024-08-03T15:50:42Z</time>
      </trkpt>
      <trkpt lat="44.82561" lon="-0.57758">
        <ele>15.6</ele>
        <time>2024-08-03T15:50:43Z</time>
      </trkpt>
      <trkpt lat="44.8256" lon="-0.57758">
        <ele>15.6</ele>
        <time>2024-08-03T15:50:44Z</time>
      </trkpt>
      <trkpt lat="44.82559" lon="-0.57758">
        <ele>15.6</ele>
        <time>2024-08-03T15:50:45Z</time>
      </trkpt>
      <trkpt lat="44.82557" lon="-0.5776">
        <ele>15.6</ele>
        <time>2024-08-03T15:50:46Z</time>
      </trkpt>
      <trkpt lat="44.82556" lon="-0.57761">
        <ele>15.6</ele>
        <time>2024-08-03T15:50:47Z</time>
      </trkpt>
      <trkpt lat="44.82553" lon="-0.57762">
        <ele>15.6</ele>
        <time>2024-08-03T15:50:48Z</time>
      </trkpt>
      <trkpt lat="44.82552" lon="-0.57763">
        <ele>15.6</ele>
        <time>2024-08-03T15:50:49Z</time>
      </trkpt>
      <trkpt lat="44.82551" lon="-0.57764">
        <ele>15.6</ele>
        <time>2024-08-03T15:50:50Z</time>
      </trkpt>
      <trkpt lat="44.82551" lon="-0.57764">
        <ele>15.6</ele>
        <time>2024-08-03T15:50:51Z</time>
      </trkpt>
      <trkpt lat="44.82549" lon="-0.57765">
        <ele>15.6</ele>
        <time>2024-08-03T15:50:52Z</time>
      </trkpt>
      <trkpt lat="44.82547" lon="-0.57766">
        <ele>15.6</ele>
        <time>2024-08-03T15:50:53Z</time>
      </trkpt>
      <trkpt lat="44.82546" lon="-0.57767">
        <ele>15.6</ele>
        <time>2024-08-03T15:50:54Z</time>
      </trkpt>
      <trkpt lat="44.82545" lon="-0.57768">
        <ele>15.6</ele>
        <time>2024-08-03T15:50:55Z</time>
      </trkpt>
      <trkpt lat="44.82543" lon="-0.57769">
        <ele>15.6</ele>
        <time>2024-08-03T15:50:56Z</time>
      </trkpt>
      <trkpt lat="44.82543" lon="-0.57769">
        <ele>15.6</ele>
        <time>2024-08-03T15:50:57Z</time>
      </trkpt>
      <trkpt lat="44.8254" lon="-0.57772">
        <ele>15.6</ele>
        <time>2024-08-03T15:50:58Z</time>
      </trkpt>
      <trkpt lat="44.82538" lon="-0.57773">
        <ele>15.6</ele>
        <time>2024-08-03T15:50:59Z</time>
      </trkpt>
      <trkpt lat="44.82537" lon="-0.57775">
        <ele>15.6</ele>
        <time>2024-08-03T15:51:00Z</time>
      </trkpt>
      <trkpt lat="44.82535" lon="-0.57776">
        <ele>15.6</ele>
        <time>2024-08-03T15:51:01Z</time>
      </trkpt>
      <trkpt lat="44.82533" lon="-0.57779">
        <ele>15.6</ele>
        <time>2024-08-03T15:51:02Z</time>
      </trkpt>
      <trkpt lat="44.82532" lon="-0.57779">
        <ele>15.6</ele>
        <time>2024-08-03T15:51:03Z</time>
      </trkpt>
      <trkpt lat="44.82531" lon="-0.57781">
        <ele>15.6</ele>
        <time>2024-08-03T15:51:04Z</time>
      </trkpt>
      <trkpt lat="44.8253" lon="-0.57782">
        <ele>15.6</ele>
        <time>2024-08-03T15:51:05Z</time>
      </trkpt>
      <trkpt lat="44.82528" lon="-0.57783">
        <ele>15.6</ele>
        <time>2024-08-03T15:51:06Z</time>
      </trkpt>
      <trkpt lat="44.82527" lon="-0.57784">
        <ele>15.6</ele>
        <time>2024-08-03T15:51:07Z</time>
      </trkpt>
      <trkpt lat="44.82526" lon="-0.57785">
        <ele>15.6</ele>
        <time>2024-08-03T15:51:08Z</time>
      </trkpt>
      <trkpt lat="44.82524" lon="-0.57787">
        <ele>15.6</ele>
        <time>2024-08-03T15:51:09Z</time>
      </trkpt>
      <trkpt lat="44.82523" lon="-0.57788">
        <ele>15.6</ele>
        <time>2024-08-03T15:51:10Z</time>
      </trkpt>
      <trkpt lat="44.82522" lon="-0.57789">
        <ele>15.6</ele>
        <time>2024-08-03T15:51:11Z</time>
      </trkpt>
      <trkpt lat="44.8252" lon="-0.57791">
        <ele>15.6</ele>
        <time>2024-08-03T15:51:12Z</time>
      </trkpt>
      <trkpt lat="44.82519" lon="-0.57792">
        <ele>15.6</ele>
        <time>2024-08-03T15:51:13Z</time>
      </trkpt>
      <trkpt lat="44.82518" lon="-0.57793">
        <ele>15.6</ele>
        <time>2024-08-03T15:51:14Z</time>
      </trkpt>
      <trkpt lat="44.82517" lon="-0.57794">
        <ele>15.6</ele>
        <time>2024-08-03T15:51:15Z</time>
      </trkpt>
      <trkpt lat="44.82515" lon="-0.57795">
        <ele>15.6</ele>
        <time>2024-08-03T15:51:16Z</time>
      </trkpt>
      <trkpt lat="44.82514" lon="-0.57796">
        <ele>15.6</ele>
        <time>2024-08-03T15:51:17Z</time>
      </trkpt>
      <trkpt lat="44.82513" lon="-0.57797">
        <ele>15.6</ele>
        <time>2024-08-03T15:51:18Z</time>
      </trkpt>
      <trkpt lat="44.82512" lon="-0.57798">
        <ele>15.7</ele>
        <time>2024-08-03T15:51:19Z</time>
      </trkpt>
      <trkpt lat="44.8251" lon="-0.578">
        <ele>15.7</ele>
        <time>2024-08-03T15:51:20Z</time>
      </trkpt>
      <trkpt lat="44.82509" lon="-0.57801">
        <ele>15.7</ele>
        <time>2024-08-03T15:51:21Z</time>
      </trkpt>
      <trkpt lat="44.82508" lon="-0.57801">
        <ele>15.7</ele>
        <time>2024-08-03T15:51:22Z</time>
      </trkpt>
      <trkpt lat="44.82507" lon="-0.57803">
        <ele>15.7</ele>
        <time>2024-08-03T15:51:23Z</time>
      </trkpt>
      <trkpt lat="44.82506" lon="-0.57803">
        <ele>15.7</ele>
        <time>2024-08-03T15:51:24Z</time>
      </trkpt>
      <trkpt lat="44.82505" lon="-0.57804">
        <ele>15.7</ele>
        <time>2024-08-03T15:51:25Z</time>
      </trkpt>
      <trkpt lat="44.82503" lon="-0.57806">
        <ele>15.7</ele>
        <time>2024-08-03T15:51:26Z</time>
      </trkpt>
      <trkpt lat="44.82503" lon="-0.57807">
        <ele>15.7</ele>
        <time>2024-08-03T15:51:27Z</time>
      </trkpt>
      <trkpt lat="44.82502" lon="-0.57808">
        <ele>15.7</ele>
        <time>2024-08-03T15:51:28Z</time>
      </trkpt>
      <trkpt lat="44.82501" lon="-0.57809">
        <ele>15.7</ele>
        <time>2024-08-03T15:51:29Z</time>
      </trkpt>
      <trkpt lat="44.825" lon="-0.5781">
        <ele>15.7</ele>
        <time>2024-08-03T15:51:30Z</time>
      </trkpt>
      <trkpt lat="44.82499" lon="-0.57812">
        <ele>15.7</ele>
        <time>2024-08-03T15:51:31Z</time>
      </trkpt>
      <trkpt lat="44.82498" lon="-0.57813">
        <ele>15.7</ele>
        <time>2024-08-03T15:51:32Z</time>
      </trkpt>
      <trkpt lat="44.82496" lon="-0.57814">
        <ele>15.7</ele>
        <time>2024-08-03T15:51:33Z</time>
      </trkpt>
      <trkpt lat="44.82495" lon="-0.57815">
        <ele>15.7</ele>
        <time>2024-08-03T15:51:34Z</time>
      </trkpt>
      <trkpt lat="44.82495" lon="-0.57815">
        <ele>15.7</ele>
        <time>2024-08-03T15:51:35Z</time>
      </trkpt>
      <trkpt lat="44.82492" lon="-0.57817">
        <ele>15.7</ele>
        <time>2024-08-03T15:51:36Z</time>
      </trkpt>
      <trkpt lat="44.82491" lon="-0.57818">
        <ele>15.7</ele>
        <time>2024-08-03T15:51:37Z</time>
      </trkpt>
      <trkpt lat="44.8249" lon="-0.57819">
        <ele>15.7</ele>
        <time>2024-08-03T15:51:38Z</time>
      </trkpt>
      <trkpt lat="44.82489" lon="-0.5782">
        <ele>15.7</ele>
        <time>2024-08-03T15:51:39Z</time>
      </trkpt>
      <trkpt lat="44.82488" lon="-0.57822">
        <ele>15.7</ele>
        <time>2024-08-03T15:51:40Z</time>
      </trkpt>
      <trkpt lat="44.82487" lon="-0.57822">
        <ele>15.7</ele>
        <time>2024-08-03T15:51:41Z</time>
      </trkpt>
      <trkpt lat="44.82486" lon="-0.57824">
        <ele>15.7</ele>
        <time>2024-08-03T15:51:42Z</time>
      </trkpt>
      <trkpt lat="44.82485" lon="-0.57824">
        <ele>15.7</ele>
        <time>2024-08-03T15:51:43Z</time>
      </trkpt>
      <trkpt lat="44.82483" lon="-0.57826">
        <ele>15.7</ele>
        <time>2024-08-03T15:51:44Z</time>
      </trkpt>
      <trkpt lat="44.82482" lon="-0.57827">
        <ele>15.7</ele>
        <time>2024-08-03T15:51:45Z</time>
      </trkpt>
      <trkpt lat="44.82481" lon="-0.57829">
        <ele>15.7</ele>
        <time>2024-08-03T15:51:46Z</time>
      </trkpt>
      <trkpt lat="44.8248" lon="-0.5783">
        <ele>15.7</ele>
        <time>2024-08-03T15:51:47Z</time>
      </trkpt>
      <trkpt lat="44.8248" lon="-0.57831">
        <ele>15.7</ele>
        <time>2024-08-03T15:51:48Z</time>
      </trkpt>
      <trkpt lat="44.82479" lon="-0.57833">
        <ele>15.8</ele>
        <time>2024-08-03T15:51:49Z</time>
      </trkpt>
      <trkpt lat="44.82478" lon="-0.57835">
        <ele>15.8</ele>
        <time>2024-08-03T15:51:50Z</time>
      </trkpt>
      <trkpt lat="44.82477" lon="-0.57836">
        <ele>15.8</ele>
        <time>2024-08-03T15:51:51Z</time>
      </trkpt>
      <trkpt lat="44.82476" lon="-0.57838">
        <ele>15.8</ele>
        <time>2024-08-03T15:51:52Z</time>
      </trkpt>
      <trkpt lat="44.82475" lon="-0.5784">
        <ele>15.8</ele>
        <time>2024-08-03T15:51:53Z</time>
      </trkpt>
      <trkpt lat="44.82473" lon="-0.57842">
        <ele>15.8</ele>
        <time>2024-08-03T15:51:55Z</time>
      </trkpt>
    </trkseg>
  </trk>
</gpx>